<?xml version="1.0" encoding="UTF-8"?>
<gpx version="1.1" creator="2bulu-scraper" xmlns="http://www.topografix.com/GPX/1/1">
  <metadata><name>内江隆昌市</name><desc>source: 2bulu.com trackId=83421031; exported 2026-09-01T17:59:30.732Z</desc>
    <bounds minlat="29.3195499" minlon="105.1900694" maxlat="29.3461506" maxlon="105.2602088"/>
    <link href="https://www.2bulu.com/track/t-cNPF7ODh29Tp%252FR2KBg5Tzw%253D%253D.htm"><text>2bulu 源页面</text></link>
  </metadata>
  <wpt lat="29.3459089" lon="105.2472295"><ele>319</ele><name>
        </name></wpt>
  <wpt lat="29.346113" lon="105.2440718"><ele>317</ele><name>
        </name></wpt>
  <wpt lat="29.3461501" lon="105.2438469"><ele>312</ele><name>
        </name></wpt>
  <wpt lat="29.3459699" lon="105.2436857"><ele>311</ele><name>
        </name></wpt>
  <wpt lat="29.3447762" lon="105.2380234"><ele>333</ele><name>
        </name></wpt>
  <wpt lat="29.3402735" lon="105.2361766"><ele>325</ele><name>
        </name></wpt>
  <wpt lat="29.3397494" lon="105.229349"><ele>311</ele><name>
        </name></wpt>
  <wpt lat="29.3320771" lon="105.2040574"><ele>326</ele><name>
        </name></wpt>
  <wpt lat="29.325038" lon="105.1900779"><ele>362</ele><name>
        </name></wpt>
  <wpt lat="29.3237085" lon="105.2102488"><ele>313</ele><name>
        </name></wpt>
  <wpt lat="29.3319516" lon="105.2352498"><ele>315</ele><name>
        </name></wpt>
  <wpt lat="29.3323202" lon="105.2382358"><ele>313</ele><name>
        </name></wpt>
  <wpt lat="29.3328343" lon="105.2413085"><ele>313</ele><name>
        </name></wpt>
  <wpt lat="29.3362914" lon="105.2600223"><ele>309</ele><name>
        </name></wpt>
  <trk><name>内江隆昌市</name>
      <trkseg>
        <trkpt lat="29.3366433" lon="105.260015"><ele>339</ele><time>2026-05-01T16:40:35.000Z</time></trkpt>
        <trkpt lat="29.33667" lon="105.2600633"><ele>339</ele><time>2026-05-01T16:40:45.000Z</time></trkpt>
        <trkpt lat="29.3367037" lon="105.2600397"><ele>331.3</ele><time>2026-05-01T16:40:49.000Z</time></trkpt>
        <trkpt lat="29.3367335" lon="105.2599931"><ele>326.91</ele><time>2026-05-01T16:40:53.000Z</time></trkpt>
        <trkpt lat="29.336776" lon="105.2599314"><ele>323.72</ele><time>2026-05-01T16:40:59.000Z</time></trkpt>
        <trkpt lat="29.3368217" lon="105.2598834"><ele>320.87</ele><time>2026-05-01T16:41:03.000Z</time></trkpt>
        <trkpt lat="29.3368756" lon="105.2598553"><ele>318.61</ele><time>2026-05-01T16:41:09.000Z</time></trkpt>
        <trkpt lat="29.3369193" lon="105.2598236"><ele>316.8</ele><time>2026-05-01T16:41:13.000Z</time></trkpt>
        <trkpt lat="29.3369511" lon="105.2597662"><ele>315.29</ele><time>2026-05-01T16:41:19.000Z</time></trkpt>
        <trkpt lat="29.3369738" lon="105.2597015"><ele>314.05</ele><time>2026-05-01T16:41:23.000Z</time></trkpt>
        <trkpt lat="29.3370025" lon="105.2596468"><ele>313.25</ele><time>2026-05-01T16:41:31.000Z</time></trkpt>
        <trkpt lat="29.3370256" lon="105.2595981"><ele>312.93</ele><time>2026-05-01T16:41:35.000Z</time></trkpt>
        <trkpt lat="29.3370431" lon="105.2595416"><ele>313</ele><time>2026-05-01T16:41:39.000Z</time></trkpt>
        <trkpt lat="29.3370451" lon="105.2594869"><ele>313.47</ele><time>2026-05-01T16:41:43.000Z</time></trkpt>
        <trkpt lat="29.3370445" lon="105.2594256"><ele>314.04</ele><time>2026-05-01T16:41:51.000Z</time></trkpt>
        <trkpt lat="29.3370565" lon="105.2593595"><ele>314.93</ele><time>2026-05-01T16:41:57.000Z</time></trkpt>
        <trkpt lat="29.3370764" lon="105.259292"><ele>315.78</ele><time>2026-05-01T16:42:01.000Z</time></trkpt>
        <trkpt lat="29.3371039" lon="105.2592281"><ele>316.48</ele><time>2026-05-01T16:42:05.000Z</time></trkpt>
        <trkpt lat="29.3371436" lon="105.259171"><ele>317.22</ele><time>2026-05-01T16:42:09.000Z</time></trkpt>
        <trkpt lat="29.3371858" lon="105.2591276"><ele>317.77</ele><time>2026-05-01T16:42:13.000Z</time></trkpt>
        <trkpt lat="29.3372153" lon="105.2590825"><ele>317.7</ele><time>2026-05-01T16:42:17.000Z</time></trkpt>
        <trkpt lat="29.3372257" lon="105.2590308"><ele>317.27</ele><time>2026-05-01T16:42:27.000Z</time></trkpt>
        <trkpt lat="29.3372445" lon="105.2589739"><ele>316.34</ele><time>2026-05-01T16:42:33.000Z</time></trkpt>
        <trkpt lat="29.3372563" lon="105.2589126"><ele>315.63</ele><time>2026-05-01T16:42:39.000Z</time></trkpt>
        <trkpt lat="29.3372444" lon="105.2588601"><ele>315.1</ele><time>2026-05-01T16:42:47.000Z</time></trkpt>
        <trkpt lat="29.3372431" lon="105.2587863"><ele>314.97</ele><time>2026-05-01T16:43:01.000Z</time></trkpt>
        <trkpt lat="29.3372473" lon="105.2587269"><ele>314.86</ele><time>2026-05-01T16:43:07.000Z</time></trkpt>
        <trkpt lat="29.3372562" lon="105.2586575"><ele>314.49</ele><time>2026-05-01T16:43:13.000Z</time></trkpt>
        <trkpt lat="29.3372767" lon="105.2585981"><ele>314.02</ele><time>2026-05-01T16:43:37.000Z</time></trkpt>
        <trkpt lat="29.3372685" lon="105.2585364"><ele>313.84</ele><time>2026-05-01T16:43:45.000Z</time></trkpt>
        <trkpt lat="29.3372315" lon="105.2584873"><ele>314.17</ele><time>2026-05-01T16:43:51.000Z</time></trkpt>
        <trkpt lat="29.3372477" lon="105.258498"><ele>314.4</ele><time>2026-05-01T16:44:05.000Z</time></trkpt>
        <trkpt lat="29.3372918" lon="105.2585259"><ele>314.31</ele><time>2026-05-01T16:44:09.000Z</time></trkpt>
        <trkpt lat="29.3373468" lon="105.2584927"><ele>314.35</ele><time>2026-05-01T16:44:17.000Z</time></trkpt>
        <trkpt lat="29.3374071" lon="105.258468"><ele>315.06</ele><time>2026-05-01T16:44:21.000Z</time></trkpt>
        <trkpt lat="29.337465" lon="105.2584408"><ele>315.68</ele><time>2026-05-01T16:44:25.000Z</time></trkpt>
        <trkpt lat="29.3374693" lon="105.2584006"><ele>316.2</ele><time>2026-05-01T16:44:43.000Z</time></trkpt>
        <trkpt lat="29.337501" lon="105.2583811"><ele>316.46</ele><time>2026-05-01T16:44:53.000Z</time></trkpt>
        <trkpt lat="29.3375555" lon="105.2583639"><ele>316.31</ele><time>2026-05-01T16:44:59.000Z</time></trkpt>
        <trkpt lat="29.3376106" lon="105.2583556"><ele>316.78</ele><time>2026-05-01T16:45:03.000Z</time></trkpt>
        <trkpt lat="29.3376684" lon="105.25833"><ele>317.22</ele><time>2026-05-01T16:45:09.000Z</time></trkpt>
        <trkpt lat="29.3377228" lon="105.2582974"><ele>317.12</ele><time>2026-05-01T16:45:15.000Z</time></trkpt>
        <trkpt lat="29.3377653" lon="105.2582591"><ele>316.51</ele><time>2026-05-01T16:45:19.000Z</time></trkpt>
        <trkpt lat="29.3377896" lon="105.2582005"><ele>315.99</ele><time>2026-05-01T16:45:25.000Z</time></trkpt>
        <trkpt lat="29.3378029" lon="105.2581365"><ele>315.48</ele><time>2026-05-01T16:45:35.000Z</time></trkpt>
        <trkpt lat="29.3378147" lon="105.2580757"><ele>315.4</ele><time>2026-05-01T16:45:41.000Z</time></trkpt>
        <trkpt lat="29.3378272" lon="105.2580172"><ele>315.36</ele><time>2026-05-01T16:45:45.000Z</time></trkpt>
        <trkpt lat="29.3378421" lon="105.2579473"><ele>315.55</ele><time>2026-05-01T16:45:51.000Z</time></trkpt>
        <trkpt lat="29.3378582" lon="105.257891"><ele>316</ele><time>2026-05-01T16:45:57.000Z</time></trkpt>
        <trkpt lat="29.3378697" lon="105.2578315"><ele>316.47</ele><time>2026-05-01T16:46:03.000Z</time></trkpt>
        <trkpt lat="29.3378684" lon="105.2577604"><ele>316.61</ele><time>2026-05-01T16:46:09.000Z</time></trkpt>
        <trkpt lat="29.3378562" lon="105.2576913"><ele>316.48</ele><time>2026-05-01T16:46:13.000Z</time></trkpt>
        <trkpt lat="29.3378473" lon="105.2576223"><ele>316.23</ele><time>2026-05-01T16:46:19.000Z</time></trkpt>
        <trkpt lat="29.3378367" lon="105.2575574"><ele>315.87</ele><time>2026-05-01T16:46:23.000Z</time></trkpt>
        <trkpt lat="29.3378385" lon="105.2574864"><ele>315.63</ele><time>2026-05-01T16:46:29.000Z</time></trkpt>
        <trkpt lat="29.3378376" lon="105.2574145"><ele>315.7</ele><time>2026-05-01T16:46:35.000Z</time></trkpt>
        <trkpt lat="29.3378414" lon="105.2573461"><ele>316.17</ele><time>2026-05-01T16:46:41.000Z</time></trkpt>
        <trkpt lat="29.3378518" lon="105.2572804"><ele>317.09</ele><time>2026-05-01T16:46:45.000Z</time></trkpt>
        <trkpt lat="29.3378693" lon="105.2572257"><ele>317.74</ele><time>2026-05-01T16:46:49.000Z</time></trkpt>
        <trkpt lat="29.3378838" lon="105.2571598"><ele>318.07</ele><time>2026-05-01T16:46:55.000Z</time></trkpt>
        <trkpt lat="29.3379116" lon="105.2571116"><ele>318.12</ele><time>2026-05-01T16:47:07.000Z</time></trkpt>
        <trkpt lat="29.3379341" lon="105.2570513"><ele>317.77</ele><time>2026-05-01T16:47:11.000Z</time></trkpt>
        <trkpt lat="29.33795" lon="105.2569858"><ele>317.48</ele><time>2026-05-01T16:47:17.000Z</time></trkpt>
        <trkpt lat="29.3379609" lon="105.256921"><ele>316.59</ele><time>2026-05-01T16:47:23.000Z</time></trkpt>
        <trkpt lat="29.3379752" lon="105.2568557"><ele>315.3</ele><time>2026-05-01T16:47:29.000Z</time></trkpt>
        <trkpt lat="29.3380063" lon="105.2567904"><ele>314.18</ele><time>2026-05-01T16:47:37.000Z</time></trkpt>
        <trkpt lat="29.3380196" lon="105.2567177"><ele>313.24</ele><time>2026-05-01T16:47:41.000Z</time></trkpt>
        <trkpt lat="29.3380394" lon="105.2566485"><ele>312.84</ele><time>2026-05-01T16:47:47.000Z</time></trkpt>
        <trkpt lat="29.3380421" lon="105.2565812"><ele>312.86</ele><time>2026-05-01T16:47:53.000Z</time></trkpt>
        <trkpt lat="29.3380358" lon="105.2565083"><ele>313.44</ele><time>2026-05-01T16:47:59.000Z</time></trkpt>
        <trkpt lat="29.3380284" lon="105.2564445"><ele>313.68</ele><time>2026-05-01T16:48:01.000Z</time></trkpt>
        <trkpt lat="29.3380166" lon="105.2563793"><ele>313.95</ele><time>2026-05-01T16:48:03.000Z</time></trkpt>
        <trkpt lat="29.3379963" lon="105.2563145"><ele>314.23</ele><time>2026-05-01T16:48:05.000Z</time></trkpt>
        <trkpt lat="29.337972" lon="105.2562572"><ele>314.56</ele><time>2026-05-01T16:48:07.000Z</time></trkpt>
        <trkpt lat="29.3379497" lon="105.2562077"><ele>314.75</ele><time>2026-05-01T16:48:09.000Z</time></trkpt>
        <trkpt lat="29.3379286" lon="105.2561517"><ele>315.03</ele><time>2026-05-01T16:48:11.000Z</time></trkpt>
        <trkpt lat="29.3379083" lon="105.2560877"><ele>315.4</ele><time>2026-05-01T16:48:13.000Z</time></trkpt>
        <trkpt lat="29.3378894" lon="105.2560257"><ele>315.92</ele><time>2026-05-01T16:48:15.000Z</time></trkpt>
        <trkpt lat="29.3378674" lon="105.2559687"><ele>316.43</ele><time>2026-05-01T16:48:17.000Z</time></trkpt>
        <trkpt lat="29.3378417" lon="105.2559225"><ele>316.5</ele><time>2026-05-01T16:48:21.000Z</time></trkpt>
        <trkpt lat="29.3378109" lon="105.2558799"><ele>316.16</ele><time>2026-05-01T16:48:31.000Z</time></trkpt>
        <trkpt lat="29.337786" lon="105.2558354"><ele>315.92</ele><time>2026-05-01T16:48:35.000Z</time></trkpt>
        <trkpt lat="29.3377713" lon="105.2557873"><ele>315.91</ele><time>2026-05-01T16:48:39.000Z</time></trkpt>
        <trkpt lat="29.3377552" lon="105.2557375"><ele>315.86</ele><time>2026-05-01T16:48:43.000Z</time></trkpt>
        <trkpt lat="29.3377517" lon="105.2556722"><ele>315.71</ele><time>2026-05-01T16:48:49.000Z</time></trkpt>
        <trkpt lat="29.3377551" lon="105.2556002"><ele>316.09</ele><time>2026-05-01T16:48:53.000Z</time></trkpt>
        <trkpt lat="29.3377501" lon="105.2555416"><ele>316.4</ele><time>2026-05-01T16:48:57.000Z</time></trkpt>
        <trkpt lat="29.3377363" lon="105.2554838"><ele>316.91</ele><time>2026-05-01T16:49:01.000Z</time></trkpt>
        <trkpt lat="29.3377268" lon="105.2554148"><ele>317.47</ele><time>2026-05-01T16:49:07.000Z</time></trkpt>
        <trkpt lat="29.3377194" lon="105.2553452"><ele>317.91</ele><time>2026-05-01T16:49:11.000Z</time></trkpt>
        <trkpt lat="29.337704" lon="105.2552884"><ele>318.04</ele><time>2026-05-01T16:49:17.000Z</time></trkpt>
        <trkpt lat="29.3376993" lon="105.2552316"><ele>317.72</ele><time>2026-05-01T16:49:21.000Z</time></trkpt>
        <trkpt lat="29.3376965" lon="105.2551718"><ele>317.41</ele><time>2026-05-01T16:49:25.000Z</time></trkpt>
        <trkpt lat="29.3376889" lon="105.255113"><ele>317.1</ele><time>2026-05-01T16:49:29.000Z</time></trkpt>
        <trkpt lat="29.3376781" lon="105.2550559"><ele>316.8</ele><time>2026-05-01T16:49:33.000Z</time></trkpt>
        <trkpt lat="29.3376661" lon="105.2549894"><ele>316.33</ele><time>2026-05-01T16:49:39.000Z</time></trkpt>
        <trkpt lat="29.3376577" lon="105.2549231"><ele>315.97</ele><time>2026-05-01T16:49:43.000Z</time></trkpt>
        <trkpt lat="29.3376534" lon="105.2548673"><ele>315.77</ele><time>2026-05-01T16:49:47.000Z</time></trkpt>
        <trkpt lat="29.3376303" lon="105.2548055"><ele>315.61</ele><time>2026-05-01T16:49:53.000Z</time></trkpt>
        <trkpt lat="29.3376039" lon="105.2547411"><ele>315.26</ele><time>2026-05-01T16:49:59.000Z</time></trkpt>
        <trkpt lat="29.3375772" lon="105.2546897"><ele>315.28</ele><time>2026-05-01T16:50:07.000Z</time></trkpt>
        <trkpt lat="29.3375735" lon="105.2546356"><ele>315.8</ele><time>2026-05-01T16:50:11.000Z</time></trkpt>
        <trkpt lat="29.3375824" lon="105.2545762"><ele>316.23</ele><time>2026-05-01T16:50:17.000Z</time></trkpt>
        <trkpt lat="29.3375848" lon="105.2545072"><ele>316.78</ele><time>2026-05-01T16:50:23.000Z</time></trkpt>
        <trkpt lat="29.3375798" lon="105.2544448"><ele>316.92</ele><time>2026-05-01T16:50:27.000Z</time></trkpt>
        <trkpt lat="29.3375705" lon="105.2543868"><ele>316.87</ele><time>2026-05-01T16:50:31.000Z</time></trkpt>
        <trkpt lat="29.3375624" lon="105.2543328"><ele>316.75</ele><time>2026-05-01T16:50:35.000Z</time></trkpt>
        <trkpt lat="29.3375526" lon="105.2542701"><ele>316.82</ele><time>2026-05-01T16:50:39.000Z</time></trkpt>
        <trkpt lat="29.3375499" lon="105.2542088"><ele>316.89</ele><time>2026-05-01T16:50:43.000Z</time></trkpt>
        <trkpt lat="29.3375486" lon="105.2541646"><ele>317.11</ele><time>2026-05-01T16:50:55.000Z</time></trkpt>
        <trkpt lat="29.3375713" lon="105.2541217"><ele>317.11</ele><time>2026-05-01T16:50:59.000Z</time></trkpt>
        <trkpt lat="29.3376101" lon="105.2540621"><ele>316.89</ele><time>2026-05-01T16:51:05.000Z</time></trkpt>
        <trkpt lat="29.3376495" lon="105.2540147"><ele>316.12</ele><time>2026-05-01T16:51:09.000Z</time></trkpt>
        <trkpt lat="29.3376775" lon="105.2539635"><ele>315.42</ele><time>2026-05-01T16:51:23.000Z</time></trkpt>
        <trkpt lat="29.3377055" lon="105.2539169"><ele>315.97</ele><time>2026-05-01T16:51:27.000Z</time></trkpt>
        <trkpt lat="29.3377185" lon="105.2538883"><ele>316.67</ele><time>2026-05-01T16:51:29.000Z</time></trkpt>
        <trkpt lat="29.3377563" lon="105.2538435"><ele>317.07</ele><time>2026-05-01T16:51:35.000Z</time></trkpt>
        <trkpt lat="29.3377913" lon="105.2538004"><ele>317.04</ele><time>2026-05-01T16:51:39.000Z</time></trkpt>
        <trkpt lat="29.3378321" lon="105.2537595"><ele>317.02</ele><time>2026-05-01T16:51:43.000Z</time></trkpt>
        <trkpt lat="29.3378783" lon="105.2537094"><ele>317.1</ele><time>2026-05-01T16:51:49.000Z</time></trkpt>
        <trkpt lat="29.3379073" lon="105.2536609"><ele>316.97</ele><time>2026-05-01T16:51:53.000Z</time></trkpt>
        <trkpt lat="29.3379356" lon="105.2535997"><ele>316.64</ele><time>2026-05-01T16:51:59.000Z</time></trkpt>
        <trkpt lat="29.3379694" lon="105.2535528"><ele>316.71</ele><time>2026-05-01T16:52:05.000Z</time></trkpt>
        <trkpt lat="29.3379918" lon="105.2535018"><ele>316.49</ele><time>2026-05-01T16:52:09.000Z</time></trkpt>
        <trkpt lat="29.3380124" lon="105.253449"><ele>316.41</ele><time>2026-05-01T16:52:13.000Z</time></trkpt>
        <trkpt lat="29.338043" lon="105.2534006"><ele>316.62</ele><time>2026-05-01T16:52:17.000Z</time></trkpt>
        <trkpt lat="29.3380763" lon="105.2533376"><ele>316.87</ele><time>2026-05-01T16:52:23.000Z</time></trkpt>
        <trkpt lat="29.3381091" lon="105.2532916"><ele>317.05</ele><time>2026-05-01T16:52:27.000Z</time></trkpt>
        <trkpt lat="29.3381401" lon="105.2532451"><ele>317.03</ele><time>2026-05-01T16:52:31.000Z</time></trkpt>
        <trkpt lat="29.3381703" lon="105.2531977"><ele>316.93</ele><time>2026-05-01T16:52:35.000Z</time></trkpt>
        <trkpt lat="29.338199" lon="105.2531511"><ele>316.7</ele><time>2026-05-01T16:52:41.000Z</time></trkpt>
        <trkpt lat="29.3382259" lon="105.2530959"><ele>316.57</ele><time>2026-05-01T16:52:45.000Z</time></trkpt>
        <trkpt lat="29.3382611" lon="105.2530337"><ele>316.63</ele><time>2026-05-01T16:52:49.000Z</time></trkpt>
        <trkpt lat="29.3382982" lon="105.2529881"><ele>316.57</ele><time>2026-05-01T16:52:53.000Z</time></trkpt>
        <trkpt lat="29.3383243" lon="105.252943"><ele>316.28</ele><time>2026-05-01T16:52:57.000Z</time></trkpt>
        <trkpt lat="29.3383186" lon="105.2528886"><ele>316.2</ele><time>2026-05-01T16:53:03.000Z</time></trkpt>
        <trkpt lat="29.3383167" lon="105.2528344"><ele>316.33</ele><time>2026-05-01T16:53:07.000Z</time></trkpt>
        <trkpt lat="29.3383032" lon="105.2527667"><ele>316.19</ele><time>2026-05-01T16:53:13.000Z</time></trkpt>
        <trkpt lat="29.3382788" lon="105.2526955"><ele>315.85</ele><time>2026-05-01T16:53:19.000Z</time></trkpt>
        <trkpt lat="29.3382552" lon="105.2526389"><ele>316.13</ele><time>2026-05-01T16:53:23.000Z</time></trkpt>
        <trkpt lat="29.338233" lon="105.2525895"><ele>316.03</ele><time>2026-05-01T16:53:27.000Z</time></trkpt>
        <trkpt lat="29.3382083" lon="105.2525385"><ele>315.63</ele><time>2026-05-01T16:53:31.000Z</time></trkpt>
        <trkpt lat="29.338189" lon="105.2524812"><ele>315.06</ele><time>2026-05-01T16:53:35.000Z</time></trkpt>
        <trkpt lat="29.3381708" lon="105.252429"><ele>314.78</ele><time>2026-05-01T16:53:39.000Z</time></trkpt>
        <trkpt lat="29.3381403" lon="105.2523725"><ele>314.66</ele><time>2026-05-01T16:53:45.000Z</time></trkpt>
        <trkpt lat="29.3381089" lon="105.2523181"><ele>314.55</ele><time>2026-05-01T16:53:51.000Z</time></trkpt>
        <trkpt lat="29.3380803" lon="105.2522596"><ele>314.57</ele><time>2026-05-01T16:53:57.000Z</time></trkpt>
        <trkpt lat="29.3380493" lon="105.252197"><ele>314.67</ele><time>2026-05-01T16:54:03.000Z</time></trkpt>
        <trkpt lat="29.338035" lon="105.2521394"><ele>314.68</ele><time>2026-05-01T16:54:07.000Z</time></trkpt>
        <trkpt lat="29.3380232" lon="105.2520727"><ele>314.69</ele><time>2026-05-01T16:54:11.000Z</time></trkpt>
        <trkpt lat="29.3380089" lon="105.2520038"><ele>314.69</ele><time>2026-05-01T16:54:15.000Z</time></trkpt>
        <trkpt lat="29.338002" lon="105.2519346"><ele>314.65</ele><time>2026-05-01T16:54:19.000Z</time></trkpt>
        <trkpt lat="29.3379888" lon="105.2518668"><ele>314.63</ele><time>2026-05-01T16:54:25.000Z</time></trkpt>
        <trkpt lat="29.3379866" lon="105.2518036"><ele>314.57</ele><time>2026-05-01T16:54:31.000Z</time></trkpt>
        <trkpt lat="29.337971" lon="105.2517496"><ele>314.24</ele><time>2026-05-01T16:54:37.000Z</time></trkpt>
        <trkpt lat="29.3379624" lon="105.2516974"><ele>313.92</ele><time>2026-05-01T16:54:41.000Z</time></trkpt>
        <trkpt lat="29.3379531" lon="105.2516365"><ele>313.57</ele><time>2026-05-01T16:54:45.000Z</time></trkpt>
        <trkpt lat="29.3379383" lon="105.251572"><ele>313.28</ele><time>2026-05-01T16:54:49.000Z</time></trkpt>
        <trkpt lat="29.3379191" lon="105.2515089"><ele>312.86</ele><time>2026-05-01T16:54:53.000Z</time></trkpt>
        <trkpt lat="29.3379046" lon="105.2514442"><ele>312.53</ele><time>2026-05-01T16:54:57.000Z</time></trkpt>
        <trkpt lat="29.3378887" lon="105.2513865"><ele>312.56</ele><time>2026-05-01T16:55:01.000Z</time></trkpt>
        <trkpt lat="29.3378771" lon="105.2513277"><ele>313.05</ele><time>2026-05-01T16:55:05.000Z</time></trkpt>
        <trkpt lat="29.3378684" lon="105.2512745"><ele>313.8</ele><time>2026-05-01T16:55:09.000Z</time></trkpt>
        <trkpt lat="29.337863" lon="105.2512094"><ele>314.58</ele><time>2026-05-01T16:55:15.000Z</time></trkpt>
        <trkpt lat="29.3378661" lon="105.2511472"><ele>315.36</ele><time>2026-05-01T16:55:19.000Z</time></trkpt>
        <trkpt lat="29.3378758" lon="105.2510902"><ele>316.15</ele><time>2026-05-01T16:55:23.000Z</time></trkpt>
        <trkpt lat="29.337901" lon="105.2510215"><ele>316.77</ele><time>2026-05-01T16:55:29.000Z</time></trkpt>
        <trkpt lat="29.3379424" lon="105.2509657"><ele>317.43</ele><time>2026-05-01T16:55:33.000Z</time></trkpt>
        <trkpt lat="29.337991" lon="105.2509189"><ele>317.89</ele><time>2026-05-01T16:55:37.000Z</time></trkpt>
        <trkpt lat="29.3380408" lon="105.2508713"><ele>318.28</ele><time>2026-05-01T16:55:41.000Z</time></trkpt>
        <trkpt lat="29.3380859" lon="105.2508214"><ele>318.63</ele><time>2026-05-01T16:55:45.000Z</time></trkpt>
        <trkpt lat="29.3381225" lon="105.2507802"><ele>318.71</ele><time>2026-05-01T16:55:49.000Z</time></trkpt>
        <trkpt lat="29.3381645" lon="105.2507298"><ele>318.36</ele><time>2026-05-01T16:55:55.000Z</time></trkpt>
        <trkpt lat="29.3382077" lon="105.2506779"><ele>317.69</ele><time>2026-05-01T16:56:01.000Z</time></trkpt>
        <trkpt lat="29.3382462" lon="105.2506358"><ele>317.05</ele><time>2026-05-01T16:56:05.000Z</time></trkpt>
        <trkpt lat="29.3382942" lon="105.2506037"><ele>316.81</ele><time>2026-05-01T16:56:11.000Z</time></trkpt>
        <trkpt lat="29.3383295" lon="105.2505572"><ele>316.59</ele><time>2026-05-01T16:56:15.000Z</time></trkpt>
        <trkpt lat="29.3383586" lon="105.2505073"><ele>316.64</ele><time>2026-05-01T16:56:19.000Z</time></trkpt>
        <trkpt lat="29.3383821" lon="105.2504553"><ele>316.97</ele><time>2026-05-01T16:56:23.000Z</time></trkpt>
        <trkpt lat="29.3383966" lon="105.2504028"><ele>317.32</ele><time>2026-05-01T16:56:27.000Z</time></trkpt>
        <trkpt lat="29.3384022" lon="105.2503468"><ele>317.7</ele><time>2026-05-01T16:56:31.000Z</time></trkpt>
        <trkpt lat="29.3383979" lon="105.2502934"><ele>317.83</ele><time>2026-05-01T16:56:35.000Z</time></trkpt>
        <trkpt lat="29.3383809" lon="105.2502325"><ele>318.03</ele><time>2026-05-01T16:56:39.000Z</time></trkpt>
        <trkpt lat="29.3383665" lon="105.2501714"><ele>318.15</ele><time>2026-05-01T16:56:43.000Z</time></trkpt>
        <trkpt lat="29.3383505" lon="105.2501119"><ele>317.91</ele><time>2026-05-01T16:56:47.000Z</time></trkpt>
        <trkpt lat="29.338332" lon="105.2500519"><ele>317.65</ele><time>2026-05-01T16:56:51.000Z</time></trkpt>
        <trkpt lat="29.3383192" lon="105.2499969"><ele>317.11</ele><time>2026-05-01T16:56:55.000Z</time></trkpt>
        <trkpt lat="29.338305" lon="105.2499311"><ele>316.25</ele><time>2026-05-01T16:57:01.000Z</time></trkpt>
        <trkpt lat="29.3382877" lon="105.2498699"><ele>315.28</ele><time>2026-05-01T16:57:09.000Z</time></trkpt>
        <trkpt lat="29.3382768" lon="105.2498059"><ele>314.39</ele><time>2026-05-01T16:57:15.000Z</time></trkpt>
        <trkpt lat="29.3382696" lon="105.2497433"><ele>313.53</ele><time>2026-05-01T16:57:19.000Z</time></trkpt>
        <trkpt lat="29.3382685" lon="105.2496865"><ele>312.74</ele><time>2026-05-01T16:57:23.000Z</time></trkpt>
        <trkpt lat="29.3382669" lon="105.2496279"><ele>312.17</ele><time>2026-05-01T16:57:27.000Z</time></trkpt>
        <trkpt lat="29.3382707" lon="105.2495709"><ele>311.97</ele><time>2026-05-01T16:57:31.000Z</time></trkpt>
        <trkpt lat="29.3382839" lon="105.2495044"><ele>312.11</ele><time>2026-05-01T16:57:37.000Z</time></trkpt>
        <trkpt lat="29.3383075" lon="105.2494418"><ele>312.28</ele><time>2026-05-01T16:57:43.000Z</time></trkpt>
        <trkpt lat="29.3383467" lon="105.2493924"><ele>312.93</ele><time>2026-05-01T16:57:47.000Z</time></trkpt>
        <trkpt lat="29.3383957" lon="105.2493591"><ele>313.69</ele><time>2026-05-01T16:57:51.000Z</time></trkpt>
        <trkpt lat="29.3384431" lon="105.2493422"><ele>314.73</ele><time>2026-05-01T16:57:57.000Z</time></trkpt>
        <trkpt lat="29.3384988" lon="105.2493301"><ele>316.65</ele><time>2026-05-01T16:58:03.000Z</time></trkpt>
        <trkpt lat="29.3385593" lon="105.2493419"><ele>318.74</ele><time>2026-05-01T16:58:09.000Z</time></trkpt>
        <trkpt lat="29.3386083" lon="105.2493664"><ele>320.4</ele><time>2026-05-01T16:58:13.000Z</time></trkpt>
        <trkpt lat="29.338655" lon="105.2493999"><ele>321.52</ele><time>2026-05-01T16:58:17.000Z</time></trkpt>
        <trkpt lat="29.3386973" lon="105.249435"><ele>322.5</ele><time>2026-05-01T16:58:21.000Z</time></trkpt>
        <trkpt lat="29.3387346" lon="105.2494768"><ele>323.02</ele><time>2026-05-01T16:58:25.000Z</time></trkpt>
        <trkpt lat="29.3387791" lon="105.249524"><ele>323.18</ele><time>2026-05-01T16:58:31.000Z</time></trkpt>
        <trkpt lat="29.3388293" lon="105.2495736"><ele>323.4</ele><time>2026-05-01T16:58:37.000Z</time></trkpt>
        <trkpt lat="29.3388727" lon="105.2496233"><ele>323.14</ele><time>2026-05-01T16:58:43.000Z</time></trkpt>
        <trkpt lat="29.3389144" lon="105.2496588"><ele>322.78</ele><time>2026-05-01T16:58:47.000Z</time></trkpt>
        <trkpt lat="29.338962" lon="105.2496926"><ele>322.4</ele><time>2026-05-01T16:58:51.000Z</time></trkpt>
        <trkpt lat="29.3390081" lon="105.2497214"><ele>322.1</ele><time>2026-05-01T16:58:55.000Z</time></trkpt>
        <trkpt lat="29.3390522" lon="105.24974"><ele>321.93</ele><time>2026-05-01T16:58:59.000Z</time></trkpt>
        <trkpt lat="29.3391081" lon="105.2497591"><ele>321.87</ele><time>2026-05-01T16:59:05.000Z</time></trkpt>
        <trkpt lat="29.3391671" lon="105.2497843"><ele>321.33</ele><time>2026-05-01T16:59:11.000Z</time></trkpt>
        <trkpt lat="29.3392291" lon="105.2498146"><ele>320.45</ele><time>2026-05-01T16:59:17.000Z</time></trkpt>
        <trkpt lat="29.3392805" lon="105.2498417"><ele>319.61</ele><time>2026-05-01T16:59:21.000Z</time></trkpt>
        <trkpt lat="29.3393251" lon="105.2498684"><ele>318.96</ele><time>2026-05-01T16:59:25.000Z</time></trkpt>
        <trkpt lat="29.3393638" lon="105.2498963"><ele>318.38</ele><time>2026-05-01T16:59:29.000Z</time></trkpt>
        <trkpt lat="29.3394096" lon="105.2499097"><ele>317.91</ele><time>2026-05-01T16:59:35.000Z</time></trkpt>
        <trkpt lat="29.339455" lon="105.2499213"><ele>317.52</ele><time>2026-05-01T16:59:39.000Z</time></trkpt>
        <trkpt lat="29.3395051" lon="105.249942"><ele>317.12</ele><time>2026-05-01T16:59:43.000Z</time></trkpt>
        <trkpt lat="29.3395544" lon="105.2499626"><ele>316.68</ele><time>2026-05-01T16:59:47.000Z</time></trkpt>
        <trkpt lat="29.3396107" lon="105.2499905"><ele>316.3</ele><time>2026-05-01T16:59:51.000Z</time></trkpt>
        <trkpt lat="29.3396607" lon="105.2500085"><ele>316.04</ele><time>2026-05-01T16:59:55.000Z</time></trkpt>
        <trkpt lat="29.3397105" lon="105.2500223"><ele>315.98</ele><time>2026-05-01T16:59:59.000Z</time></trkpt>
        <trkpt lat="29.3397552" lon="105.2500387"><ele>315.77</ele><time>2026-05-01T17:00:03.000Z</time></trkpt>
        <trkpt lat="29.3398083" lon="105.2500602"><ele>315.48</ele><time>2026-05-01T17:00:09.000Z</time></trkpt>
        <trkpt lat="29.3398671" lon="105.2500798"><ele>315.23</ele><time>2026-05-01T17:00:15.000Z</time></trkpt>
        <trkpt lat="29.3399204" lon="105.2500898"><ele>315.86</ele><time>2026-05-01T17:00:19.000Z</time></trkpt>
        <trkpt lat="29.3399823" lon="105.2500987"><ele>316.48</ele><time>2026-05-01T17:00:27.000Z</time></trkpt>
        <trkpt lat="29.3400425" lon="105.2501127"><ele>317.13</ele><time>2026-05-01T17:00:31.000Z</time></trkpt>
        <trkpt lat="29.3400953" lon="105.2501202"><ele>317.46</ele><time>2026-05-01T17:00:35.000Z</time></trkpt>
        <trkpt lat="29.3401441" lon="105.2501301"><ele>317.65</ele><time>2026-05-01T17:00:39.000Z</time></trkpt>
        <trkpt lat="29.3401854" lon="105.2501614"><ele>317.33</ele><time>2026-05-01T17:00:43.000Z</time></trkpt>
        <trkpt lat="29.3402019" lon="105.2502192"><ele>316.76</ele><time>2026-05-01T17:00:49.000Z</time></trkpt>
        <trkpt lat="29.3402299" lon="105.2502743"><ele>315.4</ele><time>2026-05-01T17:00:53.000Z</time></trkpt>
        <trkpt lat="29.3402651" lon="105.2503276"><ele>314.5</ele><time>2026-05-01T17:00:57.000Z</time></trkpt>
        <trkpt lat="29.3402995" lon="105.2503705"><ele>313.59</ele><time>2026-05-01T17:01:01.000Z</time></trkpt>
        <trkpt lat="29.3403383" lon="105.250418"><ele>312.87</ele><time>2026-05-01T17:01:07.000Z</time></trkpt>
        <trkpt lat="29.3403736" lon="105.2504662"><ele>311.93</ele><time>2026-05-01T17:01:11.000Z</time></trkpt>
        <trkpt lat="29.3403998" lon="105.2505122"><ele>311.32</ele><time>2026-05-01T17:01:15.000Z</time></trkpt>
        <trkpt lat="29.340434" lon="105.2505485"><ele>311.05</ele><time>2026-05-01T17:01:19.000Z</time></trkpt>
        <trkpt lat="29.3404617" lon="105.2506039"><ele>310.51</ele><time>2026-05-01T17:01:25.000Z</time></trkpt>
        <trkpt lat="29.3404892" lon="105.2506818"><ele>309.69</ele><time>2026-05-01T17:01:31.000Z</time></trkpt>
        <trkpt lat="29.3405196" lon="105.2507548"><ele>309.14</ele><time>2026-05-01T17:01:35.000Z</time></trkpt>
        <trkpt lat="29.3405485" lon="105.2508092"><ele>308.69</ele><time>2026-05-01T17:01:39.000Z</time></trkpt>
        <trkpt lat="29.3405795" lon="105.2508488"><ele>308.48</ele><time>2026-05-01T17:01:43.000Z</time></trkpt>
        <trkpt lat="29.3406262" lon="105.2508925"><ele>308.53</ele><time>2026-05-01T17:01:49.000Z</time></trkpt>
        <trkpt lat="29.3406723" lon="105.2509388"><ele>308.69</ele><time>2026-05-01T17:01:53.000Z</time></trkpt>
        <trkpt lat="29.3407135" lon="105.2509889"><ele>309.12</ele><time>2026-05-01T17:01:57.000Z</time></trkpt>
        <trkpt lat="29.3407462" lon="105.2510318"><ele>309.76</ele><time>2026-05-01T17:02:03.000Z</time></trkpt>
        <trkpt lat="29.3407834" lon="105.2510782"><ele>310.12</ele><time>2026-05-01T17:02:09.000Z</time></trkpt>
        <trkpt lat="29.3408252" lon="105.2511311"><ele>310.97</ele><time>2026-05-01T17:02:15.000Z</time></trkpt>
        <trkpt lat="29.3408574" lon="105.2511776"><ele>312.23</ele><time>2026-05-01T17:02:19.000Z</time></trkpt>
        <trkpt lat="29.3408921" lon="105.2512226"><ele>313.21</ele><time>2026-05-01T17:02:23.000Z</time></trkpt>
        <trkpt lat="29.3409144" lon="105.2512723"><ele>314.15</ele><time>2026-05-01T17:02:27.000Z</time></trkpt>
        <trkpt lat="29.3409409" lon="105.2513364"><ele>315.08</ele><time>2026-05-01T17:02:33.000Z</time></trkpt>
        <trkpt lat="29.340961" lon="105.2513942"><ele>315.69</ele><time>2026-05-01T17:02:37.000Z</time></trkpt>
        <trkpt lat="29.3409738" lon="105.2514502"><ele>316.34</ele><time>2026-05-01T17:02:43.000Z</time></trkpt>
        <trkpt lat="29.3409794" lon="105.2515029"><ele>316.67</ele><time>2026-05-01T17:02:47.000Z</time></trkpt>
        <trkpt lat="29.3409817" lon="105.2515581"><ele>316.85</ele><time>2026-05-01T17:02:51.000Z</time></trkpt>
        <trkpt lat="29.3409849" lon="105.2516158"><ele>316.87</ele><time>2026-05-01T17:02:55.000Z</time></trkpt>
        <trkpt lat="29.3409851" lon="105.251673"><ele>316.8</ele><time>2026-05-01T17:02:59.000Z</time></trkpt>
        <trkpt lat="29.3409883" lon="105.2517349"><ele>316.71</ele><time>2026-05-01T17:03:03.000Z</time></trkpt>
        <trkpt lat="29.3409879" lon="105.2518035"><ele>316.28</ele><time>2026-05-01T17:03:07.000Z</time></trkpt>
        <trkpt lat="29.3409861" lon="105.2518793"><ele>315.81</ele><time>2026-05-01T17:03:15.000Z</time></trkpt>
        <trkpt lat="29.340994" lon="105.2519534"><ele>315.25</ele><time>2026-05-01T17:03:19.000Z</time></trkpt>
        <trkpt lat="29.3409894" lon="105.252025"><ele>314.8</ele><time>2026-05-01T17:03:23.000Z</time></trkpt>
        <trkpt lat="29.3409961" lon="105.2520929"><ele>314.28</ele><time>2026-05-01T17:03:27.000Z</time></trkpt>
        <trkpt lat="29.3410048" lon="105.2521519"><ele>313.86</ele><time>2026-05-01T17:03:31.000Z</time></trkpt>
        <trkpt lat="29.3410089" lon="105.2522192"><ele>313.58</ele><time>2026-05-01T17:03:37.000Z</time></trkpt>
        <trkpt lat="29.3410134" lon="105.2522813"><ele>313.11</ele><time>2026-05-01T17:03:43.000Z</time></trkpt>
        <trkpt lat="29.3410133" lon="105.2523451"><ele>312.63</ele><time>2026-05-01T17:03:47.000Z</time></trkpt>
        <trkpt lat="29.3410102" lon="105.2524085"><ele>312.15</ele><time>2026-05-01T17:03:51.000Z</time></trkpt>
        <trkpt lat="29.341005" lon="105.2524655"><ele>311.74</ele><time>2026-05-01T17:03:55.000Z</time></trkpt>
        <trkpt lat="29.3410131" lon="105.2525278"><ele>311.25</ele><time>2026-05-01T17:03:59.000Z</time></trkpt>
        <trkpt lat="29.3410264" lon="105.2525998"><ele>310.71</ele><time>2026-05-01T17:04:05.000Z</time></trkpt>
        <trkpt lat="29.341061" lon="105.2526515"><ele>310.53</ele><time>2026-05-01T17:04:09.000Z</time></trkpt>
        <trkpt lat="29.3410954" lon="105.2526927"><ele>310.35</ele><time>2026-05-01T17:04:13.000Z</time></trkpt>
        <trkpt lat="29.3411318" lon="105.2527497"><ele>309.98</ele><time>2026-05-01T17:04:19.000Z</time></trkpt>
        <trkpt lat="29.3411696" lon="105.2528059"><ele>309.73</ele><time>2026-05-01T17:04:23.000Z</time></trkpt>
        <trkpt lat="29.341201" lon="105.2528552"><ele>309.76</ele><time>2026-05-01T17:04:27.000Z</time></trkpt>
        <trkpt lat="29.3412423" lon="105.2529106"><ele>310.17</ele><time>2026-05-01T17:04:33.000Z</time></trkpt>
        <trkpt lat="29.3412773" lon="105.2529598"><ele>310.44</ele><time>2026-05-01T17:04:37.000Z</time></trkpt>
        <trkpt lat="29.3413158" lon="105.2530166"><ele>310.59</ele><time>2026-05-01T17:04:43.000Z</time></trkpt>
        <trkpt lat="29.3413432" lon="105.2530714"><ele>310.85</ele><time>2026-05-01T17:04:49.000Z</time></trkpt>
        <trkpt lat="29.341379" lon="105.2531327"><ele>311.09</ele><time>2026-05-01T17:04:55.000Z</time></trkpt>
        <trkpt lat="29.3414045" lon="105.2531851"><ele>310.84</ele><time>2026-05-01T17:04:59.000Z</time></trkpt>
        <trkpt lat="29.3414299" lon="105.2532376"><ele>310.65</ele><time>2026-05-01T17:05:03.000Z</time></trkpt>
        <trkpt lat="29.3414594" lon="105.2532891"><ele>310.46</ele><time>2026-05-01T17:05:07.000Z</time></trkpt>
        <trkpt lat="29.3414895" lon="105.2533505"><ele>310.26</ele><time>2026-05-01T17:05:13.000Z</time></trkpt>
        <trkpt lat="29.3415235" lon="105.2534043"><ele>309.8</ele><time>2026-05-01T17:05:17.000Z</time></trkpt>
        <trkpt lat="29.341555" lon="105.2534599"><ele>309.33</ele><time>2026-05-01T17:05:21.000Z</time></trkpt>
        <trkpt lat="29.3415904" lon="105.2535214"><ele>308.8</ele><time>2026-05-01T17:05:25.000Z</time></trkpt>
        <trkpt lat="29.3416297" lon="105.2535849"><ele>308.46</ele><time>2026-05-01T17:05:31.000Z</time></trkpt>
        <trkpt lat="29.341669" lon="105.2536389"><ele>308.3</ele><time>2026-05-01T17:05:37.000Z</time></trkpt>
        <trkpt lat="29.3417029" lon="105.2536803"><ele>309.08</ele><time>2026-05-01T17:05:41.000Z</time></trkpt>
        <trkpt lat="29.341751" lon="105.2537263"><ele>309.99</ele><time>2026-05-01T17:05:47.000Z</time></trkpt>
        <trkpt lat="29.3418057" lon="105.2537548"><ele>310.47</ele><time>2026-05-01T17:05:51.000Z</time></trkpt>
        <trkpt lat="29.3418584" lon="105.2537759"><ele>310.7</ele><time>2026-05-01T17:05:55.000Z</time></trkpt>
        <trkpt lat="29.3419071" lon="105.2537728"><ele>311.13</ele><time>2026-05-01T17:05:59.000Z</time></trkpt>
        <trkpt lat="29.3419604" lon="105.2537556"><ele>311.76</ele><time>2026-05-01T17:06:03.000Z</time></trkpt>
        <trkpt lat="29.3420117" lon="105.2537426"><ele>312.29</ele><time>2026-05-01T17:06:07.000Z</time></trkpt>
        <trkpt lat="29.3420695" lon="105.2537241"><ele>312.6</ele><time>2026-05-01T17:06:13.000Z</time></trkpt>
        <trkpt lat="29.3421184" lon="105.2537093"><ele>312.43</ele><time>2026-05-01T17:06:17.000Z</time></trkpt>
        <trkpt lat="29.3421663" lon="105.253679"><ele>312.42</ele><time>2026-05-01T17:06:21.000Z</time></trkpt>
        <trkpt lat="29.3422128" lon="105.2536369"><ele>312.58</ele><time>2026-05-01T17:06:25.000Z</time></trkpt>
        <trkpt lat="29.3422578" lon="105.2535927"><ele>313.02</ele><time>2026-05-01T17:06:29.000Z</time></trkpt>
        <trkpt lat="29.3423024" lon="105.2535376"><ele>313.66</ele><time>2026-05-01T17:06:35.000Z</time></trkpt>
        <trkpt lat="29.3423358" lon="105.2534767"><ele>314.54</ele><time>2026-05-01T17:06:41.000Z</time></trkpt>
        <trkpt lat="29.3423627" lon="105.2534285"><ele>315.64</ele><time>2026-05-01T17:06:45.000Z</time></trkpt>
        <trkpt lat="29.3423816" lon="105.2533594"><ele>316.35</ele><time>2026-05-01T17:06:51.000Z</time></trkpt>
        <trkpt lat="29.3423846" lon="105.2532888"><ele>316.8</ele><time>2026-05-01T17:06:55.000Z</time></trkpt>
        <trkpt lat="29.3423863" lon="105.253216"><ele>317.45</ele><time>2026-05-01T17:07:01.000Z</time></trkpt>
        <trkpt lat="29.3423788" lon="105.2531582"><ele>318.5</ele><time>2026-05-01T17:07:05.000Z</time></trkpt>
        <trkpt lat="29.342365" lon="105.2531024"><ele>319.32</ele><time>2026-05-01T17:07:09.000Z</time></trkpt>
        <trkpt lat="29.342346" lon="105.2530432"><ele>319.7</ele><time>2026-05-01T17:07:13.000Z</time></trkpt>
        <trkpt lat="29.342321" lon="105.2529909"><ele>319.57</ele><time>2026-05-01T17:07:17.000Z</time></trkpt>
        <trkpt lat="29.3422982" lon="105.2529425"><ele>319.28</ele><time>2026-05-01T17:07:21.000Z</time></trkpt>
        <trkpt lat="29.342277" lon="105.25288"><ele>318.6</ele><time>2026-05-01T17:07:27.000Z</time></trkpt>
        <trkpt lat="29.3422616" lon="105.2528069"><ele>317.7</ele><time>2026-05-01T17:07:33.000Z</time></trkpt>
        <trkpt lat="29.3422571" lon="105.2527393"><ele>316.84</ele><time>2026-05-01T17:07:37.000Z</time></trkpt>
        <trkpt lat="29.3422626" lon="105.2526783"><ele>316.31</ele><time>2026-05-01T17:07:41.000Z</time></trkpt>
        <trkpt lat="29.342276" lon="105.2526199"><ele>316</ele><time>2026-05-01T17:07:45.000Z</time></trkpt>
        <trkpt lat="29.3422776" lon="105.2525559"><ele>315.83</ele><time>2026-05-01T17:07:49.000Z</time></trkpt>
        <trkpt lat="29.3422751" lon="105.2524871"><ele>315.64</ele><time>2026-05-01T17:07:55.000Z</time></trkpt>
        <trkpt lat="29.3422777" lon="105.2524166"><ele>315.58</ele><time>2026-05-01T17:08:01.000Z</time></trkpt>
        <trkpt lat="29.3422885" lon="105.2523409"><ele>315.46</ele><time>2026-05-01T17:08:05.000Z</time></trkpt>
        <trkpt lat="29.3422974" lon="105.2522699"><ele>315.48</ele><time>2026-05-01T17:08:09.000Z</time></trkpt>
        <trkpt lat="29.3422999" lon="105.2522084"><ele>315.62</ele><time>2026-05-01T17:08:13.000Z</time></trkpt>
        <trkpt lat="29.3423025" lon="105.2521542"><ele>315.65</ele><time>2026-05-01T17:08:17.000Z</time></trkpt>
        <trkpt lat="29.3423241" lon="105.2521121"><ele>315.76</ele><time>2026-05-01T17:08:21.000Z</time></trkpt>
        <trkpt lat="29.3423654" lon="105.25207"><ele>315.95</ele><time>2026-05-01T17:08:27.000Z</time></trkpt>
        <trkpt lat="29.342379" lon="105.2520219"><ele>315.8</ele><time>2026-05-01T17:08:35.000Z</time></trkpt>
        <trkpt lat="29.3424273" lon="105.2519836"><ele>316.01</ele><time>2026-05-01T17:08:45.000Z</time></trkpt>
        <trkpt lat="29.3424915" lon="105.2519588"><ele>315.45</ele><time>2026-05-01T17:08:55.000Z</time></trkpt>
        <trkpt lat="29.3425498" lon="105.2519311"><ele>314.44</ele><time>2026-05-01T17:08:57.000Z</time></trkpt>
        <trkpt lat="29.3426031" lon="105.2518999"><ele>313.91</ele><time>2026-05-01T17:08:59.000Z</time></trkpt>
        <trkpt lat="29.3426603" lon="105.2518659"><ele>313.56</ele><time>2026-05-01T17:09:03.000Z</time></trkpt>
        <trkpt lat="29.3427075" lon="105.2518346"><ele>313.58</ele><time>2026-05-01T17:09:07.000Z</time></trkpt>
        <trkpt lat="29.3427434" lon="105.2517894"><ele>314.06</ele><time>2026-05-01T17:09:11.000Z</time></trkpt>
        <trkpt lat="29.3427769" lon="105.251749"><ele>314.98</ele><time>2026-05-01T17:09:15.000Z</time></trkpt>
        <trkpt lat="29.3428202" lon="105.2517012"><ele>316.02</ele><time>2026-05-01T17:09:21.000Z</time></trkpt>
        <trkpt lat="29.3428704" lon="105.2516369"><ele>317.17</ele><time>2026-05-01T17:09:25.000Z</time></trkpt>
        <trkpt lat="29.3429089" lon="105.251581"><ele>318.73</ele><time>2026-05-01T17:09:29.000Z</time></trkpt>
        <trkpt lat="29.3429227" lon="105.2515216"><ele>320.53</ele><time>2026-05-01T17:09:35.000Z</time></trkpt>
        <trkpt lat="29.3429504" lon="105.2514524"><ele>321.89</ele><time>2026-05-01T17:09:41.000Z</time></trkpt>
        <trkpt lat="29.3429847" lon="105.2513925"><ele>322.15</ele><time>2026-05-01T17:09:45.000Z</time></trkpt>
        <trkpt lat="29.3430164" lon="105.251339"><ele>322.17</ele><time>2026-05-01T17:09:49.000Z</time></trkpt>
        <trkpt lat="29.343047" lon="105.2512766"><ele>321.93</ele><time>2026-05-01T17:09:55.000Z</time></trkpt>
        <trkpt lat="29.3430419" lon="105.251233"><ele>321.23</ele><time>2026-05-01T17:10:11.000Z</time></trkpt>
        <trkpt lat="29.343074" lon="105.251209"><ele>318.94</ele><time>2026-05-01T17:10:19.000Z</time></trkpt>
        <trkpt lat="29.3431104" lon="105.2511788"><ele>317.16</ele><time>2026-05-01T17:10:23.000Z</time></trkpt>
        <trkpt lat="29.3431499" lon="105.2511322"><ele>315.93</ele><time>2026-05-01T17:10:29.000Z</time></trkpt>
        <trkpt lat="29.3431972" lon="105.2510767"><ele>314.75</ele><time>2026-05-01T17:10:35.000Z</time></trkpt>
        <trkpt lat="29.3432419" lon="105.2510398"><ele>313.91</ele><time>2026-05-01T17:10:39.000Z</time></trkpt>
        <trkpt lat="29.3432798" lon="105.2509981"><ele>313.65</ele><time>2026-05-01T17:10:43.000Z</time></trkpt>
        <trkpt lat="29.343305" lon="105.2509452"><ele>314.23</ele><time>2026-05-01T17:10:49.000Z</time></trkpt>
        <trkpt lat="29.3433245" lon="105.250892"><ele>315.29</ele><time>2026-05-01T17:10:53.000Z</time></trkpt>
        <trkpt lat="29.3433315" lon="105.2508267"><ele>316.07</ele><time>2026-05-01T17:10:57.000Z</time></trkpt>
        <trkpt lat="29.3433322" lon="105.2507599"><ele>316.86</ele><time>2026-05-01T17:11:01.000Z</time></trkpt>
        <trkpt lat="29.3433355" lon="105.2506958"><ele>317.52</ele><time>2026-05-01T17:11:05.000Z</time></trkpt>
        <trkpt lat="29.3433192" lon="105.2506395"><ele>317.77</ele><time>2026-05-01T17:11:09.000Z</time></trkpt>
        <trkpt lat="29.34329" lon="105.2505762"><ele>317.83</ele><time>2026-05-01T17:11:13.000Z</time></trkpt>
        <trkpt lat="29.3432585" lon="105.2505275"><ele>317.56</ele><time>2026-05-01T17:11:17.000Z</time></trkpt>
        <trkpt lat="29.3432251" lon="105.2504692"><ele>316.8</ele><time>2026-05-01T17:11:23.000Z</time></trkpt>
        <trkpt lat="29.3431855" lon="105.2504181"><ele>315.81</ele><time>2026-05-01T17:11:29.000Z</time></trkpt>
        <trkpt lat="29.3431468" lon="105.2503673"><ele>315.33</ele><time>2026-05-01T17:11:35.000Z</time></trkpt>
        <trkpt lat="29.3431065" lon="105.2503262"><ele>314.93</ele><time>2026-05-01T17:11:39.000Z</time></trkpt>
        <trkpt lat="29.3430684" lon="105.2502798"><ele>314.75</ele><time>2026-05-01T17:11:43.000Z</time></trkpt>
        <trkpt lat="29.3430464" lon="105.250227"><ele>314.55</ele><time>2026-05-01T17:11:47.000Z</time></trkpt>
        <trkpt lat="29.343039" lon="105.2501606"><ele>314.27</ele><time>2026-05-01T17:11:53.000Z</time></trkpt>
        <trkpt lat="29.3430386" lon="105.2500832"><ele>313.94</ele><time>2026-05-01T17:11:59.000Z</time></trkpt>
        <trkpt lat="29.343042" lon="105.2500066"><ele>314.14</ele><time>2026-05-01T17:12:05.000Z</time></trkpt>
        <trkpt lat="29.343037" lon="105.2499451"><ele>314.25</ele><time>2026-05-01T17:12:09.000Z</time></trkpt>
        <trkpt lat="29.3430306" lon="105.2498808"><ele>314.31</ele><time>2026-05-01T17:12:21.000Z</time></trkpt>
        <trkpt lat="29.3430501" lon="105.2498101"><ele>313.58</ele><time>2026-05-01T17:12:31.000Z</time></trkpt>
        <trkpt lat="29.3430501" lon="105.2498101"><ele>313.58</ele><time>2026-05-01T17:12:35.000Z</time></trkpt>
        <trkpt lat="29.3431264" lon="105.2496349"><ele>312.86</ele><time>2026-05-01T17:12:45.000Z</time></trkpt>
        <trkpt lat="29.3431264" lon="105.2496349"><ele>312.86</ele><time>2026-05-01T17:12:47.000Z</time></trkpt>
        <trkpt lat="29.3431356" lon="105.2495756"><ele>312.62</ele><time>2026-05-01T17:12:51.000Z</time></trkpt>
        <trkpt lat="29.3431327" lon="105.2495124"><ele>312.57</ele><time>2026-05-01T17:12:57.000Z</time></trkpt>
        <trkpt lat="29.3431224" lon="105.2494526"><ele>312.8</ele><time>2026-05-01T17:13:01.000Z</time></trkpt>
        <trkpt lat="29.3431228" lon="105.2493979"><ele>313.18</ele><time>2026-05-01T17:13:05.000Z</time></trkpt>
        <trkpt lat="29.3431431" lon="105.24935"><ele>313.58</ele><time>2026-05-01T17:13:09.000Z</time></trkpt>
        <trkpt lat="29.3431381" lon="105.2492741"><ele>313.85</ele><time>2026-05-01T17:13:13.000Z</time></trkpt>
        <trkpt lat="29.3431089" lon="105.2491913"><ele>314.17</ele><time>2026-05-01T17:13:17.000Z</time></trkpt>
        <trkpt lat="29.3430879" lon="105.2491196"><ele>314.7</ele><time>2026-05-01T17:13:21.000Z</time></trkpt>
        <trkpt lat="29.3430591" lon="105.2490606"><ele>315.26</ele><time>2026-05-01T17:13:25.000Z</time></trkpt>
        <trkpt lat="29.343038" lon="105.2490262"><ele>315.71</ele><time>2026-05-01T17:13:29.000Z</time></trkpt>
        <trkpt lat="29.3430178" lon="105.2489825"><ele>316.44</ele><time>2026-05-01T17:13:33.000Z</time></trkpt>
        <trkpt lat="29.3429754" lon="105.2489375"><ele>317.07</ele><time>2026-05-01T17:13:37.000Z</time></trkpt>
        <trkpt lat="29.3429348" lon="105.248879"><ele>317.6</ele><time>2026-05-01T17:13:41.000Z</time></trkpt>
        <trkpt lat="29.3428923" lon="105.2488255"><ele>318.11</ele><time>2026-05-01T17:13:45.000Z</time></trkpt>
        <trkpt lat="29.3428471" lon="105.2487669"><ele>318.28</ele><time>2026-05-01T17:13:49.000Z</time></trkpt>
        <trkpt lat="29.3428076" lon="105.2487216"><ele>318.33</ele><time>2026-05-01T17:13:53.000Z</time></trkpt>
        <trkpt lat="29.3427579" lon="105.2486915"><ele>319.09</ele><time>2026-05-01T17:13:57.000Z</time></trkpt>
        <trkpt lat="29.3427208" lon="105.2486589"><ele>319.7</ele><time>2026-05-01T17:14:01.000Z</time></trkpt>
        <trkpt lat="29.3426987" lon="105.2486029"><ele>320.17</ele><time>2026-05-01T17:14:05.000Z</time></trkpt>
        <trkpt lat="29.3426916" lon="105.248538"><ele>320.36</ele><time>2026-05-01T17:14:09.000Z</time></trkpt>
        <trkpt lat="29.3426953" lon="105.2484783"><ele>320.2</ele><time>2026-05-01T17:14:13.000Z</time></trkpt>
        <trkpt lat="29.3427091" lon="105.248414"><ele>319.94</ele><time>2026-05-01T17:14:19.000Z</time></trkpt>
        <trkpt lat="29.3427127" lon="105.2483321"><ele>319.67</ele><time>2026-05-01T17:14:25.000Z</time></trkpt>
        <trkpt lat="29.3427113" lon="105.2482629"><ele>319.29</ele><time>2026-05-01T17:14:29.000Z</time></trkpt>
        <trkpt lat="29.3427017" lon="105.2481983"><ele>319.08</ele><time>2026-05-01T17:14:35.000Z</time></trkpt>
        <trkpt lat="29.3426906" lon="105.2481302"><ele>318.32</ele><time>2026-05-01T17:14:41.000Z</time></trkpt>
        <trkpt lat="29.3426745" lon="105.2480669"><ele>317.58</ele><time>2026-05-01T17:14:45.000Z</time></trkpt>
        <trkpt lat="29.3426507" lon="105.2479915"><ele>316.94</ele><time>2026-05-01T17:14:49.000Z</time></trkpt>
        <trkpt lat="29.3426434" lon="105.2479203"><ele>316.71</ele><time>2026-05-01T17:14:53.000Z</time></trkpt>
        <trkpt lat="29.342654" lon="105.2478624"><ele>316.06</ele><time>2026-05-01T17:14:57.000Z</time></trkpt>
        <trkpt lat="29.3426794" lon="105.247807"><ele>315.6</ele><time>2026-05-01T17:15:01.000Z</time></trkpt>
        <trkpt lat="29.3427089" lon="105.2477592"><ele>315.39</ele><time>2026-05-01T17:15:05.000Z</time></trkpt>
        <trkpt lat="29.3427384" lon="105.2477087"><ele>315.13</ele><time>2026-05-01T17:15:09.000Z</time></trkpt>
        <trkpt lat="29.3427557" lon="105.2476578"><ele>314.99</ele><time>2026-05-01T17:15:13.000Z</time></trkpt>
        <trkpt lat="29.3427817" lon="105.2476077"><ele>315.17</ele><time>2026-05-01T17:15:19.000Z</time></trkpt>
        <trkpt lat="29.3428138" lon="105.2475692"><ele>315.61</ele><time>2026-05-01T17:15:23.000Z</time></trkpt>
        <trkpt lat="29.3428503" lon="105.247521"><ele>316.17</ele><time>2026-05-01T17:15:29.000Z</time></trkpt>
        <trkpt lat="29.342883" lon="105.2474673"><ele>317.17</ele><time>2026-05-01T17:15:33.000Z</time></trkpt>
        <trkpt lat="29.3428963" lon="105.2474081"><ele>317.7</ele><time>2026-05-01T17:15:37.000Z</time></trkpt>
        <trkpt lat="29.3429161" lon="105.2473359"><ele>317.96</ele><time>2026-05-01T17:15:43.000Z</time></trkpt>
        <trkpt lat="29.342947" lon="105.2472645"><ele>318.41</ele><time>2026-05-01T17:15:47.000Z</time></trkpt>
        <trkpt lat="29.342977" lon="105.2472057"><ele>318.7</ele><time>2026-05-01T17:15:51.000Z</time></trkpt>
        <trkpt lat="29.3429987" lon="105.2471507"><ele>318.83</ele><time>2026-05-01T17:15:57.000Z</time></trkpt>
        <trkpt lat="29.3430184" lon="105.2470966"><ele>319.12</ele><time>2026-05-01T17:16:03.000Z</time></trkpt>
        <trkpt lat="29.3430415" lon="105.24705"><ele>319.11</ele><time>2026-05-01T17:16:07.000Z</time></trkpt>
        <trkpt lat="29.3430823" lon="105.2470082"><ele>319.41</ele><time>2026-05-01T17:16:17.000Z</time></trkpt>
        <trkpt lat="29.3431259" lon="105.246969"><ele>318.72</ele><time>2026-05-01T17:16:21.000Z</time></trkpt>
        <trkpt lat="29.343157" lon="105.2469239"><ele>317.63</ele><time>2026-05-01T17:16:25.000Z</time></trkpt>
        <trkpt lat="29.3431903" lon="105.2468824"><ele>316.54</ele><time>2026-05-01T17:16:29.000Z</time></trkpt>
        <trkpt lat="29.3432323" lon="105.2468474"><ele>315.58</ele><time>2026-05-01T17:16:33.000Z</time></trkpt>
        <trkpt lat="29.3432712" lon="105.2468095"><ele>314.56</ele><time>2026-05-01T17:16:37.000Z</time></trkpt>
        <trkpt lat="29.3433036" lon="105.2467702"><ele>313.41</ele><time>2026-05-01T17:16:41.000Z</time></trkpt>
        <trkpt lat="29.343331" lon="105.2467241"><ele>312.55</ele><time>2026-05-01T17:16:45.000Z</time></trkpt>
        <trkpt lat="29.3433657" lon="105.2466792"><ele>311.67</ele><time>2026-05-01T17:16:49.000Z</time></trkpt>
        <trkpt lat="29.3433984" lon="105.2466352"><ele>310.91</ele><time>2026-05-01T17:16:53.000Z</time></trkpt>
        <trkpt lat="29.3434178" lon="105.2465841"><ele>310.34</ele><time>2026-05-01T17:16:57.000Z</time></trkpt>
        <trkpt lat="29.3434386" lon="105.2465355"><ele>310.37</ele><time>2026-05-01T17:17:01.000Z</time></trkpt>
        <trkpt lat="29.3434756" lon="105.2464932"><ele>310.68</ele><time>2026-05-01T17:17:07.000Z</time></trkpt>
        <trkpt lat="29.3434826" lon="105.2464382"><ele>310.99</ele><time>2026-05-01T17:17:13.000Z</time></trkpt>
        <trkpt lat="29.3434529" lon="105.2463946"><ele>311.21</ele><time>2026-05-01T17:17:17.000Z</time></trkpt>
        <trkpt lat="29.3434698" lon="105.246362"><ele>311.38</ele><time>2026-05-01T17:17:49.000Z</time></trkpt>
        <trkpt lat="29.3435128" lon="105.2463805"><ele>311.34</ele><time>2026-05-01T17:17:55.000Z</time></trkpt>
        <trkpt lat="29.3435703" lon="105.2464196"><ele>311.33</ele><time>2026-05-01T17:18:01.000Z</time></trkpt>
        <trkpt lat="29.34363" lon="105.2464654"><ele>311.23</ele><time>2026-05-01T17:18:07.000Z</time></trkpt>
        <trkpt lat="29.3436634" lon="105.2465208"><ele>311.35</ele><time>2026-05-01T17:18:13.000Z</time></trkpt>
        <trkpt lat="29.3436988" lon="105.2465666"><ele>311.33</ele><time>2026-05-01T17:18:17.000Z</time></trkpt>
        <trkpt lat="29.3437456" lon="105.2466124"><ele>311.23</ele><time>2026-05-01T17:18:21.000Z</time></trkpt>
        <trkpt lat="29.3437895" lon="105.2466529"><ele>311.3</ele><time>2026-05-01T17:18:25.000Z</time></trkpt>
        <trkpt lat="29.3438282" lon="105.2466976"><ele>311.47</ele><time>2026-05-01T17:18:31.000Z</time></trkpt>
        <trkpt lat="29.3438585" lon="105.2467265"><ele>311.4</ele><time>2026-05-01T17:18:43.000Z</time></trkpt>
        <trkpt lat="29.3438936" lon="105.2467808"><ele>310.84</ele><time>2026-05-01T17:18:53.000Z</time></trkpt>
        <trkpt lat="29.3439298" lon="105.2468277"><ele>310.05</ele><time>2026-05-01T17:18:57.000Z</time></trkpt>
        <trkpt lat="29.3439714" lon="105.2468796"><ele>309.73</ele><time>2026-05-01T17:19:03.000Z</time></trkpt>
        <trkpt lat="29.3440113" lon="105.2469208"><ele>309.8</ele><time>2026-05-01T17:19:07.000Z</time></trkpt>
        <trkpt lat="29.3440551" lon="105.2469728"><ele>310.06</ele><time>2026-05-01T17:19:13.000Z</time></trkpt>
        <trkpt lat="29.3440941" lon="105.247009"><ele>310.21</ele><time>2026-05-01T17:19:17.000Z</time></trkpt>
        <trkpt lat="29.3441311" lon="105.2470454"><ele>310.42</ele><time>2026-05-01T17:19:21.000Z</time></trkpt>
        <trkpt lat="29.3441662" lon="105.2470813"><ele>310.67</ele><time>2026-05-01T17:19:25.000Z</time></trkpt>
        <trkpt lat="29.3441983" lon="105.2471185"><ele>310.81</ele><time>2026-05-01T17:19:29.000Z</time></trkpt>
        <trkpt lat="29.3442383" lon="105.2471678"><ele>311.06</ele><time>2026-05-01T17:19:35.000Z</time></trkpt>
        <trkpt lat="29.3442864" lon="105.2472215"><ele>311.42</ele><time>2026-05-01T17:19:39.000Z</time></trkpt>
        <trkpt lat="29.3443309" lon="105.2472674"><ele>311.41</ele><time>2026-05-01T17:19:43.000Z</time></trkpt>
        <trkpt lat="29.3443698" lon="105.2473211"><ele>311.24</ele><time>2026-05-01T17:19:49.000Z</time></trkpt>
        <trkpt lat="29.3444103" lon="105.2473553"><ele>310.83</ele><time>2026-05-01T17:19:53.000Z</time></trkpt>
        <trkpt lat="29.3444515" lon="105.2473982"><ele>310.65</ele><time>2026-05-01T17:19:57.000Z</time></trkpt>
        <trkpt lat="29.3444957" lon="105.247429"><ele>310.33</ele><time>2026-05-01T17:20:01.000Z</time></trkpt>
        <trkpt lat="29.3445558" lon="105.2474628"><ele>310.4</ele><time>2026-05-01T17:20:07.000Z</time></trkpt>
        <trkpt lat="29.3446117" lon="105.2474883"><ele>310.83</ele><time>2026-05-01T17:20:11.000Z</time></trkpt>
        <trkpt lat="29.344665" lon="105.247516"><ele>310.6</ele><time>2026-05-01T17:20:17.000Z</time></trkpt>
        <trkpt lat="29.3447346" lon="105.2475464"><ele>310.13</ele><time>2026-05-01T17:20:23.000Z</time></trkpt>
        <trkpt lat="29.3447989" lon="105.2475791"><ele>310.07</ele><time>2026-05-01T17:20:27.000Z</time></trkpt>
        <trkpt lat="29.3448628" lon="105.2475888"><ele>310.26</ele><time>2026-05-01T17:20:33.000Z</time></trkpt>
        <trkpt lat="29.3449165" lon="105.2476012"><ele>310.32</ele><time>2026-05-01T17:20:37.000Z</time></trkpt>
        <trkpt lat="29.3449638" lon="105.2476146"><ele>310.27</ele><time>2026-05-01T17:20:41.000Z</time></trkpt>
        <trkpt lat="29.3450143" lon="105.2476137"><ele>310.37</ele><time>2026-05-01T17:20:47.000Z</time></trkpt>
        <trkpt lat="29.3450603" lon="105.2476153"><ele>310.55</ele><time>2026-05-01T17:20:51.000Z</time></trkpt>
        <trkpt lat="29.3451086" lon="105.2476"><ele>310.75</ele><time>2026-05-01T17:20:55.000Z</time></trkpt>
        <trkpt lat="29.3451656" lon="105.2475826"><ele>310.94</ele><time>2026-05-01T17:20:59.000Z</time></trkpt>
        <trkpt lat="29.3452283" lon="105.247578"><ele>311.18</ele><time>2026-05-01T17:21:03.000Z</time></trkpt>
        <trkpt lat="29.3452814" lon="105.2475888"><ele>311.58</ele><time>2026-05-01T17:21:07.000Z</time></trkpt>
        <trkpt lat="29.3453292" lon="105.2475925"><ele>311.97</ele><time>2026-05-01T17:21:11.000Z</time></trkpt>
        <trkpt lat="29.345384" lon="105.2475836"><ele>312.24</ele><time>2026-05-01T17:21:17.000Z</time></trkpt>
        <trkpt lat="29.3454318" lon="105.2475651"><ele>312.53</ele><time>2026-05-01T17:21:21.000Z</time></trkpt>
        <trkpt lat="29.3454769" lon="105.2475424"><ele>313.03</ele><time>2026-05-01T17:21:25.000Z</time></trkpt>
        <trkpt lat="29.345525" lon="105.2475253"><ele>313.71</ele><time>2026-05-01T17:21:29.000Z</time></trkpt>
        <trkpt lat="29.345572" lon="105.2475185"><ele>314</ele><time>2026-05-01T17:21:33.000Z</time></trkpt>
        <trkpt lat="29.3456274" lon="105.2475141"><ele>314.26</ele><time>2026-05-01T17:21:37.000Z</time></trkpt>
        <trkpt lat="29.3456747" lon="105.2475014"><ele>314.41</ele><time>2026-05-01T17:21:41.000Z</time></trkpt>
        <trkpt lat="29.3457172" lon="105.2474827"><ele>315.39</ele><time>2026-05-01T17:21:45.000Z</time></trkpt>
        <trkpt lat="29.3457446" lon="105.2474258"><ele>316.69</ele><time>2026-05-01T17:21:51.000Z</time></trkpt>
        <trkpt lat="29.3457529" lon="105.2473653"><ele>318.03</ele><time>2026-05-01T17:21:55.000Z</time></trkpt>
        <trkpt lat="29.3457717" lon="105.2473159"><ele>318.92</ele><time>2026-05-01T17:21:59.000Z</time></trkpt>
        <trkpt lat="29.3458208" lon="105.2472808"><ele>319.43</ele><time>2026-05-01T17:22:05.000Z</time></trkpt>
        <trkpt lat="29.3458676" lon="105.2472585"><ele>319.67</ele><time>2026-05-01T17:22:11.000Z</time></trkpt>
        <trkpt lat="29.3458857" lon="105.2472565"><ele>319.6</ele><time>2026-05-01T17:22:17.000Z</time></trkpt>
        <trkpt lat="29.3459089" lon="105.2472295"><ele>319.47</ele><time>2026-05-01T17:22:31.000Z</time></trkpt>
        <trkpt lat="29.3458825" lon="105.2471993"><ele>319.27</ele><time>2026-05-01T17:22:49.000Z</time></trkpt>
        <trkpt lat="29.3458611" lon="105.2471445"><ele>318.85</ele><time>2026-05-01T17:22:59.000Z</time></trkpt>
        <trkpt lat="29.3458467" lon="105.2470624"><ele>318.1</ele><time>2026-05-01T17:23:05.000Z</time></trkpt>
        <trkpt lat="29.3458563" lon="105.2469907"><ele>317.63</ele><time>2026-05-01T17:23:09.000Z</time></trkpt>
        <trkpt lat="29.34588" lon="105.2469339"><ele>317.36</ele><time>2026-05-01T17:23:17.000Z</time></trkpt>
        <trkpt lat="29.3458888" lon="105.2468782"><ele>316.95</ele><time>2026-05-01T17:23:23.000Z</time></trkpt>
        <trkpt lat="29.3459071" lon="105.2468136"><ele>316.07</ele><time>2026-05-01T17:23:27.000Z</time></trkpt>
        <trkpt lat="29.3459064" lon="105.2467518"><ele>315.18</ele><time>2026-05-01T17:23:31.000Z</time></trkpt>
        <trkpt lat="29.345877" lon="105.2467113"><ele>314.37</ele><time>2026-05-01T17:23:35.000Z</time></trkpt>
        <trkpt lat="29.3458191" lon="105.2466749"><ele>313.69</ele><time>2026-05-01T17:23:39.000Z</time></trkpt>
        <trkpt lat="29.3457604" lon="105.2466464"><ele>313.35</ele><time>2026-05-01T17:23:43.000Z</time></trkpt>
        <trkpt lat="29.3457026" lon="105.2466149"><ele>313.33</ele><time>2026-05-01T17:23:49.000Z</time></trkpt>
        <trkpt lat="29.3456429" lon="105.2465688"><ele>313.62</ele><time>2026-05-01T17:23:53.000Z</time></trkpt>
        <trkpt lat="29.3455982" lon="105.2465347"><ele>313.7</ele><time>2026-05-01T17:23:57.000Z</time></trkpt>
        <trkpt lat="29.345552" lon="105.2465244"><ele>313.65</ele><time>2026-05-01T17:24:01.000Z</time></trkpt>
        <trkpt lat="29.3455109" lon="105.2465037"><ele>313.46</ele><time>2026-05-01T17:24:05.000Z</time></trkpt>
        <trkpt lat="29.3454627" lon="105.2464777"><ele>313.09</ele><time>2026-05-01T17:24:11.000Z</time></trkpt>
        <trkpt lat="29.3454103" lon="105.2464346"><ele>313.01</ele><time>2026-05-01T17:24:17.000Z</time></trkpt>
        <trkpt lat="29.3453603" lon="105.2463941"><ele>312.96</ele><time>2026-05-01T17:24:21.000Z</time></trkpt>
        <trkpt lat="29.3453139" lon="105.2463431"><ele>312.98</ele><time>2026-05-01T17:24:25.000Z</time></trkpt>
        <trkpt lat="29.3452665" lon="105.2462812"><ele>313.03</ele><time>2026-05-01T17:24:29.000Z</time></trkpt>
        <trkpt lat="29.3452272" lon="105.2462298"><ele>313.28</ele><time>2026-05-01T17:24:33.000Z</time></trkpt>
        <trkpt lat="29.3452021" lon="105.2461707"><ele>313.42</ele><time>2026-05-01T17:24:39.000Z</time></trkpt>
        <trkpt lat="29.3451906" lon="105.2461139"><ele>313.41</ele><time>2026-05-01T17:24:45.000Z</time></trkpt>
        <trkpt lat="29.3451804" lon="105.2460445"><ele>313.79</ele><time>2026-05-01T17:24:51.000Z</time></trkpt>
        <trkpt lat="29.3451732" lon="105.2459793"><ele>314.27</ele><time>2026-05-01T17:24:55.000Z</time></trkpt>
        <trkpt lat="29.3451677" lon="105.2459152"><ele>314.5</ele><time>2026-05-01T17:24:59.000Z</time></trkpt>
        <trkpt lat="29.3451746" lon="105.2458491"><ele>314.71</ele><time>2026-05-01T17:25:03.000Z</time></trkpt>
        <trkpt lat="29.3451945" lon="105.2457885"><ele>315.22</ele><time>2026-05-01T17:25:07.000Z</time></trkpt>
        <trkpt lat="29.3452295" lon="105.2457364"><ele>315.94</ele><time>2026-05-01T17:25:11.000Z</time></trkpt>
        <trkpt lat="29.3452714" lon="105.2456897"><ele>316.66</ele><time>2026-05-01T17:25:17.000Z</time></trkpt>
        <trkpt lat="29.3453256" lon="105.2456393"><ele>317.06</ele><time>2026-05-01T17:25:23.000Z</time></trkpt>
        <trkpt lat="29.3453706" lon="105.2456019"><ele>317.08</ele><time>2026-05-01T17:25:27.000Z</time></trkpt>
        <trkpt lat="29.3454009" lon="105.2455618"><ele>317.04</ele><time>2026-05-01T17:25:31.000Z</time></trkpt>
        <trkpt lat="29.3454358" lon="105.2455185"><ele>317.15</ele><time>2026-05-01T17:25:35.000Z</time></trkpt>
        <trkpt lat="29.3454717" lon="105.2454751"><ele>317.17</ele><time>2026-05-01T17:25:39.000Z</time></trkpt>
        <trkpt lat="29.3454969" lon="105.2454155"><ele>317.14</ele><time>2026-05-01T17:25:43.000Z</time></trkpt>
        <trkpt lat="29.3454932" lon="105.2453424"><ele>317.38</ele><time>2026-05-01T17:25:47.000Z</time></trkpt>
        <trkpt lat="29.3454832" lon="105.2452828"><ele>317.52</ele><time>2026-05-01T17:25:51.000Z</time></trkpt>
        <trkpt lat="29.3454715" lon="105.2452193"><ele>317.47</ele><time>2026-05-01T17:25:57.000Z</time></trkpt>
        <trkpt lat="29.3454644" lon="105.2451581"><ele>317.14</ele><time>2026-05-01T17:26:01.000Z</time></trkpt>
        <trkpt lat="29.3454585" lon="105.2450941"><ele>316.86</ele><time>2026-05-01T17:26:05.000Z</time></trkpt>
        <trkpt lat="29.345462" lon="105.2450166"><ele>316.88</ele><time>2026-05-01T17:26:09.000Z</time></trkpt>
        <trkpt lat="29.3454627" lon="105.2449405"><ele>316.89</ele><time>2026-05-01T17:26:13.000Z</time></trkpt>
        <trkpt lat="29.3454681" lon="105.2448807"><ele>317.02</ele><time>2026-05-01T17:26:17.000Z</time></trkpt>
        <trkpt lat="29.3454964" lon="105.244816"><ele>316.97</ele><time>2026-05-01T17:26:23.000Z</time></trkpt>
        <trkpt lat="29.3455328" lon="105.2447626"><ele>316.47</ele><time>2026-05-01T17:26:29.000Z</time></trkpt>
        <trkpt lat="29.3455794" lon="105.2447144"><ele>316.18</ele><time>2026-05-01T17:26:35.000Z</time></trkpt>
        <trkpt lat="29.3456224" lon="105.24468"><ele>315.76</ele><time>2026-05-01T17:26:39.000Z</time></trkpt>
        <trkpt lat="29.3456615" lon="105.2446513"><ele>315.39</ele><time>2026-05-01T17:26:43.000Z</time></trkpt>
        <trkpt lat="29.3456964" lon="105.244606"><ele>315.35</ele><time>2026-05-01T17:26:49.000Z</time></trkpt>
        <trkpt lat="29.3457371" lon="105.2445512"><ele>315.46</ele><time>2026-05-01T17:26:53.000Z</time></trkpt>
        <trkpt lat="29.3457865" lon="105.2444997"><ele>315.17</ele><time>2026-05-01T17:26:57.000Z</time></trkpt>
        <trkpt lat="29.3458301" lon="105.2444551"><ele>314.97</ele><time>2026-05-01T17:27:01.000Z</time></trkpt>
        <trkpt lat="29.3458684" lon="105.2444107"><ele>314.9</ele><time>2026-05-01T17:27:05.000Z</time></trkpt>
        <trkpt lat="29.3459124" lon="105.2443625"><ele>315.03</ele><time>2026-05-01T17:27:11.000Z</time></trkpt>
        <trkpt lat="29.3459525" lon="105.2443076"><ele>315.83</ele><time>2026-05-01T17:27:17.000Z</time></trkpt>
        <trkpt lat="29.345991" lon="105.2442705"><ele>316.25</ele><time>2026-05-01T17:27:21.000Z</time></trkpt>
        <trkpt lat="29.3460315" lon="105.2442291"><ele>316.27</ele><time>2026-05-01T17:27:25.000Z</time></trkpt>
        <trkpt lat="29.3460679" lon="105.2441828"><ele>316.11</ele><time>2026-05-01T17:27:29.000Z</time></trkpt>
        <trkpt lat="29.3461028" lon="105.2441358"><ele>316.11</ele><time>2026-05-01T17:27:33.000Z</time></trkpt>
        <trkpt lat="29.3461199" lon="105.244085"><ele>316.28</ele><time>2026-05-01T17:27:39.000Z</time></trkpt>
        <trkpt lat="29.346113" lon="105.2440718"><ele>316.93</ele><time>2026-05-01T17:27:45.000Z</time></trkpt>
        <trkpt lat="29.3461173" lon="105.2440288"><ele>317.13</ele><time>2026-05-01T17:28:03.000Z</time></trkpt>
        <trkpt lat="29.3461314" lon="105.2439641"><ele>315.83</ele><time>2026-05-01T17:28:07.000Z</time></trkpt>
        <trkpt lat="29.3461506" lon="105.243896"><ele>314.57</ele><time>2026-05-01T17:28:11.000Z</time></trkpt>
        <trkpt lat="29.3461501" lon="105.2438469"><ele>313.16</ele><time>2026-05-01T17:28:23.000Z</time></trkpt>
        <trkpt lat="29.3461306" lon="105.2437882"><ele>312.79</ele><time>2026-05-01T17:28:37.000Z</time></trkpt>
        <trkpt lat="29.3461063" lon="105.2437267"><ele>313.23</ele><time>2026-05-01T17:28:43.000Z</time></trkpt>
        <trkpt lat="29.346068" lon="105.2436695"><ele>313.43</ele><time>2026-05-01T17:28:49.000Z</time></trkpt>
        <trkpt lat="29.3460394" lon="105.2436166"><ele>313.59</ele><time>2026-05-01T17:28:55.000Z</time></trkpt>
        <trkpt lat="29.3459981" lon="105.2436304"><ele>313.42</ele><time>2026-05-01T17:29:01.000Z</time></trkpt>
        <trkpt lat="29.3459699" lon="105.2436857"><ele>312.81</ele><time>2026-05-01T17:29:05.000Z</time></trkpt>
        <trkpt lat="29.3459898" lon="105.2436673"><ele>312.07</ele><time>2026-05-01T17:29:37.000Z</time></trkpt>
        <trkpt lat="29.3460107" lon="105.2436151"><ele>311.4</ele><time>2026-05-01T17:29:41.000Z</time></trkpt>
        <trkpt lat="29.3460129" lon="105.2435499"><ele>311.1</ele><time>2026-05-01T17:29:51.000Z</time></trkpt>
        <trkpt lat="29.3459942" lon="105.2434952"><ele>311.66</ele><time>2026-05-01T17:29:59.000Z</time></trkpt>
        <trkpt lat="29.3459819" lon="105.2434415"><ele>312.49</ele><time>2026-05-01T17:30:03.000Z</time></trkpt>
        <trkpt lat="29.3459769" lon="105.2433838"><ele>313.27</ele><time>2026-05-01T17:30:09.000Z</time></trkpt>
        <trkpt lat="29.3459824" lon="105.2433299"><ele>313.76</ele><time>2026-05-01T17:30:13.000Z</time></trkpt>
        <trkpt lat="29.3459916" lon="105.2432739"><ele>313.9</ele><time>2026-05-01T17:30:17.000Z</time></trkpt>
        <trkpt lat="29.3460001" lon="105.2432097"><ele>313.52</ele><time>2026-05-01T17:30:21.000Z</time></trkpt>
        <trkpt lat="29.345994" lon="105.2431276"><ele>312.65</ele><time>2026-05-01T17:30:25.000Z</time></trkpt>
        <trkpt lat="29.3459735" lon="105.2430707"><ele>311.9</ele><time>2026-05-01T17:30:31.000Z</time></trkpt>
        <trkpt lat="29.3459385" lon="105.243023"><ele>312.24</ele><time>2026-05-01T17:30:37.000Z</time></trkpt>
        <trkpt lat="29.3459105" lon="105.2429692"><ele>312.74</ele><time>2026-05-01T17:30:43.000Z</time></trkpt>
        <trkpt lat="29.3458953" lon="105.2429173"><ele>313.41</ele><time>2026-05-01T17:30:47.000Z</time></trkpt>
        <trkpt lat="29.3458825" lon="105.2428584"><ele>313.84</ele><time>2026-05-01T17:30:53.000Z</time></trkpt>
        <trkpt lat="29.3458715" lon="105.2428043"><ele>314.04</ele><time>2026-05-01T17:30:57.000Z</time></trkpt>
        <trkpt lat="29.3458656" lon="105.2427511"><ele>314.28</ele><time>2026-05-01T17:31:03.000Z</time></trkpt>
        <trkpt lat="29.3458539" lon="105.2426942"><ele>314.67</ele><time>2026-05-01T17:31:09.000Z</time></trkpt>
        <trkpt lat="29.3458157" lon="105.2426459"><ele>315.2</ele><time>2026-05-01T17:31:13.000Z</time></trkpt>
        <trkpt lat="29.3457767" lon="105.2426097"><ele>315.72</ele><time>2026-05-01T17:31:15.000Z</time></trkpt>
        <trkpt lat="29.3457352" lon="105.242575"><ele>315.92</ele><time>2026-05-01T17:31:19.000Z</time></trkpt>
        <trkpt lat="29.3456923" lon="105.2425413"><ele>315.35</ele><time>2026-05-01T17:31:27.000Z</time></trkpt>
        <trkpt lat="29.3456558" lon="105.2425073"><ele>314.17</ele><time>2026-05-01T17:31:31.000Z</time></trkpt>
        <trkpt lat="29.3456132" lon="105.2424504"><ele>313.54</ele><time>2026-05-01T17:31:35.000Z</time></trkpt>
        <trkpt lat="29.3455858" lon="105.2423899"><ele>312.88</ele><time>2026-05-01T17:31:43.000Z</time></trkpt>
        <trkpt lat="29.3455679" lon="105.2423193"><ele>312.24</ele><time>2026-05-01T17:31:49.000Z</time></trkpt>
        <trkpt lat="29.3455516" lon="105.2422383"><ele>312.09</ele><time>2026-05-01T17:31:57.000Z</time></trkpt>
        <trkpt lat="29.3455387" lon="105.242177"><ele>312.79</ele><time>2026-05-01T17:32:03.000Z</time></trkpt>
        <trkpt lat="29.3455291" lon="105.2421077"><ele>314</ele><time>2026-05-01T17:32:09.000Z</time></trkpt>
        <trkpt lat="29.3455175" lon="105.24205"><ele>315.68</ele><time>2026-05-01T17:32:15.000Z</time></trkpt>
        <trkpt lat="29.3455262" lon="105.241998"><ele>317.88</ele><time>2026-05-01T17:32:35.000Z</time></trkpt>
        <trkpt lat="29.3455397" lon="105.2419401"><ele>318.28</ele><time>2026-05-01T17:32:41.000Z</time></trkpt>
        <trkpt lat="29.3455336" lon="105.241878"><ele>318.29</ele><time>2026-05-01T17:32:49.000Z</time></trkpt>
        <trkpt lat="29.3455271" lon="105.2418045"><ele>318.34</ele><time>2026-05-01T17:32:55.000Z</time></trkpt>
        <trkpt lat="29.3455247" lon="105.2417458"><ele>318.71</ele><time>2026-05-01T17:32:57.000Z</time></trkpt>
        <trkpt lat="29.3455242" lon="105.2416933"><ele>319.01</ele><time>2026-05-01T17:33:01.000Z</time></trkpt>
        <trkpt lat="29.3455194" lon="105.2416401"><ele>319.3</ele><time>2026-05-01T17:33:07.000Z</time></trkpt>
        <trkpt lat="29.3455266" lon="105.2415836"><ele>320.16</ele><time>2026-05-01T17:33:11.000Z</time></trkpt>
        <trkpt lat="29.3455383" lon="105.2415169"><ele>321</ele><time>2026-05-01T17:33:17.000Z</time></trkpt>
        <trkpt lat="29.3455625" lon="105.2414564"><ele>321.94</ele><time>2026-05-01T17:33:23.000Z</time></trkpt>
        <trkpt lat="29.3455856" lon="105.2413927"><ele>322.79</ele><time>2026-05-01T17:33:31.000Z</time></trkpt>
        <trkpt lat="29.3456086" lon="105.2413364"><ele>323.48</ele><time>2026-05-01T17:33:37.000Z</time></trkpt>
        <trkpt lat="29.3456311" lon="105.241288"><ele>324.05</ele><time>2026-05-01T17:33:41.000Z</time></trkpt>
        <trkpt lat="29.3456532" lon="105.241241"><ele>324.59</ele><time>2026-05-01T17:33:45.000Z</time></trkpt>
        <trkpt lat="29.3456825" lon="105.2411975"><ele>325.15</ele><time>2026-05-01T17:33:51.000Z</time></trkpt>
        <trkpt lat="29.3457157" lon="105.2411488"><ele>326.03</ele><time>2026-05-01T17:33:57.000Z</time></trkpt>
        <trkpt lat="29.3457537" lon="105.2411002"><ele>326.84</ele><time>2026-05-01T17:34:05.000Z</time></trkpt>
        <trkpt lat="29.345778" lon="105.2410367"><ele>326.82</ele><time>2026-05-01T17:34:13.000Z</time></trkpt>
        <trkpt lat="29.3457892" lon="105.2409778"><ele>326.04</ele><time>2026-05-01T17:34:17.000Z</time></trkpt>
        <trkpt lat="29.3457949" lon="105.2409114"><ele>325.2</ele><time>2026-05-01T17:34:21.000Z</time></trkpt>
        <trkpt lat="29.3457921" lon="105.2408412"><ele>324.43</ele><time>2026-05-01T17:34:25.000Z</time></trkpt>
        <trkpt lat="29.345782" lon="105.2407827"><ele>323.86</ele><time>2026-05-01T17:34:29.000Z</time></trkpt>
        <trkpt lat="29.3457601" lon="105.2407326"><ele>323.45</ele><time>2026-05-01T17:34:33.000Z</time></trkpt>
        <trkpt lat="29.3457334" lon="105.240669"><ele>323.17</ele><time>2026-05-01T17:34:39.000Z</time></trkpt>
        <trkpt lat="29.3457163" lon="105.2406123"><ele>323.1</ele><time>2026-05-01T17:34:43.000Z</time></trkpt>
        <trkpt lat="29.3456996" lon="105.2405522"><ele>323.14</ele><time>2026-05-01T17:34:47.000Z</time></trkpt>
        <trkpt lat="29.3456806" lon="105.2404945"><ele>323.25</ele><time>2026-05-01T17:34:51.000Z</time></trkpt>
        <trkpt lat="29.3456644" lon="105.2404378"><ele>323.23</ele><time>2026-05-01T17:34:55.000Z</time></trkpt>
        <trkpt lat="29.3456643" lon="105.2403825"><ele>323.22</ele><time>2026-05-01T17:34:59.000Z</time></trkpt>
        <trkpt lat="29.3456638" lon="105.2403177"><ele>323.17</ele><time>2026-05-01T17:35:05.000Z</time></trkpt>
        <trkpt lat="29.3456647" lon="105.2402443"><ele>323.09</ele><time>2026-05-01T17:35:11.000Z</time></trkpt>
        <trkpt lat="29.3456556" lon="105.2401795"><ele>323.14</ele><time>2026-05-01T17:35:17.000Z</time></trkpt>
        <trkpt lat="29.3456375" lon="105.2401097"><ele>323.21</ele><time>2026-05-01T17:35:23.000Z</time></trkpt>
        <trkpt lat="29.345614" lon="105.2400342"><ele>323.12</ele><time>2026-05-01T17:35:31.000Z</time></trkpt>
        <trkpt lat="29.3455792" lon="105.239967"><ele>323.5</ele><time>2026-05-01T17:35:35.000Z</time></trkpt>
        <trkpt lat="29.3455509" lon="105.2399144"><ele>323.71</ele><time>2026-05-01T17:35:39.000Z</time></trkpt>
        <trkpt lat="29.3455236" lon="105.239862"><ele>324.4</ele><time>2026-05-01T17:35:49.000Z</time></trkpt>
        <trkpt lat="29.3454916" lon="105.2398137"><ele>326.63</ele><time>2026-05-01T17:35:53.000Z</time></trkpt>
        <trkpt lat="29.3454518" lon="105.2397539"><ele>328.56</ele><time>2026-05-01T17:35:57.000Z</time></trkpt>
        <trkpt lat="29.3454156" lon="105.2397044"><ele>330.34</ele><time>2026-05-01T17:36:01.000Z</time></trkpt>
        <trkpt lat="29.3453764" lon="105.2396616"><ele>331.53</ele><time>2026-05-01T17:36:09.000Z</time></trkpt>
        <trkpt lat="29.3453448" lon="105.2396121"><ele>332.25</ele><time>2026-05-01T17:36:13.000Z</time></trkpt>
        <trkpt lat="29.3453138" lon="105.2395583"><ele>332.61</ele><time>2026-05-01T17:36:17.000Z</time></trkpt>
        <trkpt lat="29.3452865" lon="105.239508"><ele>332.65</ele><time>2026-05-01T17:36:23.000Z</time></trkpt>
        <trkpt lat="29.3452628" lon="105.2394593"><ele>332.63</ele><time>2026-05-01T17:36:29.000Z</time></trkpt>
        <trkpt lat="29.3452477" lon="105.2394074"><ele>333.09</ele><time>2026-05-01T17:36:33.000Z</time></trkpt>
        <trkpt lat="29.3452403" lon="105.2393504"><ele>333.65</ele><time>2026-05-01T17:36:37.000Z</time></trkpt>
        <trkpt lat="29.3452389" lon="105.2392954"><ele>334.49</ele><time>2026-05-01T17:36:41.000Z</time></trkpt>
        <trkpt lat="29.3452476" lon="105.2392265"><ele>335.18</ele><time>2026-05-01T17:36:45.000Z</time></trkpt>
        <trkpt lat="29.3452656" lon="105.2391563"><ele>335.49</ele><time>2026-05-01T17:36:49.000Z</time></trkpt>
        <trkpt lat="29.345281" lon="105.2390952"><ele>335.37</ele><time>2026-05-01T17:36:53.000Z</time></trkpt>
        <trkpt lat="29.3453031" lon="105.2390217"><ele>334.91</ele><time>2026-05-01T17:36:59.000Z</time></trkpt>
        <trkpt lat="29.3453224" lon="105.2389559"><ele>333.74</ele><time>2026-05-01T17:37:05.000Z</time></trkpt>
        <trkpt lat="29.3453275" lon="105.238886"><ele>332.56</ele><time>2026-05-01T17:37:11.000Z</time></trkpt>
        <trkpt lat="29.3453286" lon="105.2388131"><ele>331.46</ele><time>2026-05-01T17:37:17.000Z</time></trkpt>
        <trkpt lat="29.3453276" lon="105.2387382"><ele>330.23</ele><time>2026-05-01T17:37:23.000Z</time></trkpt>
        <trkpt lat="29.3453227" lon="105.2386789"><ele>329.1</ele><time>2026-05-01T17:37:27.000Z</time></trkpt>
        <trkpt lat="29.3453142" lon="105.2386257"><ele>328.41</ele><time>2026-05-01T17:37:31.000Z</time></trkpt>
        <trkpt lat="29.3452937" lon="105.2385626"><ele>328.02</ele><time>2026-05-01T17:37:37.000Z</time></trkpt>
        <trkpt lat="29.3452717" lon="105.2385115"><ele>327.97</ele><time>2026-05-01T17:37:41.000Z</time></trkpt>
        <trkpt lat="29.345255" lon="105.2384612"><ele>328.15</ele><time>2026-05-01T17:37:45.000Z</time></trkpt>
        <trkpt lat="29.3452308" lon="105.2383956"><ele>328.35</ele><time>2026-05-01T17:37:51.000Z</time></trkpt>
        <trkpt lat="29.3451926" lon="105.2383353"><ele>328.54</ele><time>2026-05-01T17:37:57.000Z</time></trkpt>
        <trkpt lat="29.3451422" lon="105.2382802"><ele>328.74</ele><time>2026-05-01T17:38:03.000Z</time></trkpt>
        <trkpt lat="29.3450996" lon="105.2382419"><ele>328.94</ele><time>2026-05-01T17:38:07.000Z</time></trkpt>
        <trkpt lat="29.345056" lon="105.2381946"><ele>329.09</ele><time>2026-05-01T17:38:13.000Z</time></trkpt>
        <trkpt lat="29.345016" lon="105.2381592"><ele>329.35</ele><time>2026-05-01T17:38:17.000Z</time></trkpt>
        <trkpt lat="29.3449775" lon="105.2381218"><ele>329.59</ele><time>2026-05-01T17:38:25.000Z</time></trkpt>
        <trkpt lat="29.3449319" lon="105.238098"><ele>329.59</ele><time>2026-05-01T17:38:31.000Z</time></trkpt>
        <trkpt lat="29.3448698" lon="105.238084"><ele>329.85</ele><time>2026-05-01T17:38:39.000Z</time></trkpt>
        <trkpt lat="29.344817" lon="105.2380651"><ele>330.65</ele><time>2026-05-01T17:38:43.000Z</time></trkpt>
        <trkpt lat="29.3447762" lon="105.2380234"><ele>331.19</ele><time>2026-05-01T17:38:51.000Z</time></trkpt>
        <trkpt lat="29.3447762" lon="105.2380234"><ele>331.19</ele><time>2026-05-01T17:39:21.000Z</time></trkpt>
        <trkpt lat="29.344765" lon="105.2379517"><ele>332.1</ele><time>2026-05-01T17:39:51.000Z</time></trkpt>
        <trkpt lat="29.344765" lon="105.2379517"><ele>332.1</ele><time>2026-05-01T17:39:59.000Z</time></trkpt>
        <trkpt lat="29.3447517" lon="105.2379"><ele>333.82</ele><time>2026-05-01T17:40:03.000Z</time></trkpt>
        <trkpt lat="29.3447397" lon="105.2378441"><ele>334.93</ele><time>2026-05-01T17:40:07.000Z</time></trkpt>
        <trkpt lat="29.3447216" lon="105.23779"><ele>335.69</ele><time>2026-05-01T17:40:13.000Z</time></trkpt>
        <trkpt lat="29.3446953" lon="105.2377252"><ele>336.04</ele><time>2026-05-01T17:40:19.000Z</time></trkpt>
        <trkpt lat="29.3446775" lon="105.2376465"><ele>335.76</ele><time>2026-05-01T17:40:23.000Z</time></trkpt>
        <trkpt lat="29.3446646" lon="105.2375571"><ele>335.22</ele><time>2026-05-01T17:40:27.000Z</time></trkpt>
        <trkpt lat="29.3446496" lon="105.2374897"><ele>335.17</ele><time>2026-05-01T17:40:33.000Z</time></trkpt>
        <trkpt lat="29.3446235" lon="105.2374417"><ele>335.48</ele><time>2026-05-01T17:40:37.000Z</time></trkpt>
        <trkpt lat="29.3445995" lon="105.2373926"><ele>335.96</ele><time>2026-05-01T17:40:43.000Z</time></trkpt>
        <trkpt lat="29.3445743" lon="105.2373443"><ele>336.24</ele><time>2026-05-01T17:40:47.000Z</time></trkpt>
        <trkpt lat="29.3445502" lon="105.2372905"><ele>336.22</ele><time>2026-05-01T17:40:51.000Z</time></trkpt>
        <trkpt lat="29.3445153" lon="105.2372469"><ele>335.74</ele><time>2026-05-01T17:40:59.000Z</time></trkpt>
        <trkpt lat="29.3444778" lon="105.2371996"><ele>334.99</ele><time>2026-05-01T17:41:05.000Z</time></trkpt>
        <trkpt lat="29.3444475" lon="105.2371441"><ele>334.35</ele><time>2026-05-01T17:41:13.000Z</time></trkpt>
        <trkpt lat="29.3444177" lon="105.2370994"><ele>333.9</ele><time>2026-05-01T17:41:17.000Z</time></trkpt>
        <trkpt lat="29.3443817" lon="105.2370503"><ele>333.55</ele><time>2026-05-01T17:41:23.000Z</time></trkpt>
        <trkpt lat="29.3443471" lon="105.2370016"><ele>333.4</ele><time>2026-05-01T17:41:27.000Z</time></trkpt>
        <trkpt lat="29.3443045" lon="105.236962"><ele>333.32</ele><time>2026-05-01T17:41:31.000Z</time></trkpt>
        <trkpt lat="29.3442541" lon="105.2369332"><ele>332.96</ele><time>2026-05-01T17:41:37.000Z</time></trkpt>
        <trkpt lat="29.3442101" lon="105.236904"><ele>332.55</ele><time>2026-05-01T17:41:43.000Z</time></trkpt>
        <trkpt lat="29.3441628" lon="105.236894"><ele>332.44</ele><time>2026-05-01T17:41:49.000Z</time></trkpt>
        <trkpt lat="29.3441093" lon="105.2369004"><ele>332.55</ele><time>2026-05-01T17:41:53.000Z</time></trkpt>
        <trkpt lat="29.3440563" lon="105.2369192"><ele>332.75</ele><time>2026-05-01T17:41:57.000Z</time></trkpt>
        <trkpt lat="29.3439963" lon="105.2369621"><ele>332.85</ele><time>2026-05-01T17:42:03.000Z</time></trkpt>
        <trkpt lat="29.3439328" lon="105.2370074"><ele>332.87</ele><time>2026-05-01T17:42:07.000Z</time></trkpt>
        <trkpt lat="29.3438809" lon="105.2370451"><ele>333.14</ele><time>2026-05-01T17:42:11.000Z</time></trkpt>
        <trkpt lat="29.3438338" lon="105.2370563"><ele>332.95</ele><time>2026-05-01T17:42:17.000Z</time></trkpt>
        <trkpt lat="29.3437868" lon="105.2370951"><ele>333.06</ele><time>2026-05-01T17:42:25.000Z</time></trkpt>
        <trkpt lat="29.3437493" lon="105.2371478"><ele>333.89</ele><time>2026-05-01T17:42:29.000Z</time></trkpt>
        <trkpt lat="29.3437026" lon="105.2371509"><ele>334.76</ele><time>2026-05-01T17:42:37.000Z</time></trkpt>
        <trkpt lat="29.3436544" lon="105.2371723"><ele>335.42</ele><time>2026-05-01T17:42:41.000Z</time></trkpt>
        <trkpt lat="29.3436032" lon="105.2371799"><ele>335.93</ele><time>2026-05-01T17:42:47.000Z</time></trkpt>
        <trkpt lat="29.3435536" lon="105.2372026"><ele>336.48</ele><time>2026-05-01T17:42:51.000Z</time></trkpt>
        <trkpt lat="29.3434974" lon="105.2372204"><ele>336.83</ele><time>2026-05-01T17:42:55.000Z</time></trkpt>
        <trkpt lat="29.3434375" lon="105.2372121"><ele>336.9</ele><time>2026-05-01T17:43:03.000Z</time></trkpt>
        <trkpt lat="29.3433804" lon="105.2372183"><ele>337.33</ele><time>2026-05-01T17:43:07.000Z</time></trkpt>
        <trkpt lat="29.3433322" lon="105.2372236"><ele>337.49</ele><time>2026-05-01T17:43:11.000Z</time></trkpt>
        <trkpt lat="29.3432799" lon="105.2372323"><ele>337.75</ele><time>2026-05-01T17:43:17.000Z</time></trkpt>
        <trkpt lat="29.3432231" lon="105.2372386"><ele>338.07</ele><time>2026-05-01T17:43:21.000Z</time></trkpt>
        <trkpt lat="29.3431722" lon="105.2372426"><ele>338.56</ele><time>2026-05-01T17:43:27.000Z</time></trkpt>
        <trkpt lat="29.3431286" lon="105.2372257"><ele>339.61</ele><time>2026-05-01T17:43:33.000Z</time></trkpt>
        <trkpt lat="29.3430775" lon="105.2371876"><ele>340.81</ele><time>2026-05-01T17:43:37.000Z</time></trkpt>
        <trkpt lat="29.3430295" lon="105.2371668"><ele>341.84</ele><time>2026-05-01T17:43:45.000Z</time></trkpt>
        <trkpt lat="29.3429764" lon="105.2371515"><ele>343.37</ele><time>2026-05-01T17:43:49.000Z</time></trkpt>
        <trkpt lat="29.3429239" lon="105.2371371"><ele>344.5</ele><time>2026-05-01T17:43:55.000Z</time></trkpt>
        <trkpt lat="29.3428643" lon="105.2371415"><ele>345.53</ele><time>2026-05-01T17:44:01.000Z</time></trkpt>
        <trkpt lat="29.3427997" lon="105.237145"><ele>346.64</ele><time>2026-05-01T17:44:05.000Z</time></trkpt>
        <trkpt lat="29.3427388" lon="105.2371508"><ele>347.44</ele><time>2026-05-01T17:44:09.000Z</time></trkpt>
        <trkpt lat="29.3426896" lon="105.2371544"><ele>347.98</ele><time>2026-05-01T17:44:15.000Z</time></trkpt>
        <trkpt lat="29.3426387" lon="105.2371505"><ele>348.42</ele><time>2026-05-01T17:44:23.000Z</time></trkpt>
        <trkpt lat="29.3425839" lon="105.2371863"><ele>349.23</ele><time>2026-05-01T17:44:29.000Z</time></trkpt>
        <trkpt lat="29.3425513" lon="105.2372621"><ele>349.9</ele><time>2026-05-01T17:44:33.000Z</time></trkpt>
        <trkpt lat="29.3425331" lon="105.2373517"><ele>350.38</ele><time>2026-05-01T17:44:37.000Z</time></trkpt>
        <trkpt lat="29.3425291" lon="105.2374356"><ele>350.95</ele><time>2026-05-01T17:44:41.000Z</time></trkpt>
        <trkpt lat="29.3425088" lon="105.2375074"><ele>352.09</ele><time>2026-05-01T17:44:47.000Z</time></trkpt>
        <trkpt lat="29.3424798" lon="105.2375689"><ele>352.48</ele><time>2026-05-01T17:44:57.000Z</time></trkpt>
        <trkpt lat="29.3424565" lon="105.2376316"><ele>352.19</ele><time>2026-05-01T17:45:01.000Z</time></trkpt>
        <trkpt lat="29.342437" lon="105.2377055"><ele>352.24</ele><time>2026-05-01T17:45:05.000Z</time></trkpt>
        <trkpt lat="29.3423975" lon="105.2377637"><ele>352.52</ele><time>2026-05-01T17:45:09.000Z</time></trkpt>
        <trkpt lat="29.3423518" lon="105.2377969"><ele>352.6</ele><time>2026-05-01T17:45:19.000Z</time></trkpt>
        <trkpt lat="29.3423174" lon="105.2378654"><ele>352.64</ele><time>2026-05-01T17:45:25.000Z</time></trkpt>
        <trkpt lat="29.3422866" lon="105.2379448"><ele>352.75</ele><time>2026-05-01T17:45:29.000Z</time></trkpt>
        <trkpt lat="29.342242" lon="105.2380032"><ele>352.99</ele><time>2026-05-01T17:45:33.000Z</time></trkpt>
        <trkpt lat="29.3422033" lon="105.2380467"><ele>353.42</ele><time>2026-05-01T17:45:37.000Z</time></trkpt>
        <trkpt lat="29.3421649" lon="105.2380814"><ele>352.9</ele><time>2026-05-01T17:45:47.000Z</time></trkpt>
        <trkpt lat="29.3421116" lon="105.2381291"><ele>351.82</ele><time>2026-05-01T17:45:53.000Z</time></trkpt>
        <trkpt lat="29.3420527" lon="105.2381976"><ele>351.38</ele><time>2026-05-01T17:45:57.000Z</time></trkpt>
        <trkpt lat="29.3420065" lon="105.2382411"><ele>351.48</ele><time>2026-05-01T17:46:03.000Z</time></trkpt>
        <trkpt lat="29.3419681" lon="105.2382866"><ele>351.27</ele><time>2026-05-01T17:46:09.000Z</time></trkpt>
        <trkpt lat="29.341916" lon="105.2383149"><ele>351.63</ele><time>2026-05-01T17:46:15.000Z</time></trkpt>
        <trkpt lat="29.341867" lon="105.2383284"><ele>352.56</ele><time>2026-05-01T17:46:21.000Z</time></trkpt>
        <trkpt lat="29.3418172" lon="105.2383426"><ele>353.14</ele><time>2026-05-01T17:46:27.000Z</time></trkpt>
        <trkpt lat="29.3417745" lon="105.2383646"><ele>353.55</ele><time>2026-05-01T17:46:31.000Z</time></trkpt>
        <trkpt lat="29.3417221" lon="105.238389"><ele>353.74</ele><time>2026-05-01T17:46:39.000Z</time></trkpt>
        <trkpt lat="29.3416557" lon="105.238413"><ele>353.81</ele><time>2026-05-01T17:46:45.000Z</time></trkpt>
        <trkpt lat="29.3416059" lon="105.2384366"><ele>354.11</ele><time>2026-05-01T17:46:49.000Z</time></trkpt>
        <trkpt lat="29.3415631" lon="105.238465"><ele>354.49</ele><time>2026-05-01T17:46:53.000Z</time></trkpt>
        <trkpt lat="29.3415011" lon="105.2385115"><ele>354.71</ele><time>2026-05-01T17:46:57.000Z</time></trkpt>
        <trkpt lat="29.3414466" lon="105.2385505"><ele>354.62</ele><time>2026-05-01T17:47:01.000Z</time></trkpt>
        <trkpt lat="29.3413905" lon="105.2385819"><ele>353.84</ele><time>2026-05-01T17:47:07.000Z</time></trkpt>
        <trkpt lat="29.3413313" lon="105.2386141"><ele>352.49</ele><time>2026-05-01T17:47:13.000Z</time></trkpt>
        <trkpt lat="29.3412911" lon="105.2386569"><ele>350.94</ele><time>2026-05-01T17:47:17.000Z</time></trkpt>
        <trkpt lat="29.3412455" lon="105.2387024"><ele>349.76</ele><time>2026-05-01T17:47:21.000Z</time></trkpt>
        <trkpt lat="29.3411857" lon="105.2387347"><ele>348.7</ele><time>2026-05-01T17:47:25.000Z</time></trkpt>
        <trkpt lat="29.3411256" lon="105.2387629"><ele>347.63</ele><time>2026-05-01T17:47:29.000Z</time></trkpt>
        <trkpt lat="29.3410673" lon="105.238789"><ele>346.58</ele><time>2026-05-01T17:47:33.000Z</time></trkpt>
        <trkpt lat="29.3410162" lon="105.2388122"><ele>345.47</ele><time>2026-05-01T17:47:37.000Z</time></trkpt>
        <trkpt lat="29.3409655" lon="105.2388359"><ele>344.15</ele><time>2026-05-01T17:47:41.000Z</time></trkpt>
        <trkpt lat="29.3409019" lon="105.2388515"><ele>342.62</ele><time>2026-05-01T17:47:45.000Z</time></trkpt>
        <trkpt lat="29.3408435" lon="105.238843"><ele>341.37</ele><time>2026-05-01T17:47:51.000Z</time></trkpt>
        <trkpt lat="29.3407951" lon="105.23883"><ele>340.09</ele><time>2026-05-01T17:47:55.000Z</time></trkpt>
        <trkpt lat="29.3407429" lon="105.2388119"><ele>339.02</ele><time>2026-05-01T17:48:01.000Z</time></trkpt>
        <trkpt lat="29.34068" lon="105.2387943"><ele>337.55</ele><time>2026-05-01T17:48:07.000Z</time></trkpt>
        <trkpt lat="29.3406268" lon="105.238784"><ele>336.62</ele><time>2026-05-01T17:48:11.000Z</time></trkpt>
        <trkpt lat="29.3405778" lon="105.2387592"><ele>336.18</ele><time>2026-05-01T17:48:17.000Z</time></trkpt>
        <trkpt lat="29.3405263" lon="105.2387278"><ele>336.62</ele><time>2026-05-01T17:48:23.000Z</time></trkpt>
        <trkpt lat="29.3404711" lon="105.2386934"><ele>337</ele><time>2026-05-01T17:48:27.000Z</time></trkpt>
        <trkpt lat="29.3404144" lon="105.2386661"><ele>337.26</ele><time>2026-05-01T17:48:31.000Z</time></trkpt>
        <trkpt lat="29.3403686" lon="105.2386382"><ele>337.32</ele><time>2026-05-01T17:48:35.000Z</time></trkpt>
        <trkpt lat="29.340322" lon="105.2386125"><ele>337.48</ele><time>2026-05-01T17:48:39.000Z</time></trkpt>
        <trkpt lat="29.3402683" lon="105.2385776"><ele>337.4</ele><time>2026-05-01T17:48:45.000Z</time></trkpt>
        <trkpt lat="29.3402368" lon="105.2385242"><ele>336.84</ele><time>2026-05-01T17:48:51.000Z</time></trkpt>
        <trkpt lat="29.3402063" lon="105.2384744"><ele>336.48</ele><time>2026-05-01T17:48:57.000Z</time></trkpt>
        <trkpt lat="29.34019" lon="105.2384235"><ele>336.02</ele><time>2026-05-01T17:49:01.000Z</time></trkpt>
        <trkpt lat="29.3401645" lon="105.2383639"><ele>335.71</ele><time>2026-05-01T17:49:07.000Z</time></trkpt>
        <trkpt lat="29.3401408" lon="105.2383001"><ele>335.4</ele><time>2026-05-01T17:49:13.000Z</time></trkpt>
        <trkpt lat="29.3401177" lon="105.2382417"><ele>335.49</ele><time>2026-05-01T17:49:17.000Z</time></trkpt>
        <trkpt lat="29.3400859" lon="105.2381796"><ele>335.75</ele><time>2026-05-01T17:49:23.000Z</time></trkpt>
        <trkpt lat="29.3400595" lon="105.2381174"><ele>336.12</ele><time>2026-05-01T17:49:29.000Z</time></trkpt>
        <trkpt lat="29.3400331" lon="105.2380616"><ele>336.32</ele><time>2026-05-01T17:49:33.000Z</time></trkpt>
        <trkpt lat="29.3400066" lon="105.238017"><ele>336.27</ele><time>2026-05-01T17:49:37.000Z</time></trkpt>
        <trkpt lat="29.3399662" lon="105.2379713"><ele>336.24</ele><time>2026-05-01T17:49:41.000Z</time></trkpt>
        <trkpt lat="29.3399333" lon="105.2379256"><ele>336.31</ele><time>2026-05-01T17:49:45.000Z</time></trkpt>
        <trkpt lat="29.3399063" lon="105.2378708"><ele>336.31</ele><time>2026-05-01T17:49:49.000Z</time></trkpt>
        <trkpt lat="29.3398703" lon="105.2378112"><ele>335.61</ele><time>2026-05-01T17:49:53.000Z</time></trkpt>
        <trkpt lat="29.3398343" lon="105.2377453"><ele>334.96</ele><time>2026-05-01T17:49:57.000Z</time></trkpt>
        <trkpt lat="29.3398038" lon="105.2376951"><ele>334.42</ele><time>2026-05-01T17:50:01.000Z</time></trkpt>
        <trkpt lat="29.3397853" lon="105.2376386"><ele>333.34</ele><time>2026-05-01T17:50:07.000Z</time></trkpt>
        <trkpt lat="29.3397611" lon="105.2375844"><ele>332.33</ele><time>2026-05-01T17:50:13.000Z</time></trkpt>
        <trkpt lat="29.3397553" lon="105.2375186"><ele>332.36</ele><time>2026-05-01T17:50:19.000Z</time></trkpt>
        <trkpt lat="29.3397623" lon="105.2374421"><ele>332.72</ele><time>2026-05-01T17:50:25.000Z</time></trkpt>
        <trkpt lat="29.3397843" lon="105.2373748"><ele>332.5</ele><time>2026-05-01T17:50:29.000Z</time></trkpt>
        <trkpt lat="29.339808" lon="105.2373143"><ele>332.07</ele><time>2026-05-01T17:50:33.000Z</time></trkpt>
        <trkpt lat="29.3398233" lon="105.2372575"><ele>331.82</ele><time>2026-05-01T17:50:37.000Z</time></trkpt>
        <trkpt lat="29.3398371" lon="105.2372055"><ele>332.03</ele><time>2026-05-01T17:50:41.000Z</time></trkpt>
        <trkpt lat="29.3398467" lon="105.2371547"><ele>332.36</ele><time>2026-05-01T17:50:47.000Z</time></trkpt>
        <trkpt lat="29.339861" lon="105.2371403"><ele>332.64</ele><time>2026-05-01T17:50:55.000Z</time></trkpt>
        <trkpt lat="29.3398785" lon="105.2370937"><ele>332.71</ele><time>2026-05-01T17:51:13.000Z</time></trkpt>
        <trkpt lat="29.3398884" lon="105.2370307"><ele>332.53</ele><time>2026-05-01T17:51:19.000Z</time></trkpt>
        <trkpt lat="29.3399153" lon="105.2369649"><ele>332.47</ele><time>2026-05-01T17:51:25.000Z</time></trkpt>
        <trkpt lat="29.3399349" lon="105.2369004"><ele>332.79</ele><time>2026-05-01T17:51:29.000Z</time></trkpt>
        <trkpt lat="29.3399549" lon="105.2368399"><ele>332.75</ele><time>2026-05-01T17:51:33.000Z</time></trkpt>
        <trkpt lat="29.3399774" lon="105.2367747"><ele>332.08</ele><time>2026-05-01T17:51:39.000Z</time></trkpt>
        <trkpt lat="29.3399908" lon="105.236718"><ele>330.58</ele><time>2026-05-01T17:51:43.000Z</time></trkpt>
        <trkpt lat="29.3400209" lon="105.236647"><ele>329.56</ele><time>2026-05-01T17:51:49.000Z</time></trkpt>
        <trkpt lat="29.3400498" lon="105.236588"><ele>328.5</ele><time>2026-05-01T17:51:53.000Z</time></trkpt>
        <trkpt lat="29.3400677" lon="105.2365352"><ele>327.6</ele><time>2026-05-01T17:52:01.000Z</time></trkpt>
        <trkpt lat="29.3401" lon="105.2364581"><ele>326.31</ele><time>2026-05-01T17:52:05.000Z</time></trkpt>
        <trkpt lat="29.3401443" lon="105.2364016"><ele>325.53</ele><time>2026-05-01T17:52:09.000Z</time></trkpt>
        <trkpt lat="29.3401648" lon="105.2363436"><ele>324.48</ele><time>2026-05-01T17:52:17.000Z</time></trkpt>
        <trkpt lat="29.3401995" lon="105.2362934"><ele>324.32</ele><time>2026-05-01T17:52:21.000Z</time></trkpt>
        <trkpt lat="29.340239" lon="105.2362407"><ele>324.66</ele><time>2026-05-01T17:52:27.000Z</time></trkpt>
        <trkpt lat="29.3402735" lon="105.2361766"><ele>325.02</ele><time>2026-05-01T17:52:33.000Z</time></trkpt>
        <trkpt lat="29.3402708" lon="105.2361132"><ele>325.14</ele><time>2026-05-01T17:53:03.000Z</time></trkpt>
        <trkpt lat="29.3402695" lon="105.2360355"><ele>325.55</ele><time>2026-05-01T17:53:09.000Z</time></trkpt>
        <trkpt lat="29.340277" lon="105.2359667"><ele>325.79</ele><time>2026-05-01T17:53:13.000Z</time></trkpt>
        <trkpt lat="29.3402775" lon="105.2359007"><ele>325.84</ele><time>2026-05-01T17:53:19.000Z</time></trkpt>
        <trkpt lat="29.3402504" lon="105.2358546"><ele>326.04</ele><time>2026-05-01T17:53:25.000Z</time></trkpt>
        <trkpt lat="29.3402125" lon="105.2358106"><ele>326.49</ele><time>2026-05-01T17:53:31.000Z</time></trkpt>
        <trkpt lat="29.340176" lon="105.2357711"><ele>326.84</ele><time>2026-05-01T17:53:35.000Z</time></trkpt>
        <trkpt lat="29.3401379" lon="105.2357314"><ele>327.21</ele><time>2026-05-01T17:53:41.000Z</time></trkpt>
        <trkpt lat="29.3401023" lon="105.2356859"><ele>327.29</ele><time>2026-05-01T17:53:47.000Z</time></trkpt>
        <trkpt lat="29.3400607" lon="105.2356392"><ele>327.3</ele><time>2026-05-01T17:53:51.000Z</time></trkpt>
        <trkpt lat="29.3400182" lon="105.2355922"><ele>327.04</ele><time>2026-05-01T17:53:55.000Z</time></trkpt>
        <trkpt lat="29.3399833" lon="105.2355378"><ele>326.72</ele><time>2026-05-01T17:53:59.000Z</time></trkpt>
        <trkpt lat="29.3399477" lon="105.2354832"><ele>326.32</ele><time>2026-05-01T17:54:03.000Z</time></trkpt>
        <trkpt lat="29.3399165" lon="105.235434"><ele>325.97</ele><time>2026-05-01T17:54:07.000Z</time></trkpt>
        <trkpt lat="29.3398831" lon="105.2353808"><ele>325.38</ele><time>2026-05-01T17:54:13.000Z</time></trkpt>
        <trkpt lat="29.3398586" lon="105.2353285"><ele>325.04</ele><time>2026-05-01T17:54:17.000Z</time></trkpt>
        <trkpt lat="29.3398436" lon="105.2352653"><ele>324.81</ele><time>2026-05-01T17:54:21.000Z</time></trkpt>
        <trkpt lat="29.3398277" lon="105.2352045"><ele>324.55</ele><time>2026-05-01T17:54:25.000Z</time></trkpt>
        <trkpt lat="29.3398108" lon="105.2351414"><ele>324.18</ele><time>2026-05-01T17:54:31.000Z</time></trkpt>
        <trkpt lat="29.3397881" lon="105.2350839"><ele>323.42</ele><time>2026-05-01T17:54:37.000Z</time></trkpt>
        <trkpt lat="29.3397569" lon="105.2350136"><ele>321.82</ele><time>2026-05-01T17:54:43.000Z</time></trkpt>
        <trkpt lat="29.3397254" lon="105.2349561"><ele>320.18</ele><time>2026-05-01T17:54:49.000Z</time></trkpt>
        <trkpt lat="29.3397005" lon="105.2349037"><ele>318.68</ele><time>2026-05-01T17:54:53.000Z</time></trkpt>
        <trkpt lat="29.3396697" lon="105.2348479"><ele>317.44</ele><time>2026-05-01T17:54:59.000Z</time></trkpt>
        <trkpt lat="29.3396403" lon="105.2347991"><ele>315.7</ele><time>2026-05-01T17:55:03.000Z</time></trkpt>
        <trkpt lat="29.3396116" lon="105.234734"><ele>314.88</ele><time>2026-05-01T17:55:07.000Z</time></trkpt>
        <trkpt lat="29.3395957" lon="105.2346663"><ele>314.16</ele><time>2026-05-01T17:55:11.000Z</time></trkpt>
        <trkpt lat="29.3395895" lon="105.2345921"><ele>312.41</ele><time>2026-05-01T17:55:17.000Z</time></trkpt>
        <trkpt lat="29.3395887" lon="105.2345235"><ele>310.95</ele><time>2026-05-01T17:55:21.000Z</time></trkpt>
        <trkpt lat="29.3395888" lon="105.2344675"><ele>309.98</ele><time>2026-05-01T17:55:25.000Z</time></trkpt>
        <trkpt lat="29.3395849" lon="105.2343962"><ele>309.21</ele><time>2026-05-01T17:55:31.000Z</time></trkpt>
        <trkpt lat="29.3395789" lon="105.2343336"><ele>308.99</ele><time>2026-05-01T17:55:37.000Z</time></trkpt>
        <trkpt lat="29.3395772" lon="105.234261"><ele>309.21</ele><time>2026-05-01T17:55:43.000Z</time></trkpt>
        <trkpt lat="29.3395722" lon="105.2341994"><ele>310.02</ele><time>2026-05-01T17:55:51.000Z</time></trkpt>
        <trkpt lat="29.3395582" lon="105.234141"><ele>311.48</ele><time>2026-05-01T17:55:55.000Z</time></trkpt>
        <trkpt lat="29.3395574" lon="105.234086"><ele>312.6</ele><time>2026-05-01T17:55:59.000Z</time></trkpt>
        <trkpt lat="29.3395481" lon="105.2340356"><ele>313.46</ele><time>2026-05-01T17:56:03.000Z</time></trkpt>
        <trkpt lat="29.339514" lon="105.2339789"><ele>314</ele><time>2026-05-01T17:56:07.000Z</time></trkpt>
        <trkpt lat="29.3394685" lon="105.2339296"><ele>314.64</ele><time>2026-05-01T17:56:11.000Z</time></trkpt>
        <trkpt lat="29.3394166" lon="105.2338855"><ele>315.27</ele><time>2026-05-01T17:56:15.000Z</time></trkpt>
        <trkpt lat="29.3393789" lon="105.2338442"><ele>315.28</ele><time>2026-05-01T17:56:19.000Z</time></trkpt>
        <trkpt lat="29.3393661" lon="105.2337922"><ele>314.69</ele><time>2026-05-01T17:56:23.000Z</time></trkpt>
        <trkpt lat="29.3393761" lon="105.2337309"><ele>313.32</ele><time>2026-05-01T17:56:31.000Z</time></trkpt>
        <trkpt lat="29.3394004" lon="105.2336654"><ele>312.41</ele><time>2026-05-01T17:56:37.000Z</time></trkpt>
        <trkpt lat="29.3394255" lon="105.2336077"><ele>312.1</ele><time>2026-05-01T17:56:43.000Z</time></trkpt>
        <trkpt lat="29.3394364" lon="105.2335435"><ele>312.23</ele><time>2026-05-01T17:56:49.000Z</time></trkpt>
        <trkpt lat="29.3394374" lon="105.2334855"><ele>312.73</ele><time>2026-05-01T17:56:53.000Z</time></trkpt>
        <trkpt lat="29.3394362" lon="105.2334252"><ele>313.58</ele><time>2026-05-01T17:56:57.000Z</time></trkpt>
        <trkpt lat="29.3394424" lon="105.2333425"><ele>314.49</ele><time>2026-05-01T17:57:01.000Z</time></trkpt>
        <trkpt lat="29.3394493" lon="105.2332717"><ele>315.31</ele><time>2026-05-01T17:57:05.000Z</time></trkpt>
        <trkpt lat="29.3394638" lon="105.2332178"><ele>316.68</ele><time>2026-05-01T17:57:09.000Z</time></trkpt>
        <trkpt lat="29.3394621" lon="105.2331512"><ele>318.11</ele><time>2026-05-01T17:57:19.000Z</time></trkpt>
        <trkpt lat="29.3394604" lon="105.2330879"><ele>319.4</ele><time>2026-05-01T17:57:23.000Z</time></trkpt>
        <trkpt lat="29.3394642" lon="105.2330197"><ele>320.65</ele><time>2026-05-01T17:57:27.000Z</time></trkpt>
        <trkpt lat="29.3394755" lon="105.2329597"><ele>321.96</ele><time>2026-05-01T17:57:31.000Z</time></trkpt>
        <trkpt lat="29.3394793" lon="105.2328954"><ele>322.62</ele><time>2026-05-01T17:57:37.000Z</time></trkpt>
        <trkpt lat="29.3394724" lon="105.2328404"><ele>322.74</ele><time>2026-05-01T17:57:41.000Z</time></trkpt>
        <trkpt lat="29.3394479" lon="105.232789"><ele>322.68</ele><time>2026-05-01T17:57:47.000Z</time></trkpt>
        <trkpt lat="29.3394128" lon="105.2327371"><ele>322.65</ele><time>2026-05-01T17:57:53.000Z</time></trkpt>
        <trkpt lat="29.339375" lon="105.2326758"><ele>322.88</ele><time>2026-05-01T17:57:59.000Z</time></trkpt>
        <trkpt lat="29.3393438" lon="105.2326196"><ele>323.15</ele><time>2026-05-01T17:58:03.000Z</time></trkpt>
        <trkpt lat="29.3393108" lon="105.2325619"><ele>323.34</ele><time>2026-05-01T17:58:11.000Z</time></trkpt>
        <trkpt lat="29.3392861" lon="105.2325012"><ele>323.63</ele><time>2026-05-01T17:58:17.000Z</time></trkpt>
        <trkpt lat="29.3392707" lon="105.2324481"><ele>323.36</ele><time>2026-05-01T17:58:21.000Z</time></trkpt>
        <trkpt lat="29.3392621" lon="105.2324218"><ele>323.2</ele><time>2026-05-01T17:58:29.000Z</time></trkpt>
        <trkpt lat="29.3392428" lon="105.2323762"><ele>323.24</ele><time>2026-05-01T17:58:35.000Z</time></trkpt>
        <trkpt lat="29.3392213" lon="105.2323268"><ele>323.57</ele><time>2026-05-01T17:58:39.000Z</time></trkpt>
        <trkpt lat="29.3392068" lon="105.2322751"><ele>323.71</ele><time>2026-05-01T17:58:43.000Z</time></trkpt>
        <trkpt lat="29.3392074" lon="105.2322228"><ele>323.32</ele><time>2026-05-01T17:58:55.000Z</time></trkpt>
        <trkpt lat="29.3392084" lon="105.2321668"><ele>322.24</ele><time>2026-05-01T17:59:01.000Z</time></trkpt>
        <trkpt lat="29.3392148" lon="105.2321084"><ele>321.14</ele><time>2026-05-01T17:59:05.000Z</time></trkpt>
        <trkpt lat="29.3392189" lon="105.2320419"><ele>320.18</ele><time>2026-05-01T17:59:11.000Z</time></trkpt>
        <trkpt lat="29.3392178" lon="105.2319816"><ele>319.37</ele><time>2026-05-01T17:59:15.000Z</time></trkpt>
        <trkpt lat="29.3392159" lon="105.2319265"><ele>318.95</ele><time>2026-05-01T17:59:19.000Z</time></trkpt>
        <trkpt lat="29.3392151" lon="105.2318709"><ele>318.76</ele><time>2026-05-01T17:59:23.000Z</time></trkpt>
        <trkpt lat="29.3392186" lon="105.2318185"><ele>318.56</ele><time>2026-05-01T17:59:27.000Z</time></trkpt>
        <trkpt lat="29.3392212" lon="105.2317572"><ele>318.32</ele><time>2026-05-01T17:59:33.000Z</time></trkpt>
        <trkpt lat="29.3392007" lon="105.2317174"><ele>318.14</ele><time>2026-05-01T17:59:43.000Z</time></trkpt>
        <trkpt lat="29.3392007" lon="105.2317174"><ele>318.14</ele><time>2026-05-01T18:00:03.000Z</time></trkpt>
        <trkpt lat="29.3391893" lon="105.2316657"><ele>318.55</ele><time>2026-05-01T18:00:09.000Z</time></trkpt>
        <trkpt lat="29.3391893" lon="105.2316657"><ele>318.55</ele><time>2026-05-01T18:00:13.000Z</time></trkpt>
        <trkpt lat="29.3391861" lon="105.2316138"><ele>320.04</ele><time>2026-05-01T18:00:17.000Z</time></trkpt>
        <trkpt lat="29.3391748" lon="105.2315494"><ele>321.01</ele><time>2026-05-01T18:00:23.000Z</time></trkpt>
        <trkpt lat="29.3391577" lon="105.231478"><ele>321.74</ele><time>2026-05-01T18:00:29.000Z</time></trkpt>
        <trkpt lat="29.3391462" lon="105.2314185"><ele>322.07</ele><time>2026-05-01T18:00:33.000Z</time></trkpt>
        <trkpt lat="29.3391197" lon="105.2313579"><ele>322.21</ele><time>2026-05-01T18:00:39.000Z</time></trkpt>
        <trkpt lat="29.3390802" lon="105.2312979"><ele>322.42</ele><time>2026-05-01T18:00:45.000Z</time></trkpt>
        <trkpt lat="29.3390454" lon="105.2312531"><ele>322.93</ele><time>2026-05-01T18:00:49.000Z</time></trkpt>
        <trkpt lat="29.339016" lon="105.2312112"><ele>323.09</ele><time>2026-05-01T18:00:53.000Z</time></trkpt>
        <trkpt lat="29.3389901" lon="105.2311608"><ele>322.88</ele><time>2026-05-01T18:00:59.000Z</time></trkpt>
        <trkpt lat="29.3389767" lon="105.2310967"><ele>321.94</ele><time>2026-05-01T18:01:09.000Z</time></trkpt>
        <trkpt lat="29.3389789" lon="105.2310201"><ele>320.89</ele><time>2026-05-01T18:01:15.000Z</time></trkpt>
        <trkpt lat="29.3389872" lon="105.2309561"><ele>319.99</ele><time>2026-05-01T18:01:19.000Z</time></trkpt>
        <trkpt lat="29.3389964" lon="105.2308928"><ele>319.35</ele><time>2026-05-01T18:01:23.000Z</time></trkpt>
        <trkpt lat="29.3390025" lon="105.2308272"><ele>319.16</ele><time>2026-05-01T18:01:29.000Z</time></trkpt>
        <trkpt lat="29.339003" lon="105.2307693"><ele>319.18</ele><time>2026-05-01T18:01:39.000Z</time></trkpt>
        <trkpt lat="29.3390002" lon="105.2307157"><ele>319.14</ele><time>2026-05-01T18:01:43.000Z</time></trkpt>
        <trkpt lat="29.3389913" lon="105.230652"><ele>319.12</ele><time>2026-05-01T18:01:47.000Z</time></trkpt>
        <trkpt lat="29.3389793" lon="105.2305903"><ele>318.81</ele><time>2026-05-01T18:01:51.000Z</time></trkpt>
        <trkpt lat="29.3389766" lon="105.2305361"><ele>318.68</ele><time>2026-05-01T18:01:55.000Z</time></trkpt>
        <trkpt lat="29.3390016" lon="105.2304745"><ele>318.73</ele><time>2026-05-01T18:02:01.000Z</time></trkpt>
        <trkpt lat="29.3390377" lon="105.23042"><ele>318.85</ele><time>2026-05-01T18:02:05.000Z</time></trkpt>
        <trkpt lat="29.3390786" lon="105.230372"><ele>319.17</ele><time>2026-05-01T18:02:13.000Z</time></trkpt>
        <trkpt lat="29.3391186" lon="105.230316"><ele>319.27</ele><time>2026-05-01T18:02:19.000Z</time></trkpt>
        <trkpt lat="29.3391534" lon="105.2302742"><ele>319.2</ele><time>2026-05-01T18:02:23.000Z</time></trkpt>
        <trkpt lat="29.3391833" lon="105.2302314"><ele>319.03</ele><time>2026-05-01T18:02:27.000Z</time></trkpt>
        <trkpt lat="29.3392127" lon="105.2301839"><ele>318.58</ele><time>2026-05-01T18:02:31.000Z</time></trkpt>
        <trkpt lat="29.3392485" lon="105.2301406"><ele>318.08</ele><time>2026-05-01T18:02:35.000Z</time></trkpt>
        <trkpt lat="29.3392829" lon="105.2301001"><ele>317.48</ele><time>2026-05-01T18:02:39.000Z</time></trkpt>
        <trkpt lat="29.3393142" lon="105.2300606"><ele>316.93</ele><time>2026-05-01T18:02:43.000Z</time></trkpt>
        <trkpt lat="29.3393517" lon="105.2300211"><ele>316.36</ele><time>2026-05-01T18:02:49.000Z</time></trkpt>
        <trkpt lat="29.3393929" lon="105.2299814"><ele>315.73</ele><time>2026-05-01T18:02:55.000Z</time></trkpt>
        <trkpt lat="29.3394302" lon="105.2299441"><ele>315.2</ele><time>2026-05-01T18:03:01.000Z</time></trkpt>
        <trkpt lat="29.3394644" lon="105.2298938"><ele>314.25</ele><time>2026-05-01T18:03:07.000Z</time></trkpt>
        <trkpt lat="29.3394989" lon="105.2298299"><ele>313.33</ele><time>2026-05-01T18:03:13.000Z</time></trkpt>
        <trkpt lat="29.3395235" lon="105.2297754"><ele>312.58</ele><time>2026-05-01T18:03:17.000Z</time></trkpt>
        <trkpt lat="29.3395447" lon="105.2297103"><ele>311.9</ele><time>2026-05-01T18:03:23.000Z</time></trkpt>
        <trkpt lat="29.3395639" lon="105.2296515"><ele>311.08</ele><time>2026-05-01T18:03:27.000Z</time></trkpt>
        <trkpt lat="29.3395717" lon="105.2295906"><ele>310.7</ele><time>2026-05-01T18:03:31.000Z</time></trkpt>
        <trkpt lat="29.3395919" lon="105.2295327"><ele>310.62</ele><time>2026-05-01T18:03:35.000Z</time></trkpt>
        <trkpt lat="29.3396237" lon="105.2294922"><ele>310.48</ele><time>2026-05-01T18:03:39.000Z</time></trkpt>
        <trkpt lat="29.3396696" lon="105.2294467"><ele>310.27</ele><time>2026-05-01T18:03:43.000Z</time></trkpt>
        <trkpt lat="29.3397135" lon="105.2293922"><ele>310.07</ele><time>2026-05-01T18:03:49.000Z</time></trkpt>
        <trkpt lat="29.3397494" lon="105.229349"><ele>309.87</ele><time>2026-05-01T18:03:55.000Z</time></trkpt>
        <trkpt lat="29.3397767" lon="105.2293067"><ele>310.18</ele><time>2026-05-01T18:04:13.000Z</time></trkpt>
        <trkpt lat="29.3398086" lon="105.2292642"><ele>311.44</ele><time>2026-05-01T18:04:19.000Z</time></trkpt>
        <trkpt lat="29.3398352" lon="105.2292213"><ele>312.28</ele><time>2026-05-01T18:04:25.000Z</time></trkpt>
        <trkpt lat="29.3398675" lon="105.2291695"><ele>313.32</ele><time>2026-05-01T18:04:31.000Z</time></trkpt>
        <trkpt lat="29.3399021" lon="105.2291205"><ele>313.83</ele><time>2026-05-01T18:04:37.000Z</time></trkpt>
        <trkpt lat="29.3399274" lon="105.2290568"><ele>314.2</ele><time>2026-05-01T18:04:43.000Z</time></trkpt>
        <trkpt lat="29.3399416" lon="105.2290004"><ele>314.16</ele><time>2026-05-01T18:04:47.000Z</time></trkpt>
        <trkpt lat="29.3399372" lon="105.2289436"><ele>314.26</ele><time>2026-05-01T18:04:51.000Z</time></trkpt>
        <trkpt lat="29.3399217" lon="105.2288906"><ele>314.45</ele><time>2026-05-01T18:04:55.000Z</time></trkpt>
        <trkpt lat="29.339876" lon="105.2288515"><ele>314.82</ele><time>2026-05-01T18:05:01.000Z</time></trkpt>
        <trkpt lat="29.339876" lon="105.2288515"><ele>314.82</ele><time>2026-05-01T18:05:29.000Z</time></trkpt>
        <trkpt lat="29.3398283" lon="105.2288123"><ele>315.54</ele><time>2026-05-01T18:05:37.000Z</time></trkpt>
        <trkpt lat="29.3398283" lon="105.2288123"><ele>315.54</ele><time>2026-05-01T18:05:39.000Z</time></trkpt>
        <trkpt lat="29.3397747" lon="105.2287747"><ele>316.73</ele><time>2026-05-01T18:05:45.000Z</time></trkpt>
        <trkpt lat="29.3397291" lon="105.2287347"><ele>317.45</ele><time>2026-05-01T18:05:51.000Z</time></trkpt>
        <trkpt lat="29.3396761" lon="105.2286961"><ele>317.9</ele><time>2026-05-01T18:05:57.000Z</time></trkpt>
        <trkpt lat="29.3396244" lon="105.2286604"><ele>317.99</ele><time>2026-05-01T18:06:03.000Z</time></trkpt>
        <trkpt lat="29.3395749" lon="105.2286257"><ele>317.65</ele><time>2026-05-01T18:06:09.000Z</time></trkpt>
        <trkpt lat="29.3395288" lon="105.2285973"><ele>317.15</ele><time>2026-05-01T18:06:13.000Z</time></trkpt>
        <trkpt lat="29.3394852" lon="105.2285687"><ele>316.83</ele><time>2026-05-01T18:06:19.000Z</time></trkpt>
        <trkpt lat="29.3394348" lon="105.2285407"><ele>316.69</ele><time>2026-05-01T18:06:25.000Z</time></trkpt>
        <trkpt lat="29.3393767" lon="105.2285103"><ele>317.08</ele><time>2026-05-01T18:06:31.000Z</time></trkpt>
        <trkpt lat="29.3393285" lon="105.2284839"><ele>317.48</ele><time>2026-05-01T18:06:35.000Z</time></trkpt>
        <trkpt lat="29.3392782" lon="105.2284451"><ele>317.83</ele><time>2026-05-01T18:06:41.000Z</time></trkpt>
        <trkpt lat="29.3392282" lon="105.228408"><ele>318.29</ele><time>2026-05-01T18:06:47.000Z</time></trkpt>
        <trkpt lat="29.339187" lon="105.228372"><ele>318.51</ele><time>2026-05-01T18:06:53.000Z</time></trkpt>
        <trkpt lat="29.339149" lon="105.2283266"><ele>318.46</ele><time>2026-05-01T18:06:59.000Z</time></trkpt>
        <trkpt lat="29.3391079" lon="105.2282779"><ele>318.13</ele><time>2026-05-01T18:07:05.000Z</time></trkpt>
        <trkpt lat="29.3390716" lon="105.2282347"><ele>317.9</ele><time>2026-05-01T18:07:11.000Z</time></trkpt>
        <trkpt lat="29.3390306" lon="105.2281902"><ele>317.17</ele><time>2026-05-01T18:07:17.000Z</time></trkpt>
        <trkpt lat="29.3389977" lon="105.2281428"><ele>316.45</ele><time>2026-05-01T18:07:21.000Z</time></trkpt>
        <trkpt lat="29.3389552" lon="105.2281056"><ele>315.66</ele><time>2026-05-01T18:07:27.000Z</time></trkpt>
        <trkpt lat="29.3389127" lon="105.2280384"><ele>314.73</ele><time>2026-05-01T18:07:33.000Z</time></trkpt>
        <trkpt lat="29.3388692" lon="105.2279912"><ele>313.81</ele><time>2026-05-01T18:07:39.000Z</time></trkpt>
        <trkpt lat="29.338833" lon="105.2279502"><ele>313.59</ele><time>2026-05-01T18:07:43.000Z</time></trkpt>
        <trkpt lat="29.3387922" lon="105.2279098"><ele>313.81</ele><time>2026-05-01T18:07:47.000Z</time></trkpt>
        <trkpt lat="29.3387555" lon="105.2278753"><ele>313.98</ele><time>2026-05-01T18:07:51.000Z</time></trkpt>
        <trkpt lat="29.338728" lon="105.227834"><ele>313.94</ele><time>2026-05-01T18:07:55.000Z</time></trkpt>
        <trkpt lat="29.3386924" lon="105.2277859"><ele>314.14</ele><time>2026-05-01T18:08:01.000Z</time></trkpt>
        <trkpt lat="29.3386482" lon="105.2277418"><ele>314.17</ele><time>2026-05-01T18:08:07.000Z</time></trkpt>
        <trkpt lat="29.338601" lon="105.2277095"><ele>314.35</ele><time>2026-05-01T18:08:11.000Z</time></trkpt>
        <trkpt lat="29.3385458" lon="105.2276615"><ele>314.55</ele><time>2026-05-01T18:08:15.000Z</time></trkpt>
        <trkpt lat="29.3384993" lon="105.2276196"><ele>314.83</ele><time>2026-05-01T18:08:21.000Z</time></trkpt>
        <trkpt lat="29.3384629" lon="105.2275618"><ele>315.16</ele><time>2026-05-01T18:08:27.000Z</time></trkpt>
        <trkpt lat="29.3384302" lon="105.2275143"><ele>315.35</ele><time>2026-05-01T18:08:31.000Z</time></trkpt>
        <trkpt lat="29.3383968" lon="105.2274727"><ele>315.2</ele><time>2026-05-01T18:08:35.000Z</time></trkpt>
        <trkpt lat="29.3383741" lon="105.2274268"><ele>314.81</ele><time>2026-05-01T18:08:39.000Z</time></trkpt>
        <trkpt lat="29.3383524" lon="105.2273803"><ele>314.38</ele><time>2026-05-01T18:08:43.000Z</time></trkpt>
        <trkpt lat="29.3383229" lon="105.2273273"><ele>313.83</ele><time>2026-05-01T18:08:49.000Z</time></trkpt>
        <trkpt lat="29.3382863" lon="105.2272795"><ele>313.51</ele><time>2026-05-01T18:08:57.000Z</time></trkpt>
        <trkpt lat="29.3382574" lon="105.2272165"><ele>313.68</ele><time>2026-05-01T18:09:03.000Z</time></trkpt>
        <trkpt lat="29.3382505" lon="105.2271502"><ele>313.9</ele><time>2026-05-01T18:09:07.000Z</time></trkpt>
        <trkpt lat="29.3382403" lon="105.2270812"><ele>313.95</ele><time>2026-05-01T18:09:13.000Z</time></trkpt>
        <trkpt lat="29.3382251" lon="105.2270192"><ele>313.71</ele><time>2026-05-01T18:09:19.000Z</time></trkpt>
        <trkpt lat="29.3382075" lon="105.2269565"><ele>313.53</ele><time>2026-05-01T18:09:25.000Z</time></trkpt>
        <trkpt lat="29.3381978" lon="105.2268796"><ele>313.13</ele><time>2026-05-01T18:09:31.000Z</time></trkpt>
        <trkpt lat="29.3381887" lon="105.2268075"><ele>312.9</ele><time>2026-05-01T18:09:35.000Z</time></trkpt>
        <trkpt lat="29.3381781" lon="105.2267492"><ele>312.9</ele><time>2026-05-01T18:09:39.000Z</time></trkpt>
        <trkpt lat="29.3381593" lon="105.2266999"><ele>313.03</ele><time>2026-05-01T18:09:43.000Z</time></trkpt>
        <trkpt lat="29.3381386" lon="105.2266506"><ele>313.28</ele><time>2026-05-01T18:09:47.000Z</time></trkpt>
        <trkpt lat="29.3381266" lon="105.2265955"><ele>313.54</ele><time>2026-05-01T18:09:53.000Z</time></trkpt>
        <trkpt lat="29.3381217" lon="105.2265378"><ele>313.91</ele><time>2026-05-01T18:09:57.000Z</time></trkpt>
        <trkpt lat="29.3381179" lon="105.226483"><ele>314.29</ele><time>2026-05-01T18:10:01.000Z</time></trkpt>
        <trkpt lat="29.3381189" lon="105.2264306"><ele>314.6</ele><time>2026-05-01T18:10:05.000Z</time></trkpt>
        <trkpt lat="29.3381177" lon="105.2263717"><ele>314.9</ele><time>2026-05-01T18:10:13.000Z</time></trkpt>
        <trkpt lat="29.3381201" lon="105.2263151"><ele>315.59</ele><time>2026-05-01T18:10:17.000Z</time></trkpt>
        <trkpt lat="29.3381225" lon="105.2262534"><ele>316.28</ele><time>2026-05-01T18:10:21.000Z</time></trkpt>
        <trkpt lat="29.3381372" lon="105.2261811"><ele>316.93</ele><time>2026-05-01T18:10:25.000Z</time></trkpt>
        <trkpt lat="29.3381562" lon="105.2261252"><ele>317.69</ele><time>2026-05-01T18:10:29.000Z</time></trkpt>
        <trkpt lat="29.338171" lon="105.2260686"><ele>318.77</ele><time>2026-05-01T18:10:35.000Z</time></trkpt>
        <trkpt lat="29.3381724" lon="105.2260062"><ele>319.99</ele><time>2026-05-01T18:10:41.000Z</time></trkpt>
        <trkpt lat="29.3381626" lon="105.2259414"><ele>321.24</ele><time>2026-05-01T18:10:47.000Z</time></trkpt>
        <trkpt lat="29.3381543" lon="105.225881"><ele>322.43</ele><time>2026-05-01T18:10:51.000Z</time></trkpt>
        <trkpt lat="29.3381475" lon="105.2258148"><ele>323.41</ele><time>2026-05-01T18:10:57.000Z</time></trkpt>
        <trkpt lat="29.3381418" lon="105.225749"><ele>324.35</ele><time>2026-05-01T18:11:01.000Z</time></trkpt>
        <trkpt lat="29.3381366" lon="105.2256873"><ele>325.02</ele><time>2026-05-01T18:11:05.000Z</time></trkpt>
        <trkpt lat="29.3381278" lon="105.2256298"><ele>325.4</ele><time>2026-05-01T18:11:09.000Z</time></trkpt>
        <trkpt lat="29.3381139" lon="105.2255736"><ele>325.96</ele><time>2026-05-01T18:11:17.000Z</time></trkpt>
        <trkpt lat="29.3381009" lon="105.22552"><ele>326.49</ele><time>2026-05-01T18:11:21.000Z</time></trkpt>
        <trkpt lat="29.3381111" lon="105.2254472"><ele>327.05</ele><time>2026-05-01T18:11:25.000Z</time></trkpt>
        <trkpt lat="29.3381237" lon="105.2253795"><ele>327.25</ele><time>2026-05-01T18:11:29.000Z</time></trkpt>
        <trkpt lat="29.3381222" lon="105.225316"><ele>327.23</ele><time>2026-05-01T18:11:35.000Z</time></trkpt>
        <trkpt lat="29.3381323" lon="105.2252466"><ele>327.09</ele><time>2026-05-01T18:11:41.000Z</time></trkpt>
        <trkpt lat="29.3381433" lon="105.2251887"><ele>326.75</ele><time>2026-05-01T18:11:47.000Z</time></trkpt>
        <trkpt lat="29.3381433" lon="105.2251887"><ele>326.75</ele><time>2026-05-01T18:12:15.000Z</time></trkpt>
        <trkpt lat="29.3381391" lon="105.225119"><ele>326.17</ele><time>2026-05-01T18:12:19.000Z</time></trkpt>
        <trkpt lat="29.3381391" lon="105.225119"><ele>326.17</ele><time>2026-05-01T18:12:21.000Z</time></trkpt>
        <trkpt lat="29.3381429" lon="105.225057"><ele>324.59</ele><time>2026-05-01T18:12:25.000Z</time></trkpt>
        <trkpt lat="29.3381502" lon="105.2249895"><ele>323.39</ele><time>2026-05-01T18:12:31.000Z</time></trkpt>
        <trkpt lat="29.3381601" lon="105.2249272"><ele>321.93</ele><time>2026-05-01T18:12:37.000Z</time></trkpt>
        <trkpt lat="29.3381694" lon="105.2248708"><ele>320.28</ele><time>2026-05-01T18:12:41.000Z</time></trkpt>
        <trkpt lat="29.3381706" lon="105.2248051"><ele>319.13</ele><time>2026-05-01T18:12:47.000Z</time></trkpt>
        <trkpt lat="29.3381789" lon="105.2247493"><ele>318.08</ele><time>2026-05-01T18:12:51.000Z</time></trkpt>
        <trkpt lat="29.3381864" lon="105.2246974"><ele>317.19</ele><time>2026-05-01T18:12:59.000Z</time></trkpt>
        <trkpt lat="29.3382008" lon="105.2246404"><ele>316.68</ele><time>2026-05-01T18:13:05.000Z</time></trkpt>
        <trkpt lat="29.3382329" lon="105.2245772"><ele>316.04</ele><time>2026-05-01T18:13:11.000Z</time></trkpt>
        <trkpt lat="29.3382659" lon="105.2245257"><ele>315.34</ele><time>2026-05-01T18:13:15.000Z</time></trkpt>
        <trkpt lat="29.3382968" lon="105.2244912"><ele>314.59</ele><time>2026-05-01T18:13:25.000Z</time></trkpt>
        <trkpt lat="29.3383263" lon="105.2244313"><ele>314.72</ele><time>2026-05-01T18:13:49.000Z</time></trkpt>
        <trkpt lat="29.3383551" lon="105.2243635"><ele>315.4</ele><time>2026-05-01T18:13:55.000Z</time></trkpt>
        <trkpt lat="29.338371" lon="105.2243072"><ele>315.36</ele><time>2026-05-01T18:13:59.000Z</time></trkpt>
        <trkpt lat="29.3383872" lon="105.2242473"><ele>315.07</ele><time>2026-05-01T18:14:03.000Z</time></trkpt>
        <trkpt lat="29.3384067" lon="105.2241833"><ele>314.44</ele><time>2026-05-01T18:14:09.000Z</time></trkpt>
        <trkpt lat="29.3384391" lon="105.2241355"><ele>313.09</ele><time>2026-05-01T18:14:17.000Z</time></trkpt>
        <trkpt lat="29.3384637" lon="105.2240739"><ele>311.98</ele><time>2026-05-01T18:14:25.000Z</time></trkpt>
        <trkpt lat="29.3384722" lon="105.2240027"><ele>311.77</ele><time>2026-05-01T18:14:31.000Z</time></trkpt>
        <trkpt lat="29.3384748" lon="105.2239384"><ele>312.26</ele><time>2026-05-01T18:14:35.000Z</time></trkpt>
        <trkpt lat="29.3384826" lon="105.2238723"><ele>312.92</ele><time>2026-05-01T18:14:39.000Z</time></trkpt>
        <trkpt lat="29.3384854" lon="105.223813"><ele>313.73</ele><time>2026-05-01T18:14:45.000Z</time></trkpt>
        <trkpt lat="29.3384829" lon="105.2237527"><ele>314.79</ele><time>2026-05-01T18:14:49.000Z</time></trkpt>
        <trkpt lat="29.3384825" lon="105.2236828"><ele>315.83</ele><time>2026-05-01T18:15:01.000Z</time></trkpt>
        <trkpt lat="29.3384796" lon="105.2236181"><ele>316.72</ele><time>2026-05-01T18:15:05.000Z</time></trkpt>
        <trkpt lat="29.3384672" lon="105.2235595"><ele>317.4</ele><time>2026-05-01T18:15:09.000Z</time></trkpt>
        <trkpt lat="29.3384527" lon="105.2235006"><ele>317.7</ele><time>2026-05-01T18:15:15.000Z</time></trkpt>
        <trkpt lat="29.3384444" lon="105.2234463"><ele>317.7</ele><time>2026-05-01T18:15:19.000Z</time></trkpt>
        <trkpt lat="29.3384288" lon="105.2233847"><ele>317.61</ele><time>2026-05-01T18:15:23.000Z</time></trkpt>
        <trkpt lat="29.3384179" lon="105.2233188"><ele>317.87</ele><time>2026-05-01T18:15:27.000Z</time></trkpt>
        <trkpt lat="29.3384016" lon="105.2232528"><ele>318.01</ele><time>2026-05-01T18:15:33.000Z</time></trkpt>
        <trkpt lat="29.3383707" lon="105.2231947"><ele>317.88</ele><time>2026-05-01T18:15:39.000Z</time></trkpt>
        <trkpt lat="29.3383409" lon="105.2231246"><ele>318.23</ele><time>2026-05-01T18:15:45.000Z</time></trkpt>
        <trkpt lat="29.3383251" lon="105.2230635"><ele>318.73</ele><time>2026-05-01T18:15:49.000Z</time></trkpt>
        <trkpt lat="29.3383148" lon="105.2230063"><ele>319.15</ele><time>2026-05-01T18:15:55.000Z</time></trkpt>
        <trkpt lat="29.3383172" lon="105.2229389"><ele>319.69</ele><time>2026-05-01T18:16:01.000Z</time></trkpt>
        <trkpt lat="29.3383413" lon="105.2228788"><ele>320.17</ele><time>2026-05-01T18:16:05.000Z</time></trkpt>
        <trkpt lat="29.3383722" lon="105.2228179"><ele>320.05</ele><time>2026-05-01T18:16:09.000Z</time></trkpt>
        <trkpt lat="29.3384114" lon="105.2227579"><ele>319.69</ele><time>2026-05-01T18:16:13.000Z</time></trkpt>
        <trkpt lat="29.3384537" lon="105.2226968"><ele>319.18</ele><time>2026-05-01T18:16:17.000Z</time></trkpt>
        <trkpt lat="29.3384921" lon="105.2226339"><ele>318.41</ele><time>2026-05-01T18:16:21.000Z</time></trkpt>
        <trkpt lat="29.3385234" lon="105.2225868"><ele>317.33</ele><time>2026-05-01T18:16:25.000Z</time></trkpt>
        <trkpt lat="29.3385544" lon="105.2225305"><ele>316.07</ele><time>2026-05-01T18:16:31.000Z</time></trkpt>
        <trkpt lat="29.338578" lon="105.2224675"><ele>314.66</ele><time>2026-05-01T18:16:37.000Z</time></trkpt>
        <trkpt lat="29.3386103" lon="105.2224033"><ele>313.86</ele><time>2026-05-01T18:16:43.000Z</time></trkpt>
        <trkpt lat="29.3386464" lon="105.2223542"><ele>313.15</ele><time>2026-05-01T18:16:47.000Z</time></trkpt>
        <trkpt lat="29.3386836" lon="105.2223022"><ele>312.44</ele><time>2026-05-01T18:16:53.000Z</time></trkpt>
        <trkpt lat="29.3387171" lon="105.2222621"><ele>312.03</ele><time>2026-05-01T18:16:57.000Z</time></trkpt>
        <trkpt lat="29.3387341" lon="105.2222086"><ele>311.68</ele><time>2026-05-01T18:17:01.000Z</time></trkpt>
        <trkpt lat="29.3387525" lon="105.2221533"><ele>311.39</ele><time>2026-05-01T18:17:05.000Z</time></trkpt>
        <trkpt lat="29.3387638" lon="105.2221002"><ele>311.26</ele><time>2026-05-01T18:17:09.000Z</time></trkpt>
        <trkpt lat="29.3387815" lon="105.2220343"><ele>311.15</ele><time>2026-05-01T18:17:15.000Z</time></trkpt>
        <trkpt lat="29.3387972" lon="105.2219638"><ele>310.96</ele><time>2026-05-01T18:17:21.000Z</time></trkpt>
        <trkpt lat="29.338806" lon="105.2218898"><ele>310.8</ele><time>2026-05-01T18:17:27.000Z</time></trkpt>
        <trkpt lat="29.3387934" lon="105.221819"><ele>310.11</ele><time>2026-05-01T18:17:33.000Z</time></trkpt>
        <trkpt lat="29.3387623" lon="105.221751"><ele>309.42</ele><time>2026-05-01T18:17:39.000Z</time></trkpt>
        <trkpt lat="29.3387208" lon="105.221693"><ele>308.98</ele><time>2026-05-01T18:17:45.000Z</time></trkpt>
        <trkpt lat="29.3386646" lon="105.2216561"><ele>308.86</ele><time>2026-05-01T18:17:51.000Z</time></trkpt>
        <trkpt lat="29.3386172" lon="105.2216263"><ele>309.57</ele><time>2026-05-01T18:17:55.000Z</time></trkpt>
        <trkpt lat="29.3385683" lon="105.22159"><ele>310.4</ele><time>2026-05-01T18:18:01.000Z</time></trkpt>
        <trkpt lat="29.3385268" lon="105.2215403"><ele>311.04</ele><time>2026-05-01T18:18:07.000Z</time></trkpt>
        <trkpt lat="29.3384782" lon="105.2214953"><ele>311.46</ele><time>2026-05-01T18:18:13.000Z</time></trkpt>
        <trkpt lat="29.3384393" lon="105.2214565"><ele>311.82</ele><time>2026-05-01T18:18:19.000Z</time></trkpt>
        <trkpt lat="29.3384104" lon="105.2213986"><ele>311.98</ele><time>2026-05-01T18:18:25.000Z</time></trkpt>
        <trkpt lat="29.3383948" lon="105.2213348"><ele>312.21</ele><time>2026-05-01T18:18:31.000Z</time></trkpt>
        <trkpt lat="29.3383946" lon="105.2212759"><ele>312.38</ele><time>2026-05-01T18:18:35.000Z</time></trkpt>
        <trkpt lat="29.3384014" lon="105.2212221"><ele>312.94</ele><time>2026-05-01T18:18:39.000Z</time></trkpt>
        <trkpt lat="29.3384218" lon="105.2211553"><ele>313.83</ele><time>2026-05-01T18:18:45.000Z</time></trkpt>
        <trkpt lat="29.3384511" lon="105.2210911"><ele>314.81</ele><time>2026-05-01T18:18:51.000Z</time></trkpt>
        <trkpt lat="29.3384822" lon="105.2210422"><ele>315.32</ele><time>2026-05-01T18:18:55.000Z</time></trkpt>
        <trkpt lat="29.3385103" lon="105.2209928"><ele>315.05</ele><time>2026-05-01T18:19:01.000Z</time></trkpt>
        <trkpt lat="29.3385416" lon="105.2209362"><ele>314.77</ele><time>2026-05-01T18:19:05.000Z</time></trkpt>
        <trkpt lat="29.3385775" lon="105.2208891"><ele>314.7</ele><time>2026-05-01T18:19:09.000Z</time></trkpt>
        <trkpt lat="29.3386136" lon="105.2208383"><ele>314.7</ele><time>2026-05-01T18:19:13.000Z</time></trkpt>
        <trkpt lat="29.3386444" lon="105.2207856"><ele>314.87</ele><time>2026-05-01T18:19:17.000Z</time></trkpt>
        <trkpt lat="29.3386592" lon="105.2207334"><ele>315.1</ele><time>2026-05-01T18:19:21.000Z</time></trkpt>
        <trkpt lat="29.3386445" lon="105.2206666"><ele>315.36</ele><time>2026-05-01T18:19:27.000Z</time></trkpt>
        <trkpt lat="29.3386238" lon="105.2206069"><ele>316.15</ele><time>2026-05-01T18:19:33.000Z</time></trkpt>
        <trkpt lat="29.3385968" lon="105.2205482"><ele>316.86</ele><time>2026-05-01T18:19:39.000Z</time></trkpt>
        <trkpt lat="29.3385739" lon="105.2204898"><ele>317.48</ele><time>2026-05-01T18:19:43.000Z</time></trkpt>
        <trkpt lat="29.3385549" lon="105.2204215"><ele>317.88</ele><time>2026-05-01T18:19:49.000Z</time></trkpt>
        <trkpt lat="29.3385377" lon="105.2203608"><ele>318.19</ele><time>2026-05-01T18:19:55.000Z</time></trkpt>
        <trkpt lat="29.3385161" lon="105.2202922"><ele>318.28</ele><time>2026-05-01T18:20:01.000Z</time></trkpt>
        <trkpt lat="29.338479" lon="105.2202293"><ele>318.12</ele><time>2026-05-01T18:20:07.000Z</time></trkpt>
        <trkpt lat="29.338434" lon="105.2201888"><ele>317.64</ele><time>2026-05-01T18:20:13.000Z</time></trkpt>
        <trkpt lat="29.3383832" lon="105.220164"><ele>317.15</ele><time>2026-05-01T18:20:19.000Z</time></trkpt>
        <trkpt lat="29.3383301" lon="105.2201636"><ele>316.87</ele><time>2026-05-01T18:20:27.000Z</time></trkpt>
        <trkpt lat="29.3382731" lon="105.2201694"><ele>317.36</ele><time>2026-05-01T18:20:35.000Z</time></trkpt>
        <trkpt lat="29.3382102" lon="105.2201627"><ele>317.85</ele><time>2026-05-01T18:20:39.000Z</time></trkpt>
        <trkpt lat="29.338147" lon="105.22016"><ele>318.47</ele><time>2026-05-01T18:20:43.000Z</time></trkpt>
        <trkpt lat="29.3380943" lon="105.2201512"><ele>319</ele><time>2026-05-01T18:20:49.000Z</time></trkpt>
        <trkpt lat="29.3380407" lon="105.2201485"><ele>318.96</ele><time>2026-05-01T18:20:53.000Z</time></trkpt>
        <trkpt lat="29.3379864" lon="105.2201447"><ele>318.8</ele><time>2026-05-01T18:20:57.000Z</time></trkpt>
        <trkpt lat="29.3379266" lon="105.2201363"><ele>318.89</ele><time>2026-05-01T18:21:03.000Z</time></trkpt>
        <trkpt lat="29.3378749" lon="105.2201288"><ele>319.28</ele><time>2026-05-01T18:21:07.000Z</time></trkpt>
        <trkpt lat="29.3378276" lon="105.2201142"><ele>319.68</ele><time>2026-05-01T18:21:13.000Z</time></trkpt>
        <trkpt lat="29.3377754" lon="105.2201097"><ele>319.82</ele><time>2026-05-01T18:21:19.000Z</time></trkpt>
        <trkpt lat="29.3377197" lon="105.2201005"><ele>319.81</ele><time>2026-05-01T18:21:25.000Z</time></trkpt>
        <trkpt lat="29.3376678" lon="105.2200617"><ele>319.63</ele><time>2026-05-01T18:21:31.000Z</time></trkpt>
        <trkpt lat="29.3376225" lon="105.220016"><ele>318.8</ele><time>2026-05-01T18:21:35.000Z</time></trkpt>
        <trkpt lat="29.3375846" lon="105.2199706"><ele>318.07</ele><time>2026-05-01T18:21:39.000Z</time></trkpt>
        <trkpt lat="29.3375427" lon="105.2199291"><ele>317.27</ele><time>2026-05-01T18:21:43.000Z</time></trkpt>
        <trkpt lat="29.3374999" lon="105.2198847"><ele>316.42</ele><time>2026-05-01T18:21:47.000Z</time></trkpt>
        <trkpt lat="29.337463" lon="105.2198306"><ele>315.51</ele><time>2026-05-01T18:21:51.000Z</time></trkpt>
        <trkpt lat="29.3374245" lon="105.2197857"><ele>314.73</ele><time>2026-05-01T18:21:55.000Z</time></trkpt>
        <trkpt lat="29.3373863" lon="105.2197436"><ele>314.12</ele><time>2026-05-01T18:22:01.000Z</time></trkpt>
        <trkpt lat="29.3373481" lon="105.219696"><ele>313.55</ele><time>2026-05-01T18:22:07.000Z</time></trkpt>
        <trkpt lat="29.3373099" lon="105.2196363"><ele>313.14</ele><time>2026-05-01T18:22:13.000Z</time></trkpt>
        <trkpt lat="29.3372904" lon="105.2195772"><ele>312.61</ele><time>2026-05-01T18:22:17.000Z</time></trkpt>
        <trkpt lat="29.337289" lon="105.2195129"><ele>312.13</ele><time>2026-05-01T18:22:23.000Z</time></trkpt>
        <trkpt lat="29.3372932" lon="105.219442"><ele>312.03</ele><time>2026-05-01T18:22:27.000Z</time></trkpt>
        <trkpt lat="29.3373104" lon="105.2193768"><ele>312.66</ele><time>2026-05-01T18:22:33.000Z</time></trkpt>
        <trkpt lat="29.3373375" lon="105.2193179"><ele>313.5</ele><time>2026-05-01T18:22:39.000Z</time></trkpt>
        <trkpt lat="29.3373669" lon="105.2192615"><ele>313.93</ele><time>2026-05-01T18:22:43.000Z</time></trkpt>
        <trkpt lat="29.3373934" lon="105.219203"><ele>314.43</ele><time>2026-05-01T18:22:49.000Z</time></trkpt>
        <trkpt lat="29.3374119" lon="105.219146"><ele>314.55</ele><time>2026-05-01T18:22:55.000Z</time></trkpt>
        <trkpt lat="29.3374321" lon="105.219092"><ele>314.48</ele><time>2026-05-01T18:22:59.000Z</time></trkpt>
        <trkpt lat="29.3374607" lon="105.219044"><ele>314.36</ele><time>2026-05-01T18:23:03.000Z</time></trkpt>
        <trkpt lat="29.3375026" lon="105.2190104"><ele>314.12</ele><time>2026-05-01T18:23:07.000Z</time></trkpt>
        <trkpt lat="29.3375589" lon="105.2189855"><ele>313.77</ele><time>2026-05-01T18:23:13.000Z</time></trkpt>
        <trkpt lat="29.3376207" lon="105.2189589"><ele>313.57</ele><time>2026-05-01T18:23:19.000Z</time></trkpt>
        <trkpt lat="29.3376832" lon="105.2189195"><ele>313.41</ele><time>2026-05-01T18:23:25.000Z</time></trkpt>
        <trkpt lat="29.3377326" lon="105.2188912"><ele>313.23</ele><time>2026-05-01T18:23:29.000Z</time></trkpt>
        <trkpt lat="29.3377752" lon="105.2188423"><ele>312.87</ele><time>2026-05-01T18:23:33.000Z</time></trkpt>
        <trkpt lat="29.3378084" lon="105.2187918"><ele>312.33</ele><time>2026-05-01T18:23:37.000Z</time></trkpt>
        <trkpt lat="29.3378286" lon="105.218728"><ele>311.84</ele><time>2026-05-01T18:23:43.000Z</time></trkpt>
        <trkpt lat="29.3378437" lon="105.2186585"><ele>311.57</ele><time>2026-05-01T18:23:49.000Z</time></trkpt>
        <trkpt lat="29.3378506" lon="105.2185969"><ele>311.88</ele><time>2026-05-01T18:23:53.000Z</time></trkpt>
        <trkpt lat="29.3378516" lon="105.2185301"><ele>312.36</ele><time>2026-05-01T18:23:59.000Z</time></trkpt>
        <trkpt lat="29.3378538" lon="105.2184678"><ele>312.77</ele><time>2026-05-01T18:24:07.000Z</time></trkpt>
        <trkpt lat="29.3378474" lon="105.2184024"><ele>312.91</ele><time>2026-05-01T18:24:13.000Z</time></trkpt>
        <trkpt lat="29.3378418" lon="105.2183471"><ele>313.42</ele><time>2026-05-01T18:24:17.000Z</time></trkpt>
        <trkpt lat="29.3378273" lon="105.2182943"><ele>313.76</ele><time>2026-05-01T18:24:21.000Z</time></trkpt>
        <trkpt lat="29.3378035" lon="105.2182419"><ele>314.29</ele><time>2026-05-01T18:24:25.000Z</time></trkpt>
        <trkpt lat="29.3377782" lon="105.2181943"><ele>314.9</ele><time>2026-05-01T18:24:29.000Z</time></trkpt>
        <trkpt lat="29.3377533" lon="105.218147"><ele>315.46</ele><time>2026-05-01T18:24:35.000Z</time></trkpt>
        <trkpt lat="29.3377215" lon="105.2180944"><ele>316.42</ele><time>2026-05-01T18:24:41.000Z</time></trkpt>
        <trkpt lat="29.3376924" lon="105.2180459"><ele>317.53</ele><time>2026-05-01T18:24:45.000Z</time></trkpt>
        <trkpt lat="29.3376611" lon="105.2180003"><ele>318.38</ele><time>2026-05-01T18:24:49.000Z</time></trkpt>
        <trkpt lat="29.3376317" lon="105.2179569"><ele>318.95</ele><time>2026-05-01T18:24:53.000Z</time></trkpt>
        <trkpt lat="29.3376093" lon="105.217904"><ele>319.18</ele><time>2026-05-01T18:24:57.000Z</time></trkpt>
        <trkpt lat="29.3375845" lon="105.217855"><ele>319.36</ele><time>2026-05-01T18:25:01.000Z</time></trkpt>
        <trkpt lat="29.3375535" lon="105.217799"><ele>319.72</ele><time>2026-05-01T18:25:07.000Z</time></trkpt>
        <trkpt lat="29.3375326" lon="105.2177479"><ele>320.32</ele><time>2026-05-01T18:25:11.000Z</time></trkpt>
        <trkpt lat="29.3375245" lon="105.2176828"><ele>321.04</ele><time>2026-05-01T18:25:15.000Z</time></trkpt>
        <trkpt lat="29.3375194" lon="105.2176249"><ele>321.67</ele><time>2026-05-01T18:25:19.000Z</time></trkpt>
        <trkpt lat="29.3375095" lon="105.2175705"><ele>322.2</ele><time>2026-05-01T18:25:23.000Z</time></trkpt>
        <trkpt lat="29.3374972" lon="105.2175198"><ele>322.54</ele><time>2026-05-01T18:25:27.000Z</time></trkpt>
        <trkpt lat="29.3374864" lon="105.217454"><ele>322.7</ele><time>2026-05-01T18:25:33.000Z</time></trkpt>
        <trkpt lat="29.3374713" lon="105.2173974"><ele>322.44</ele><time>2026-05-01T18:25:39.000Z</time></trkpt>
        <trkpt lat="29.3374483" lon="105.2173323"><ele>322.08</ele><time>2026-05-01T18:25:45.000Z</time></trkpt>
        <trkpt lat="29.3374439" lon="105.217264"><ele>322.09</ele><time>2026-05-01T18:25:49.000Z</time></trkpt>
        <trkpt lat="29.3374532" lon="105.2171998"><ele>322.14</ele><time>2026-05-01T18:25:53.000Z</time></trkpt>
        <trkpt lat="29.3374554" lon="105.2171288"><ele>322.12</ele><time>2026-05-01T18:25:59.000Z</time></trkpt>
        <trkpt lat="29.3374626" lon="105.2170691"><ele>321.85</ele><time>2026-05-01T18:26:03.000Z</time></trkpt>
        <trkpt lat="29.3374703" lon="105.2170013"><ele>321.49</ele><time>2026-05-01T18:26:09.000Z</time></trkpt>
        <trkpt lat="29.3374677" lon="105.2169326"><ele>321.54</ele><time>2026-05-01T18:26:15.000Z</time></trkpt>
        <trkpt lat="29.3374523" lon="105.2168701"><ele>322.04</ele><time>2026-05-01T18:26:21.000Z</time></trkpt>
        <trkpt lat="29.3374214" lon="105.2168063"><ele>322.75</ele><time>2026-05-01T18:26:27.000Z</time></trkpt>
        <trkpt lat="29.3373834" lon="105.2167668"><ele>323.5</ele><time>2026-05-01T18:26:31.000Z</time></trkpt>
        <trkpt lat="29.3373465" lon="105.2167335"><ele>324.15</ele><time>2026-05-01T18:26:35.000Z</time></trkpt>
        <trkpt lat="29.3373062" lon="105.2167075"><ele>324.82</ele><time>2026-05-01T18:26:39.000Z</time></trkpt>
        <trkpt lat="29.3372538" lon="105.2166881"><ele>325.5</ele><time>2026-05-01T18:26:45.000Z</time></trkpt>
        <trkpt lat="29.3372076" lon="105.2166688"><ele>326.14</ele><time>2026-05-01T18:26:49.000Z</time></trkpt>
        <trkpt lat="29.3371594" lon="105.21666"><ele>326.68</ele><time>2026-05-01T18:26:55.000Z</time></trkpt>
        <trkpt lat="29.3371108" lon="105.2166546"><ele>326.95</ele><time>2026-05-01T18:27:01.000Z</time></trkpt>
        <trkpt lat="29.3370608" lon="105.2166383"><ele>327.4</ele><time>2026-05-01T18:27:05.000Z</time></trkpt>
        <trkpt lat="29.3370043" lon="105.2166174"><ele>327.96</ele><time>2026-05-01T18:27:11.000Z</time></trkpt>
        <trkpt lat="29.3369505" lon="105.2165875"><ele>328.28</ele><time>2026-05-01T18:27:17.000Z</time></trkpt>
        <trkpt lat="29.3369131" lon="105.2165411"><ele>328.24</ele><time>2026-05-01T18:27:21.000Z</time></trkpt>
        <trkpt lat="29.3368844" lon="105.216488"><ele>327.92</ele><time>2026-05-01T18:27:25.000Z</time></trkpt>
        <trkpt lat="29.3368592" lon="105.2164275"><ele>327.61</ele><time>2026-05-01T18:27:33.000Z</time></trkpt>
        <trkpt lat="29.3368281" lon="105.2163553"><ele>327.09</ele><time>2026-05-01T18:27:39.000Z</time></trkpt>
        <trkpt lat="29.3368029" lon="105.2162973"><ele>326.45</ele><time>2026-05-01T18:27:43.000Z</time></trkpt>
        <trkpt lat="29.3367773" lon="105.2162307"><ele>326.08</ele><time>2026-05-01T18:27:49.000Z</time></trkpt>
        <trkpt lat="29.3367588" lon="105.2161732"><ele>326.13</ele><time>2026-05-01T18:27:55.000Z</time></trkpt>
        <trkpt lat="29.3367389" lon="105.2161232"><ele>326.55</ele><time>2026-05-01T18:28:01.000Z</time></trkpt>
        <trkpt lat="29.3367168" lon="105.2160644"><ele>327.39</ele><time>2026-05-01T18:28:07.000Z</time></trkpt>
        <trkpt lat="29.3367013" lon="105.2160068"><ele>328.04</ele><time>2026-05-01T18:28:11.000Z</time></trkpt>
        <trkpt lat="29.3366881" lon="105.2159499"><ele>328.54</ele><time>2026-05-01T18:28:15.000Z</time></trkpt>
        <trkpt lat="29.336673" lon="105.2158957"><ele>329.21</ele><time>2026-05-01T18:28:19.000Z</time></trkpt>
        <trkpt lat="29.3366668" lon="105.2158362"><ele>329.85</ele><time>2026-05-01T18:28:23.000Z</time></trkpt>
        <trkpt lat="29.3366577" lon="105.2157697"><ele>330.99</ele><time>2026-05-01T18:28:27.000Z</time></trkpt>
        <trkpt lat="29.3366481" lon="105.2156957"><ele>332.5</ele><time>2026-05-01T18:28:31.000Z</time></trkpt>
        <trkpt lat="29.3366183" lon="105.2156346"><ele>333.4</ele><time>2026-05-01T18:28:43.000Z</time></trkpt>
        <trkpt lat="29.3365947" lon="105.2155625"><ele>333.88</ele><time>2026-05-01T18:28:49.000Z</time></trkpt>
        <trkpt lat="29.3365746" lon="105.2154848"><ele>334.23</ele><time>2026-05-01T18:28:55.000Z</time></trkpt>
        <trkpt lat="29.3365547" lon="105.2154193"><ele>334</ele><time>2026-05-01T18:28:59.000Z</time></trkpt>
        <trkpt lat="29.3365361" lon="105.2153638"><ele>333.74</ele><time>2026-05-01T18:29:03.000Z</time></trkpt>
        <trkpt lat="29.3365116" lon="105.215314"><ele>333.34</ele><time>2026-05-01T18:29:09.000Z</time></trkpt>
        <trkpt lat="29.3364787" lon="105.2152568"><ele>332.81</ele><time>2026-05-01T18:29:15.000Z</time></trkpt>
        <trkpt lat="29.3364491" lon="105.2152075"><ele>332.33</ele><time>2026-05-01T18:29:19.000Z</time></trkpt>
        <trkpt lat="29.3364052" lon="105.2151573"><ele>331.71</ele><time>2026-05-01T18:29:25.000Z</time></trkpt>
        <trkpt lat="29.3363611" lon="105.2151189"><ele>330.89</ele><time>2026-05-01T18:29:29.000Z</time></trkpt>
        <trkpt lat="29.3363241" lon="105.2150821"><ele>330.08</ele><time>2026-05-01T18:29:35.000Z</time></trkpt>
        <trkpt lat="29.3362877" lon="105.2150427"><ele>329.49</ele><time>2026-05-01T18:29:41.000Z</time></trkpt>
        <trkpt lat="29.3362638" lon="105.214998"><ele>328.63</ele><time>2026-05-01T18:29:45.000Z</time></trkpt>
        <trkpt lat="29.3362369" lon="105.2149401"><ele>327.89</ele><time>2026-05-01T18:29:49.000Z</time></trkpt>
        <trkpt lat="29.336212" lon="105.2148851"><ele>327.46</ele><time>2026-05-01T18:29:53.000Z</time></trkpt>
        <trkpt lat="29.3361975" lon="105.2148307"><ele>327.39</ele><time>2026-05-01T18:29:57.000Z</time></trkpt>
        <trkpt lat="29.3361816" lon="105.2147794"><ele>327.48</ele><time>2026-05-01T18:30:01.000Z</time></trkpt>
        <trkpt lat="29.3361607" lon="105.2147192"><ele>327.58</ele><time>2026-05-01T18:30:07.000Z</time></trkpt>
        <trkpt lat="29.336144" lon="105.2146621"><ele>327.67</ele><time>2026-05-01T18:30:11.000Z</time></trkpt>
        <trkpt lat="29.336144" lon="105.2145926"><ele>327.94</ele><time>2026-05-01T18:30:15.000Z</time></trkpt>
        <trkpt lat="29.3361411" lon="105.2145313"><ele>328.27</ele><time>2026-05-01T18:30:19.000Z</time></trkpt>
        <trkpt lat="29.3361399" lon="105.2144648"><ele>328.54</ele><time>2026-05-01T18:30:25.000Z</time></trkpt>
        <trkpt lat="29.3361365" lon="105.2144014"><ele>329</ele><time>2026-05-01T18:30:31.000Z</time></trkpt>
        <trkpt lat="29.3361269" lon="105.2143294"><ele>329.38</ele><time>2026-05-01T18:30:37.000Z</time></trkpt>
        <trkpt lat="29.3361201" lon="105.2142717"><ele>329.48</ele><time>2026-05-01T18:30:41.000Z</time></trkpt>
        <trkpt lat="29.3361059" lon="105.2142047"><ele>329.44</ele><time>2026-05-01T18:30:47.000Z</time></trkpt>
        <trkpt lat="29.3360964" lon="105.2141462"><ele>329.21</ele><time>2026-05-01T18:30:51.000Z</time></trkpt>
        <trkpt lat="29.3360967" lon="105.2140898"><ele>328.86</ele><time>2026-05-01T18:30:55.000Z</time></trkpt>
        <trkpt lat="29.3360916" lon="105.2140189"><ele>328.62</ele><time>2026-05-01T18:31:01.000Z</time></trkpt>
        <trkpt lat="29.3360779" lon="105.2139498"><ele>328.48</ele><time>2026-05-01T18:31:07.000Z</time></trkpt>
        <trkpt lat="29.3360609" lon="105.2138945"><ele>328.4</ele><time>2026-05-01T18:31:11.000Z</time></trkpt>
        <trkpt lat="29.3360245" lon="105.2138383"><ele>328.06</ele><time>2026-05-01T18:31:17.000Z</time></trkpt>
        <trkpt lat="29.3359876" lon="105.2137798"><ele>327.65</ele><time>2026-05-01T18:31:23.000Z</time></trkpt>
        <trkpt lat="29.3359582" lon="105.2137265"><ele>327.15</ele><time>2026-05-01T18:31:29.000Z</time></trkpt>
        <trkpt lat="29.3359208" lon="105.2136688"><ele>326.23</ele><time>2026-05-01T18:31:35.000Z</time></trkpt>
        <trkpt lat="29.3358844" lon="105.2136243"><ele>325.1</ele><time>2026-05-01T18:31:39.000Z</time></trkpt>
        <trkpt lat="29.3358486" lon="105.2135745"><ele>324.24</ele><time>2026-05-01T18:31:45.000Z</time></trkpt>
        <trkpt lat="29.3358221" lon="105.2135185"><ele>323.36</ele><time>2026-05-01T18:31:51.000Z</time></trkpt>
        <trkpt lat="29.3358115" lon="105.2134639"><ele>322.78</ele><time>2026-05-01T18:31:55.000Z</time></trkpt>
        <trkpt lat="29.3358" lon="105.213405"><ele>322.31</ele><time>2026-05-01T18:31:59.000Z</time></trkpt>
        <trkpt lat="29.3357795" lon="105.2133447"><ele>322.01</ele><time>2026-05-01T18:32:03.000Z</time></trkpt>
        <trkpt lat="29.3357653" lon="105.2132816"><ele>321.92</ele><time>2026-05-01T18:32:07.000Z</time></trkpt>
        <trkpt lat="29.3357697" lon="105.2132228"><ele>322.21</ele><time>2026-05-01T18:32:13.000Z</time></trkpt>
        <trkpt lat="29.3357745" lon="105.2131608"><ele>322.68</ele><time>2026-05-01T18:32:17.000Z</time></trkpt>
        <trkpt lat="29.3357996" lon="105.2130912"><ele>323.29</ele><time>2026-05-01T18:32:23.000Z</time></trkpt>
        <trkpt lat="29.3358302" lon="105.2130253"><ele>324.07</ele><time>2026-05-01T18:32:29.000Z</time></trkpt>
        <trkpt lat="29.3358589" lon="105.212965"><ele>324.51</ele><time>2026-05-01T18:32:35.000Z</time></trkpt>
        <trkpt lat="29.3358745" lon="105.2129093"><ele>324.38</ele><time>2026-05-01T18:32:41.000Z</time></trkpt>
        <trkpt lat="29.3359049" lon="105.2128637"><ele>324.04</ele><time>2026-05-01T18:32:47.000Z</time></trkpt>
        <trkpt lat="29.335935" lon="105.2128114"><ele>323.98</ele><time>2026-05-01T18:32:51.000Z</time></trkpt>
        <trkpt lat="29.3359694" lon="105.2127584"><ele>324.12</ele><time>2026-05-01T18:32:55.000Z</time></trkpt>
        <trkpt lat="29.336005" lon="105.2127114"><ele>324.58</ele><time>2026-05-01T18:33:01.000Z</time></trkpt>
        <trkpt lat="29.3360332" lon="105.2126578"><ele>325.19</ele><time>2026-05-01T18:33:09.000Z</time></trkpt>
        <trkpt lat="29.336076" lon="105.2126028"><ele>325.71</ele><time>2026-05-01T18:33:15.000Z</time></trkpt>
        <trkpt lat="29.3361206" lon="105.2125624"><ele>326.27</ele><time>2026-05-01T18:33:19.000Z</time></trkpt>
        <trkpt lat="29.336159" lon="105.21251"><ele>326.8</ele><time>2026-05-01T18:33:25.000Z</time></trkpt>
        <trkpt lat="29.3361896" lon="105.2124601"><ele>327.27</ele><time>2026-05-01T18:33:29.000Z</time></trkpt>
        <trkpt lat="29.3362162" lon="105.2124151"><ele>327.67</ele><time>2026-05-01T18:33:33.000Z</time></trkpt>
        <trkpt lat="29.3362293" lon="105.2123644"><ele>328.24</ele><time>2026-05-01T18:33:37.000Z</time></trkpt>
        <trkpt lat="29.3362317" lon="105.2123051"><ele>328.83</ele><time>2026-05-01T18:33:43.000Z</time></trkpt>
        <trkpt lat="29.3362287" lon="105.2122503"><ele>329.07</ele><time>2026-05-01T18:33:49.000Z</time></trkpt>
        <trkpt lat="29.3362298" lon="105.2121965"><ele>329.04</ele><time>2026-05-01T18:33:53.000Z</time></trkpt>
        <trkpt lat="29.3362283" lon="105.2121406"><ele>328.81</ele><time>2026-05-01T18:33:57.000Z</time></trkpt>
        <trkpt lat="29.3362173" lon="105.2120864"><ele>328.55</ele><time>2026-05-01T18:34:01.000Z</time></trkpt>
        <trkpt lat="29.3362044" lon="105.2120267"><ele>328.23</ele><time>2026-05-01T18:34:05.000Z</time></trkpt>
        <trkpt lat="29.336189" lon="105.2119674"><ele>327.87</ele><time>2026-05-01T18:34:09.000Z</time></trkpt>
        <trkpt lat="29.336168" lon="105.2119174"><ele>327.54</ele><time>2026-05-01T18:34:13.000Z</time></trkpt>
        <trkpt lat="29.3361442" lon="105.211852"><ele>327.05</ele><time>2026-05-01T18:34:19.000Z</time></trkpt>
        <trkpt lat="29.3361286" lon="105.2117931"><ele>326.51</ele><time>2026-05-01T18:34:23.000Z</time></trkpt>
        <trkpt lat="29.336104" lon="105.211726"><ele>325.82</ele><time>2026-05-01T18:34:29.000Z</time></trkpt>
        <trkpt lat="29.3360845" lon="105.2116608"><ele>325.08</ele><time>2026-05-01T18:34:35.000Z</time></trkpt>
        <trkpt lat="29.3360711" lon="105.2116042"><ele>325</ele><time>2026-05-01T18:34:39.000Z</time></trkpt>
        <trkpt lat="29.336051" lon="105.2115372"><ele>325.22</ele><time>2026-05-01T18:34:45.000Z</time></trkpt>
        <trkpt lat="29.3360331" lon="105.2114671"><ele>325.64</ele><time>2026-05-01T18:34:51.000Z</time></trkpt>
        <trkpt lat="29.336015" lon="105.2114089"><ele>325.75</ele><time>2026-05-01T18:34:55.000Z</time></trkpt>
        <trkpt lat="29.3359904" lon="105.2113566"><ele>325.6</ele><time>2026-05-01T18:35:01.000Z</time></trkpt>
        <trkpt lat="29.335956" lon="105.2112947"><ele>325</ele><time>2026-05-01T18:35:07.000Z</time></trkpt>
        <trkpt lat="29.3359259" lon="105.2112438"><ele>324.22</ele><time>2026-05-01T18:35:11.000Z</time></trkpt>
        <trkpt lat="29.3358893" lon="105.2112033"><ele>323.61</ele><time>2026-05-01T18:35:15.000Z</time></trkpt>
        <trkpt lat="29.335848" lon="105.2111662"><ele>323.05</ele><time>2026-05-01T18:35:19.000Z</time></trkpt>
        <trkpt lat="29.3357966" lon="105.2111308"><ele>322.38</ele><time>2026-05-01T18:35:25.000Z</time></trkpt>
        <trkpt lat="29.335742" lon="105.2111116"><ele>320.97</ele><time>2026-05-01T18:35:35.000Z</time></trkpt>
        <trkpt lat="29.3356871" lon="105.2110917"><ele>319.78</ele><time>2026-05-01T18:35:43.000Z</time></trkpt>
        <trkpt lat="29.3356326" lon="105.2110829"><ele>318.76</ele><time>2026-05-01T18:35:47.000Z</time></trkpt>
        <trkpt lat="29.3355949" lon="105.2110501"><ele>318</ele><time>2026-05-01T18:35:53.000Z</time></trkpt>
        <trkpt lat="29.3355611" lon="105.2110113"><ele>317.57</ele><time>2026-05-01T18:35:57.000Z</time></trkpt>
        <trkpt lat="29.3355202" lon="105.2109675"><ele>317.45</ele><time>2026-05-01T18:36:05.000Z</time></trkpt>
        <trkpt lat="29.3354799" lon="105.2109163"><ele>317.17</ele><time>2026-05-01T18:36:09.000Z</time></trkpt>
        <trkpt lat="29.3354499" lon="105.2108656"><ele>317.06</ele><time>2026-05-01T18:36:15.000Z</time></trkpt>
        <trkpt lat="29.3354173" lon="105.2108134"><ele>316.95</ele><time>2026-05-01T18:36:23.000Z</time></trkpt>
        <trkpt lat="29.3353821" lon="105.210761"><ele>316.84</ele><time>2026-05-01T18:36:27.000Z</time></trkpt>
        <trkpt lat="29.3353406" lon="105.2107175"><ele>316.82</ele><time>2026-05-01T18:36:33.000Z</time></trkpt>
        <trkpt lat="29.3352882" lon="105.2106813"><ele>316.99</ele><time>2026-05-01T18:36:39.000Z</time></trkpt>
        <trkpt lat="29.3352446" lon="105.2106498"><ele>317.25</ele><time>2026-05-01T18:36:43.000Z</time></trkpt>
        <trkpt lat="29.3352014" lon="105.2106257"><ele>317.4</ele><time>2026-05-01T18:36:49.000Z</time></trkpt>
        <trkpt lat="29.3351644" lon="105.2106488"><ele>317.36</ele><time>2026-05-01T18:36:55.000Z</time></trkpt>
        <trkpt lat="29.3351272" lon="105.2106896"><ele>317.29</ele><time>2026-05-01T18:36:59.000Z</time></trkpt>
        <trkpt lat="29.3350808" lon="105.2107277"><ele>317.25</ele><time>2026-05-01T18:37:05.000Z</time></trkpt>
        <trkpt lat="29.3350271" lon="105.2107423"><ele>317.06</ele><time>2026-05-01T18:37:09.000Z</time></trkpt>
        <trkpt lat="29.3349836" lon="105.2107683"><ele>316.69</ele><time>2026-05-01T18:37:17.000Z</time></trkpt>
        <trkpt lat="29.3349395" lon="105.2107829"><ele>316.56</ele><time>2026-05-01T18:37:21.000Z</time></trkpt>
        <trkpt lat="29.3348949" lon="105.2108005"><ele>316.41</ele><time>2026-05-01T18:37:27.000Z</time></trkpt>
        <trkpt lat="29.3348488" lon="105.2108248"><ele>315.89</ele><time>2026-05-01T18:37:31.000Z</time></trkpt>
        <trkpt lat="29.3348033" lon="105.2108502"><ele>315.12</ele><time>2026-05-01T18:37:35.000Z</time></trkpt>
        <trkpt lat="29.334757" lon="105.2108333"><ele>314.12</ele><time>2026-05-01T18:37:43.000Z</time></trkpt>
        <trkpt lat="29.3347115" lon="105.2107768"><ele>313.55</ele><time>2026-05-01T18:37:49.000Z</time></trkpt>
        <trkpt lat="29.3347115" lon="105.2107768"><ele>313.55</ele><time>2026-05-01T18:38:29.000Z</time></trkpt>
        <trkpt lat="29.3347339" lon="105.210678"><ele>313.06</ele><time>2026-05-01T18:39:47.000Z</time></trkpt>
        <trkpt lat="29.3347339" lon="105.210678"><ele>313.06</ele><time>2026-05-01T18:39:49.000Z</time></trkpt>
        <trkpt lat="29.3347339" lon="105.210678"><ele>313.06</ele><time>2026-05-01T18:40:15.000Z</time></trkpt>
        <trkpt lat="29.3346667" lon="105.210675"><ele>311.44</ele><time>2026-05-01T18:41:33.000Z</time></trkpt>
        <trkpt lat="29.3346667" lon="105.210675"><ele>311.44</ele><time>2026-05-01T18:41:37.000Z</time></trkpt>
        <trkpt lat="29.3346267" lon="105.2106433"><ele>310.3</ele><time>2026-05-01T18:41:41.000Z</time></trkpt>
        <trkpt lat="29.3345768" lon="105.2106046"><ele>309.83</ele><time>2026-05-01T18:41:47.000Z</time></trkpt>
        <trkpt lat="29.3345239" lon="105.2105839"><ele>309.99</ele><time>2026-05-01T18:41:53.000Z</time></trkpt>
        <trkpt lat="29.3344788" lon="105.2105626"><ele>310.25</ele><time>2026-05-01T18:41:57.000Z</time></trkpt>
        <trkpt lat="29.3344342" lon="105.2105193"><ele>310.49</ele><time>2026-05-01T18:42:03.000Z</time></trkpt>
        <trkpt lat="29.3343971" lon="105.2104676"><ele>311.1</ele><time>2026-05-01T18:42:17.000Z</time></trkpt>
        <trkpt lat="29.3344039" lon="105.2104076"><ele>312.04</ele><time>2026-05-01T18:42:25.000Z</time></trkpt>
        <trkpt lat="29.3344263" lon="105.2103493"><ele>312.71</ele><time>2026-05-01T18:42:29.000Z</time></trkpt>
        <trkpt lat="29.3344304" lon="105.2102925"><ele>313.18</ele><time>2026-05-01T18:42:35.000Z</time></trkpt>
        <trkpt lat="29.3344432" lon="105.2102393"><ele>313.71</ele><time>2026-05-01T18:42:39.000Z</time></trkpt>
        <trkpt lat="29.3344501" lon="105.2101812"><ele>314.09</ele><time>2026-05-01T18:42:43.000Z</time></trkpt>
        <trkpt lat="29.3344468" lon="105.210115"><ele>314.44</ele><time>2026-05-01T18:42:49.000Z</time></trkpt>
        <trkpt lat="29.334466" lon="105.2100661"><ele>314.55</ele><time>2026-05-01T18:42:55.000Z</time></trkpt>
        <trkpt lat="29.3345003" lon="105.2100277"><ele>314.79</ele><time>2026-05-01T18:42:59.000Z</time></trkpt>
        <trkpt lat="29.3345217" lon="105.2099789"><ele>314.79</ele><time>2026-05-01T18:43:07.000Z</time></trkpt>
        <trkpt lat="29.3345207" lon="105.2099239"><ele>315.48</ele><time>2026-05-01T18:43:13.000Z</time></trkpt>
        <trkpt lat="29.3345154" lon="105.2098707"><ele>316.31</ele><time>2026-05-01T18:43:17.000Z</time></trkpt>
        <trkpt lat="29.3345122" lon="105.2098083"><ele>316.73</ele><time>2026-05-01T18:43:23.000Z</time></trkpt>
        <trkpt lat="29.3345156" lon="105.2097391"><ele>317.02</ele><time>2026-05-01T18:43:29.000Z</time></trkpt>
        <trkpt lat="29.3345043" lon="105.2096703"><ele>317.1</ele><time>2026-05-01T18:43:33.000Z</time></trkpt>
        <trkpt lat="29.3344762" lon="105.2096112"><ele>316.97</ele><time>2026-05-01T18:43:37.000Z</time></trkpt>
        <trkpt lat="29.3344501" lon="105.2095609"><ele>316.85</ele><time>2026-05-01T18:43:41.000Z</time></trkpt>
        <trkpt lat="29.3344324" lon="105.2095098"><ele>316.79</ele><time>2026-05-01T18:43:47.000Z</time></trkpt>
        <trkpt lat="29.3344346" lon="105.2094564"><ele>316.41</ele><time>2026-05-01T18:43:53.000Z</time></trkpt>
        <trkpt lat="29.3344346" lon="105.2094564"><ele>316.41</ele><time>2026-05-01T18:44:21.000Z</time></trkpt>
        <trkpt lat="29.3344183" lon="105.20939"><ele>315.63</ele><time>2026-05-01T18:44:51.000Z</time></trkpt>
        <trkpt lat="29.3344183" lon="105.20939"><ele>315.63</ele><time>2026-05-01T18:44:55.000Z</time></trkpt>
        <trkpt lat="29.3344" lon="105.2093217"><ele>316.43</ele><time>2026-05-01T18:45:01.000Z</time></trkpt>
        <trkpt lat="29.3343929" lon="105.2092576"><ele>316.94</ele><time>2026-05-01T18:45:07.000Z</time></trkpt>
        <trkpt lat="29.3343892" lon="105.2091916"><ele>316.92</ele><time>2026-05-01T18:45:13.000Z</time></trkpt>
        <trkpt lat="29.334384" lon="105.2091277"><ele>316.65</ele><time>2026-05-01T18:45:19.000Z</time></trkpt>
        <trkpt lat="29.3343843" lon="105.2090594"><ele>316.76</ele><time>2026-05-01T18:45:25.000Z</time></trkpt>
        <trkpt lat="29.3343865" lon="105.2089982"><ele>316.52</ele><time>2026-05-01T18:45:29.000Z</time></trkpt>
        <trkpt lat="29.3343914" lon="105.208931"><ele>316.12</ele><time>2026-05-01T18:45:35.000Z</time></trkpt>
        <trkpt lat="29.3343983" lon="105.2088614"><ele>316.11</ele><time>2026-05-01T18:45:41.000Z</time></trkpt>
        <trkpt lat="29.3344019" lon="105.2087897"><ele>316.75</ele><time>2026-05-01T18:45:47.000Z</time></trkpt>
        <trkpt lat="29.3344152" lon="105.2087238"><ele>316.73</ele><time>2026-05-01T18:45:53.000Z</time></trkpt>
        <trkpt lat="29.3344297" lon="105.2086503"><ele>316.2</ele><time>2026-05-01T18:45:59.000Z</time></trkpt>
        <trkpt lat="29.3344352" lon="105.2085724"><ele>315.6</ele><time>2026-05-01T18:46:05.000Z</time></trkpt>
        <trkpt lat="29.3344422" lon="105.2085109"><ele>314.95</ele><time>2026-05-01T18:46:09.000Z</time></trkpt>
        <trkpt lat="29.3344575" lon="105.2084532"><ele>314.11</ele><time>2026-05-01T18:46:13.000Z</time></trkpt>
        <trkpt lat="29.3344735" lon="105.2083963"><ele>313.25</ele><time>2026-05-01T18:46:17.000Z</time></trkpt>
        <trkpt lat="29.334493" lon="105.2083478"><ele>312.58</ele><time>2026-05-01T18:46:21.000Z</time></trkpt>
        <trkpt lat="29.3345211" lon="105.2083033"><ele>312.2</ele><time>2026-05-01T18:46:25.000Z</time></trkpt>
        <trkpt lat="29.3345182" lon="105.2082521"><ele>312.07</ele><time>2026-05-01T18:46:31.000Z</time></trkpt>
        <trkpt lat="29.3344983" lon="105.2082004"><ele>312.08</ele><time>2026-05-01T18:46:37.000Z</time></trkpt>
        <trkpt lat="29.3344635" lon="105.2081461"><ele>312.13</ele><time>2026-05-01T18:46:43.000Z</time></trkpt>
        <trkpt lat="29.3344425" lon="105.2080846"><ele>312.25</ele><time>2026-05-01T18:46:47.000Z</time></trkpt>
        <trkpt lat="29.3344295" lon="105.208027"><ele>312.4</ele><time>2026-05-01T18:46:51.000Z</time></trkpt>
        <trkpt lat="29.3344107" lon="105.2079649"><ele>312.66</ele><time>2026-05-01T18:46:57.000Z</time></trkpt>
        <trkpt lat="29.334397" lon="105.2079089"><ele>313.11</ele><time>2026-05-01T18:47:03.000Z</time></trkpt>
        <trkpt lat="29.3343816" lon="105.2078578"><ele>313.88</ele><time>2026-05-01T18:47:07.000Z</time></trkpt>
        <trkpt lat="29.3343602" lon="105.2077983"><ele>314.62</ele><time>2026-05-01T18:47:13.000Z</time></trkpt>
        <trkpt lat="29.334343" lon="105.2077316"><ele>315.13</ele><time>2026-05-01T18:47:19.000Z</time></trkpt>
        <trkpt lat="29.3343263" lon="105.2076663"><ele>315.63</ele><time>2026-05-01T18:47:25.000Z</time></trkpt>
        <trkpt lat="29.334311" lon="105.207597"><ele>316.13</ele><time>2026-05-01T18:47:31.000Z</time></trkpt>
        <trkpt lat="29.3342974" lon="105.207524"><ele>316.64</ele><time>2026-05-01T18:47:37.000Z</time></trkpt>
        <trkpt lat="29.3342894" lon="105.2074662"><ele>317.22</ele><time>2026-05-01T18:47:41.000Z</time></trkpt>
        <trkpt lat="29.3342819" lon="105.2074056"><ele>317.6</ele><time>2026-05-01T18:47:47.000Z</time></trkpt>
        <trkpt lat="29.3342743" lon="105.2073358"><ele>317.94</ele><time>2026-05-01T18:47:53.000Z</time></trkpt>
        <trkpt lat="29.3342639" lon="105.2072775"><ele>318.23</ele><time>2026-05-01T18:47:57.000Z</time></trkpt>
        <trkpt lat="29.3342498" lon="105.2072088"><ele>318.13</ele><time>2026-05-01T18:48:03.000Z</time></trkpt>
        <trkpt lat="29.3342433" lon="105.2071359"><ele>318.16</ele><time>2026-05-01T18:48:09.000Z</time></trkpt>
        <trkpt lat="29.3342661" lon="105.2070642"><ele>318.05</ele><time>2026-05-01T18:48:15.000Z</time></trkpt>
        <trkpt lat="29.3342892" lon="105.2070098"><ele>318.03</ele><time>2026-05-01T18:48:19.000Z</time></trkpt>
        <trkpt lat="29.3343146" lon="105.2069505"><ele>318.23</ele><time>2026-05-01T18:48:25.000Z</time></trkpt>
        <trkpt lat="29.3343397" lon="105.2069024"><ele>318.82</ele><time>2026-05-01T18:48:31.000Z</time></trkpt>
        <trkpt lat="29.3343642" lon="105.2068468"><ele>319.24</ele><time>2026-05-01T18:48:37.000Z</time></trkpt>
        <trkpt lat="29.3343944" lon="105.2067992"><ele>319.48</ele><time>2026-05-01T18:48:41.000Z</time></trkpt>
        <trkpt lat="29.3344202" lon="105.2067531"><ele>319.45</ele><time>2026-05-01T18:48:45.000Z</time></trkpt>
        <trkpt lat="29.3344453" lon="105.2066872"><ele>319.3</ele><time>2026-05-01T18:48:51.000Z</time></trkpt>
        <trkpt lat="29.334459" lon="105.2066301"><ele>319.04</ele><time>2026-05-01T18:48:55.000Z</time></trkpt>
        <trkpt lat="29.334476" lon="105.2065745"><ele>318.59</ele><time>2026-05-01T18:49:01.000Z</time></trkpt>
        <trkpt lat="29.3344924" lon="105.206507"><ele>317.74</ele><time>2026-05-01T18:49:07.000Z</time></trkpt>
        <trkpt lat="29.3345012" lon="105.2064764"><ele>317.2</ele><time>2026-05-01T18:49:09.000Z</time></trkpt>
        <trkpt lat="29.3345274" lon="105.2064361"><ele>316.82</ele><time>2026-05-01T18:49:15.000Z</time></trkpt>
        <trkpt lat="29.3345705" lon="105.2063906"><ele>316.42</ele><time>2026-05-01T18:49:21.000Z</time></trkpt>
        <trkpt lat="29.334619" lon="105.2063552"><ele>316.41</ele><time>2026-05-01T18:49:25.000Z</time></trkpt>
        <trkpt lat="29.3346708" lon="105.2063125"><ele>316.75</ele><time>2026-05-01T18:49:31.000Z</time></trkpt>
        <trkpt lat="29.3347214" lon="105.2062665"><ele>317.68</ele><time>2026-05-01T18:49:37.000Z</time></trkpt>
        <trkpt lat="29.3347635" lon="105.2062157"><ele>319.62</ele><time>2026-05-01T18:49:43.000Z</time></trkpt>
        <trkpt lat="29.3347996" lon="105.2061622"><ele>322.06</ele><time>2026-05-01T18:49:49.000Z</time></trkpt>
        <trkpt lat="29.3348414" lon="105.2061105"><ele>324.57</ele><time>2026-05-01T18:49:55.000Z</time></trkpt>
        <trkpt lat="29.3348719" lon="105.2060637"><ele>326.56</ele><time>2026-05-01T18:50:01.000Z</time></trkpt>
        <trkpt lat="29.334897" lon="105.2060012"><ele>327.27</ele><time>2026-05-01T18:50:07.000Z</time></trkpt>
        <trkpt lat="29.3349107" lon="105.2059277"><ele>327.28</ele><time>2026-05-01T18:50:13.000Z</time></trkpt>
        <trkpt lat="29.3349209" lon="105.2058647"><ele>326.99</ele><time>2026-05-01T18:50:17.000Z</time></trkpt>
        <trkpt lat="29.3349219" lon="105.2058103"><ele>326.65</ele><time>2026-05-01T18:50:23.000Z</time></trkpt>
        <trkpt lat="29.3349153" lon="105.2057578"><ele>326.33</ele><time>2026-05-01T18:50:29.000Z</time></trkpt>
        <trkpt lat="29.3349055" lon="105.2056892"><ele>326.01</ele><time>2026-05-01T18:50:35.000Z</time></trkpt>
        <trkpt lat="29.3348917" lon="105.2056243"><ele>325.88</ele><time>2026-05-01T18:50:41.000Z</time></trkpt>
        <trkpt lat="29.3348771" lon="105.2055652"><ele>325.59</ele><time>2026-05-01T18:50:45.000Z</time></trkpt>
        <trkpt lat="29.3348577" lon="105.2055122"><ele>325.21</ele><time>2026-05-01T18:50:51.000Z</time></trkpt>
        <trkpt lat="29.3348356" lon="105.2054499"><ele>324.69</ele><time>2026-05-01T18:50:57.000Z</time></trkpt>
        <trkpt lat="29.3348055" lon="105.2053913"><ele>324.22</ele><time>2026-05-01T18:51:03.000Z</time></trkpt>
        <trkpt lat="29.3347779" lon="105.2053305"><ele>323.91</ele><time>2026-05-01T18:51:09.000Z</time></trkpt>
        <trkpt lat="29.3347531" lon="105.2052714"><ele>323.99</ele><time>2026-05-01T18:51:15.000Z</time></trkpt>
        <trkpt lat="29.3347169" lon="105.2052317"><ele>324.38</ele><time>2026-05-01T18:51:21.000Z</time></trkpt>
        <trkpt lat="29.3346766" lon="105.2051866"><ele>325.12</ele><time>2026-05-01T18:51:25.000Z</time></trkpt>
        <trkpt lat="29.3346316" lon="105.2051522"><ele>325.71</ele><time>2026-05-01T18:51:31.000Z</time></trkpt>
        <trkpt lat="29.334578" lon="105.205139"><ele>326.61</ele><time>2026-05-01T18:51:37.000Z</time></trkpt>
        <trkpt lat="29.3345192" lon="105.2051202"><ele>327.94</ele><time>2026-05-01T18:51:45.000Z</time></trkpt>
        <trkpt lat="29.3344567" lon="105.2050978"><ele>328.78</ele><time>2026-05-01T18:51:49.000Z</time></trkpt>
        <trkpt lat="29.3344087" lon="105.2050737"><ele>328.79</ele><time>2026-05-01T18:51:53.000Z</time></trkpt>
        <trkpt lat="29.3343565" lon="105.2050287"><ele>328.45</ele><time>2026-05-01T18:51:59.000Z</time></trkpt>
        <trkpt lat="29.3343198" lon="105.2049737"><ele>327.74</ele><time>2026-05-01T18:52:05.000Z</time></trkpt>
        <trkpt lat="29.3343062" lon="105.2049037"><ele>327.21</ele><time>2026-05-01T18:52:09.000Z</time></trkpt>
        <trkpt lat="29.3342978" lon="105.2048331"><ele>326.99</ele><time>2026-05-01T18:52:15.000Z</time></trkpt>
        <trkpt lat="29.3342819" lon="105.2047763"><ele>326.82</ele><time>2026-05-01T18:52:21.000Z</time></trkpt>
        <trkpt lat="29.3342647" lon="105.2047153"><ele>326.86</ele><time>2026-05-01T18:52:27.000Z</time></trkpt>
        <trkpt lat="29.3342317" lon="105.2046512"><ele>326.92</ele><time>2026-05-01T18:52:33.000Z</time></trkpt>
        <trkpt lat="29.334198" lon="105.2045998"><ele>326.82</ele><time>2026-05-01T18:52:37.000Z</time></trkpt>
        <trkpt lat="29.3341635" lon="105.2045594"><ele>326.73</ele><time>2026-05-01T18:52:41.000Z</time></trkpt>
        <trkpt lat="29.3341154" lon="105.2045238"><ele>326.84</ele><time>2026-05-01T18:52:47.000Z</time></trkpt>
        <trkpt lat="29.334049" lon="105.204509"><ele>326.78</ele><time>2026-05-01T18:52:53.000Z</time></trkpt>
        <trkpt lat="29.3339842" lon="105.2045074"><ele>326.53</ele><time>2026-05-01T18:52:57.000Z</time></trkpt>
        <trkpt lat="29.3339316" lon="105.2045165"><ele>326.43</ele><time>2026-05-01T18:53:05.000Z</time></trkpt>
        <trkpt lat="29.3338715" lon="105.2045093"><ele>326.38</ele><time>2026-05-01T18:53:11.000Z</time></trkpt>
        <trkpt lat="29.3338097" lon="105.2044808"><ele>326.13</ele><time>2026-05-01T18:53:15.000Z</time></trkpt>
        <trkpt lat="29.333745" lon="105.2044523"><ele>325.69</ele><time>2026-05-01T18:53:21.000Z</time></trkpt>
        <trkpt lat="29.3336933" lon="105.2044426"><ele>324.75</ele><time>2026-05-01T18:53:27.000Z</time></trkpt>
        <trkpt lat="29.3336428" lon="105.2044328"><ele>323.69</ele><time>2026-05-01T18:53:33.000Z</time></trkpt>
        <trkpt lat="29.3335922" lon="105.2044136"><ele>322.45</ele><time>2026-05-01T18:53:37.000Z</time></trkpt>
        <trkpt lat="29.3335399" lon="105.2043844"><ele>321.31</ele><time>2026-05-01T18:53:41.000Z</time></trkpt>
        <trkpt lat="29.3334894" lon="105.2043555"><ele>320.23</ele><time>2026-05-01T18:53:45.000Z</time></trkpt>
        <trkpt lat="29.3334382" lon="105.2043325"><ele>319.36</ele><time>2026-05-01T18:53:49.000Z</time></trkpt>
        <trkpt lat="29.333383" lon="105.2043171"><ele>318.6</ele><time>2026-05-01T18:53:55.000Z</time></trkpt>
        <trkpt lat="29.3333613" lon="105.2043055"><ele>317.96</ele><time>2026-05-01T18:54:03.000Z</time></trkpt>
        <trkpt lat="29.3333107" lon="105.2042823"><ele>317.59</ele><time>2026-05-01T18:54:09.000Z</time></trkpt>
        <trkpt lat="29.3332566" lon="105.204272"><ele>317.16</ele><time>2026-05-01T18:54:13.000Z</time></trkpt>
        <trkpt lat="29.3332032" lon="105.2042667"><ele>316.66</ele><time>2026-05-01T18:54:17.000Z</time></trkpt>
        <trkpt lat="29.3331405" lon="105.2042628"><ele>316.16</ele><time>2026-05-01T18:54:23.000Z</time></trkpt>
        <trkpt lat="29.333076" lon="105.2042538"><ele>315.28</ele><time>2026-05-01T18:54:29.000Z</time></trkpt>
        <trkpt lat="29.3330114" lon="105.2042452"><ele>314.17</ele><time>2026-05-01T18:54:35.000Z</time></trkpt>
        <trkpt lat="29.3329573" lon="105.2042367"><ele>313.32</ele><time>2026-05-01T18:54:41.000Z</time></trkpt>
        <trkpt lat="29.332911" lon="105.2042396"><ele>312.75</ele><time>2026-05-01T18:54:47.000Z</time></trkpt>
        <trkpt lat="29.3328671" lon="105.2042391"><ele>312.6</ele><time>2026-05-01T18:54:51.000Z</time></trkpt>
        <trkpt lat="29.3328171" lon="105.2042343"><ele>312.64</ele><time>2026-05-01T18:54:55.000Z</time></trkpt>
        <trkpt lat="29.3327695" lon="105.2042303"><ele>312.93</ele><time>2026-05-01T18:54:59.000Z</time></trkpt>
        <trkpt lat="29.332719" lon="105.2042304"><ele>313.3</ele><time>2026-05-01T18:55:05.000Z</time></trkpt>
        <trkpt lat="29.3326649" lon="105.2042221"><ele>314.16</ele><time>2026-05-01T18:55:09.000Z</time></trkpt>
        <trkpt lat="29.3326121" lon="105.2042068"><ele>314.91</ele><time>2026-05-01T18:55:13.000Z</time></trkpt>
        <trkpt lat="29.33256" lon="105.2041892"><ele>315.38</ele><time>2026-05-01T18:55:19.000Z</time></trkpt>
        <trkpt lat="29.3325032" lon="105.2041727"><ele>315.77</ele><time>2026-05-01T18:55:25.000Z</time></trkpt>
        <trkpt lat="29.3324447" lon="105.2041519"><ele>316.47</ele><time>2026-05-01T18:55:29.000Z</time></trkpt>
        <trkpt lat="29.3323909" lon="105.2041586"><ele>317.35</ele><time>2026-05-01T18:55:35.000Z</time></trkpt>
        <trkpt lat="29.3323452" lon="105.2041756"><ele>318.32</ele><time>2026-05-01T18:55:41.000Z</time></trkpt>
        <trkpt lat="29.3322911" lon="105.2041876"><ele>319.51</ele><time>2026-05-01T18:55:47.000Z</time></trkpt>
        <trkpt lat="29.3322372" lon="105.2041789"><ele>320.54</ele><time>2026-05-01T18:55:53.000Z</time></trkpt>
        <trkpt lat="29.332181" lon="105.2041435"><ele>321.47</ele><time>2026-05-01T18:55:59.000Z</time></trkpt>
        <trkpt lat="29.3321241" lon="105.2040992"><ele>322.3</ele><time>2026-05-01T18:56:05.000Z</time></trkpt>
        <trkpt lat="29.3320771" lon="105.2040574"><ele>323.16</ele><time>2026-05-01T18:56:13.000Z</time></trkpt>
        <trkpt lat="29.3320264" lon="105.2040293"><ele>324.21</ele><time>2026-05-01T18:56:21.000Z</time></trkpt>
        <trkpt lat="29.3319713" lon="105.2040231"><ele>325.19</ele><time>2026-05-01T18:56:29.000Z</time></trkpt>
        <trkpt lat="29.3319484" lon="105.2040659"><ele>326.32</ele><time>2026-05-01T18:56:45.000Z</time></trkpt>
        <trkpt lat="29.3319074" lon="105.2040626"><ele>326.48</ele><time>2026-05-01T18:57:01.000Z</time></trkpt>
        <trkpt lat="29.3318581" lon="105.2040578"><ele>326.36</ele><time>2026-05-01T18:57:09.000Z</time></trkpt>
        <trkpt lat="29.3318059" lon="105.2040543"><ele>326.46</ele><time>2026-05-01T18:57:15.000Z</time></trkpt>
        <trkpt lat="29.3317507" lon="105.2040394"><ele>326.82</ele><time>2026-05-01T18:57:21.000Z</time></trkpt>
        <trkpt lat="29.3316986" lon="105.2040241"><ele>327.16</ele><time>2026-05-01T18:57:27.000Z</time></trkpt>
        <trkpt lat="29.3316342" lon="105.2040107"><ele>327.48</ele><time>2026-05-01T18:57:33.000Z</time></trkpt>
        <trkpt lat="29.3315829" lon="105.2040046"><ele>327.79</ele><time>2026-05-01T18:57:37.000Z</time></trkpt>
        <trkpt lat="29.3315358" lon="105.2039863"><ele>328.18</ele><time>2026-05-01T18:57:43.000Z</time></trkpt>
        <trkpt lat="29.3314849" lon="105.2039732"><ele>328.45</ele><time>2026-05-01T18:57:47.000Z</time></trkpt>
        <trkpt lat="29.3314297" lon="105.2039537"><ele>328.68</ele><time>2026-05-01T18:57:53.000Z</time></trkpt>
        <trkpt lat="29.3313817" lon="105.2039519"><ele>328.91</ele><time>2026-05-01T18:57:57.000Z</time></trkpt>
        <trkpt lat="29.331334" lon="105.2039556"><ele>329.2</ele><time>2026-05-01T18:58:05.000Z</time></trkpt>
        <trkpt lat="29.3312837" lon="105.2039531"><ele>329.89</ele><time>2026-05-01T18:58:13.000Z</time></trkpt>
        <trkpt lat="29.3312335" lon="105.2039475"><ele>330.67</ele><time>2026-05-01T18:58:19.000Z</time></trkpt>
        <trkpt lat="29.3311821" lon="105.2039383"><ele>331.28</ele><time>2026-05-01T18:58:25.000Z</time></trkpt>
        <trkpt lat="29.3311216" lon="105.2039292"><ele>331.94</ele><time>2026-05-01T18:58:31.000Z</time></trkpt>
        <trkpt lat="29.3310578" lon="105.2039341"><ele>332.48</ele><time>2026-05-01T18:58:37.000Z</time></trkpt>
        <trkpt lat="29.3309934" lon="105.2039256"><ele>332.92</ele><time>2026-05-01T18:58:43.000Z</time></trkpt>
        <trkpt lat="29.3309304" lon="105.2039151"><ele>333.25</ele><time>2026-05-01T18:58:49.000Z</time></trkpt>
        <trkpt lat="29.3308658" lon="105.2039219"><ele>333.62</ele><time>2026-05-01T18:58:55.000Z</time></trkpt>
        <trkpt lat="29.3308156" lon="105.2039228"><ele>333.95</ele><time>2026-05-01T18:58:59.000Z</time></trkpt>
        <trkpt lat="29.3307559" lon="105.2039069"><ele>334.1</ele><time>2026-05-01T18:59:05.000Z</time></trkpt>
        <trkpt lat="29.3306969" lon="105.2038686"><ele>333.67</ele><time>2026-05-01T18:59:11.000Z</time></trkpt>
        <trkpt lat="29.3306496" lon="105.2038191"><ele>332.91</ele><time>2026-05-01T18:59:17.000Z</time></trkpt>
        <trkpt lat="29.3306204" lon="105.203756"><ele>332.17</ele><time>2026-05-01T18:59:23.000Z</time></trkpt>
        <trkpt lat="29.3306046" lon="105.2036945"><ele>331.54</ele><time>2026-05-01T18:59:29.000Z</time></trkpt>
        <trkpt lat="29.3305888" lon="105.2036425"><ele>331.78</ele><time>2026-05-01T18:59:35.000Z</time></trkpt>
        <trkpt lat="29.3305827" lon="105.2035748"><ele>332.52</ele><time>2026-05-01T18:59:41.000Z</time></trkpt>
        <trkpt lat="29.3305794" lon="105.2035124"><ele>332.98</ele><time>2026-05-01T18:59:49.000Z</time></trkpt>
        <trkpt lat="29.3305725" lon="105.2034478"><ele>332.78</ele><time>2026-05-01T18:59:53.000Z</time></trkpt>
        <trkpt lat="29.3305535" lon="105.203395"><ele>332.7</ele><time>2026-05-01T18:59:59.000Z</time></trkpt>
        <trkpt lat="29.3305488" lon="105.203338"><ele>332.01</ele><time>2026-05-01T19:00:03.000Z</time></trkpt>
        <trkpt lat="29.3305474" lon="105.2033114"><ele>331.36</ele><time>2026-05-01T19:00:13.000Z</time></trkpt>
        <trkpt lat="29.3305379" lon="105.2032521"><ele>330.35</ele><time>2026-05-01T19:00:23.000Z</time></trkpt>
        <trkpt lat="29.3305251" lon="105.2031816"><ele>329.42</ele><time>2026-05-01T19:00:29.000Z</time></trkpt>
        <trkpt lat="29.3305163" lon="105.2031129"><ele>328.68</ele><time>2026-05-01T19:00:33.000Z</time></trkpt>
        <trkpt lat="29.3304967" lon="105.2030384"><ele>328.47</ele><time>2026-05-01T19:00:39.000Z</time></trkpt>
        <trkpt lat="29.3304881" lon="105.2029611"><ele>328.4</ele><time>2026-05-01T19:00:43.000Z</time></trkpt>
        <trkpt lat="29.3304666" lon="105.2028958"><ele>327.63</ele><time>2026-05-01T19:00:51.000Z</time></trkpt>
        <trkpt lat="29.3304626" lon="105.2028392"><ele>327.18</ele><time>2026-05-01T19:00:55.000Z</time></trkpt>
        <trkpt lat="29.3304543" lon="105.202784"><ele>326.85</ele><time>2026-05-01T19:01:01.000Z</time></trkpt>
        <trkpt lat="29.3304399" lon="105.2027173"><ele>326.91</ele><time>2026-05-01T19:01:11.000Z</time></trkpt>
        <trkpt lat="29.3304321" lon="105.2026411"><ele>327.85</ele><time>2026-05-01T19:01:15.000Z</time></trkpt>
        <trkpt lat="29.330423" lon="105.2025555"><ele>328.65</ele><time>2026-05-01T19:01:19.000Z</time></trkpt>
        <trkpt lat="29.3304071" lon="105.2024947"><ele>328.5</ele><time>2026-05-01T19:01:25.000Z</time></trkpt>
        <trkpt lat="29.3303924" lon="105.2024401"><ele>327.81</ele><time>2026-05-01T19:01:33.000Z</time></trkpt>
        <trkpt lat="29.3303697" lon="105.2023869"><ele>327.72</ele><time>2026-05-01T19:01:37.000Z</time></trkpt>
        <trkpt lat="29.3303367" lon="105.202331"><ele>327.88</ele><time>2026-05-01T19:01:43.000Z</time></trkpt>
        <trkpt lat="29.3303217" lon="105.2022635"><ele>328.02</ele><time>2026-05-01T19:01:51.000Z</time></trkpt>
        <trkpt lat="29.3303116" lon="105.2022066"><ele>327.88</ele><time>2026-05-01T19:01:55.000Z</time></trkpt>
        <trkpt lat="29.3302903" lon="105.2021518"><ele>327.8</ele><time>2026-05-01T19:01:59.000Z</time></trkpt>
        <trkpt lat="29.3302843" lon="105.2020911"><ele>327.97</ele><time>2026-05-01T19:02:03.000Z</time></trkpt>
        <trkpt lat="29.3302842" lon="105.2020356"><ele>328.16</ele><time>2026-05-01T19:02:07.000Z</time></trkpt>
        <trkpt lat="29.3302806" lon="105.2019796"><ele>328.09</ele><time>2026-05-01T19:02:11.000Z</time></trkpt>
        <trkpt lat="29.3302726" lon="105.2019132"><ele>328.05</ele><time>2026-05-01T19:02:17.000Z</time></trkpt>
        <trkpt lat="29.3302578" lon="105.201843"><ele>328.42</ele><time>2026-05-01T19:02:23.000Z</time></trkpt>
        <trkpt lat="29.3302431" lon="105.2017794"><ele>328.88</ele><time>2026-05-01T19:02:31.000Z</time></trkpt>
        <trkpt lat="29.3302189" lon="105.2017262"><ele>329.97</ele><time>2026-05-01T19:02:41.000Z</time></trkpt>
        <trkpt lat="29.3302027" lon="105.2016655"><ele>331.44</ele><time>2026-05-01T19:02:49.000Z</time></trkpt>
        <trkpt lat="29.3301827" lon="105.2016114"><ele>332.63</ele><time>2026-05-01T19:02:55.000Z</time></trkpt>
        <trkpt lat="29.330156" lon="105.2015561"><ele>333.52</ele><time>2026-05-01T19:03:01.000Z</time></trkpt>
        <trkpt lat="29.3301309" lon="105.2014999"><ele>333.98</ele><time>2026-05-01T19:03:05.000Z</time></trkpt>
        <trkpt lat="29.3300968" lon="105.2014372"><ele>334.25</ele><time>2026-05-01T19:03:11.000Z</time></trkpt>
        <trkpt lat="29.3300721" lon="105.2013807"><ele>334.27</ele><time>2026-05-01T19:03:17.000Z</time></trkpt>
        <trkpt lat="29.3300501" lon="105.2013269"><ele>333.6</ele><time>2026-05-01T19:03:21.000Z</time></trkpt>
        <trkpt lat="29.3300264" lon="105.201279"><ele>332.48</ele><time>2026-05-01T19:03:25.000Z</time></trkpt>
        <trkpt lat="29.3299981" lon="105.2012317"><ele>331.33</ele><time>2026-05-01T19:03:31.000Z</time></trkpt>
        <trkpt lat="29.3299755" lon="105.2011754"><ele>330.15</ele><time>2026-05-01T19:03:37.000Z</time></trkpt>
        <trkpt lat="29.3299603" lon="105.2011231"><ele>329.27</ele><time>2026-05-01T19:03:43.000Z</time></trkpt>
        <trkpt lat="29.3299388" lon="105.2010739"><ele>329.07</ele><time>2026-05-01T19:03:49.000Z</time></trkpt>
        <trkpt lat="29.3299095" lon="105.2010295"><ele>329</ele><time>2026-05-01T19:03:53.000Z</time></trkpt>
        <trkpt lat="29.3298799" lon="105.2009716"><ele>328.87</ele><time>2026-05-01T19:03:59.000Z</time></trkpt>
        <trkpt lat="29.3298545" lon="105.2009122"><ele>329.05</ele><time>2026-05-01T19:04:05.000Z</time></trkpt>
        <trkpt lat="29.3298283" lon="105.2008441"><ele>329.42</ele><time>2026-05-01T19:04:11.000Z</time></trkpt>
        <trkpt lat="29.329798" lon="105.2007844"><ele>330.06</ele><time>2026-05-01T19:04:17.000Z</time></trkpt>
        <trkpt lat="29.3297712" lon="105.2007372"><ele>331.45</ele><time>2026-05-01T19:04:21.000Z</time></trkpt>
        <trkpt lat="29.3297447" lon="105.200682"><ele>332.29</ele><time>2026-05-01T19:04:27.000Z</time></trkpt>
        <trkpt lat="29.3297081" lon="105.200628"><ele>333.46</ele><time>2026-05-01T19:04:33.000Z</time></trkpt>
        <trkpt lat="29.3296779" lon="105.2005759"><ele>334.55</ele><time>2026-05-01T19:04:39.000Z</time></trkpt>
        <trkpt lat="29.3296493" lon="105.2005307"><ele>335.73</ele><time>2026-05-01T19:04:43.000Z</time></trkpt>
        <trkpt lat="29.3296236" lon="105.200484"><ele>336.71</ele><time>2026-05-01T19:04:49.000Z</time></trkpt>
        <trkpt lat="29.3295877" lon="105.2004365"><ele>337.69</ele><time>2026-05-01T19:04:55.000Z</time></trkpt>
        <trkpt lat="29.3295553" lon="105.2003859"><ele>338.43</ele><time>2026-05-01T19:05:01.000Z</time></trkpt>
        <trkpt lat="29.3295296" lon="105.2003367"><ele>339.1</ele><time>2026-05-01T19:05:07.000Z</time></trkpt>
        <trkpt lat="29.3295064" lon="105.2002881"><ele>339.96</ele><time>2026-05-01T19:05:13.000Z</time></trkpt>
        <trkpt lat="29.3294688" lon="105.2002348"><ele>340.45</ele><time>2026-05-01T19:05:19.000Z</time></trkpt>
        <trkpt lat="29.329433" lon="105.2001772"><ele>341.16</ele><time>2026-05-01T19:05:25.000Z</time></trkpt>
        <trkpt lat="29.3293924" lon="105.200127"><ele>341.82</ele><time>2026-05-01T19:05:31.000Z</time></trkpt>
        <trkpt lat="29.3293564" lon="105.20008"><ele>342.33</ele><time>2026-05-01T19:05:37.000Z</time></trkpt>
        <trkpt lat="29.32932" lon="105.2000426"><ele>343</ele><time>2026-05-01T19:05:45.000Z</time></trkpt>
        <trkpt lat="29.3292871" lon="105.2000021"><ele>343.82</ele><time>2026-05-01T19:05:53.000Z</time></trkpt>
        <trkpt lat="29.3292619" lon="105.1999537"><ele>344.41</ele><time>2026-05-01T19:06:09.000Z</time></trkpt>
        <trkpt lat="29.3292379" lon="105.1999046"><ele>344.36</ele><time>2026-05-01T19:06:17.000Z</time></trkpt>
        <trkpt lat="29.3292051" lon="105.1998657"><ele>344.12</ele><time>2026-05-01T19:06:23.000Z</time></trkpt>
        <trkpt lat="29.3291801" lon="105.1998206"><ele>343.77</ele><time>2026-05-01T19:06:29.000Z</time></trkpt>
        <trkpt lat="29.3291481" lon="105.1997791"><ele>343.78</ele><time>2026-05-01T19:06:37.000Z</time></trkpt>
        <trkpt lat="29.3291083" lon="105.1997391"><ele>344.05</ele><time>2026-05-01T19:06:45.000Z</time></trkpt>
        <trkpt lat="29.3290685" lon="105.1996894"><ele>344.67</ele><time>2026-05-01T19:06:53.000Z</time></trkpt>
        <trkpt lat="29.3290354" lon="105.1996372"><ele>345.67</ele><time>2026-05-01T19:06:59.000Z</time></trkpt>
        <trkpt lat="29.3290038" lon="105.1995834"><ele>346.59</ele><time>2026-05-01T19:07:07.000Z</time></trkpt>
        <trkpt lat="29.3289713" lon="105.1995243"><ele>347.97</ele><time>2026-05-01T19:07:15.000Z</time></trkpt>
        <trkpt lat="29.3289333" lon="105.1994749"><ele>349.23</ele><time>2026-05-01T19:07:21.000Z</time></trkpt>
        <trkpt lat="29.3288982" lon="105.1994344"><ele>350.16</ele><time>2026-05-01T19:07:27.000Z</time></trkpt>
        <trkpt lat="29.328867" lon="105.1993794"><ele>351.13</ele><time>2026-05-01T19:07:35.000Z</time></trkpt>
        <trkpt lat="29.3288272" lon="105.1993347"><ele>352.1</ele><time>2026-05-01T19:07:41.000Z</time></trkpt>
        <trkpt lat="29.3287927" lon="105.1992842"><ele>352.88</ele><time>2026-05-01T19:07:49.000Z</time></trkpt>
        <trkpt lat="29.3287568" lon="105.1992388"><ele>353.79</ele><time>2026-05-01T19:07:57.000Z</time></trkpt>
        <trkpt lat="29.3287178" lon="105.1991979"><ele>354.91</ele><time>2026-05-01T19:08:03.000Z</time></trkpt>
        <trkpt lat="29.3286701" lon="105.1991509"><ele>356.15</ele><time>2026-05-01T19:08:19.000Z</time></trkpt>
        <trkpt lat="29.3286307" lon="105.1991138"><ele>356.56</ele><time>2026-05-01T19:08:27.000Z</time></trkpt>
        <trkpt lat="29.3286025" lon="105.1990643"><ele>357.01</ele><time>2026-05-01T19:08:39.000Z</time></trkpt>
        <trkpt lat="29.3285669" lon="105.1990235"><ele>357.43</ele><time>2026-05-01T19:08:45.000Z</time></trkpt>
        <trkpt lat="29.3285367" lon="105.1989776"><ele>357.94</ele><time>2026-05-01T19:08:51.000Z</time></trkpt>
        <trkpt lat="29.3285072" lon="105.198927"><ele>358.78</ele><time>2026-05-01T19:09:03.000Z</time></trkpt>
        <trkpt lat="29.3284665" lon="105.1988862"><ele>359.91</ele><time>2026-05-01T19:09:09.000Z</time></trkpt>
        <trkpt lat="29.3284277" lon="105.1988342"><ele>360.81</ele><time>2026-05-01T19:09:17.000Z</time></trkpt>
        <trkpt lat="29.3283864" lon="105.1987891"><ele>361.45</ele><time>2026-05-01T19:09:23.000Z</time></trkpt>
        <trkpt lat="29.3283556" lon="105.1987419"><ele>362.03</ele><time>2026-05-01T19:09:29.000Z</time></trkpt>
        <trkpt lat="29.3283201" lon="105.19869"><ele>362.66</ele><time>2026-05-01T19:09:35.000Z</time></trkpt>
        <trkpt lat="29.3282812" lon="105.1986427"><ele>363.19</ele><time>2026-05-01T19:09:41.000Z</time></trkpt>
        <trkpt lat="29.3282448" lon="105.1985936"><ele>364.01</ele><time>2026-05-01T19:09:47.000Z</time></trkpt>
        <trkpt lat="29.3282083" lon="105.1985425"><ele>364.95</ele><time>2026-05-01T19:09:53.000Z</time></trkpt>
        <trkpt lat="29.3281717" lon="105.1984919"><ele>365.83</ele><time>2026-05-01T19:10:01.000Z</time></trkpt>
        <trkpt lat="29.3281363" lon="105.1984417"><ele>366.42</ele><time>2026-05-01T19:10:07.000Z</time></trkpt>
        <trkpt lat="29.3280988" lon="105.1983904"><ele>367.27</ele><time>2026-05-01T19:10:13.000Z</time></trkpt>
        <trkpt lat="29.328068" lon="105.1983474"><ele>368.02</ele><time>2026-05-01T19:10:19.000Z</time></trkpt>
        <trkpt lat="29.3280423" lon="105.1983051"><ele>368.83</ele><time>2026-05-01T19:10:25.000Z</time></trkpt>
        <trkpt lat="29.3280143" lon="105.1982576"><ele>369.76</ele><time>2026-05-01T19:10:31.000Z</time></trkpt>
        <trkpt lat="29.3279775" lon="105.1982129"><ele>370.6</ele><time>2026-05-01T19:10:37.000Z</time></trkpt>
        <trkpt lat="29.3279299" lon="105.1981756"><ele>371.37</ele><time>2026-05-01T19:10:51.000Z</time></trkpt>
        <trkpt lat="29.3278876" lon="105.198126"><ele>371.86</ele><time>2026-05-01T19:10:57.000Z</time></trkpt>
        <trkpt lat="29.3278667" lon="105.1980689"><ele>372.52</ele><time>2026-05-01T19:11:03.000Z</time></trkpt>
        <trkpt lat="29.3278501" lon="105.1980082"><ele>373.59</ele><time>2026-05-01T19:11:11.000Z</time></trkpt>
        <trkpt lat="29.3278414" lon="105.1979419"><ele>375.27</ele><time>2026-05-01T19:11:19.000Z</time></trkpt>
        <trkpt lat="29.3278273" lon="105.1978879"><ele>376.7</ele><time>2026-05-01T19:11:27.000Z</time></trkpt>
        <trkpt lat="29.3278217" lon="105.1978313"><ele>377.99</ele><time>2026-05-01T19:11:33.000Z</time></trkpt>
        <trkpt lat="29.3277977" lon="105.1977861"><ele>378.6</ele><time>2026-05-01T19:11:43.000Z</time></trkpt>
        <trkpt lat="29.3277751" lon="105.1977362"><ele>378.77</ele><time>2026-05-01T19:11:59.000Z</time></trkpt>
        <trkpt lat="29.3277589" lon="105.1976788"><ele>378.83</ele><time>2026-05-01T19:12:07.000Z</time></trkpt>
        <trkpt lat="29.3277377" lon="105.1976288"><ele>379.25</ele><time>2026-05-01T19:12:19.000Z</time></trkpt>
        <trkpt lat="29.3277377" lon="105.1976288"><ele>379.25</ele><time>2026-05-01T19:12:37.000Z</time></trkpt>
        <trkpt lat="29.3277891" lon="105.1977176"><ele>380.13</ele><time>2026-05-01T19:13:01.000Z</time></trkpt>
        <trkpt lat="29.3277891" lon="105.1977176"><ele>380.13</ele><time>2026-05-01T19:13:07.000Z</time></trkpt>
        <trkpt lat="29.3278013" lon="105.1977925"><ele>379.43</ele><time>2026-05-01T19:13:13.000Z</time></trkpt>
        <trkpt lat="29.3278233" lon="105.1978611"><ele>378.6</ele><time>2026-05-01T19:13:19.000Z</time></trkpt>
        <trkpt lat="29.3278412" lon="105.1979333"><ele>378</ele><time>2026-05-01T19:13:41.000Z</time></trkpt>
        <trkpt lat="29.3278696" lon="105.1980019"><ele>377.7</ele><time>2026-05-01T19:13:47.000Z</time></trkpt>
        <trkpt lat="29.3278955" lon="105.1980708"><ele>377.18</ele><time>2026-05-01T19:13:53.000Z</time></trkpt>
        <trkpt lat="29.3278961" lon="105.198127"><ele>376.42</ele><time>2026-05-01T19:13:59.000Z</time></trkpt>
        <trkpt lat="29.3278584" lon="105.198141"><ele>375.55</ele><time>2026-05-01T19:14:03.000Z</time></trkpt>
        <trkpt lat="29.3277993" lon="105.19811"><ele>374.62</ele><time>2026-05-01T19:14:09.000Z</time></trkpt>
        <trkpt lat="29.3277402" lon="105.1980715"><ele>374.01</ele><time>2026-05-01T19:14:17.000Z</time></trkpt>
        <trkpt lat="29.3276937" lon="105.1980279"><ele>373.92</ele><time>2026-05-01T19:14:21.000Z</time></trkpt>
        <trkpt lat="29.3276632" lon="105.1979761"><ele>373.78</ele><time>2026-05-01T19:14:25.000Z</time></trkpt>
        <trkpt lat="29.3276274" lon="105.1979092"><ele>373.66</ele><time>2026-05-01T19:14:31.000Z</time></trkpt>
        <trkpt lat="29.327605" lon="105.197853"><ele>373.51</ele><time>2026-05-01T19:14:35.000Z</time></trkpt>
        <trkpt lat="29.3275824" lon="105.197806"><ele>373.03</ele><time>2026-05-01T19:14:39.000Z</time></trkpt>
        <trkpt lat="29.3275652" lon="105.1977488"><ele>372.37</ele><time>2026-05-01T19:14:43.000Z</time></trkpt>
        <trkpt lat="29.327542" lon="105.1976775"><ele>371.44</ele><time>2026-05-01T19:14:49.000Z</time></trkpt>
        <trkpt lat="29.3275211" lon="105.1976176"><ele>370.56</ele><time>2026-05-01T19:14:55.000Z</time></trkpt>
        <trkpt lat="29.3274948" lon="105.1975466"><ele>369.98</ele><time>2026-05-01T19:15:03.000Z</time></trkpt>
        <trkpt lat="29.3274614" lon="105.1974903"><ele>369.47</ele><time>2026-05-01T19:15:09.000Z</time></trkpt>
        <trkpt lat="29.3274258" lon="105.1974372"><ele>369.44</ele><time>2026-05-01T19:15:15.000Z</time></trkpt>
        <trkpt lat="29.3273935" lon="105.19738"><ele>369.72</ele><time>2026-05-01T19:15:21.000Z</time></trkpt>
        <trkpt lat="29.3273566" lon="105.1973181"><ele>369.8</ele><time>2026-05-01T19:15:29.000Z</time></trkpt>
        <trkpt lat="29.3273243" lon="105.1972697"><ele>369.37</ele><time>2026-05-01T19:15:33.000Z</time></trkpt>
        <trkpt lat="29.3272865" lon="105.1972351"><ele>368.82</ele><time>2026-05-01T19:15:41.000Z</time></trkpt>
        <trkpt lat="29.3272415" lon="105.1971863"><ele>368</ele><time>2026-05-01T19:15:49.000Z</time></trkpt>
        <trkpt lat="29.3271929" lon="105.1971298"><ele>367.14</ele><time>2026-05-01T19:15:53.000Z</time></trkpt>
        <trkpt lat="29.327141" lon="105.1970896"><ele>366.61</ele><time>2026-05-01T19:15:57.000Z</time></trkpt>
        <trkpt lat="29.3270971" lon="105.1970547"><ele>366.22</ele><time>2026-05-01T19:16:05.000Z</time></trkpt>
        <trkpt lat="29.3270515" lon="105.1970059"><ele>365.95</ele><time>2026-05-01T19:16:11.000Z</time></trkpt>
        <trkpt lat="29.327014" lon="105.1969628"><ele>365.71</ele><time>2026-05-01T19:16:21.000Z</time></trkpt>
        <trkpt lat="29.326973" lon="105.196926"><ele>365.23</ele><time>2026-05-01T19:16:35.000Z</time></trkpt>
        <trkpt lat="29.3269216" lon="105.1969001"><ele>365.05</ele><time>2026-05-01T19:16:41.000Z</time></trkpt>
        <trkpt lat="29.3268689" lon="105.1968704"><ele>364.42</ele><time>2026-05-01T19:16:49.000Z</time></trkpt>
        <trkpt lat="29.3268249" lon="105.1968446"><ele>364.03</ele><time>2026-05-01T19:16:53.000Z</time></trkpt>
        <trkpt lat="29.3267808" lon="105.1968177"><ele>363.8</ele><time>2026-05-01T19:16:57.000Z</time></trkpt>
        <trkpt lat="29.3267488" lon="105.1967799"><ele>363.59</ele><time>2026-05-01T19:17:03.000Z</time></trkpt>
        <trkpt lat="29.3267074" lon="105.1967431"><ele>363.29</ele><time>2026-05-01T19:17:09.000Z</time></trkpt>
        <trkpt lat="29.3266568" lon="105.1967159"><ele>362.95</ele><time>2026-05-01T19:17:13.000Z</time></trkpt>
        <trkpt lat="29.3266117" lon="105.19669"><ele>362.67</ele><time>2026-05-01T19:17:17.000Z</time></trkpt>
        <trkpt lat="29.3265716" lon="105.1966415"><ele>362.3</ele><time>2026-05-01T19:17:25.000Z</time></trkpt>
        <trkpt lat="29.3265322" lon="105.1966021"><ele>361.57</ele><time>2026-05-01T19:17:29.000Z</time></trkpt>
        <trkpt lat="29.3265028" lon="105.1965609"><ele>361.11</ele><time>2026-05-01T19:17:35.000Z</time></trkpt>
        <trkpt lat="29.3265028" lon="105.1965609"><ele>361.11</ele><time>2026-05-01T19:18:11.000Z</time></trkpt>
        <trkpt lat="29.3265028" lon="105.1965609"><ele>361.11</ele><time>2026-05-01T19:18:13.000Z</time></trkpt>
        <trkpt lat="29.3265028" lon="105.1965609"><ele>361.11</ele><time>2026-05-01T19:18:35.000Z</time></trkpt>
        <trkpt lat="29.3265028" lon="105.1965609"><ele>361.11</ele><time>2026-05-01T19:19:41.000Z</time></trkpt>
        <trkpt lat="29.3265028" lon="105.1965609"><ele>361.11</ele><time>2026-05-01T19:20:05.000Z</time></trkpt>
        <trkpt lat="29.3265028" lon="105.1965609"><ele>361.11</ele><time>2026-05-01T19:20:31.000Z</time></trkpt>
        <trkpt lat="29.3265028" lon="105.1965609"><ele>361.11</ele><time>2026-05-01T19:20:53.000Z</time></trkpt>
        <trkpt lat="29.3265028" lon="105.1965609"><ele>361.11</ele><time>2026-05-01T19:21:09.000Z</time></trkpt>
        <trkpt lat="29.3265028" lon="105.1965609"><ele>361.11</ele><time>2026-05-01T19:21:53.000Z</time></trkpt>
        <trkpt lat="29.3265028" lon="105.1965609"><ele>361.11</ele><time>2026-05-01T19:22:19.000Z</time></trkpt>
        <trkpt lat="29.3265028" lon="105.1965609"><ele>361.11</ele><time>2026-05-01T19:22:43.000Z</time></trkpt>
        <trkpt lat="29.3264817" lon="105.196365"><ele>360.76</ele><time>2026-05-01T19:22:53.000Z</time></trkpt>
        <trkpt lat="29.3264817" lon="105.196365"><ele>360.76</ele><time>2026-05-01T19:22:59.000Z</time></trkpt>
        <trkpt lat="29.3264688" lon="105.1963142"><ele>361.77</ele><time>2026-05-01T19:23:05.000Z</time></trkpt>
        <trkpt lat="29.326462" lon="105.1962616"><ele>362</ele><time>2026-05-01T19:23:11.000Z</time></trkpt>
        <trkpt lat="29.3264531" lon="105.1961822"><ele>362</ele><time>2026-05-01T19:23:17.000Z</time></trkpt>
        <trkpt lat="29.326446" lon="105.1961005"><ele>362.21</ele><time>2026-05-01T19:23:21.000Z</time></trkpt>
        <trkpt lat="29.3264345" lon="105.1960407"><ele>362.34</ele><time>2026-05-01T19:23:25.000Z</time></trkpt>
        <trkpt lat="29.3264086" lon="105.1959873"><ele>362.62</ele><time>2026-05-01T19:23:33.000Z</time></trkpt>
        <trkpt lat="29.3263741" lon="105.1959217"><ele>363.09</ele><time>2026-05-01T19:23:39.000Z</time></trkpt>
        <trkpt lat="29.3263472" lon="105.1958534"><ele>363.44</ele><time>2026-05-01T19:23:45.000Z</time></trkpt>
        <trkpt lat="29.3263353" lon="105.195782"><ele>363.29</ele><time>2026-05-01T19:23:49.000Z</time></trkpt>
        <trkpt lat="29.326349" lon="105.195726"><ele>362.95</ele><time>2026-05-01T19:23:59.000Z</time></trkpt>
        <trkpt lat="29.3263801" lon="105.1956796"><ele>361.64</ele><time>2026-05-01T19:24:07.000Z</time></trkpt>
        <trkpt lat="29.3264044" lon="105.1956262"><ele>360.29</ele><time>2026-05-01T19:24:13.000Z</time></trkpt>
        <trkpt lat="29.3263943" lon="105.1955467"><ele>359.56</ele><time>2026-05-01T19:24:19.000Z</time></trkpt>
        <trkpt lat="29.3263722" lon="105.1954789"><ele>359.45</ele><time>2026-05-01T19:24:23.000Z</time></trkpt>
        <trkpt lat="29.3263511" lon="105.195408"><ele>359.47</ele><time>2026-05-01T19:24:29.000Z</time></trkpt>
        <trkpt lat="29.3263305" lon="105.1953461"><ele>359.44</ele><time>2026-05-01T19:24:33.000Z</time></trkpt>
        <trkpt lat="29.3263171" lon="105.1952789"><ele>359.47</ele><time>2026-05-01T19:24:37.000Z</time></trkpt>
        <trkpt lat="29.3263104" lon="105.1952169"><ele>359.78</ele><time>2026-05-01T19:24:43.000Z</time></trkpt>
        <trkpt lat="29.3263023" lon="105.1951469"><ele>360.22</ele><time>2026-05-01T19:24:49.000Z</time></trkpt>
        <trkpt lat="29.3263044" lon="105.195085"><ele>360.34</ele><time>2026-05-01T19:24:55.000Z</time></trkpt>
        <trkpt lat="29.32629" lon="105.1950226"><ele>360.5</ele><time>2026-05-01T19:25:03.000Z</time></trkpt>
        <trkpt lat="29.3262752" lon="105.194951"><ele>360.58</ele><time>2026-05-01T19:25:09.000Z</time></trkpt>
        <trkpt lat="29.3262521" lon="105.1948897"><ele>360.63</ele><time>2026-05-01T19:25:15.000Z</time></trkpt>
        <trkpt lat="29.326225" lon="105.1948326"><ele>360.75</ele><time>2026-05-01T19:25:21.000Z</time></trkpt>
        <trkpt lat="29.326197" lon="105.1947766"><ele>360.86</ele><time>2026-05-01T19:25:27.000Z</time></trkpt>
        <trkpt lat="29.3261768" lon="105.1947195"><ele>361.13</ele><time>2026-05-01T19:25:31.000Z</time></trkpt>
        <trkpt lat="29.3261536" lon="105.1946616"><ele>361.29</ele><time>2026-05-01T19:25:39.000Z</time></trkpt>
        <trkpt lat="29.3261252" lon="105.1946097"><ele>361.38</ele><time>2026-05-01T19:25:45.000Z</time></trkpt>
        <trkpt lat="29.3260937" lon="105.1945486"><ele>361.56</ele><time>2026-05-01T19:25:51.000Z</time></trkpt>
        <trkpt lat="29.3260676" lon="105.1944814"><ele>361.71</ele><time>2026-05-01T19:25:57.000Z</time></trkpt>
        <trkpt lat="29.3260526" lon="105.1944223"><ele>362.09</ele><time>2026-05-01T19:26:03.000Z</time></trkpt>
        <trkpt lat="29.3260353" lon="105.1943616"><ele>362.22</ele><time>2026-05-01T19:26:09.000Z</time></trkpt>
        <trkpt lat="29.3260214" lon="105.1942952"><ele>362.39</ele><time>2026-05-01T19:26:13.000Z</time></trkpt>
        <trkpt lat="29.3260036" lon="105.1942417"><ele>362.52</ele><time>2026-05-01T19:26:19.000Z</time></trkpt>
        <trkpt lat="29.3259816" lon="105.1941745"><ele>362.51</ele><time>2026-05-01T19:26:25.000Z</time></trkpt>
        <trkpt lat="29.3259643" lon="105.1941179"><ele>362.68</ele><time>2026-05-01T19:26:31.000Z</time></trkpt>
        <trkpt lat="29.3259527" lon="105.1940608"><ele>363.29</ele><time>2026-05-01T19:26:35.000Z</time></trkpt>
        <trkpt lat="29.3259431" lon="105.1940081"><ele>363.77</ele><time>2026-05-01T19:26:41.000Z</time></trkpt>
        <trkpt lat="29.3259301" lon="105.1939468"><ele>364.04</ele><time>2026-05-01T19:26:49.000Z</time></trkpt>
        <trkpt lat="29.3259118" lon="105.1938808"><ele>364.58</ele><time>2026-05-01T19:26:55.000Z</time></trkpt>
        <trkpt lat="29.3258966" lon="105.1938222"><ele>364.8</ele><time>2026-05-01T19:27:01.000Z</time></trkpt>
        <trkpt lat="29.3258803" lon="105.1937642"><ele>364.93</ele><time>2026-05-01T19:27:07.000Z</time></trkpt>
        <trkpt lat="29.3258724" lon="105.1937"><ele>365.22</ele><time>2026-05-01T19:27:13.000Z</time></trkpt>
        <trkpt lat="29.3258626" lon="105.1936346"><ele>365.56</ele><time>2026-05-01T19:27:19.000Z</time></trkpt>
        <trkpt lat="29.3258504" lon="105.1935766"><ele>365.75</ele><time>2026-05-01T19:27:25.000Z</time></trkpt>
        <trkpt lat="29.3258435" lon="105.1935202"><ele>365.98</ele><time>2026-05-01T19:27:29.000Z</time></trkpt>
        <trkpt lat="29.3258335" lon="105.1934566"><ele>366.29</ele><time>2026-05-01T19:27:35.000Z</time></trkpt>
        <trkpt lat="29.3258172" lon="105.1933889"><ele>366.64</ele><time>2026-05-01T19:27:41.000Z</time></trkpt>
        <trkpt lat="29.3258186" lon="105.1933237"><ele>367.22</ele><time>2026-05-01T19:27:47.000Z</time></trkpt>
        <trkpt lat="29.3258144" lon="105.1932623"><ele>367.99</ele><time>2026-05-01T19:27:53.000Z</time></trkpt>
        <trkpt lat="29.3258098" lon="105.1932085"><ele>368.81</ele><time>2026-05-01T19:27:59.000Z</time></trkpt>
        <trkpt lat="29.3258" lon="105.19315"><ele>369.67</ele><time>2026-05-01T19:28:05.000Z</time></trkpt>
        <trkpt lat="29.325812" lon="105.1930903"><ele>370.24</ele><time>2026-05-01T19:28:29.000Z</time></trkpt>
        <trkpt lat="29.3257922" lon="105.1930353"><ele>370.39</ele><time>2026-05-01T19:28:47.000Z</time></trkpt>
        <trkpt lat="29.3257509" lon="105.1929845"><ele>370.44</ele><time>2026-05-01T19:28:55.000Z</time></trkpt>
        <trkpt lat="29.325718" lon="105.1929389"><ele>370.42</ele><time>2026-05-01T19:29:01.000Z</time></trkpt>
        <trkpt lat="29.3257038" lon="105.1928822"><ele>370.28</ele><time>2026-05-01T19:29:07.000Z</time></trkpt>
        <trkpt lat="29.3256856" lon="105.1928272"><ele>369.82</ele><time>2026-05-01T19:29:13.000Z</time></trkpt>
        <trkpt lat="29.3256856" lon="105.1928272"><ele>369.82</ele><time>2026-05-01T19:29:57.000Z</time></trkpt>
        <trkpt lat="29.32567" lon="105.1926917"><ele>368.99</ele><time>2026-05-01T19:30:37.000Z</time></trkpt>
        <trkpt lat="29.32567" lon="105.1926917"><ele>368.99</ele><time>2026-05-01T19:30:41.000Z</time></trkpt>
        <trkpt lat="29.3256559" lon="105.1926327"><ele>367.1</ele><time>2026-05-01T19:30:47.000Z</time></trkpt>
        <trkpt lat="29.3256367" lon="105.1925817"><ele>365.94</ele><time>2026-05-01T19:30:53.000Z</time></trkpt>
        <trkpt lat="29.3256309" lon="105.1925182"><ele>365.41</ele><time>2026-05-01T19:30:59.000Z</time></trkpt>
        <trkpt lat="29.3256391" lon="105.1924474"><ele>365.15</ele><time>2026-05-01T19:31:05.000Z</time></trkpt>
        <trkpt lat="29.3256632" lon="105.1923758"><ele>364.91</ele><time>2026-05-01T19:31:11.000Z</time></trkpt>
        <trkpt lat="29.3256847" lon="105.1923133"><ele>364.73</ele><time>2026-05-01T19:31:15.000Z</time></trkpt>
        <trkpt lat="29.3256688" lon="105.1922658"><ele>364.42</ele><time>2026-05-01T19:31:25.000Z</time></trkpt>
        <trkpt lat="29.3256499" lon="105.192211"><ele>364.75</ele><time>2026-05-01T19:31:31.000Z</time></trkpt>
        <trkpt lat="29.3256441" lon="105.1921513"><ele>365.25</ele><time>2026-05-01T19:31:35.000Z</time></trkpt>
        <trkpt lat="29.3256443" lon="105.1920921"><ele>365.44</ele><time>2026-05-01T19:31:39.000Z</time></trkpt>
        <trkpt lat="29.3256364" lon="105.1920259"><ele>365.68</ele><time>2026-05-01T19:31:45.000Z</time></trkpt>
        <trkpt lat="29.3256252" lon="105.191966"><ele>365.95</ele><time>2026-05-01T19:31:51.000Z</time></trkpt>
        <trkpt lat="29.325623" lon="105.191895"><ele>366.44</ele><time>2026-05-01T19:31:57.000Z</time></trkpt>
        <trkpt lat="29.3256144" lon="105.1918261"><ele>366.9</ele><time>2026-05-01T19:32:01.000Z</time></trkpt>
        <trkpt lat="29.3255906" lon="105.1917534"><ele>367.2</ele><time>2026-05-01T19:32:05.000Z</time></trkpt>
        <trkpt lat="29.3255752" lon="105.1916959"><ele>367.24</ele><time>2026-05-01T19:32:09.000Z</time></trkpt>
        <trkpt lat="29.325575" lon="105.1916443"><ele>367.18</ele><time>2026-05-01T19:32:15.000Z</time></trkpt>
        <trkpt lat="29.3255642" lon="105.1915865"><ele>367.06</ele><time>2026-05-01T19:32:21.000Z</time></trkpt>
        <trkpt lat="29.32555" lon="105.1915334"><ele>366.56</ele><time>2026-05-01T19:32:27.000Z</time></trkpt>
        <trkpt lat="29.3255396" lon="105.1914719"><ele>366.19</ele><time>2026-05-01T19:32:35.000Z</time></trkpt>
        <trkpt lat="29.3255309" lon="105.1914021"><ele>366.62</ele><time>2026-05-01T19:32:39.000Z</time></trkpt>
        <trkpt lat="29.3255102" lon="105.1913408"><ele>366.96</ele><time>2026-05-01T19:32:45.000Z</time></trkpt>
        <trkpt lat="29.3254938" lon="105.1912833"><ele>366.8</ele><time>2026-05-01T19:32:59.000Z</time></trkpt>
        <trkpt lat="29.3254846" lon="105.1912283"><ele>366.93</ele><time>2026-05-01T19:33:15.000Z</time></trkpt>
        <trkpt lat="29.3254893" lon="105.1911764"><ele>366.96</ele><time>2026-05-01T19:33:19.000Z</time></trkpt>
        <trkpt lat="29.3254899" lon="105.1911178"><ele>366.93</ele><time>2026-05-01T19:33:25.000Z</time></trkpt>
        <trkpt lat="29.3254795" lon="105.191059"><ele>366.49</ele><time>2026-05-01T19:33:31.000Z</time></trkpt>
        <trkpt lat="29.3254658" lon="105.1910053"><ele>366.11</ele><time>2026-05-01T19:33:35.000Z</time></trkpt>
        <trkpt lat="29.3254528" lon="105.1909549"><ele>365.8</ele><time>2026-05-01T19:33:41.000Z</time></trkpt>
        <trkpt lat="29.3254291" lon="105.1908929"><ele>365.46</ele><time>2026-05-01T19:33:49.000Z</time></trkpt>
        <trkpt lat="29.3254068" lon="105.1908301"><ele>365.52</ele><time>2026-05-01T19:33:55.000Z</time></trkpt>
        <trkpt lat="29.3253805" lon="105.1907776"><ele>365.55</ele><time>2026-05-01T19:34:01.000Z</time></trkpt>
        <trkpt lat="29.3253494" lon="105.1907153"><ele>365.7</ele><time>2026-05-01T19:34:07.000Z</time></trkpt>
        <trkpt lat="29.325327" lon="105.1906528"><ele>366.09</ele><time>2026-05-01T19:34:11.000Z</time></trkpt>
        <trkpt lat="29.3253081" lon="105.1905968"><ele>366.35</ele><time>2026-05-01T19:34:17.000Z</time></trkpt>
        <trkpt lat="29.3252865" lon="105.1905371"><ele>366.63</ele><time>2026-05-01T19:34:21.000Z</time></trkpt>
        <trkpt lat="29.3252662" lon="105.190477"><ele>366.96</ele><time>2026-05-01T19:34:27.000Z</time></trkpt>
        <trkpt lat="29.32525" lon="105.1904194"><ele>367.45</ele><time>2026-05-01T19:34:33.000Z</time></trkpt>
        <trkpt lat="29.3252228" lon="105.1903689"><ele>367.82</ele><time>2026-05-01T19:34:39.000Z</time></trkpt>
        <trkpt lat="29.3251975" lon="105.1903185"><ele>368.11</ele><time>2026-05-01T19:34:43.000Z</time></trkpt>
        <trkpt lat="29.3251809" lon="105.1902589"><ele>368.36</ele><time>2026-05-01T19:34:47.000Z</time></trkpt>
        <trkpt lat="29.3251651" lon="105.1901995"><ele>368.51</ele><time>2026-05-01T19:34:51.000Z</time></trkpt>
        <trkpt lat="29.3251354" lon="105.1901392"><ele>368.29</ele><time>2026-05-01T19:34:57.000Z</time></trkpt>
        <trkpt lat="29.3251004" lon="105.1900876"><ele>367.18</ele><time>2026-05-01T19:35:03.000Z</time></trkpt>
        <trkpt lat="29.3250541" lon="105.1900694"><ele>365.85</ele><time>2026-05-01T19:35:07.000Z</time></trkpt>
        <trkpt lat="29.325038" lon="105.1900779"><ele>364.63</ele><time>2026-05-01T19:35:19.000Z</time></trkpt>
        <trkpt lat="29.3250365" lon="105.1901281"><ele>363.37</ele><time>2026-05-01T19:35:33.000Z</time></trkpt>
        <trkpt lat="29.3250379" lon="105.1901921"><ele>363.04</ele><time>2026-05-01T19:35:39.000Z</time></trkpt>
        <trkpt lat="29.3250501" lon="105.1902513"><ele>363.02</ele><time>2026-05-01T19:35:45.000Z</time></trkpt>
        <trkpt lat="29.3250668" lon="105.1903161"><ele>362.88</ele><time>2026-05-01T19:35:51.000Z</time></trkpt>
        <trkpt lat="29.3250839" lon="105.190383"><ele>362.76</ele><time>2026-05-01T19:35:57.000Z</time></trkpt>
        <trkpt lat="29.3251004" lon="105.1904498"><ele>362.65</ele><time>2026-05-01T19:36:03.000Z</time></trkpt>
        <trkpt lat="29.3251187" lon="105.1905121"><ele>362.58</ele><time>2026-05-01T19:36:07.000Z</time></trkpt>
        <trkpt lat="29.3251363" lon="105.1905688"><ele>362.33</ele><time>2026-05-01T19:36:11.000Z</time></trkpt>
        <trkpt lat="29.3251608" lon="105.1906322"><ele>361.8</ele><time>2026-05-01T19:36:17.000Z</time></trkpt>
        <trkpt lat="29.3251753" lon="105.1907022"><ele>360.86</ele><time>2026-05-01T19:36:23.000Z</time></trkpt>
        <trkpt lat="29.3251807" lon="105.1907619"><ele>359.58</ele><time>2026-05-01T19:36:27.000Z</time></trkpt>
        <trkpt lat="29.3251831" lon="105.1908199"><ele>358.73</ele><time>2026-05-01T19:36:31.000Z</time></trkpt>
        <trkpt lat="29.3251851" lon="105.1908726"><ele>357.99</ele><time>2026-05-01T19:36:39.000Z</time></trkpt>
        <trkpt lat="29.3251737" lon="105.1909349"><ele>357.73</ele><time>2026-05-01T19:36:45.000Z</time></trkpt>
        <trkpt lat="29.325169" lon="105.1909923"><ele>357.59</ele><time>2026-05-01T19:36:51.000Z</time></trkpt>
        <trkpt lat="29.3251663" lon="105.1910477"><ele>356.82</ele><time>2026-05-01T19:36:57.000Z</time></trkpt>
        <trkpt lat="29.3251608" lon="105.1911087"><ele>356.21</ele><time>2026-05-01T19:37:05.000Z</time></trkpt>
        <trkpt lat="29.3251554" lon="105.1911656"><ele>356.12</ele><time>2026-05-01T19:37:11.000Z</time></trkpt>
        <trkpt lat="29.3251439" lon="105.1912234"><ele>355.98</ele><time>2026-05-01T19:37:17.000Z</time></trkpt>
        <trkpt lat="29.325139" lon="105.1912916"><ele>355.52</ele><time>2026-05-01T19:37:23.000Z</time></trkpt>
        <trkpt lat="29.3251469" lon="105.1913473"><ele>354.82</ele><time>2026-05-01T19:37:29.000Z</time></trkpt>
        <trkpt lat="29.3251581" lon="105.1914129"><ele>353.65</ele><time>2026-05-01T19:37:35.000Z</time></trkpt>
        <trkpt lat="29.3251696" lon="105.1914726"><ele>352.21</ele><time>2026-05-01T19:37:39.000Z</time></trkpt>
        <trkpt lat="29.3251696" lon="105.1914726"><ele>352.21</ele><time>2026-05-01T19:38:09.000Z</time></trkpt>
        <trkpt lat="29.325172" lon="105.1915309"><ele>351.09</ele><time>2026-05-01T19:38:37.000Z</time></trkpt>
        <trkpt lat="29.325172" lon="105.1915309"><ele>351.09</ele><time>2026-05-01T19:38:39.000Z</time></trkpt>
        <trkpt lat="29.3251844" lon="105.1915927"><ele>349.2</ele><time>2026-05-01T19:38:45.000Z</time></trkpt>
        <trkpt lat="29.3251908" lon="105.1916609"><ele>348.21</ele><time>2026-05-01T19:38:51.000Z</time></trkpt>
        <trkpt lat="29.3251871" lon="105.1917325"><ele>347.99</ele><time>2026-05-01T19:38:59.000Z</time></trkpt>
        <trkpt lat="29.3251761" lon="105.1917976"><ele>347.69</ele><time>2026-05-01T19:39:05.000Z</time></trkpt>
        <trkpt lat="29.3251555" lon="105.191851"><ele>347.31</ele><time>2026-05-01T19:39:13.000Z</time></trkpt>
        <trkpt lat="29.3251597" lon="105.1919016"><ele>347.05</ele><time>2026-05-01T19:39:19.000Z</time></trkpt>
        <trkpt lat="29.3251564" lon="105.1919631"><ele>346.55</ele><time>2026-05-01T19:39:25.000Z</time></trkpt>
        <trkpt lat="29.3251531" lon="105.1920292"><ele>345.97</ele><time>2026-05-01T19:39:31.000Z</time></trkpt>
        <trkpt lat="29.3251424" lon="105.1921016"><ele>345.21</ele><time>2026-05-01T19:39:37.000Z</time></trkpt>
        <trkpt lat="29.3251289" lon="105.1921621"><ele>344.56</ele><time>2026-05-01T19:39:43.000Z</time></trkpt>
        <trkpt lat="29.3251147" lon="105.192214"><ele>343.89</ele><time>2026-05-01T19:39:49.000Z</time></trkpt>
        <trkpt lat="29.3251107" lon="105.1922768"><ele>343.25</ele><time>2026-05-01T19:39:57.000Z</time></trkpt>
        <trkpt lat="29.3251019" lon="105.1923381"><ele>342.71</ele><time>2026-05-01T19:40:03.000Z</time></trkpt>
        <trkpt lat="29.3250896" lon="105.1924035"><ele>342.19</ele><time>2026-05-01T19:40:09.000Z</time></trkpt>
        <trkpt lat="29.3250861" lon="105.1924654"><ele>341.59</ele><time>2026-05-01T19:40:15.000Z</time></trkpt>
        <trkpt lat="29.3250772" lon="105.1925295"><ele>341.04</ele><time>2026-05-01T19:40:21.000Z</time></trkpt>
        <trkpt lat="29.3250636" lon="105.1925844"><ele>340.63</ele><time>2026-05-01T19:40:29.000Z</time></trkpt>
        <trkpt lat="29.3250482" lon="105.1926459"><ele>340.4</ele><time>2026-05-01T19:40:35.000Z</time></trkpt>
        <trkpt lat="29.3250414" lon="105.1927091"><ele>340.36</ele><time>2026-05-01T19:40:41.000Z</time></trkpt>
        <trkpt lat="29.3250291" lon="105.1927689"><ele>340.33</ele><time>2026-05-01T19:40:47.000Z</time></trkpt>
        <trkpt lat="29.325012" lon="105.1928274"><ele>340.28</ele><time>2026-05-01T19:40:53.000Z</time></trkpt>
        <trkpt lat="29.3249945" lon="105.1928805"><ele>340.29</ele><time>2026-05-01T19:40:59.000Z</time></trkpt>
        <trkpt lat="29.324981" lon="105.1929418"><ele>340.51</ele><time>2026-05-01T19:41:09.000Z</time></trkpt>
        <trkpt lat="29.3249691" lon="105.1930089"><ele>340.33</ele><time>2026-05-01T19:41:15.000Z</time></trkpt>
        <trkpt lat="29.3249502" lon="105.1930704"><ele>340.15</ele><time>2026-05-01T19:41:21.000Z</time></trkpt>
        <trkpt lat="29.324926" lon="105.1931306"><ele>339.48</ele><time>2026-05-01T19:41:27.000Z</time></trkpt>
        <trkpt lat="29.3248928" lon="105.1931892"><ele>338.5</ele><time>2026-05-01T19:41:33.000Z</time></trkpt>
        <trkpt lat="29.3248629" lon="105.1932373"><ele>337.3</ele><time>2026-05-01T19:41:39.000Z</time></trkpt>
        <trkpt lat="29.3248275" lon="105.1932817"><ele>335.58</ele><time>2026-05-01T19:41:43.000Z</time></trkpt>
        <trkpt lat="29.3247965" lon="105.1933291"><ele>333.87</ele><time>2026-05-01T19:41:49.000Z</time></trkpt>
        <trkpt lat="29.3247738" lon="105.193397"><ele>331.86</ele><time>2026-05-01T19:41:55.000Z</time></trkpt>
        <trkpt lat="29.3247442" lon="105.1934549"><ele>330.37</ele><time>2026-05-01T19:41:59.000Z</time></trkpt>
        <trkpt lat="29.324719" lon="105.1935119"><ele>329.39</ele><time>2026-05-01T19:42:05.000Z</time></trkpt>
        <trkpt lat="29.3247018" lon="105.1935648"><ele>328.58</ele><time>2026-05-01T19:42:11.000Z</time></trkpt>
        <trkpt lat="29.3246786" lon="105.193625"><ele>327.73</ele><time>2026-05-01T19:42:19.000Z</time></trkpt>
        <trkpt lat="29.3246602" lon="105.1936807"><ele>326.55</ele><time>2026-05-01T19:42:25.000Z</time></trkpt>
        <trkpt lat="29.3246461" lon="105.1937443"><ele>325.41</ele><time>2026-05-01T19:42:33.000Z</time></trkpt>
        <trkpt lat="29.3246284" lon="105.1938148"><ele>324.46</ele><time>2026-05-01T19:42:39.000Z</time></trkpt>
        <trkpt lat="29.3246089" lon="105.1938837"><ele>323.75</ele><time>2026-05-01T19:42:45.000Z</time></trkpt>
        <trkpt lat="29.3245788" lon="105.1939451"><ele>323.04</ele><time>2026-05-01T19:42:51.000Z</time></trkpt>
        <trkpt lat="29.3245512" lon="105.1940036"><ele>322.59</ele><time>2026-05-01T19:42:57.000Z</time></trkpt>
        <trkpt lat="29.3245201" lon="105.1940513"><ele>322.17</ele><time>2026-05-01T19:43:03.000Z</time></trkpt>
        <trkpt lat="29.3244955" lon="105.1941016"><ele>321.71</ele><time>2026-05-01T19:43:09.000Z</time></trkpt>
        <trkpt lat="29.3244585" lon="105.1941536"><ele>320.97</ele><time>2026-05-01T19:43:15.000Z</time></trkpt>
        <trkpt lat="29.324413" lon="105.1941915"><ele>319.91</ele><time>2026-05-01T19:43:21.000Z</time></trkpt>
        <trkpt lat="29.3243575" lon="105.1942192"><ele>319</ele><time>2026-05-01T19:43:27.000Z</time></trkpt>
        <trkpt lat="29.3243028" lon="105.1942203"><ele>318.7</ele><time>2026-05-01T19:43:31.000Z</time></trkpt>
        <trkpt lat="29.3242506" lon="105.1942013"><ele>318.66</ele><time>2026-05-01T19:43:35.000Z</time></trkpt>
        <trkpt lat="29.3241986" lon="105.194177"><ele>318.63</ele><time>2026-05-01T19:43:41.000Z</time></trkpt>
        <trkpt lat="29.3241493" lon="105.1941504"><ele>318.96</ele><time>2026-05-01T19:43:47.000Z</time></trkpt>
        <trkpt lat="29.3241047" lon="105.1941243"><ele>319.37</ele><time>2026-05-01T19:43:51.000Z</time></trkpt>
        <trkpt lat="29.3240618" lon="105.1941031"><ele>319.6</ele><time>2026-05-01T19:43:55.000Z</time></trkpt>
        <trkpt lat="29.3240103" lon="105.1940766"><ele>319.68</ele><time>2026-05-01T19:44:03.000Z</time></trkpt>
        <trkpt lat="29.3239618" lon="105.1940419"><ele>319.56</ele><time>2026-05-01T19:44:07.000Z</time></trkpt>
        <trkpt lat="29.3239183" lon="105.1940007"><ele>319.58</ele><time>2026-05-01T19:44:15.000Z</time></trkpt>
        <trkpt lat="29.3238831" lon="105.193959"><ele>320.02</ele><time>2026-05-01T19:44:19.000Z</time></trkpt>
        <trkpt lat="29.323848" lon="105.1939165"><ele>320.48</ele><time>2026-05-01T19:44:25.000Z</time></trkpt>
        <trkpt lat="29.3238037" lon="105.1938766"><ele>320.49</ele><time>2026-05-01T19:44:33.000Z</time></trkpt>
        <trkpt lat="29.3237569" lon="105.1938354"><ele>320.37</ele><time>2026-05-01T19:44:39.000Z</time></trkpt>
        <trkpt lat="29.3237133" lon="105.1938012"><ele>320.38</ele><time>2026-05-01T19:44:45.000Z</time></trkpt>
        <trkpt lat="29.3236711" lon="105.1937759"><ele>320.26</ele><time>2026-05-01T19:44:51.000Z</time></trkpt>
        <trkpt lat="29.3236258" lon="105.1937573"><ele>320.11</ele><time>2026-05-01T19:44:57.000Z</time></trkpt>
        <trkpt lat="29.3235779" lon="105.1937329"><ele>319.97</ele><time>2026-05-01T19:45:03.000Z</time></trkpt>
        <trkpt lat="29.3235305" lon="105.1937082"><ele>319.9</ele><time>2026-05-01T19:45:11.000Z</time></trkpt>
        <trkpt lat="29.3234922" lon="105.1936771"><ele>319.68</ele><time>2026-05-01T19:45:19.000Z</time></trkpt>
        <trkpt lat="29.3234549" lon="105.1936373"><ele>319.52</ele><time>2026-05-01T19:45:25.000Z</time></trkpt>
        <trkpt lat="29.3234199" lon="105.1935947"><ele>319.38</ele><time>2026-05-01T19:45:31.000Z</time></trkpt>
        <trkpt lat="29.3233818" lon="105.1935455"><ele>319.17</ele><time>2026-05-01T19:45:37.000Z</time></trkpt>
        <trkpt lat="29.3233435" lon="105.1934968"><ele>318.93</ele><time>2026-05-01T19:45:43.000Z</time></trkpt>
        <trkpt lat="29.3233151" lon="105.1934503"><ele>318.57</ele><time>2026-05-01T19:45:49.000Z</time></trkpt>
        <trkpt lat="29.3232892" lon="105.1934023"><ele>318.33</ele><time>2026-05-01T19:45:55.000Z</time></trkpt>
        <trkpt lat="29.3232636" lon="105.1933551"><ele>318.23</ele><time>2026-05-01T19:46:01.000Z</time></trkpt>
        <trkpt lat="29.3232352" lon="105.1933133"><ele>318.35</ele><time>2026-05-01T19:46:09.000Z</time></trkpt>
        <trkpt lat="29.3231967" lon="105.1932672"><ele>318.54</ele><time>2026-05-01T19:46:15.000Z</time></trkpt>
        <trkpt lat="29.3231597" lon="105.193223"><ele>318.48</ele><time>2026-05-01T19:46:19.000Z</time></trkpt>
        <trkpt lat="29.3231287" lon="105.1931821"><ele>318.19</ele><time>2026-05-01T19:46:23.000Z</time></trkpt>
        <trkpt lat="29.3230826" lon="105.1931348"><ele>318.02</ele><time>2026-05-01T19:46:29.000Z</time></trkpt>
        <trkpt lat="29.3230446" lon="105.1930774"><ele>317.88</ele><time>2026-05-01T19:46:35.000Z</time></trkpt>
        <trkpt lat="29.323004" lon="105.1930216"><ele>317.33</ele><time>2026-05-01T19:46:41.000Z</time></trkpt>
        <trkpt lat="29.3229674" lon="105.1929659"><ele>316.67</ele><time>2026-05-01T19:46:47.000Z</time></trkpt>
        <trkpt lat="29.322926" lon="105.1929279"><ele>316.3</ele><time>2026-05-01T19:46:51.000Z</time></trkpt>
        <trkpt lat="29.3228891" lon="105.1928841"><ele>315.7</ele><time>2026-05-01T19:46:57.000Z</time></trkpt>
        <trkpt lat="29.3228452" lon="105.1928384"><ele>315.27</ele><time>2026-05-01T19:47:03.000Z</time></trkpt>
        <trkpt lat="29.3227973" lon="105.1928008"><ele>314.98</ele><time>2026-05-01T19:47:09.000Z</time></trkpt>
        <trkpt lat="29.3227545" lon="105.1927647"><ele>314.56</ele><time>2026-05-01T19:47:15.000Z</time></trkpt>
        <trkpt lat="29.3227127" lon="105.1927414"><ele>314.32</ele><time>2026-05-01T19:47:19.000Z</time></trkpt>
        <trkpt lat="29.3226675" lon="105.192725"><ele>314.05</ele><time>2026-05-01T19:47:25.000Z</time></trkpt>
        <trkpt lat="29.3226196" lon="105.1927001"><ele>314.29</ele><time>2026-05-01T19:47:29.000Z</time></trkpt>
        <trkpt lat="29.3225697" lon="105.1926776"><ele>314.59</ele><time>2026-05-01T19:47:33.000Z</time></trkpt>
        <trkpt lat="29.3225155" lon="105.1926497"><ele>315.11</ele><time>2026-05-01T19:47:39.000Z</time></trkpt>
        <trkpt lat="29.3224524" lon="105.1926411"><ele>315.45</ele><time>2026-05-01T19:47:51.000Z</time></trkpt>
        <trkpt lat="29.322394" lon="105.1926434"><ele>316.33</ele><time>2026-05-01T19:47:57.000Z</time></trkpt>
        <trkpt lat="29.3223254" lon="105.1926488"><ele>316.75</ele><time>2026-05-01T19:48:01.000Z</time></trkpt>
        <trkpt lat="29.3222619" lon="105.192648"><ele>316.86</ele><time>2026-05-01T19:48:05.000Z</time></trkpt>
        <trkpt lat="29.3222035" lon="105.1926492"><ele>316.83</ele><time>2026-05-01T19:48:13.000Z</time></trkpt>
        <trkpt lat="29.3221544" lon="105.1926485"><ele>316.6</ele><time>2026-05-01T19:48:17.000Z</time></trkpt>
        <trkpt lat="29.3221048" lon="105.192657"><ele>316.52</ele><time>2026-05-01T19:48:21.000Z</time></trkpt>
        <trkpt lat="29.3220568" lon="105.1926615"><ele>316.25</ele><time>2026-05-01T19:48:27.000Z</time></trkpt>
        <trkpt lat="29.3220028" lon="105.1926639"><ele>315.37</ele><time>2026-05-01T19:48:33.000Z</time></trkpt>
        <trkpt lat="29.3219502" lon="105.192668"><ele>314.44</ele><time>2026-05-01T19:48:37.000Z</time></trkpt>
        <trkpt lat="29.321897" lon="105.1926654"><ele>313.86</ele><time>2026-05-01T19:48:41.000Z</time></trkpt>
        <trkpt lat="29.3218448" lon="105.1926665"><ele>313.58</ele><time>2026-05-01T19:48:49.000Z</time></trkpt>
        <trkpt lat="29.3217893" lon="105.1926756"><ele>313.8</ele><time>2026-05-01T19:48:55.000Z</time></trkpt>
        <trkpt lat="29.3217339" lon="105.1926826"><ele>314.1</ele><time>2026-05-01T19:48:59.000Z</time></trkpt>
        <trkpt lat="29.3216798" lon="105.1926858"><ele>314.49</ele><time>2026-05-01T19:49:03.000Z</time></trkpt>
        <trkpt lat="29.3216326" lon="105.1926813"><ele>314.67</ele><time>2026-05-01T19:49:09.000Z</time></trkpt>
        <trkpt lat="29.3215829" lon="105.1926704"><ele>314.64</ele><time>2026-05-01T19:49:19.000Z</time></trkpt>
        <trkpt lat="29.3215256" lon="105.1926351"><ele>314.54</ele><time>2026-05-01T19:49:45.000Z</time></trkpt>
        <trkpt lat="29.321473" lon="105.1926014"><ele>313.83</ele><time>2026-05-01T19:49:51.000Z</time></trkpt>
        <trkpt lat="29.3214225" lon="105.1925726"><ele>313.3</ele><time>2026-05-01T19:49:57.000Z</time></trkpt>
        <trkpt lat="29.3213676" lon="105.1925451"><ele>313</ele><time>2026-05-01T19:50:03.000Z</time></trkpt>
        <trkpt lat="29.3213211" lon="105.1925182"><ele>312.96</ele><time>2026-05-01T19:50:07.000Z</time></trkpt>
        <trkpt lat="29.3212778" lon="105.1924953"><ele>312.72</ele><time>2026-05-01T19:50:15.000Z</time></trkpt>
        <trkpt lat="29.3212227" lon="105.1924951"><ele>312.28</ele><time>2026-05-01T19:50:27.000Z</time></trkpt>
        <trkpt lat="29.3211692" lon="105.1924817"><ele>312.42</ele><time>2026-05-01T19:50:35.000Z</time></trkpt>
        <trkpt lat="29.3211231" lon="105.1924508"><ele>312.5</ele><time>2026-05-01T19:50:43.000Z</time></trkpt>
        <trkpt lat="29.3210797" lon="105.1924248"><ele>312.76</ele><time>2026-05-01T19:50:51.000Z</time></trkpt>
        <trkpt lat="29.3210321" lon="105.1924266"><ele>312.86</ele><time>2026-05-01T19:51:07.000Z</time></trkpt>
        <trkpt lat="29.3209787" lon="105.1924312"><ele>312.79</ele><time>2026-05-01T19:51:13.000Z</time></trkpt>
        <trkpt lat="29.3209197" lon="105.1924356"><ele>312.67</ele><time>2026-05-01T19:51:19.000Z</time></trkpt>
        <trkpt lat="29.3208626" lon="105.1924414"><ele>312.98</ele><time>2026-05-01T19:51:25.000Z</time></trkpt>
        <trkpt lat="29.3208068" lon="105.192426"><ele>313.46</ele><time>2026-05-01T19:51:41.000Z</time></trkpt>
        <trkpt lat="29.3207553" lon="105.1924188"><ele>313.74</ele><time>2026-05-01T19:51:45.000Z</time></trkpt>
        <trkpt lat="29.3207029" lon="105.1924181"><ele>313.94</ele><time>2026-05-01T19:51:49.000Z</time></trkpt>
        <trkpt lat="29.3206525" lon="105.1923961"><ele>314.14</ele><time>2026-05-01T19:51:57.000Z</time></trkpt>
        <trkpt lat="29.3206014" lon="105.1923809"><ele>314.38</ele><time>2026-05-01T19:52:01.000Z</time></trkpt>
        <trkpt lat="29.3205462" lon="105.1923668"><ele>314.73</ele><time>2026-05-01T19:52:07.000Z</time></trkpt>
        <trkpt lat="29.3204933" lon="105.1923557"><ele>315.19</ele><time>2026-05-01T19:52:13.000Z</time></trkpt>
        <trkpt lat="29.32044" lon="105.1923546"><ele>315.37</ele><time>2026-05-01T19:52:17.000Z</time></trkpt>
        <trkpt lat="29.3203767" lon="105.1923694"><ele>315.47</ele><time>2026-05-01T19:52:25.000Z</time></trkpt>
        <trkpt lat="29.320331" lon="105.1923969"><ele>314.97</ele><time>2026-05-01T19:52:29.000Z</time></trkpt>
        <trkpt lat="29.320291" lon="105.1924404"><ele>314.46</ele><time>2026-05-01T19:52:41.000Z</time></trkpt>
        <trkpt lat="29.3202536" lon="105.1924822"><ele>313.28</ele><time>2026-05-01T19:52:47.000Z</time></trkpt>
        <trkpt lat="29.3202204" lon="105.1925229"><ele>312.38</ele><time>2026-05-01T19:52:53.000Z</time></trkpt>
        <trkpt lat="29.3201881" lon="105.1925739"><ele>311.74</ele><time>2026-05-01T19:52:59.000Z</time></trkpt>
        <trkpt lat="29.3201607" lon="105.1926357"><ele>311.51</ele><time>2026-05-01T19:53:05.000Z</time></trkpt>
        <trkpt lat="29.320131" lon="105.1926945"><ele>311.38</ele><time>2026-05-01T19:53:11.000Z</time></trkpt>
        <trkpt lat="29.3200951" lon="105.1927449"><ele>311.39</ele><time>2026-05-01T19:53:17.000Z</time></trkpt>
        <trkpt lat="29.320068" lon="105.1927932"><ele>311.61</ele><time>2026-05-01T19:53:21.000Z</time></trkpt>
        <trkpt lat="29.3200507" lon="105.1928485"><ele>312.08</ele><time>2026-05-01T19:53:29.000Z</time></trkpt>
        <trkpt lat="29.3200291" lon="105.1928991"><ele>312.99</ele><time>2026-05-01T19:53:35.000Z</time></trkpt>
        <trkpt lat="29.3200153" lon="105.1929615"><ele>313.6</ele><time>2026-05-01T19:53:41.000Z</time></trkpt>
        <trkpt lat="29.3200267" lon="105.1930221"><ele>314.11</ele><time>2026-05-01T19:53:47.000Z</time></trkpt>
        <trkpt lat="29.3200368" lon="105.1930852"><ele>314.67</ele><time>2026-05-01T19:53:53.000Z</time></trkpt>
        <trkpt lat="29.3200498" lon="105.1931465"><ele>315.2</ele><time>2026-05-01T19:53:59.000Z</time></trkpt>
        <trkpt lat="29.3200643" lon="105.1932018"><ele>315.63</ele><time>2026-05-01T19:54:05.000Z</time></trkpt>
        <trkpt lat="29.320075" lon="105.1932626"><ele>315.96</ele><time>2026-05-01T19:54:11.000Z</time></trkpt>
        <trkpt lat="29.3200714" lon="105.1933318"><ele>316.45</ele><time>2026-05-01T19:54:17.000Z</time></trkpt>
        <trkpt lat="29.3200763" lon="105.1933902"><ele>316.99</ele><time>2026-05-01T19:54:23.000Z</time></trkpt>
        <trkpt lat="29.3200439" lon="105.1934341"><ele>317.29</ele><time>2026-05-01T19:54:29.000Z</time></trkpt>
        <trkpt lat="29.3200265" lon="105.1934956"><ele>317.68</ele><time>2026-05-01T19:54:37.000Z</time></trkpt>
        <trkpt lat="29.3200229" lon="105.1935619"><ele>318.51</ele><time>2026-05-01T19:54:43.000Z</time></trkpt>
        <trkpt lat="29.3200333" lon="105.1936296"><ele>319.41</ele><time>2026-05-01T19:54:49.000Z</time></trkpt>
        <trkpt lat="29.3200245" lon="105.1936835"><ele>320.48</ele><time>2026-05-01T19:54:53.000Z</time></trkpt>
        <trkpt lat="29.3200088" lon="105.193737"><ele>321.35</ele><time>2026-05-01T19:54:59.000Z</time></trkpt>
        <trkpt lat="29.3199848" lon="105.1938009"><ele>322.15</ele><time>2026-05-01T19:55:11.000Z</time></trkpt>
        <trkpt lat="29.3199445" lon="105.1938602"><ele>323.07</ele><time>2026-05-01T19:55:41.000Z</time></trkpt>
        <trkpt lat="29.3199445" lon="105.1938602"><ele>323.07</ele><time>2026-05-01T19:55:51.000Z</time></trkpt>
        <trkpt lat="29.3199042" lon="105.1939087"><ele>323.47</ele><time>2026-05-01T19:55:53.000Z</time></trkpt>
        <trkpt lat="29.3199042" lon="105.1939087"><ele>323.47</ele><time>2026-05-01T19:55:55.000Z</time></trkpt>
        <trkpt lat="29.3198752" lon="105.1939595"><ele>323.44</ele><time>2026-05-01T19:56:01.000Z</time></trkpt>
        <trkpt lat="29.3198334" lon="105.1940056"><ele>323.55</ele><time>2026-05-01T19:56:07.000Z</time></trkpt>
        <trkpt lat="29.3197905" lon="105.19406"><ele>323.7</ele><time>2026-05-01T19:56:13.000Z</time></trkpt>
        <trkpt lat="29.3197741" lon="105.194113"><ele>323.96</ele><time>2026-05-01T19:56:19.000Z</time></trkpt>
        <trkpt lat="29.3197501" lon="105.1941626"><ele>324.23</ele><time>2026-05-01T19:56:27.000Z</time></trkpt>
        <trkpt lat="29.3197272" lon="105.1942134"><ele>324.22</ele><time>2026-05-01T19:56:31.000Z</time></trkpt>
        <trkpt lat="29.3197043" lon="105.1942648"><ele>324.04</ele><time>2026-05-01T19:56:35.000Z</time></trkpt>
        <trkpt lat="29.3196826" lon="105.194319"><ele>323.46</ele><time>2026-05-01T19:56:43.000Z</time></trkpt>
        <trkpt lat="29.3196562" lon="105.1943792"><ele>322.66</ele><time>2026-05-01T19:56:49.000Z</time></trkpt>
        <trkpt lat="29.3196216" lon="105.1944476"><ele>322.16</ele><time>2026-05-01T19:56:55.000Z</time></trkpt>
        <trkpt lat="29.3195881" lon="105.1945049"><ele>322.14</ele><time>2026-05-01T19:56:59.000Z</time></trkpt>
        <trkpt lat="29.319563" lon="105.1945674"><ele>322.16</ele><time>2026-05-01T19:57:05.000Z</time></trkpt>
        <trkpt lat="29.3195499" lon="105.1946259"><ele>322.01</ele><time>2026-05-01T19:57:13.000Z</time></trkpt>
        <trkpt lat="29.3195547" lon="105.1946852"><ele>321.75</ele><time>2026-05-01T19:57:19.000Z</time></trkpt>
        <trkpt lat="29.3195627" lon="105.1947449"><ele>321.21</ele><time>2026-05-01T19:57:25.000Z</time></trkpt>
        <trkpt lat="29.3195679" lon="105.1948011"><ele>320.69</ele><time>2026-05-01T19:57:29.000Z</time></trkpt>
        <trkpt lat="29.3195837" lon="105.1948598"><ele>320.52</ele><time>2026-05-01T19:57:35.000Z</time></trkpt>
        <trkpt lat="29.3196106" lon="105.1949158"><ele>321.11</ele><time>2026-05-01T19:57:41.000Z</time></trkpt>
        <trkpt lat="29.3196657" lon="105.1949545"><ele>322.18</ele><time>2026-05-01T19:57:47.000Z</time></trkpt>
        <trkpt lat="29.3197227" lon="105.194977"><ele>323.18</ele><time>2026-05-01T19:57:51.000Z</time></trkpt>
        <trkpt lat="29.3197795" lon="105.1949908"><ele>323.92</ele><time>2026-05-01T19:57:57.000Z</time></trkpt>
        <trkpt lat="29.3198451" lon="105.1949991"><ele>324.6</ele><time>2026-05-01T19:58:03.000Z</time></trkpt>
        <trkpt lat="29.3199032" lon="105.1950104"><ele>325.12</ele><time>2026-05-01T19:58:07.000Z</time></trkpt>
        <trkpt lat="29.319949" lon="105.1950363"><ele>325.58</ele><time>2026-05-01T19:58:13.000Z</time></trkpt>
        <trkpt lat="29.3199828" lon="105.1950753"><ele>325.93</ele><time>2026-05-01T19:58:19.000Z</time></trkpt>
        <trkpt lat="29.3200141" lon="105.1951223"><ele>325.96</ele><time>2026-05-01T19:58:23.000Z</time></trkpt>
        <trkpt lat="29.3200279" lon="105.195175"><ele>325.98</ele><time>2026-05-01T19:58:27.000Z</time></trkpt>
        <trkpt lat="29.3200386" lon="105.1952424"><ele>325.9</ele><time>2026-05-01T19:58:33.000Z</time></trkpt>
        <trkpt lat="29.3200594" lon="105.1953032"><ele>325.69</ele><time>2026-05-01T19:58:39.000Z</time></trkpt>
        <trkpt lat="29.3200523" lon="105.1953765"><ele>325.78</ele><time>2026-05-01T19:58:45.000Z</time></trkpt>
        <trkpt lat="29.3200661" lon="105.1954379"><ele>325.66</ele><time>2026-05-01T19:58:53.000Z</time></trkpt>
        <trkpt lat="29.3200591" lon="105.1954753"><ele>325.76</ele><time>2026-05-01T19:59:05.000Z</time></trkpt>
        <trkpt lat="29.3200591" lon="105.1955304"><ele>325.65</ele><time>2026-05-01T19:59:25.000Z</time></trkpt>
        <trkpt lat="29.3200563" lon="105.1955971"><ele>325.41</ele><time>2026-05-01T19:59:31.000Z</time></trkpt>
        <trkpt lat="29.3200539" lon="105.1956554"><ele>325.54</ele><time>2026-05-01T19:59:37.000Z</time></trkpt>
        <trkpt lat="29.3200456" lon="105.1957161"><ele>325.86</ele><time>2026-05-01T19:59:43.000Z</time></trkpt>
        <trkpt lat="29.320049" lon="105.1957777"><ele>326.14</ele><time>2026-05-01T19:59:49.000Z</time></trkpt>
        <trkpt lat="29.3200483" lon="105.1958383"><ele>326.47</ele><time>2026-05-01T19:59:55.000Z</time></trkpt>
        <trkpt lat="29.3200494" lon="105.1959123"><ele>327.13</ele><time>2026-05-01T20:00:01.000Z</time></trkpt>
        <trkpt lat="29.3200524" lon="105.1959873"><ele>327.67</ele><time>2026-05-01T20:00:09.000Z</time></trkpt>
        <trkpt lat="29.3200497" lon="105.196057"><ele>328.55</ele><time>2026-05-01T20:00:13.000Z</time></trkpt>
        <trkpt lat="29.3200573" lon="105.1961168"><ele>329.34</ele><time>2026-05-01T20:00:21.000Z</time></trkpt>
        <trkpt lat="29.3200539" lon="105.1961705"><ele>329.58</ele><time>2026-05-01T20:00:25.000Z</time></trkpt>
        <trkpt lat="29.3200523" lon="105.1962288"><ele>329.42</ele><time>2026-05-01T20:00:31.000Z</time></trkpt>
        <trkpt lat="29.3200516" lon="105.1962857"><ele>329.07</ele><time>2026-05-01T20:00:39.000Z</time></trkpt>
        <trkpt lat="29.320054" lon="105.1963447"><ele>328.31</ele><time>2026-05-01T20:00:45.000Z</time></trkpt>
        <trkpt lat="29.3200537" lon="105.1964083"><ele>327.36</ele><time>2026-05-01T20:00:51.000Z</time></trkpt>
        <trkpt lat="29.320066" lon="105.1964736"><ele>326.64</ele><time>2026-05-01T20:00:57.000Z</time></trkpt>
        <trkpt lat="29.3200792" lon="105.1965329"><ele>326.32</ele><time>2026-05-01T20:01:01.000Z</time></trkpt>
        <trkpt lat="29.3200897" lon="105.1965935"><ele>326.31</ele><time>2026-05-01T20:01:07.000Z</time></trkpt>
        <trkpt lat="29.3200999" lon="105.1966611"><ele>326.26</ele><time>2026-05-01T20:01:13.000Z</time></trkpt>
        <trkpt lat="29.3201212" lon="105.1967138"><ele>326.15</ele><time>2026-05-01T20:01:17.000Z</time></trkpt>
        <trkpt lat="29.3201467" lon="105.1967656"><ele>326.09</ele><time>2026-05-01T20:01:23.000Z</time></trkpt>
        <trkpt lat="29.3201767" lon="105.1968215"><ele>326.26</ele><time>2026-05-01T20:01:31.000Z</time></trkpt>
        <trkpt lat="29.3202179" lon="105.1968618"><ele>326.11</ele><time>2026-05-01T20:01:37.000Z</time></trkpt>
        <trkpt lat="29.3202751" lon="105.1968737"><ele>325.67</ele><time>2026-05-01T20:01:43.000Z</time></trkpt>
        <trkpt lat="29.3203323" lon="105.1968862"><ele>325.17</ele><time>2026-05-01T20:01:49.000Z</time></trkpt>
        <trkpt lat="29.3203932" lon="105.1968972"><ele>324.8</ele><time>2026-05-01T20:01:55.000Z</time></trkpt>
        <trkpt lat="29.3204521" lon="105.1969211"><ele>324.41</ele><time>2026-05-01T20:02:01.000Z</time></trkpt>
        <trkpt lat="29.320501" lon="105.1969391"><ele>324.41</ele><time>2026-05-01T20:02:07.000Z</time></trkpt>
        <trkpt lat="29.320551" lon="105.1969621"><ele>324.23</ele><time>2026-05-01T20:02:25.000Z</time></trkpt>
        <trkpt lat="29.3205969" lon="105.1969858"><ele>323.96</ele><time>2026-05-01T20:02:37.000Z</time></trkpt>
        <trkpt lat="29.3205969" lon="105.1969858"><ele>323.96</ele><time>2026-05-01T20:03:05.000Z</time></trkpt>
        <trkpt lat="29.3206452" lon="105.1969907"><ele>323.93</ele><time>2026-05-01T20:03:17.000Z</time></trkpt>
        <trkpt lat="29.3206452" lon="105.1969907"><ele>323.93</ele><time>2026-05-01T20:03:19.000Z</time></trkpt>
        <trkpt lat="29.3206947" lon="105.1970112"><ele>324.82</ele><time>2026-05-01T20:03:27.000Z</time></trkpt>
        <trkpt lat="29.3207472" lon="105.1970308"><ele>325.2</ele><time>2026-05-01T20:03:33.000Z</time></trkpt>
        <trkpt lat="29.3207932" lon="105.1970586"><ele>325.24</ele><time>2026-05-01T20:03:41.000Z</time></trkpt>
        <trkpt lat="29.3208354" lon="105.1970928"><ele>324.67</ele><time>2026-05-01T20:03:47.000Z</time></trkpt>
        <trkpt lat="29.3208765" lon="105.1971353"><ele>323.69</ele><time>2026-05-01T20:03:53.000Z</time></trkpt>
        <trkpt lat="29.320905" lon="105.19718"><ele>322.75</ele><time>2026-05-01T20:03:59.000Z</time></trkpt>
        <trkpt lat="29.3209316" lon="105.1972287"><ele>321.87</ele><time>2026-05-01T20:04:05.000Z</time></trkpt>
        <trkpt lat="29.3209608" lon="105.1972856"><ele>321.28</ele><time>2026-05-01T20:04:11.000Z</time></trkpt>
        <trkpt lat="29.3209803" lon="105.1973502"><ele>320.77</ele><time>2026-05-01T20:04:17.000Z</time></trkpt>
        <trkpt lat="29.3209939" lon="105.1974205"><ele>319.92</ele><time>2026-05-01T20:04:23.000Z</time></trkpt>
        <trkpt lat="29.3209972" lon="105.1974884"><ele>319.14</ele><time>2026-05-01T20:04:29.000Z</time></trkpt>
        <trkpt lat="29.3209873" lon="105.197556"><ele>318.91</ele><time>2026-05-01T20:04:35.000Z</time></trkpt>
        <trkpt lat="29.320971" lon="105.1976256"><ele>319.16</ele><time>2026-05-01T20:04:41.000Z</time></trkpt>
        <trkpt lat="29.320956" lon="105.1976859"><ele>319.52</ele><time>2026-05-01T20:04:45.000Z</time></trkpt>
        <trkpt lat="29.3209414" lon="105.1977488"><ele>319.9</ele><time>2026-05-01T20:04:49.000Z</time></trkpt>
        <trkpt lat="29.3209235" lon="105.1978094"><ele>320.24</ele><time>2026-05-01T20:04:53.000Z</time></trkpt>
        <trkpt lat="29.3208996" lon="105.1978579"><ele>320.31</ele><time>2026-05-01T20:04:57.000Z</time></trkpt>
        <trkpt lat="29.3208738" lon="105.1979021"><ele>320.48</ele><time>2026-05-01T20:05:01.000Z</time></trkpt>
        <trkpt lat="29.3208366" lon="105.1979519"><ele>320.83</ele><time>2026-05-01T20:05:07.000Z</time></trkpt>
        <trkpt lat="29.3207993" lon="105.1980042"><ele>320.6</ele><time>2026-05-01T20:05:13.000Z</time></trkpt>
        <trkpt lat="29.3207603" lon="105.1980451"><ele>320.69</ele><time>2026-05-01T20:05:17.000Z</time></trkpt>
        <trkpt lat="29.3207186" lon="105.1980778"><ele>321.08</ele><time>2026-05-01T20:05:21.000Z</time></trkpt>
        <trkpt lat="29.3206825" lon="105.1981169"><ele>321.22</ele><time>2026-05-01T20:05:25.000Z</time></trkpt>
        <trkpt lat="29.3206375" lon="105.1981629"><ele>321.08</ele><time>2026-05-01T20:05:31.000Z</time></trkpt>
        <trkpt lat="29.3205866" lon="105.1982014"><ele>320.66</ele><time>2026-05-01T20:05:37.000Z</time></trkpt>
        <trkpt lat="29.3205352" lon="105.1982417"><ele>320.38</ele><time>2026-05-01T20:05:43.000Z</time></trkpt>
        <trkpt lat="29.3204967" lon="105.1982943"><ele>319.87</ele><time>2026-05-01T20:05:49.000Z</time></trkpt>
        <trkpt lat="29.3204482" lon="105.1983389"><ele>319.19</ele><time>2026-05-01T20:05:55.000Z</time></trkpt>
        <trkpt lat="29.3203943" lon="105.1983823"><ele>318.42</ele><time>2026-05-01T20:06:01.000Z</time></trkpt>
        <trkpt lat="29.3203474" lon="105.1984254"><ele>317.94</ele><time>2026-05-01T20:06:07.000Z</time></trkpt>
        <trkpt lat="29.3203023" lon="105.1984673"><ele>317.54</ele><time>2026-05-01T20:06:13.000Z</time></trkpt>
        <trkpt lat="29.3202639" lon="105.1985088"><ele>317.05</ele><time>2026-05-01T20:06:19.000Z</time></trkpt>
        <trkpt lat="29.320234" lon="105.1985553"><ele>316.3</ele><time>2026-05-01T20:06:23.000Z</time></trkpt>
        <trkpt lat="29.3202131" lon="105.1986061"><ele>315.82</ele><time>2026-05-01T20:06:27.000Z</time></trkpt>
        <trkpt lat="29.320201" lon="105.1986621"><ele>315.38</ele><time>2026-05-01T20:06:31.000Z</time></trkpt>
        <trkpt lat="29.320215" lon="105.1987222"><ele>315</ele><time>2026-05-01T20:06:37.000Z</time></trkpt>
        <trkpt lat="29.3202539" lon="105.1987631"><ele>314.57</ele><time>2026-05-01T20:06:43.000Z</time></trkpt>
        <trkpt lat="29.32029" lon="105.1988029"><ele>314.2</ele><time>2026-05-01T20:06:47.000Z</time></trkpt>
        <trkpt lat="29.3203313" lon="105.1988456"><ele>314.03</ele><time>2026-05-01T20:06:53.000Z</time></trkpt>
        <trkpt lat="29.3203673" lon="105.1988861"><ele>314.19</ele><time>2026-05-01T20:06:59.000Z</time></trkpt>
        <trkpt lat="29.3203979" lon="105.1989296"><ele>314.49</ele><time>2026-05-01T20:07:03.000Z</time></trkpt>
        <trkpt lat="29.3204201" lon="105.1989781"><ele>314.8</ele><time>2026-05-01T20:07:07.000Z</time></trkpt>
        <trkpt lat="29.3204344" lon="105.1990422"><ele>314.93</ele><time>2026-05-01T20:07:13.000Z</time></trkpt>
        <trkpt lat="29.3204289" lon="105.1991029"><ele>315.09</ele><time>2026-05-01T20:07:19.000Z</time></trkpt>
        <trkpt lat="29.3204269" lon="105.19917"><ele>315.87</ele><time>2026-05-01T20:07:25.000Z</time></trkpt>
        <trkpt lat="29.3204402" lon="105.1992242"><ele>317</ele><time>2026-05-01T20:07:29.000Z</time></trkpt>
        <trkpt lat="29.3204646" lon="105.1992819"><ele>317.95</ele><time>2026-05-01T20:07:35.000Z</time></trkpt>
        <trkpt lat="29.3204964" lon="105.1993299"><ele>318.74</ele><time>2026-05-01T20:07:41.000Z</time></trkpt>
        <trkpt lat="29.3205425" lon="105.1993645"><ele>319.24</ele><time>2026-05-01T20:07:47.000Z</time></trkpt>
        <trkpt lat="29.3205891" lon="105.1993935"><ele>319.7</ele><time>2026-05-01T20:07:53.000Z</time></trkpt>
        <trkpt lat="29.3205891" lon="105.1993935"><ele>319.7</ele><time>2026-05-01T20:08:21.000Z</time></trkpt>
        <trkpt lat="29.3206467" lon="105.1994317"><ele>319.87</ele><time>2026-05-01T20:11:15.000Z</time></trkpt>
        <trkpt lat="29.3206467" lon="105.1994317"><ele>319.87</ele><time>2026-05-01T20:11:19.000Z</time></trkpt>
        <trkpt lat="29.3206917" lon="105.1994617"><ele>319.58</ele><time>2026-05-01T20:11:23.000Z</time></trkpt>
        <trkpt lat="29.3207479" lon="105.1994931"><ele>319.68</ele><time>2026-05-01T20:11:29.000Z</time></trkpt>
        <trkpt lat="29.3207998" lon="105.199526"><ele>320.16</ele><time>2026-05-01T20:11:35.000Z</time></trkpt>
        <trkpt lat="29.3208453" lon="105.1995695"><ele>320.69</ele><time>2026-05-01T20:11:39.000Z</time></trkpt>
        <trkpt lat="29.3208797" lon="105.1996129"><ele>321.3</ele><time>2026-05-01T20:11:43.000Z</time></trkpt>
        <trkpt lat="29.3209167" lon="105.1996583"><ele>321.9</ele><time>2026-05-01T20:11:49.000Z</time></trkpt>
        <trkpt lat="29.3209453" lon="105.1997065"><ele>322.89</ele><time>2026-05-01T20:11:53.000Z</time></trkpt>
        <trkpt lat="29.3209674" lon="105.1997654"><ele>323.63</ele><time>2026-05-01T20:11:57.000Z</time></trkpt>
        <trkpt lat="29.3209828" lon="105.1998218"><ele>324.22</ele><time>2026-05-01T20:12:03.000Z</time></trkpt>
        <trkpt lat="29.3209888" lon="105.1998814"><ele>324.64</ele><time>2026-05-01T20:12:11.000Z</time></trkpt>
        <trkpt lat="29.3210171" lon="105.1999357"><ele>324.58</ele><time>2026-05-01T20:12:21.000Z</time></trkpt>
        <trkpt lat="29.3210321" lon="105.2000053"><ele>324.85</ele><time>2026-05-01T20:12:41.000Z</time></trkpt>
        <trkpt lat="29.32103" lon="105.2000669"><ele>324.31</ele><time>2026-05-01T20:12:45.000Z</time></trkpt>
        <trkpt lat="29.3210272" lon="105.2001259"><ele>323.92</ele><time>2026-05-01T20:12:49.000Z</time></trkpt>
        <trkpt lat="29.3210151" lon="105.2001829"><ele>323.44</ele><time>2026-05-01T20:12:53.000Z</time></trkpt>
        <trkpt lat="29.320989" lon="105.2002266"><ele>323.25</ele><time>2026-05-01T20:12:57.000Z</time></trkpt>
        <trkpt lat="29.3209662" lon="105.2002796"><ele>323.31</ele><time>2026-05-01T20:13:03.000Z</time></trkpt>
        <trkpt lat="29.320957" lon="105.200343"><ele>323.7</ele><time>2026-05-01T20:13:09.000Z</time></trkpt>
        <trkpt lat="29.3209332" lon="105.2003976"><ele>324.3</ele><time>2026-05-01T20:13:17.000Z</time></trkpt>
        <trkpt lat="29.3208999" lon="105.2004459"><ele>324.6</ele><time>2026-05-01T20:13:23.000Z</time></trkpt>
        <trkpt lat="29.3208924" lon="105.2004971"><ele>325.07</ele><time>2026-05-01T20:13:29.000Z</time></trkpt>
        <trkpt lat="29.3208939" lon="105.2005522"><ele>325.64</ele><time>2026-05-01T20:13:33.000Z</time></trkpt>
        <trkpt lat="29.3209027" lon="105.2006177"><ele>325.93</ele><time>2026-05-01T20:13:37.000Z</time></trkpt>
        <trkpt lat="29.3209027" lon="105.2006177"><ele>325.93</ele><time>2026-05-01T20:13:41.000Z</time></trkpt>
        <trkpt lat="29.3209871" lon="105.2008376"><ele>325.61</ele><time>2026-05-01T20:13:57.000Z</time></trkpt>
        <trkpt lat="29.3209871" lon="105.2008376"><ele>325.61</ele><time>2026-05-01T20:13:59.000Z</time></trkpt>
        <trkpt lat="29.3210213" lon="105.2008735"><ele>321.44</ele><time>2026-05-01T20:14:11.000Z</time></trkpt>
        <trkpt lat="29.3210311" lon="105.2009194"><ele>318.41</ele><time>2026-05-01T20:14:15.000Z</time></trkpt>
        <trkpt lat="29.3210352" lon="105.2009849"><ele>316.47</ele><time>2026-05-01T20:14:23.000Z</time></trkpt>
        <trkpt lat="29.3210494" lon="105.2010399"><ele>314.68</ele><time>2026-05-01T20:14:31.000Z</time></trkpt>
        <trkpt lat="29.3210519" lon="105.2011024"><ele>313.05</ele><time>2026-05-01T20:14:37.000Z</time></trkpt>
        <trkpt lat="29.3210538" lon="105.2011677"><ele>311.65</ele><time>2026-05-01T20:14:43.000Z</time></trkpt>
        <trkpt lat="29.3210648" lon="105.2012436"><ele>310.6</ele><time>2026-05-01T20:14:49.000Z</time></trkpt>
        <trkpt lat="29.3210744" lon="105.2013193"><ele>310.47</ele><time>2026-05-01T20:14:57.000Z</time></trkpt>
        <trkpt lat="29.3210858" lon="105.201389"><ele>311.08</ele><time>2026-05-01T20:15:01.000Z</time></trkpt>
        <trkpt lat="29.3210952" lon="105.2014524"><ele>311.69</ele><time>2026-05-01T20:15:09.000Z</time></trkpt>
        <trkpt lat="29.321105" lon="105.2015162"><ele>312.69</ele><time>2026-05-01T20:15:13.000Z</time></trkpt>
        <trkpt lat="29.3211112" lon="105.2015729"><ele>313.47</ele><time>2026-05-01T20:15:17.000Z</time></trkpt>
        <trkpt lat="29.3211161" lon="105.2016474"><ele>314.13</ele><time>2026-05-01T20:15:25.000Z</time></trkpt>
        <trkpt lat="29.3211156" lon="105.2017212"><ele>314.89</ele><time>2026-05-01T20:15:31.000Z</time></trkpt>
        <trkpt lat="29.3211247" lon="105.2017854"><ele>315.88</ele><time>2026-05-01T20:15:39.000Z</time></trkpt>
        <trkpt lat="29.3211477" lon="105.201837"><ele>316.97</ele><time>2026-05-01T20:15:45.000Z</time></trkpt>
        <trkpt lat="29.321183" lon="105.2018917"><ele>317.75</ele><time>2026-05-01T20:15:51.000Z</time></trkpt>
        <trkpt lat="29.3212193" lon="105.2019411"><ele>318.08</ele><time>2026-05-01T20:15:57.000Z</time></trkpt>
        <trkpt lat="29.3212598" lon="105.2019787"><ele>318</ele><time>2026-05-01T20:16:03.000Z</time></trkpt>
        <trkpt lat="29.3213099" lon="105.2020062"><ele>318</ele><time>2026-05-01T20:16:09.000Z</time></trkpt>
        <trkpt lat="29.321358" lon="105.2020334"><ele>318.22</ele><time>2026-05-01T20:16:17.000Z</time></trkpt>
        <trkpt lat="29.321407" lon="105.202069"><ele>318.08</ele><time>2026-05-01T20:16:25.000Z</time></trkpt>
        <trkpt lat="29.3214422" lon="105.202112"><ele>318.17</ele><time>2026-05-01T20:16:31.000Z</time></trkpt>
        <trkpt lat="29.3214821" lon="105.2021451"><ele>318.1</ele><time>2026-05-01T20:16:39.000Z</time></trkpt>
        <trkpt lat="29.3215194" lon="105.2021802"><ele>318.4</ele><time>2026-05-01T20:16:45.000Z</time></trkpt>
        <trkpt lat="29.3215609" lon="105.2022052"><ele>318.79</ele><time>2026-05-01T20:16:51.000Z</time></trkpt>
        <trkpt lat="29.3216153" lon="105.2022352"><ele>319.09</ele><time>2026-05-01T20:16:59.000Z</time></trkpt>
        <trkpt lat="29.3216718" lon="105.2022614"><ele>319.87</ele><time>2026-05-01T20:17:05.000Z</time></trkpt>
        <trkpt lat="29.3217183" lon="105.2022849"><ele>321</ele><time>2026-05-01T20:17:11.000Z</time></trkpt>
        <trkpt lat="29.3217568" lon="105.2023215"><ele>322.12</ele><time>2026-05-01T20:17:17.000Z</time></trkpt>
        <trkpt lat="29.3218052" lon="105.2023732"><ele>323.19</ele><time>2026-05-01T20:17:23.000Z</time></trkpt>
        <trkpt lat="29.3218491" lon="105.2024185"><ele>323.84</ele><time>2026-05-01T20:17:29.000Z</time></trkpt>
        <trkpt lat="29.321891" lon="105.2024754"><ele>324.21</ele><time>2026-05-01T20:17:35.000Z</time></trkpt>
        <trkpt lat="29.3219261" lon="105.2025275"><ele>324.51</ele><time>2026-05-01T20:17:41.000Z</time></trkpt>
        <trkpt lat="29.3219564" lon="105.2025808"><ele>324.59</ele><time>2026-05-01T20:17:47.000Z</time></trkpt>
        <trkpt lat="29.3219879" lon="105.2026232"><ele>324.51</ele><time>2026-05-01T20:17:51.000Z</time></trkpt>
        <trkpt lat="29.3220291" lon="105.2026651"><ele>324.25</ele><time>2026-05-01T20:17:59.000Z</time></trkpt>
        <trkpt lat="29.3220678" lon="105.2027175"><ele>324.01</ele><time>2026-05-01T20:18:05.000Z</time></trkpt>
        <trkpt lat="29.3221002" lon="105.2027702"><ele>323.88</ele><time>2026-05-01T20:18:13.000Z</time></trkpt>
        <trkpt lat="29.3221339" lon="105.2028152"><ele>323.67</ele><time>2026-05-01T20:18:17.000Z</time></trkpt>
        <trkpt lat="29.3221734" lon="105.2028582"><ele>323.47</ele><time>2026-05-01T20:18:23.000Z</time></trkpt>
        <trkpt lat="29.3222138" lon="105.2028959"><ele>323.4</ele><time>2026-05-01T20:18:29.000Z</time></trkpt>
        <trkpt lat="29.3222493" lon="105.2029332"><ele>323.27</ele><time>2026-05-01T20:18:33.000Z</time></trkpt>
        <trkpt lat="29.3222904" lon="105.2029657"><ele>323.11</ele><time>2026-05-01T20:18:39.000Z</time></trkpt>
        <trkpt lat="29.3223311" lon="105.202998"><ele>322.85</ele><time>2026-05-01T20:18:43.000Z</time></trkpt>
        <trkpt lat="29.3223715" lon="105.2030294"><ele>322.74</ele><time>2026-05-01T20:18:49.000Z</time></trkpt>
        <trkpt lat="29.3224154" lon="105.2030643"><ele>323.07</ele><time>2026-05-01T20:18:55.000Z</time></trkpt>
        <trkpt lat="29.3224556" lon="105.2031096"><ele>323.94</ele><time>2026-05-01T20:19:01.000Z</time></trkpt>
        <trkpt lat="29.3225029" lon="105.2031485"><ele>324.57</ele><time>2026-05-01T20:19:09.000Z</time></trkpt>
        <trkpt lat="29.3225355" lon="105.2032032"><ele>324.71</ele><time>2026-05-01T20:19:15.000Z</time></trkpt>
        <trkpt lat="29.3225698" lon="105.2032424"><ele>324.62</ele><time>2026-05-01T20:19:23.000Z</time></trkpt>
        <trkpt lat="29.3226003" lon="105.2032826"><ele>324.44</ele><time>2026-05-01T20:19:27.000Z</time></trkpt>
        <trkpt lat="29.3226385" lon="105.2033449"><ele>324.21</ele><time>2026-05-01T20:19:31.000Z</time></trkpt>
        <trkpt lat="29.3226623" lon="105.2033991"><ele>323.9</ele><time>2026-05-01T20:19:37.000Z</time></trkpt>
        <trkpt lat="29.3226631" lon="105.2034592"><ele>323.3</ele><time>2026-05-01T20:19:43.000Z</time></trkpt>
        <trkpt lat="29.3226435" lon="105.2035163"><ele>323.04</ele><time>2026-05-01T20:19:51.000Z</time></trkpt>
        <trkpt lat="29.322617" lon="105.203577"><ele>322.64</ele><time>2026-05-01T20:19:59.000Z</time></trkpt>
        <trkpt lat="29.3225898" lon="105.2036301"><ele>322.15</ele><time>2026-05-01T20:20:03.000Z</time></trkpt>
        <trkpt lat="29.3225898" lon="105.2036301"><ele>322.15</ele><time>2026-05-01T20:20:03.000Z</time></trkpt>
        <trkpt lat="29.3225443" lon="105.2039177"><ele>321.78</ele><time>2026-05-01T20:20:29.000Z</time></trkpt>
        <trkpt lat="29.3225443" lon="105.2039177"><ele>321.78</ele><time>2026-05-01T20:20:35.000Z</time></trkpt>
        <trkpt lat="29.3225072" lon="105.2039548"><ele>318.39</ele><time>2026-05-01T20:20:39.000Z</time></trkpt>
        <trkpt lat="29.3224598" lon="105.203988"><ele>316.37</ele><time>2026-05-01T20:20:43.000Z</time></trkpt>
        <trkpt lat="29.3224013" lon="105.2040247"><ele>315.18</ele><time>2026-05-01T20:20:49.000Z</time></trkpt>
        <trkpt lat="29.3223464" lon="105.2040559"><ele>314.41</ele><time>2026-05-01T20:20:53.000Z</time></trkpt>
        <trkpt lat="29.3222941" lon="105.2040878"><ele>313.85</ele><time>2026-05-01T20:20:59.000Z</time></trkpt>
        <trkpt lat="29.322257" lon="105.2041241"><ele>313.61</ele><time>2026-05-01T20:21:03.000Z</time></trkpt>
        <trkpt lat="29.3222044" lon="105.204141"><ele>313.61</ele><time>2026-05-01T20:21:09.000Z</time></trkpt>
        <trkpt lat="29.3221628" lon="105.2041744"><ele>313.78</ele><time>2026-05-01T20:21:15.000Z</time></trkpt>
        <trkpt lat="29.3221232" lon="105.204216"><ele>313.92</ele><time>2026-05-01T20:21:21.000Z</time></trkpt>
        <trkpt lat="29.3220739" lon="105.2042616"><ele>313.95</ele><time>2026-05-01T20:21:27.000Z</time></trkpt>
        <trkpt lat="29.322027" lon="105.2043017"><ele>313.76</ele><time>2026-05-01T20:21:33.000Z</time></trkpt>
        <trkpt lat="29.3219952" lon="105.2043555"><ele>313.26</ele><time>2026-05-01T20:21:39.000Z</time></trkpt>
        <trkpt lat="29.3219589" lon="105.2044093"><ele>312.8</ele><time>2026-05-01T20:21:45.000Z</time></trkpt>
        <trkpt lat="29.3219403" lon="105.2044636"><ele>312.37</ele><time>2026-05-01T20:21:51.000Z</time></trkpt>
        <trkpt lat="29.3219116" lon="105.2045139"><ele>311.91</ele><time>2026-05-01T20:21:57.000Z</time></trkpt>
        <trkpt lat="29.3219233" lon="105.2045763"><ele>311.39</ele><time>2026-05-01T20:22:05.000Z</time></trkpt>
        <trkpt lat="29.3219572" lon="105.2046344"><ele>310.84</ele><time>2026-05-01T20:22:11.000Z</time></trkpt>
        <trkpt lat="29.3220008" lon="105.2046854"><ele>310.09</ele><time>2026-05-01T20:22:17.000Z</time></trkpt>
        <trkpt lat="29.322053" lon="105.2047262"><ele>309.71</ele><time>2026-05-01T20:22:23.000Z</time></trkpt>
        <trkpt lat="29.3221054" lon="105.2047648"><ele>309.79</ele><time>2026-05-01T20:22:31.000Z</time></trkpt>
        <trkpt lat="29.3221501" lon="105.2047958"><ele>309.79</ele><time>2026-05-01T20:22:37.000Z</time></trkpt>
        <trkpt lat="29.3222025" lon="105.2048121"><ele>309.93</ele><time>2026-05-01T20:22:43.000Z</time></trkpt>
        <trkpt lat="29.3222465" lon="105.2048324"><ele>310.39</ele><time>2026-05-01T20:22:47.000Z</time></trkpt>
        <trkpt lat="29.3222944" lon="105.2048679"><ele>311.04</ele><time>2026-05-01T20:22:53.000Z</time></trkpt>
        <trkpt lat="29.3223391" lon="105.2049019"><ele>311.84</ele><time>2026-05-01T20:22:59.000Z</time></trkpt>
        <trkpt lat="29.32238" lon="105.2049346"><ele>313.07</ele><time>2026-05-01T20:23:05.000Z</time></trkpt>
        <trkpt lat="29.3224221" lon="105.2049667"><ele>314.8</ele><time>2026-05-01T20:23:11.000Z</time></trkpt>
        <trkpt lat="29.3224638" lon="105.2050097"><ele>316.57</ele><time>2026-05-01T20:23:19.000Z</time></trkpt>
        <trkpt lat="29.3224965" lon="105.2050517"><ele>318.39</ele><time>2026-05-01T20:23:25.000Z</time></trkpt>
        <trkpt lat="29.3225286" lon="105.2051066"><ele>319.34</ele><time>2026-05-01T20:23:33.000Z</time></trkpt>
        <trkpt lat="29.3225622" lon="105.2051496"><ele>319.49</ele><time>2026-05-01T20:23:39.000Z</time></trkpt>
        <trkpt lat="29.3225929" lon="105.2051899"><ele>319.41</ele><time>2026-05-01T20:23:45.000Z</time></trkpt>
        <trkpt lat="29.3226189" lon="105.2052332"><ele>319.32</ele><time>2026-05-01T20:23:51.000Z</time></trkpt>
        <trkpt lat="29.3226145" lon="105.2052866"><ele>319.31</ele><time>2026-05-01T20:23:57.000Z</time></trkpt>
        <trkpt lat="29.3226208" lon="105.2053399"><ele>319.05</ele><time>2026-05-01T20:24:03.000Z</time></trkpt>
        <trkpt lat="29.322634" lon="105.2053951"><ele>318.68</ele><time>2026-05-01T20:24:11.000Z</time></trkpt>
        <trkpt lat="29.3226401" lon="105.205457"><ele>318.26</ele><time>2026-05-01T20:24:17.000Z</time></trkpt>
        <trkpt lat="29.3226335" lon="105.205521"><ele>317.98</ele><time>2026-05-01T20:24:25.000Z</time></trkpt>
        <trkpt lat="29.3226338" lon="105.2055791"><ele>317.77</ele><time>2026-05-01T20:24:31.000Z</time></trkpt>
        <trkpt lat="29.3226249" lon="105.2056396"><ele>317.74</ele><time>2026-05-01T20:24:39.000Z</time></trkpt>
        <trkpt lat="29.3226053" lon="105.2057049"><ele>317.59</ele><time>2026-05-01T20:24:45.000Z</time></trkpt>
        <trkpt lat="29.3225773" lon="105.2057555"><ele>317.64</ele><time>2026-05-01T20:24:51.000Z</time></trkpt>
        <trkpt lat="29.3225733" lon="105.2058069"><ele>317.71</ele><time>2026-05-01T20:24:57.000Z</time></trkpt>
        <trkpt lat="29.3225829" lon="105.205859"><ele>317.66</ele><time>2026-05-01T20:25:03.000Z</time></trkpt>
        <trkpt lat="29.3225915" lon="105.2059106"><ele>317.46</ele><time>2026-05-01T20:25:09.000Z</time></trkpt>
        <trkpt lat="29.3225949" lon="105.205972"><ele>317.22</ele><time>2026-05-01T20:25:15.000Z</time></trkpt>
        <trkpt lat="29.322597" lon="105.2060284"><ele>316.95</ele><time>2026-05-01T20:25:21.000Z</time></trkpt>
        <trkpt lat="29.32261" lon="105.2060862"><ele>317.15</ele><time>2026-05-01T20:25:29.000Z</time></trkpt>
        <trkpt lat="29.3226419" lon="105.2061308"><ele>317.56</ele><time>2026-05-01T20:25:37.000Z</time></trkpt>
        <trkpt lat="29.322679" lon="105.206178"><ele>318.05</ele><time>2026-05-01T20:25:43.000Z</time></trkpt>
        <trkpt lat="29.3227367" lon="105.2062118"><ele>318.76</ele><time>2026-05-01T20:25:49.000Z</time></trkpt>
        <trkpt lat="29.3227984" lon="105.2062472"><ele>319.81</ele><time>2026-05-01T20:25:55.000Z</time></trkpt>
        <trkpt lat="29.3228486" lon="105.206269"><ele>321.1</ele><time>2026-05-01T20:25:59.000Z</time></trkpt>
        <trkpt lat="29.3228936" lon="105.2062849"><ele>322.26</ele><time>2026-05-01T20:26:07.000Z</time></trkpt>
        <trkpt lat="29.3229404" lon="105.2063072"><ele>323.65</ele><time>2026-05-01T20:26:11.000Z</time></trkpt>
        <trkpt lat="29.3229744" lon="105.2063439"><ele>324.58</ele><time>2026-05-01T20:26:15.000Z</time></trkpt>
        <trkpt lat="29.3230039" lon="105.2063984"><ele>325.15</ele><time>2026-05-01T20:26:21.000Z</time></trkpt>
        <trkpt lat="29.3230361" lon="105.2064612"><ele>325.04</ele><time>2026-05-01T20:26:27.000Z</time></trkpt>
        <trkpt lat="29.323055" lon="105.2065257"><ele>324.85</ele><time>2026-05-01T20:26:33.000Z</time></trkpt>
        <trkpt lat="29.3230642" lon="105.2065983"><ele>324.36</ele><time>2026-05-01T20:26:41.000Z</time></trkpt>
        <trkpt lat="29.3230607" lon="105.2066632"><ele>323.69</ele><time>2026-05-01T20:26:45.000Z</time></trkpt>
        <trkpt lat="29.3230484" lon="105.206717"><ele>323.31</ele><time>2026-05-01T20:26:49.000Z</time></trkpt>
        <trkpt lat="29.3230405" lon="105.2067691"><ele>323.13</ele><time>2026-05-01T20:26:53.000Z</time></trkpt>
        <trkpt lat="29.3230277" lon="105.20682"><ele>322.73</ele><time>2026-05-01T20:26:59.000Z</time></trkpt>
        <trkpt lat="29.3230224" lon="105.2068885"><ele>322.29</ele><time>2026-05-01T20:27:05.000Z</time></trkpt>
        <trkpt lat="29.3230038" lon="105.2069585"><ele>321.91</ele><time>2026-05-01T20:27:11.000Z</time></trkpt>
        <trkpt lat="29.3229703" lon="105.2070109"><ele>322.25</ele><time>2026-05-01T20:27:21.000Z</time></trkpt>
        <trkpt lat="29.322932" lon="105.2070487"><ele>321.67</ele><time>2026-05-01T20:27:27.000Z</time></trkpt>
        <trkpt lat="29.322883" lon="105.2070832"><ele>321.34</ele><time>2026-05-01T20:27:33.000Z</time></trkpt>
        <trkpt lat="29.3228335" lon="105.2071051"><ele>320.93</ele><time>2026-05-01T20:27:37.000Z</time></trkpt>
        <trkpt lat="29.3227774" lon="105.2071182"><ele>320.53</ele><time>2026-05-01T20:27:45.000Z</time></trkpt>
        <trkpt lat="29.3227282" lon="105.2071404"><ele>320</ele><time>2026-05-01T20:27:51.000Z</time></trkpt>
        <trkpt lat="29.3226835" lon="105.2071721"><ele>319.57</ele><time>2026-05-01T20:27:59.000Z</time></trkpt>
        <trkpt lat="29.3226391" lon="105.2072048"><ele>319.15</ele><time>2026-05-01T20:28:05.000Z</time></trkpt>
        <trkpt lat="29.3225933" lon="105.2072449"><ele>318.87</ele><time>2026-05-01T20:28:11.000Z</time></trkpt>
        <trkpt lat="29.3225544" lon="105.2072786"><ele>318.71</ele><time>2026-05-01T20:28:23.000Z</time></trkpt>
        <trkpt lat="29.3225167" lon="105.207317"><ele>318.88</ele><time>2026-05-01T20:28:29.000Z</time></trkpt>
        <trkpt lat="29.3224816" lon="105.207367"><ele>318.5</ele><time>2026-05-01T20:28:33.000Z</time></trkpt>
        <trkpt lat="29.3224547" lon="105.2074149"><ele>317.94</ele><time>2026-05-01T20:28:41.000Z</time></trkpt>
        <trkpt lat="29.3224243" lon="105.2074575"><ele>317.71</ele><time>2026-05-01T20:28:45.000Z</time></trkpt>
        <trkpt lat="29.3223994" lon="105.2075041"><ele>317.75</ele><time>2026-05-01T20:28:49.000Z</time></trkpt>
        <trkpt lat="29.3223765" lon="105.2075523"><ele>317.94</ele><time>2026-05-01T20:28:55.000Z</time></trkpt>
        <trkpt lat="29.3223502" lon="105.2076022"><ele>318.53</ele><time>2026-05-01T20:29:01.000Z</time></trkpt>
        <trkpt lat="29.3223348" lon="105.2076526"><ele>319.16</ele><time>2026-05-01T20:29:05.000Z</time></trkpt>
        <trkpt lat="29.3223109" lon="105.2077092"><ele>319.39</ele><time>2026-05-01T20:29:11.000Z</time></trkpt>
        <trkpt lat="29.3222896" lon="105.2077617"><ele>319.57</ele><time>2026-05-01T20:29:15.000Z</time></trkpt>
        <trkpt lat="29.3222694" lon="105.2078186"><ele>319.54</ele><time>2026-05-01T20:29:21.000Z</time></trkpt>
        <trkpt lat="29.3222496" lon="105.2078733"><ele>319.39</ele><time>2026-05-01T20:29:25.000Z</time></trkpt>
        <trkpt lat="29.3222348" lon="105.2079295"><ele>319.35</ele><time>2026-05-01T20:29:33.000Z</time></trkpt>
        <trkpt lat="29.3222167" lon="105.2079825"><ele>319.03</ele><time>2026-05-01T20:29:43.000Z</time></trkpt>
        <trkpt lat="29.3222072" lon="105.2080392"><ele>318.59</ele><time>2026-05-01T20:29:49.000Z</time></trkpt>
        <trkpt lat="29.3221908" lon="105.2080999"><ele>317.99</ele><time>2026-05-01T20:29:55.000Z</time></trkpt>
        <trkpt lat="29.3221764" lon="105.208157"><ele>317.82</ele><time>2026-05-01T20:30:01.000Z</time></trkpt>
        <trkpt lat="29.3221704" lon="105.2082099"><ele>317.73</ele><time>2026-05-01T20:30:07.000Z</time></trkpt>
        <trkpt lat="29.3221687" lon="105.2082663"><ele>317.67</ele><time>2026-05-01T20:30:15.000Z</time></trkpt>
        <trkpt lat="29.3221555" lon="105.2083168"><ele>317.9</ele><time>2026-05-01T20:30:21.000Z</time></trkpt>
        <trkpt lat="29.3221615" lon="105.208375"><ele>317.9</ele><time>2026-05-01T20:30:27.000Z</time></trkpt>
        <trkpt lat="29.3221723" lon="105.2084314"><ele>317.81</ele><time>2026-05-01T20:30:33.000Z</time></trkpt>
        <trkpt lat="29.3221941" lon="105.2084806"><ele>317.76</ele><time>2026-05-01T20:30:39.000Z</time></trkpt>
        <trkpt lat="29.3222354" lon="105.2085096"><ele>318.08</ele><time>2026-05-01T20:30:45.000Z</time></trkpt>
        <trkpt lat="29.3222841" lon="105.208539"><ele>318.65</ele><time>2026-05-01T20:30:51.000Z</time></trkpt>
        <trkpt lat="29.3223365" lon="105.20856"><ele>319.36</ele><time>2026-05-01T20:30:57.000Z</time></trkpt>
        <trkpt lat="29.3223889" lon="105.2085647"><ele>319.85</ele><time>2026-05-01T20:31:03.000Z</time></trkpt>
        <trkpt lat="29.3224367" lon="105.208563"><ele>320.34</ele><time>2026-05-01T20:31:07.000Z</time></trkpt>
        <trkpt lat="29.3224924" lon="105.2085591"><ele>320.76</ele><time>2026-05-01T20:31:15.000Z</time></trkpt>
        <trkpt lat="29.3225435" lon="105.2085579"><ele>321.12</ele><time>2026-05-01T20:31:19.000Z</time></trkpt>
        <trkpt lat="29.3225962" lon="105.2085622"><ele>321.33</ele><time>2026-05-01T20:31:27.000Z</time></trkpt>
        <trkpt lat="29.3226508" lon="105.2085724"><ele>321.62</ele><time>2026-05-01T20:31:33.000Z</time></trkpt>
        <trkpt lat="29.3226985" lon="105.2085684"><ele>322</ele><time>2026-05-01T20:31:37.000Z</time></trkpt>
        <trkpt lat="29.3227485" lon="105.2085762"><ele>322.13</ele><time>2026-05-01T20:31:43.000Z</time></trkpt>
        <trkpt lat="29.322806" lon="105.2085814"><ele>322.16</ele><time>2026-05-01T20:31:49.000Z</time></trkpt>
        <trkpt lat="29.3228549" lon="105.2085753"><ele>322.09</ele><time>2026-05-01T20:31:53.000Z</time></trkpt>
        <trkpt lat="29.3229041" lon="105.2085787"><ele>321.97</ele><time>2026-05-01T20:31:59.000Z</time></trkpt>
        <trkpt lat="29.3229699" lon="105.2085788"><ele>321.81</ele><time>2026-05-01T20:32:07.000Z</time></trkpt>
        <trkpt lat="29.3230331" lon="105.2085774"><ele>321.5</ele><time>2026-05-01T20:32:11.000Z</time></trkpt>
        <trkpt lat="29.3230896" lon="105.2085843"><ele>321.33</ele><time>2026-05-01T20:32:19.000Z</time></trkpt>
        <trkpt lat="29.323147" lon="105.2085931"><ele>320.71</ele><time>2026-05-01T20:32:25.000Z</time></trkpt>
        <trkpt lat="29.3232075" lon="105.2085972"><ele>320.11</ele><time>2026-05-01T20:32:31.000Z</time></trkpt>
        <trkpt lat="29.3232604" lon="105.2086306"><ele>319.46</ele><time>2026-05-01T20:32:37.000Z</time></trkpt>
        <trkpt lat="29.3232979" lon="105.2086685"><ele>318.74</ele><time>2026-05-01T20:32:41.000Z</time></trkpt>
        <trkpt lat="29.323325" lon="105.2087228"><ele>318.04</ele><time>2026-05-01T20:32:47.000Z</time></trkpt>
        <trkpt lat="29.3233432" lon="105.2087908"><ele>317.42</ele><time>2026-05-01T20:32:53.000Z</time></trkpt>
        <trkpt lat="29.3233642" lon="105.208851"><ele>316.64</ele><time>2026-05-01T20:32:59.000Z</time></trkpt>
        <trkpt lat="29.3233798" lon="105.2089106"><ele>315.85</ele><time>2026-05-01T20:33:03.000Z</time></trkpt>
        <trkpt lat="29.3234051" lon="105.2089646"><ele>315.1</ele><time>2026-05-01T20:33:09.000Z</time></trkpt>
        <trkpt lat="29.3234207" lon="105.2090352"><ele>314.54</ele><time>2026-05-01T20:33:15.000Z</time></trkpt>
        <trkpt lat="29.32343" lon="105.2090933"><ele>314.13</ele><time>2026-05-01T20:33:19.000Z</time></trkpt>
        <trkpt lat="29.3234487" lon="105.2091447"><ele>313.9</ele><time>2026-05-01T20:33:25.000Z</time></trkpt>
        <trkpt lat="29.3234613" lon="105.2091965"><ele>313.9</ele><time>2026-05-01T20:33:29.000Z</time></trkpt>
        <trkpt lat="29.3234665" lon="105.2092564"><ele>313.86</ele><time>2026-05-01T20:33:33.000Z</time></trkpt>
        <trkpt lat="29.3234779" lon="105.2093158"><ele>313.58</ele><time>2026-05-01T20:33:39.000Z</time></trkpt>
        <trkpt lat="29.3234934" lon="105.2093735"><ele>313.03</ele><time>2026-05-01T20:33:47.000Z</time></trkpt>
        <trkpt lat="29.3235104" lon="105.2094366"><ele>312.71</ele><time>2026-05-01T20:33:51.000Z</time></trkpt>
        <trkpt lat="29.3235175" lon="105.2095017"><ele>312.58</ele><time>2026-05-01T20:33:55.000Z</time></trkpt>
        <trkpt lat="29.3235197" lon="105.2095611"><ele>312.37</ele><time>2026-05-01T20:34:01.000Z</time></trkpt>
        <trkpt lat="29.3235129" lon="105.2096168"><ele>312.26</ele><time>2026-05-01T20:34:09.000Z</time></trkpt>
        <trkpt lat="29.3235171" lon="105.2096901"><ele>312.1</ele><time>2026-05-01T20:34:15.000Z</time></trkpt>
        <trkpt lat="29.3235073" lon="105.2097577"><ele>312.02</ele><time>2026-05-01T20:34:19.000Z</time></trkpt>
        <trkpt lat="29.3234784" lon="105.2098273"><ele>311.79</ele><time>2026-05-01T20:34:23.000Z</time></trkpt>
        <trkpt lat="29.323447" lon="105.2098938"><ele>311.75</ele><time>2026-05-01T20:34:27.000Z</time></trkpt>
        <trkpt lat="29.3234173" lon="105.209949"><ele>311.26</ele><time>2026-05-01T20:34:37.000Z</time></trkpt>
        <trkpt lat="29.3233627" lon="105.2099939"><ele>310.67</ele><time>2026-05-01T20:34:41.000Z</time></trkpt>
        <trkpt lat="29.3233283" lon="105.2100406"><ele>310.43</ele><time>2026-05-01T20:34:49.000Z</time></trkpt>
        <trkpt lat="29.3233529" lon="105.2100702"><ele>310.33</ele><time>2026-05-01T20:34:55.000Z</time></trkpt>
        <trkpt lat="29.3234" lon="105.2100977"><ele>310.57</ele><time>2026-05-01T20:34:59.000Z</time></trkpt>
        <trkpt lat="29.3234508" lon="105.2101293"><ele>310.93</ele><time>2026-05-01T20:35:07.000Z</time></trkpt>
        <trkpt lat="29.3235073" lon="105.2101543"><ele>311.13</ele><time>2026-05-01T20:35:13.000Z</time></trkpt>
        <trkpt lat="29.3235704" lon="105.2101772"><ele>311.33</ele><time>2026-05-01T20:35:19.000Z</time></trkpt>
        <trkpt lat="29.3236209" lon="105.2102021"><ele>311.58</ele><time>2026-05-01T20:35:29.000Z</time></trkpt>
        <trkpt lat="29.3236657" lon="105.2102257"><ele>312.06</ele><time>2026-05-01T20:35:35.000Z</time></trkpt>
        <trkpt lat="29.3237085" lon="105.2102488"><ele>312.42</ele><time>2026-05-01T20:35:41.000Z</time></trkpt>
        <trkpt lat="29.3237085" lon="105.2102488"><ele>312.42</ele><time>2026-05-01T20:36:09.000Z</time></trkpt>
        <trkpt lat="29.32375" lon="105.2102717"><ele>312.67</ele><time>2026-05-01T20:44:01.000Z</time></trkpt>
        <trkpt lat="29.32375" lon="105.2102717"><ele>312.67</ele><time>2026-05-01T20:44:09.000Z</time></trkpt>
        <trkpt lat="29.3237933" lon="105.2102983"><ele>312.47</ele><time>2026-05-01T20:44:15.000Z</time></trkpt>
        <trkpt lat="29.3238423" lon="105.2103306"><ele>312.27</ele><time>2026-05-01T20:44:29.000Z</time></trkpt>
        <trkpt lat="29.3238884" lon="105.2103524"><ele>312.02</ele><time>2026-05-01T20:44:35.000Z</time></trkpt>
        <trkpt lat="29.3239412" lon="105.2103796"><ele>311.67</ele><time>2026-05-01T20:44:43.000Z</time></trkpt>
        <trkpt lat="29.3239914" lon="105.210404"><ele>310.99</ele><time>2026-05-01T20:44:49.000Z</time></trkpt>
        <trkpt lat="29.324039" lon="105.2104236"><ele>310.7</ele><time>2026-05-01T20:44:53.000Z</time></trkpt>
        <trkpt lat="29.3240794" lon="105.2104491"><ele>310.7</ele><time>2026-05-01T20:44:59.000Z</time></trkpt>
        <trkpt lat="29.3241198" lon="105.2104758"><ele>311.04</ele><time>2026-05-01T20:45:03.000Z</time></trkpt>
        <trkpt lat="29.3241631" lon="105.2105053"><ele>311.37</ele><time>2026-05-01T20:45:09.000Z</time></trkpt>
        <trkpt lat="29.3242065" lon="105.2105319"><ele>311.38</ele><time>2026-05-01T20:45:15.000Z</time></trkpt>
        <trkpt lat="29.3242537" lon="105.210556"><ele>310.92</ele><time>2026-05-01T20:45:21.000Z</time></trkpt>
        <trkpt lat="29.3243072" lon="105.2105829"><ele>310.14</ele><time>2026-05-01T20:45:27.000Z</time></trkpt>
        <trkpt lat="29.3243666" lon="105.2106123"><ele>309.35</ele><time>2026-05-01T20:45:35.000Z</time></trkpt>
        <trkpt lat="29.3244164" lon="105.2106275"><ele>308.72</ele><time>2026-05-01T20:45:41.000Z</time></trkpt>
        <trkpt lat="29.3244621" lon="105.2106486"><ele>308.41</ele><time>2026-05-01T20:45:47.000Z</time></trkpt>
        <trkpt lat="29.324504" lon="105.21067"><ele>308.28</ele><time>2026-05-01T20:45:51.000Z</time></trkpt>
        <trkpt lat="29.3245562" lon="105.2107004"><ele>308.37</ele><time>2026-05-01T20:45:59.000Z</time></trkpt>
        <trkpt lat="29.3246037" lon="105.2107365"><ele>308.21</ele><time>2026-05-01T20:46:05.000Z</time></trkpt>
        <trkpt lat="29.3246467" lon="105.2107643"><ele>307.95</ele><time>2026-05-01T20:46:11.000Z</time></trkpt>
        <trkpt lat="29.3247044" lon="105.2107884"><ele>307.93</ele><time>2026-05-01T20:46:15.000Z</time></trkpt>
        <trkpt lat="29.3247502" lon="105.210815"><ele>308</ele><time>2026-05-01T20:46:21.000Z</time></trkpt>
        <trkpt lat="29.3248072" lon="105.2108404"><ele>308.22</ele><time>2026-05-01T20:46:27.000Z</time></trkpt>
        <trkpt lat="29.3248562" lon="105.2108666"><ele>308.64</ele><time>2026-05-01T20:46:31.000Z</time></trkpt>
        <trkpt lat="29.3249143" lon="105.210897"><ele>308.92</ele><time>2026-05-01T20:46:39.000Z</time></trkpt>
        <trkpt lat="29.3249696" lon="105.2109238"><ele>309.09</ele><time>2026-05-01T20:46:43.000Z</time></trkpt>
        <trkpt lat="29.3250161" lon="105.2109541"><ele>309.18</ele><time>2026-05-01T20:46:49.000Z</time></trkpt>
        <trkpt lat="29.3250755" lon="105.2109807"><ele>308.93</ele><time>2026-05-01T20:46:55.000Z</time></trkpt>
        <trkpt lat="29.3251288" lon="105.2110059"><ele>308.79</ele><time>2026-05-01T20:47:01.000Z</time></trkpt>
        <trkpt lat="29.3251782" lon="105.2110344"><ele>308.97</ele><time>2026-05-01T20:47:07.000Z</time></trkpt>
        <trkpt lat="29.32523" lon="105.2110579"><ele>309.24</ele><time>2026-05-01T20:47:11.000Z</time></trkpt>
        <trkpt lat="29.3252755" lon="105.2110421"><ele>309.39</ele><time>2026-05-01T20:47:17.000Z</time></trkpt>
        <trkpt lat="29.3252885" lon="105.2109907"><ele>310</ele><time>2026-05-01T20:47:23.000Z</time></trkpt>
        <trkpt lat="29.3252901" lon="105.2109236"><ele>310.39</ele><time>2026-05-01T20:47:29.000Z</time></trkpt>
        <trkpt lat="29.3253107" lon="105.2108652"><ele>310.65</ele><time>2026-05-01T20:47:33.000Z</time></trkpt>
        <trkpt lat="29.32533" lon="105.2108113"><ele>310.8</ele><time>2026-05-01T20:47:37.000Z</time></trkpt>
        <trkpt lat="29.325346" lon="105.2107411"><ele>310.89</ele><time>2026-05-01T20:47:45.000Z</time></trkpt>
        <trkpt lat="29.3253647" lon="105.2106651"><ele>311.45</ele><time>2026-05-01T20:47:49.000Z</time></trkpt>
        <trkpt lat="29.3253707" lon="105.2105956"><ele>311.6</ele><time>2026-05-01T20:47:55.000Z</time></trkpt>
        <trkpt lat="29.3253933" lon="105.210523"><ele>311.39</ele><time>2026-05-01T20:48:01.000Z</time></trkpt>
        <trkpt lat="29.3254439" lon="105.2104857"><ele>311</ele><time>2026-05-01T20:48:07.000Z</time></trkpt>
        <trkpt lat="29.3254917" lon="105.210464"><ele>311.39</ele><time>2026-05-01T20:48:11.000Z</time></trkpt>
        <trkpt lat="29.3255429" lon="105.210455"><ele>311.82</ele><time>2026-05-01T20:48:17.000Z</time></trkpt>
        <trkpt lat="29.3256033" lon="105.2104312"><ele>312.07</ele><time>2026-05-01T20:48:23.000Z</time></trkpt>
        <trkpt lat="29.3256552" lon="105.2104017"><ele>312.26</ele><time>2026-05-01T20:48:29.000Z</time></trkpt>
        <trkpt lat="29.3256968" lon="105.2103712"><ele>312.66</ele><time>2026-05-01T20:48:33.000Z</time></trkpt>
        <trkpt lat="29.3257347" lon="105.2103419"><ele>313.15</ele><time>2026-05-01T20:48:37.000Z</time></trkpt>
        <trkpt lat="29.3257756" lon="105.210302"><ele>313.82</ele><time>2026-05-01T20:48:43.000Z</time></trkpt>
        <trkpt lat="29.3258169" lon="105.210257"><ele>314.28</ele><time>2026-05-01T20:48:47.000Z</time></trkpt>
        <trkpt lat="29.3258621" lon="105.2102119"><ele>314.59</ele><time>2026-05-01T20:48:53.000Z</time></trkpt>
        <trkpt lat="29.3259076" lon="105.2101625"><ele>314.85</ele><time>2026-05-01T20:48:59.000Z</time></trkpt>
        <trkpt lat="29.3259542" lon="105.2101205"><ele>315.56</ele><time>2026-05-01T20:49:05.000Z</time></trkpt>
        <trkpt lat="29.3260062" lon="105.2100829"><ele>316.48</ele><time>2026-05-01T20:49:11.000Z</time></trkpt>
        <trkpt lat="29.3260562" lon="105.2100405"><ele>316.96</ele><time>2026-05-01T20:49:17.000Z</time></trkpt>
        <trkpt lat="29.3260988" lon="105.2100085"><ele>316.81</ele><time>2026-05-01T20:49:21.000Z</time></trkpt>
        <trkpt lat="29.3261462" lon="105.2099854"><ele>316.37</ele><time>2026-05-01T20:49:27.000Z</time></trkpt>
        <trkpt lat="29.326197" lon="105.2099725"><ele>315.48</ele><time>2026-05-01T20:49:31.000Z</time></trkpt>
        <trkpt lat="29.3262464" lon="105.2099588"><ele>314.29</ele><time>2026-05-01T20:49:35.000Z</time></trkpt>
        <trkpt lat="29.3262913" lon="105.2099414"><ele>313.04</ele><time>2026-05-01T20:49:41.000Z</time></trkpt>
        <trkpt lat="29.3263446" lon="105.2099309"><ele>311.48</ele><time>2026-05-01T20:49:49.000Z</time></trkpt>
        <trkpt lat="29.3263949" lon="105.2099291"><ele>310.71</ele><time>2026-05-01T20:49:55.000Z</time></trkpt>
        <trkpt lat="29.3264425" lon="105.2099327"><ele>310.15</ele><time>2026-05-01T20:50:01.000Z</time></trkpt>
        <trkpt lat="29.3264966" lon="105.2099262"><ele>309.91</ele><time>2026-05-01T20:50:07.000Z</time></trkpt>
        <trkpt lat="29.3265595" lon="105.2099104"><ele>310.04</ele><time>2026-05-01T20:50:13.000Z</time></trkpt>
        <trkpt lat="29.3266203" lon="105.2099001"><ele>309.89</ele><time>2026-05-01T20:50:19.000Z</time></trkpt>
        <trkpt lat="29.3266772" lon="105.2098875"><ele>309.29</ele><time>2026-05-01T20:50:25.000Z</time></trkpt>
        <trkpt lat="29.3267375" lon="105.2098691"><ele>308.69</ele><time>2026-05-01T20:50:31.000Z</time></trkpt>
        <trkpt lat="29.3267891" lon="105.2098486"><ele>307.88</ele><time>2026-05-01T20:50:35.000Z</time></trkpt>
        <trkpt lat="29.3268374" lon="105.2098178"><ele>307.46</ele><time>2026-05-01T20:50:41.000Z</time></trkpt>
        <trkpt lat="29.3268786" lon="105.209766"><ele>306.87</ele><time>2026-05-01T20:50:47.000Z</time></trkpt>
        <trkpt lat="29.3269201" lon="105.2097185"><ele>306.11</ele><time>2026-05-01T20:50:53.000Z</time></trkpt>
        <trkpt lat="29.3269624" lon="105.2096604"><ele>305.25</ele><time>2026-05-01T20:50:59.000Z</time></trkpt>
        <trkpt lat="29.3270002" lon="105.2096027"><ele>304.67</ele><time>2026-05-01T20:51:05.000Z</time></trkpt>
        <trkpt lat="29.3270365" lon="105.2095486"><ele>304.25</ele><time>2026-05-01T20:51:11.000Z</time></trkpt>
        <trkpt lat="29.3270763" lon="105.2094975"><ele>303.97</ele><time>2026-05-01T20:51:17.000Z</time></trkpt>
        <trkpt lat="29.3271164" lon="105.2094437"><ele>304.07</ele><time>2026-05-01T20:51:23.000Z</time></trkpt>
        <trkpt lat="29.3271452" lon="105.2093964"><ele>304.56</ele><time>2026-05-01T20:51:27.000Z</time></trkpt>
        <trkpt lat="29.3271674" lon="105.2093503"><ele>304.92</ele><time>2026-05-01T20:51:31.000Z</time></trkpt>
        <trkpt lat="29.327189" lon="105.2093055"><ele>305.21</ele><time>2026-05-01T20:51:35.000Z</time></trkpt>
        <trkpt lat="29.3272136" lon="105.2092635"><ele>305.38</ele><time>2026-05-01T20:51:39.000Z</time></trkpt>
        <trkpt lat="29.3272422" lon="105.2092097"><ele>305.47</ele><time>2026-05-01T20:51:45.000Z</time></trkpt>
        <trkpt lat="29.3272697" lon="105.2091527"><ele>305.36</ele><time>2026-05-01T20:51:51.000Z</time></trkpt>
        <trkpt lat="29.3273005" lon="105.2090988"><ele>305.37</ele><time>2026-05-01T20:51:57.000Z</time></trkpt>
        <trkpt lat="29.3273411" lon="105.2090439"><ele>305.69</ele><time>2026-05-01T20:52:03.000Z</time></trkpt>
        <trkpt lat="29.3273789" lon="105.2090012"><ele>306.08</ele><time>2026-05-01T20:52:07.000Z</time></trkpt>
        <trkpt lat="29.3274162" lon="105.2089657"><ele>306.48</ele><time>2026-05-01T20:52:11.000Z</time></trkpt>
        <trkpt lat="29.3274707" lon="105.2089471"><ele>306.7</ele><time>2026-05-01T20:52:17.000Z</time></trkpt>
        <trkpt lat="29.3275265" lon="105.2089678"><ele>306.83</ele><time>2026-05-01T20:52:25.000Z</time></trkpt>
        <trkpt lat="29.3275716" lon="105.2090153"><ele>307.51</ele><time>2026-05-01T20:52:31.000Z</time></trkpt>
        <trkpt lat="29.3276036" lon="105.2090661"><ele>308.28</ele><time>2026-05-01T20:52:35.000Z</time></trkpt>
        <trkpt lat="29.3276284" lon="105.209115"><ele>308.72</ele><time>2026-05-01T20:52:39.000Z</time></trkpt>
        <trkpt lat="29.3276491" lon="105.2091652"><ele>308.58</ele><time>2026-05-01T20:52:43.000Z</time></trkpt>
        <trkpt lat="29.3276678" lon="105.2092139"><ele>308.37</ele><time>2026-05-01T20:52:47.000Z</time></trkpt>
        <trkpt lat="29.3276965" lon="105.2092689"><ele>308.26</ele><time>2026-05-01T20:52:53.000Z</time></trkpt>
        <trkpt lat="29.3277319" lon="105.2093224"><ele>308.06</ele><time>2026-05-01T20:52:59.000Z</time></trkpt>
        <trkpt lat="29.3277668" lon="105.2093824"><ele>307.82</ele><time>2026-05-01T20:53:05.000Z</time></trkpt>
        <trkpt lat="29.3277936" lon="105.2094533"><ele>307.51</ele><time>2026-05-01T20:53:11.000Z</time></trkpt>
        <trkpt lat="29.3278096" lon="105.2095103"><ele>307.29</ele><time>2026-05-01T20:53:15.000Z</time></trkpt>
        <trkpt lat="29.327842" lon="105.2095676"><ele>307.17</ele><time>2026-05-01T20:53:21.000Z</time></trkpt>
        <trkpt lat="29.3278686" lon="105.2096341"><ele>307.27</ele><time>2026-05-01T20:53:27.000Z</time></trkpt>
        <trkpt lat="29.3278927" lon="105.2097041"><ele>307.54</ele><time>2026-05-01T20:53:33.000Z</time></trkpt>
        <trkpt lat="29.3279146" lon="105.2097775"><ele>307.74</ele><time>2026-05-01T20:53:39.000Z</time></trkpt>
        <trkpt lat="29.3279334" lon="105.2098505"><ele>307.89</ele><time>2026-05-01T20:53:45.000Z</time></trkpt>
        <trkpt lat="29.3279424" lon="105.2099104"><ele>307.94</ele><time>2026-05-01T20:53:49.000Z</time></trkpt>
        <trkpt lat="29.327947" lon="105.209964"><ele>308.18</ele><time>2026-05-01T20:53:53.000Z</time></trkpt>
        <trkpt lat="29.3279531" lon="105.2100311"><ele>308.15</ele><time>2026-05-01T20:53:59.000Z</time></trkpt>
        <trkpt lat="29.3279604" lon="105.2100886"><ele>308.04</ele><time>2026-05-01T20:54:03.000Z</time></trkpt>
        <trkpt lat="29.3279633" lon="105.210141"><ele>308.02</ele><time>2026-05-01T20:54:07.000Z</time></trkpt>
        <trkpt lat="29.3279697" lon="105.210207"><ele>308.36</ele><time>2026-05-01T20:54:13.000Z</time></trkpt>
        <trkpt lat="29.3279752" lon="105.210272"><ele>309.19</ele><time>2026-05-01T20:54:19.000Z</time></trkpt>
        <trkpt lat="29.327974" lon="105.2103463"><ele>310.1</ele><time>2026-05-01T20:54:25.000Z</time></trkpt>
        <trkpt lat="29.3279729" lon="105.2104199"><ele>310.83</ele><time>2026-05-01T20:54:31.000Z</time></trkpt>
        <trkpt lat="29.3279734" lon="105.2104939"><ele>311.29</ele><time>2026-05-01T20:54:37.000Z</time></trkpt>
        <trkpt lat="29.3279773" lon="105.2105666"><ele>311.64</ele><time>2026-05-01T20:54:43.000Z</time></trkpt>
        <trkpt lat="29.3279811" lon="105.2106235"><ele>311.62</ele><time>2026-05-01T20:54:47.000Z</time></trkpt>
        <trkpt lat="29.327981" lon="105.2106909"><ele>311.66</ele><time>2026-05-01T20:54:53.000Z</time></trkpt>
        <trkpt lat="29.3279806" lon="105.210748"><ele>311.72</ele><time>2026-05-01T20:54:57.000Z</time></trkpt>
        <trkpt lat="29.3279791" lon="105.2108012"><ele>311.8</ele><time>2026-05-01T20:55:01.000Z</time></trkpt>
        <trkpt lat="29.3279859" lon="105.2108698"><ele>312.06</ele><time>2026-05-01T20:55:07.000Z</time></trkpt>
        <trkpt lat="29.3279885" lon="105.2109432"><ele>312.46</ele><time>2026-05-01T20:55:13.000Z</time></trkpt>
        <trkpt lat="29.3279878" lon="105.211004"><ele>312.78</ele><time>2026-05-01T20:55:17.000Z</time></trkpt>
        <trkpt lat="29.327981" lon="105.2110759"><ele>312.92</ele><time>2026-05-01T20:55:23.000Z</time></trkpt>
        <trkpt lat="29.3279671" lon="105.2111472"><ele>313.34</ele><time>2026-05-01T20:55:29.000Z</time></trkpt>
        <trkpt lat="29.3279435" lon="105.2112205"><ele>313.71</ele><time>2026-05-01T20:55:35.000Z</time></trkpt>
        <trkpt lat="29.3279221" lon="105.2112879"><ele>313.53</ele><time>2026-05-01T20:55:41.000Z</time></trkpt>
        <trkpt lat="29.3278947" lon="105.2113468"><ele>313.52</ele><time>2026-05-01T20:55:51.000Z</time></trkpt>
        <trkpt lat="29.3278781" lon="105.2113991"><ele>313.38</ele><time>2026-05-01T20:55:55.000Z</time></trkpt>
        <trkpt lat="29.3278684" lon="105.2114532"><ele>313.09</ele><time>2026-05-01T20:55:59.000Z</time></trkpt>
        <trkpt lat="29.3278558" lon="105.2115162"><ele>312.79</ele><time>2026-05-01T20:56:05.000Z</time></trkpt>
        <trkpt lat="29.327848" lon="105.2115877"><ele>312.71</ele><time>2026-05-01T20:56:11.000Z</time></trkpt>
        <trkpt lat="29.3278455" lon="105.2116595"><ele>312.53</ele><time>2026-05-01T20:56:17.000Z</time></trkpt>
        <trkpt lat="29.3278471" lon="105.2117269"><ele>311.79</ele><time>2026-05-01T20:56:23.000Z</time></trkpt>
        <trkpt lat="29.3278498" lon="105.2118012"><ele>311.02</ele><time>2026-05-01T20:56:29.000Z</time></trkpt>
        <trkpt lat="29.3278511" lon="105.2118668"><ele>310.71</ele><time>2026-05-01T20:56:35.000Z</time></trkpt>
        <trkpt lat="29.3278529" lon="105.2119263"><ele>310.53</ele><time>2026-05-01T20:56:39.000Z</time></trkpt>
        <trkpt lat="29.3278623" lon="105.2119851"><ele>310.61</ele><time>2026-05-01T20:56:51.000Z</time></trkpt>
        <trkpt lat="29.3278793" lon="105.2120667"><ele>311.03</ele><time>2026-05-01T20:57:11.000Z</time></trkpt>
        <trkpt lat="29.3279163" lon="105.2121119"><ele>311.36</ele><time>2026-05-01T20:57:15.000Z</time></trkpt>
        <trkpt lat="29.3279398" lon="105.2121652"><ele>311.55</ele><time>2026-05-01T20:57:25.000Z</time></trkpt>
        <trkpt lat="29.3279558" lon="105.2122166"><ele>311.49</ele><time>2026-05-01T20:57:29.000Z</time></trkpt>
        <trkpt lat="29.3279864" lon="105.2122626"><ele>311.23</ele><time>2026-05-01T20:57:35.000Z</time></trkpt>
        <trkpt lat="29.3280128" lon="105.2123245"><ele>310.88</ele><time>2026-05-01T20:57:41.000Z</time></trkpt>
        <trkpt lat="29.3280471" lon="105.2123788"><ele>310.54</ele><time>2026-05-01T20:57:49.000Z</time></trkpt>
        <trkpt lat="29.3280892" lon="105.2124335"><ele>310.57</ele><time>2026-05-01T20:57:55.000Z</time></trkpt>
        <trkpt lat="29.3281262" lon="105.2124746"><ele>311.01</ele><time>2026-05-01T20:57:59.000Z</time></trkpt>
        <trkpt lat="29.3281719" lon="105.2125095"><ele>311.74</ele><time>2026-05-01T20:58:05.000Z</time></trkpt>
        <trkpt lat="29.3282019" lon="105.2125629"><ele>313.44</ele><time>2026-05-01T20:58:11.000Z</time></trkpt>
        <trkpt lat="29.3282481" lon="105.2126151"><ele>315.02</ele><time>2026-05-01T20:58:17.000Z</time></trkpt>
        <trkpt lat="29.3282935" lon="105.2126411"><ele>316.64</ele><time>2026-05-01T20:58:21.000Z</time></trkpt>
        <trkpt lat="29.3283478" lon="105.2126762"><ele>317.83</ele><time>2026-05-01T20:58:27.000Z</time></trkpt>
        <trkpt lat="29.3283953" lon="105.2127183"><ele>318.63</ele><time>2026-05-01T20:58:33.000Z</time></trkpt>
        <trkpt lat="29.3284295" lon="105.2127744"><ele>318.1</ele><time>2026-05-01T20:58:39.000Z</time></trkpt>
        <trkpt lat="29.3284377" lon="105.2128442"><ele>316.85</ele><time>2026-05-01T20:58:45.000Z</time></trkpt>
        <trkpt lat="29.3284296" lon="105.2129118"><ele>315.45</ele><time>2026-05-01T20:58:51.000Z</time></trkpt>
        <trkpt lat="29.3284111" lon="105.2129748"><ele>314.01</ele><time>2026-05-01T20:58:57.000Z</time></trkpt>
        <trkpt lat="29.3283856" lon="105.2130394"><ele>312.89</ele><time>2026-05-01T20:59:03.000Z</time></trkpt>
        <trkpt lat="29.3283642" lon="105.213092"><ele>312.29</ele><time>2026-05-01T20:59:07.000Z</time></trkpt>
        <trkpt lat="29.3283455" lon="105.2131601"><ele>312.08</ele><time>2026-05-01T20:59:13.000Z</time></trkpt>
        <trkpt lat="29.3283369" lon="105.213217"><ele>311.92</ele><time>2026-05-01T20:59:17.000Z</time></trkpt>
        <trkpt lat="29.3283471" lon="105.2132793"><ele>311.52</ele><time>2026-05-01T20:59:23.000Z</time></trkpt>
        <trkpt lat="29.3283675" lon="105.2133514"><ele>311.25</ele><time>2026-05-01T20:59:29.000Z</time></trkpt>
        <trkpt lat="29.3283852" lon="105.2134107"><ele>311.02</ele><time>2026-05-01T20:59:33.000Z</time></trkpt>
        <trkpt lat="29.328412" lon="105.2134722"><ele>311.1</ele><time>2026-05-01T20:59:39.000Z</time></trkpt>
        <trkpt lat="29.3284491" lon="105.2135336"><ele>311.57</ele><time>2026-05-01T20:59:45.000Z</time></trkpt>
        <trkpt lat="29.3284892" lon="105.2135951"><ele>312.19</ele><time>2026-05-01T20:59:51.000Z</time></trkpt>
        <trkpt lat="29.3285232" lon="105.2136555"><ele>312.71</ele><time>2026-05-01T20:59:57.000Z</time></trkpt>
        <trkpt lat="29.3285542" lon="105.2137204"><ele>313.39</ele><time>2026-05-01T21:00:03.000Z</time></trkpt>
        <trkpt lat="29.3285716" lon="105.2137858"><ele>313.96</ele><time>2026-05-01T21:00:09.000Z</time></trkpt>
        <trkpt lat="29.328573" lon="105.213855"><ele>314.45</ele><time>2026-05-01T21:00:15.000Z</time></trkpt>
        <trkpt lat="29.3285617" lon="105.2139116"><ele>314.77</ele><time>2026-05-01T21:00:19.000Z</time></trkpt>
        <trkpt lat="29.3285472" lon="105.2139621"><ele>315</ele><time>2026-05-01T21:00:23.000Z</time></trkpt>
        <trkpt lat="29.3285291" lon="105.2140259"><ele>315.13</ele><time>2026-05-01T21:00:29.000Z</time></trkpt>
        <trkpt lat="29.3285157" lon="105.214094"><ele>315.42</ele><time>2026-05-01T21:00:35.000Z</time></trkpt>
        <trkpt lat="29.3284958" lon="105.2141519"><ele>315.58</ele><time>2026-05-01T21:00:41.000Z</time></trkpt>
        <trkpt lat="29.328485" lon="105.2142145"><ele>315.68</ele><time>2026-05-01T21:00:49.000Z</time></trkpt>
        <trkpt lat="29.3284716" lon="105.2142816"><ele>315.34</ele><time>2026-05-01T21:00:55.000Z</time></trkpt>
        <trkpt lat="29.3284633" lon="105.2143502"><ele>315.02</ele><time>2026-05-01T21:01:01.000Z</time></trkpt>
        <trkpt lat="29.3284581" lon="105.2144166"><ele>314.71</ele><time>2026-05-01T21:01:07.000Z</time></trkpt>
        <trkpt lat="29.328455" lon="105.2144732"><ele>314.32</ele><time>2026-05-01T21:01:11.000Z</time></trkpt>
        <trkpt lat="29.3284548" lon="105.2145413"><ele>313.75</ele><time>2026-05-01T21:01:17.000Z</time></trkpt>
        <trkpt lat="29.3284579" lon="105.2146027"><ele>313.34</ele><time>2026-05-01T21:01:21.000Z</time></trkpt>
        <trkpt lat="29.3284607" lon="105.2146715"><ele>312.81</ele><time>2026-05-01T21:01:27.000Z</time></trkpt>
        <trkpt lat="29.3284642" lon="105.2147443"><ele>312.63</ele><time>2026-05-01T21:01:33.000Z</time></trkpt>
        <trkpt lat="29.3284729" lon="105.2148171"><ele>312.32</ele><time>2026-05-01T21:01:39.000Z</time></trkpt>
        <trkpt lat="29.3284795" lon="105.2148882"><ele>312.14</ele><time>2026-05-01T21:01:45.000Z</time></trkpt>
        <trkpt lat="29.3284851" lon="105.2149548"><ele>312.21</ele><time>2026-05-01T21:01:51.000Z</time></trkpt>
        <trkpt lat="29.3284877" lon="105.2150247"><ele>312.2</ele><time>2026-05-01T21:01:57.000Z</time></trkpt>
        <trkpt lat="29.3284968" lon="105.2150923"><ele>312.33</ele><time>2026-05-01T21:02:03.000Z</time></trkpt>
        <trkpt lat="29.3285083" lon="105.2151627"><ele>312.49</ele><time>2026-05-01T21:02:09.000Z</time></trkpt>
        <trkpt lat="29.3285193" lon="105.2152268"><ele>312.88</ele><time>2026-05-01T21:02:15.000Z</time></trkpt>
        <trkpt lat="29.3285298" lon="105.2152884"><ele>313.32</ele><time>2026-05-01T21:02:21.000Z</time></trkpt>
        <trkpt lat="29.3285463" lon="105.2153532"><ele>313.61</ele><time>2026-05-01T21:02:27.000Z</time></trkpt>
        <trkpt lat="29.3285636" lon="105.2154182"><ele>313.78</ele><time>2026-05-01T21:02:33.000Z</time></trkpt>
        <trkpt lat="29.3285834" lon="105.2154795"><ele>314.3</ele><time>2026-05-01T21:02:39.000Z</time></trkpt>
        <trkpt lat="29.3285989" lon="105.2155482"><ele>314.73</ele><time>2026-05-01T21:02:45.000Z</time></trkpt>
        <trkpt lat="29.3286201" lon="105.215616"><ele>315.49</ele><time>2026-05-01T21:03:05.000Z</time></trkpt>
        <trkpt lat="29.3286297" lon="105.2156882"><ele>316.4</ele><time>2026-05-01T21:03:11.000Z</time></trkpt>
        <trkpt lat="29.3286448" lon="105.2157556"><ele>316.87</ele><time>2026-05-01T21:03:17.000Z</time></trkpt>
        <trkpt lat="29.3286486" lon="105.215821"><ele>316.93</ele><time>2026-05-01T21:03:23.000Z</time></trkpt>
        <trkpt lat="29.3286483" lon="105.2158845"><ele>317</ele><time>2026-05-01T21:03:29.000Z</time></trkpt>
        <trkpt lat="29.3286433" lon="105.2159562"><ele>317.52</ele><time>2026-05-01T21:03:35.000Z</time></trkpt>
        <trkpt lat="29.3286384" lon="105.2160149"><ele>317.85</ele><time>2026-05-01T21:03:39.000Z</time></trkpt>
        <trkpt lat="29.3286366" lon="105.2160697"><ele>318.05</ele><time>2026-05-01T21:03:43.000Z</time></trkpt>
        <trkpt lat="29.3286399" lon="105.216121"><ele>317.94</ele><time>2026-05-01T21:03:47.000Z</time></trkpt>
        <trkpt lat="29.3286539" lon="105.2161792"><ele>317.75</ele><time>2026-05-01T21:03:53.000Z</time></trkpt>
        <trkpt lat="29.3286727" lon="105.2162403"><ele>317.34</ele><time>2026-05-01T21:03:59.000Z</time></trkpt>
        <trkpt lat="29.3286888" lon="105.2163098"><ele>316.89</ele><time>2026-05-01T21:04:05.000Z</time></trkpt>
        <trkpt lat="29.328707" lon="105.2163809"><ele>316.77</ele><time>2026-05-01T21:04:11.000Z</time></trkpt>
        <trkpt lat="29.3287233" lon="105.2164408"><ele>317.6</ele><time>2026-05-01T21:04:15.000Z</time></trkpt>
        <trkpt lat="29.3287336" lon="105.2164986"><ele>318.37</ele><time>2026-05-01T21:04:19.000Z</time></trkpt>
        <trkpt lat="29.3287417" lon="105.2165536"><ele>318.9</ele><time>2026-05-01T21:04:23.000Z</time></trkpt>
        <trkpt lat="29.3287519" lon="105.2166142"><ele>319.76</ele><time>2026-05-01T21:04:29.000Z</time></trkpt>
        <trkpt lat="29.3287669" lon="105.2166809"><ele>321.15</ele><time>2026-05-01T21:04:35.000Z</time></trkpt>
        <trkpt lat="29.3287799" lon="105.2167409"><ele>322.08</ele><time>2026-05-01T21:04:41.000Z</time></trkpt>
        <trkpt lat="29.3288107" lon="105.2168018"><ele>322.13</ele><time>2026-05-01T21:04:47.000Z</time></trkpt>
        <trkpt lat="29.3288305" lon="105.216857"><ele>321.73</ele><time>2026-05-01T21:04:51.000Z</time></trkpt>
        <trkpt lat="29.3288503" lon="105.2169251"><ele>321.37</ele><time>2026-05-01T21:04:57.000Z</time></trkpt>
        <trkpt lat="29.3288626" lon="105.216982"><ele>320.7</ele><time>2026-05-01T21:05:01.000Z</time></trkpt>
        <trkpt lat="29.3288723" lon="105.2170343"><ele>320.01</ele><time>2026-05-01T21:05:05.000Z</time></trkpt>
        <trkpt lat="29.3288889" lon="105.2170977"><ele>319.32</ele><time>2026-05-01T21:05:11.000Z</time></trkpt>
        <trkpt lat="29.3288984" lon="105.2171606"><ele>318.23</ele><time>2026-05-01T21:05:15.000Z</time></trkpt>
        <trkpt lat="29.3289052" lon="105.2172205"><ele>317.49</ele><time>2026-05-01T21:05:19.000Z</time></trkpt>
        <trkpt lat="29.3289162" lon="105.217274"><ele>316.93</ele><time>2026-05-01T21:05:23.000Z</time></trkpt>
        <trkpt lat="29.3289304" lon="105.2173328"><ele>316.58</ele><time>2026-05-01T21:05:27.000Z</time></trkpt>
        <trkpt lat="29.3289394" lon="105.2173915"><ele>316.5</ele><time>2026-05-01T21:05:31.000Z</time></trkpt>
        <trkpt lat="29.32896" lon="105.21746"><ele>316.46</ele><time>2026-05-01T21:05:37.000Z</time></trkpt>
        <trkpt lat="29.3289864" lon="105.2175295"><ele>316.43</ele><time>2026-05-01T21:05:43.000Z</time></trkpt>
        <trkpt lat="29.329003" lon="105.2175864"><ele>316.12</ele><time>2026-05-01T21:05:47.000Z</time></trkpt>
        <trkpt lat="29.3290217" lon="105.2176508"><ele>316.07</ele><time>2026-05-01T21:05:53.000Z</time></trkpt>
        <trkpt lat="29.3290401" lon="105.2177072"><ele>315.95</ele><time>2026-05-01T21:05:57.000Z</time></trkpt>
        <trkpt lat="29.3290572" lon="105.2177643"><ele>316.06</ele><time>2026-05-01T21:06:01.000Z</time></trkpt>
        <trkpt lat="29.3290687" lon="105.2178207"><ele>316.25</ele><time>2026-05-01T21:06:05.000Z</time></trkpt>
        <trkpt lat="29.3290822" lon="105.2178746"><ele>316.27</ele><time>2026-05-01T21:06:09.000Z</time></trkpt>
        <trkpt lat="29.3290991" lon="105.2179314"><ele>316.11</ele><time>2026-05-01T21:06:13.000Z</time></trkpt>
        <trkpt lat="29.3291224" lon="105.2179932"><ele>315.81</ele><time>2026-05-01T21:06:21.000Z</time></trkpt>
        <trkpt lat="29.3291441" lon="105.218063"><ele>315.07</ele><time>2026-05-01T21:06:27.000Z</time></trkpt>
        <trkpt lat="29.3291624" lon="105.218123"><ele>314.31</ele><time>2026-05-01T21:06:31.000Z</time></trkpt>
        <trkpt lat="29.3291842" lon="105.2181763"><ele>313.83</ele><time>2026-05-01T21:06:35.000Z</time></trkpt>
        <trkpt lat="29.3292024" lon="105.218226"><ele>313.43</ele><time>2026-05-01T21:06:39.000Z</time></trkpt>
        <trkpt lat="29.3292205" lon="105.21828"><ele>313.03</ele><time>2026-05-01T21:06:47.000Z</time></trkpt>
        <trkpt lat="29.3292436" lon="105.218331"><ele>312.72</ele><time>2026-05-01T21:06:57.000Z</time></trkpt>
        <trkpt lat="29.3292573" lon="105.2183997"><ele>313.44</ele><time>2026-05-01T21:07:03.000Z</time></trkpt>
        <trkpt lat="29.3292662" lon="105.2184687"><ele>313.81</ele><time>2026-05-01T21:07:07.000Z</time></trkpt>
        <trkpt lat="29.3292799" lon="105.2185408"><ele>313.85</ele><time>2026-05-01T21:07:13.000Z</time></trkpt>
        <trkpt lat="29.3292834" lon="105.2186059"><ele>313.48</ele><time>2026-05-01T21:07:17.000Z</time></trkpt>
        <trkpt lat="29.3292868" lon="105.2186669"><ele>312.8</ele><time>2026-05-01T21:07:21.000Z</time></trkpt>
        <trkpt lat="29.329297" lon="105.2187214"><ele>312.16</ele><time>2026-05-01T21:07:25.000Z</time></trkpt>
        <trkpt lat="29.3293088" lon="105.218774"><ele>311.83</ele><time>2026-05-01T21:07:29.000Z</time></trkpt>
        <trkpt lat="29.3293184" lon="105.2188251"><ele>311.52</ele><time>2026-05-01T21:07:33.000Z</time></trkpt>
        <trkpt lat="29.3293283" lon="105.2188935"><ele>311.25</ele><time>2026-05-01T21:07:39.000Z</time></trkpt>
        <trkpt lat="29.329337" lon="105.2189535"><ele>311.01</ele><time>2026-05-01T21:07:43.000Z</time></trkpt>
        <trkpt lat="29.3293466" lon="105.2190172"><ele>310.75</ele><time>2026-05-01T21:07:49.000Z</time></trkpt>
        <trkpt lat="29.3293527" lon="105.2190861"><ele>310.43</ele><time>2026-05-01T21:07:55.000Z</time></trkpt>
        <trkpt lat="29.3293589" lon="105.2191528"><ele>310.46</ele><time>2026-05-01T21:08:01.000Z</time></trkpt>
        <trkpt lat="29.3293715" lon="105.2192084"><ele>310.69</ele><time>2026-05-01T21:08:05.000Z</time></trkpt>
        <trkpt lat="29.3293916" lon="105.2192699"><ele>311</ele><time>2026-05-01T21:08:11.000Z</time></trkpt>
        <trkpt lat="29.329409" lon="105.2193253"><ele>311.21</ele><time>2026-05-01T21:08:15.000Z</time></trkpt>
        <trkpt lat="29.3294225" lon="105.2193947"><ele>311.47</ele><time>2026-05-01T21:08:21.000Z</time></trkpt>
        <trkpt lat="29.3294343" lon="105.2194583"><ele>311.74</ele><time>2026-05-01T21:08:27.000Z</time></trkpt>
        <trkpt lat="29.3294457" lon="105.2195343"><ele>312.24</ele><time>2026-05-01T21:08:33.000Z</time></trkpt>
        <trkpt lat="29.3294558" lon="105.2196022"><ele>312.31</ele><time>2026-05-01T21:08:37.000Z</time></trkpt>
        <trkpt lat="29.3294693" lon="105.2196627"><ele>312.22</ele><time>2026-05-01T21:08:41.000Z</time></trkpt>
        <trkpt lat="29.3294792" lon="105.2197219"><ele>312.17</ele><time>2026-05-01T21:08:45.000Z</time></trkpt>
        <trkpt lat="29.3294888" lon="105.219776"><ele>312.31</ele><time>2026-05-01T21:08:49.000Z</time></trkpt>
        <trkpt lat="29.3295023" lon="105.2198324"><ele>312.52</ele><time>2026-05-01T21:08:53.000Z</time></trkpt>
        <trkpt lat="29.3295198" lon="105.2199012"><ele>312.9</ele><time>2026-05-01T21:08:59.000Z</time></trkpt>
        <trkpt lat="29.3295311" lon="105.2199685"><ele>313.5</ele><time>2026-05-01T21:09:05.000Z</time></trkpt>
        <trkpt lat="29.3295448" lon="105.2200396"><ele>313.67</ele><time>2026-05-01T21:09:11.000Z</time></trkpt>
        <trkpt lat="29.3295583" lon="105.2200968"><ele>313.51</ele><time>2026-05-01T21:09:15.000Z</time></trkpt>
        <trkpt lat="29.3295679" lon="105.2201499"><ele>313.34</ele><time>2026-05-01T21:09:19.000Z</time></trkpt>
        <trkpt lat="29.3295761" lon="105.220212"><ele>313.28</ele><time>2026-05-01T21:09:25.000Z</time></trkpt>
        <trkpt lat="29.329579" lon="105.2202893"><ele>313.11</ele><time>2026-05-01T21:09:31.000Z</time></trkpt>
        <trkpt lat="29.3295852" lon="105.2203493"><ele>312.89</ele><time>2026-05-01T21:09:35.000Z</time></trkpt>
        <trkpt lat="29.3295929" lon="105.2204197"><ele>312.47</ele><time>2026-05-01T21:09:41.000Z</time></trkpt>
        <trkpt lat="29.3296012" lon="105.2204792"><ele>312.39</ele><time>2026-05-01T21:09:45.000Z</time></trkpt>
        <trkpt lat="29.3296047" lon="105.2205507"><ele>312.66</ele><time>2026-05-01T21:09:51.000Z</time></trkpt>
        <trkpt lat="29.3296101" lon="105.220627"><ele>313.15</ele><time>2026-05-01T21:09:57.000Z</time></trkpt>
        <trkpt lat="29.3296139" lon="105.2206859"><ele>313.43</ele><time>2026-05-01T21:10:01.000Z</time></trkpt>
        <trkpt lat="29.3296197" lon="105.2207391"><ele>313.55</ele><time>2026-05-01T21:10:05.000Z</time></trkpt>
        <trkpt lat="29.3296312" lon="105.2208022"><ele>313.48</ele><time>2026-05-01T21:10:11.000Z</time></trkpt>
        <trkpt lat="29.3296374" lon="105.2208534"><ele>313.28</ele><time>2026-05-01T21:10:21.000Z</time></trkpt>
        <trkpt lat="29.3296374" lon="105.2208534"><ele>313.28</ele><time>2026-05-01T21:10:41.000Z</time></trkpt>
        <trkpt lat="29.3296574" lon="105.2209162"><ele>313.37</ele><time>2026-05-01T21:10:43.000Z</time></trkpt>
        <trkpt lat="29.3296574" lon="105.2209162"><ele>313.37</ele><time>2026-05-01T21:10:49.000Z</time></trkpt>
        <trkpt lat="29.3296777" lon="105.2209702"><ele>312.31</ele><time>2026-05-01T21:10:53.000Z</time></trkpt>
        <trkpt lat="29.3297048" lon="105.2210318"><ele>311.83</ele><time>2026-05-01T21:10:59.000Z</time></trkpt>
        <trkpt lat="29.3297341" lon="105.2210952"><ele>311.9</ele><time>2026-05-01T21:11:05.000Z</time></trkpt>
        <trkpt lat="29.3297648" lon="105.2211591"><ele>312.46</ele><time>2026-05-01T21:11:11.000Z</time></trkpt>
        <trkpt lat="29.3297957" lon="105.2212266"><ele>312.48</ele><time>2026-05-01T21:11:17.000Z</time></trkpt>
        <trkpt lat="29.32982" lon="105.2212791"><ele>312.14</ele><time>2026-05-01T21:11:21.000Z</time></trkpt>
        <trkpt lat="29.3298405" lon="105.2213283"><ele>311.95</ele><time>2026-05-01T21:11:25.000Z</time></trkpt>
        <trkpt lat="29.3298548" lon="105.2213769"><ele>311.8</ele><time>2026-05-01T21:11:29.000Z</time></trkpt>
        <trkpt lat="29.3298698" lon="105.2214271"><ele>311.63</ele><time>2026-05-01T21:11:33.000Z</time></trkpt>
        <trkpt lat="29.3298843" lon="105.2214908"><ele>311.7</ele><time>2026-05-01T21:11:39.000Z</time></trkpt>
        <trkpt lat="29.3298976" lon="105.2215632"><ele>311.79</ele><time>2026-05-01T21:11:45.000Z</time></trkpt>
        <trkpt lat="29.3299093" lon="105.2216231"><ele>311.96</ele><time>2026-05-01T21:11:49.000Z</time></trkpt>
        <trkpt lat="29.3299219" lon="105.2216826"><ele>312.45</ele><time>2026-05-01T21:11:53.000Z</time></trkpt>
        <trkpt lat="29.329935" lon="105.2217346"><ele>312.86</ele><time>2026-05-01T21:11:57.000Z</time></trkpt>
        <trkpt lat="29.3299482" lon="105.2217978"><ele>312.92</ele><time>2026-05-01T21:12:03.000Z</time></trkpt>
        <trkpt lat="29.3299641" lon="105.2218632"><ele>312.78</ele><time>2026-05-01T21:12:09.000Z</time></trkpt>
        <trkpt lat="29.3299821" lon="105.2219189"><ele>312.27</ele><time>2026-05-01T21:12:19.000Z</time></trkpt>
        <trkpt lat="29.3300108" lon="105.2219795"><ele>311.98</ele><time>2026-05-01T21:12:25.000Z</time></trkpt>
        <trkpt lat="29.3300357" lon="105.2220336"><ele>311.82</ele><time>2026-05-01T21:12:31.000Z</time></trkpt>
        <trkpt lat="29.3300535" lon="105.2220952"><ele>311.68</ele><time>2026-05-01T21:12:39.000Z</time></trkpt>
        <trkpt lat="29.3300648" lon="105.2221599"><ele>311.22</ele><time>2026-05-01T21:12:45.000Z</time></trkpt>
        <trkpt lat="29.3300728" lon="105.2222292"><ele>310.87</ele><time>2026-05-01T21:12:51.000Z</time></trkpt>
        <trkpt lat="29.3300763" lon="105.2222924"><ele>310.75</ele><time>2026-05-01T21:12:57.000Z</time></trkpt>
        <trkpt lat="29.3300536" lon="105.2223454"><ele>310.9</ele><time>2026-05-01T21:13:01.000Z</time></trkpt>
        <trkpt lat="29.3300406" lon="105.2223961"><ele>311.29</ele><time>2026-05-01T21:13:05.000Z</time></trkpt>
        <trkpt lat="29.3300466" lon="105.2224541"><ele>311.85</ele><time>2026-05-01T21:13:11.000Z</time></trkpt>
        <trkpt lat="29.3300649" lon="105.2225064"><ele>312.35</ele><time>2026-05-01T21:13:17.000Z</time></trkpt>
        <trkpt lat="29.3300656" lon="105.2225627"><ele>312.71</ele><time>2026-05-01T21:13:21.000Z</time></trkpt>
        <trkpt lat="29.3300599" lon="105.2226333"><ele>312.92</ele><time>2026-05-01T21:13:25.000Z</time></trkpt>
        <trkpt lat="29.3300524" lon="105.2227015"><ele>313.34</ele><time>2026-05-01T21:13:31.000Z</time></trkpt>
        <trkpt lat="29.3300459" lon="105.2227679"><ele>313.24</ele><time>2026-05-01T21:13:37.000Z</time></trkpt>
        <trkpt lat="29.3300427" lon="105.2228359"><ele>312.88</ele><time>2026-05-01T21:13:43.000Z</time></trkpt>
        <trkpt lat="29.3300547" lon="105.2228932"><ele>312.8</ele><time>2026-05-01T21:13:47.000Z</time></trkpt>
        <trkpt lat="29.3300633" lon="105.2229576"><ele>312.59</ele><time>2026-05-01T21:13:55.000Z</time></trkpt>
        <trkpt lat="29.330061" lon="105.2230328"><ele>312.12</ele><time>2026-05-01T21:13:59.000Z</time></trkpt>
        <trkpt lat="29.3300482" lon="105.2230916"><ele>311.77</ele><time>2026-05-01T21:14:03.000Z</time></trkpt>
        <trkpt lat="29.3300546" lon="105.223154"><ele>311.57</ele><time>2026-05-01T21:14:11.000Z</time></trkpt>
        <trkpt lat="29.3300675" lon="105.2232118"><ele>311.62</ele><time>2026-05-01T21:14:15.000Z</time></trkpt>
        <trkpt lat="29.330081" lon="105.2232719"><ele>311.7</ele><time>2026-05-01T21:14:21.000Z</time></trkpt>
        <trkpt lat="29.3300914" lon="105.2233456"><ele>311.61</ele><time>2026-05-01T21:14:27.000Z</time></trkpt>
        <trkpt lat="29.3301004" lon="105.2234143"><ele>311.74</ele><time>2026-05-01T21:14:33.000Z</time></trkpt>
        <trkpt lat="29.3301075" lon="105.2234742"><ele>312.28</ele><time>2026-05-01T21:14:39.000Z</time></trkpt>
        <trkpt lat="29.330119" lon="105.223532"><ele>312.68</ele><time>2026-05-01T21:14:45.000Z</time></trkpt>
        <trkpt lat="29.3301347" lon="105.2235995"><ele>312.86</ele><time>2026-05-01T21:14:51.000Z</time></trkpt>
        <trkpt lat="29.3301531" lon="105.2236709"><ele>313.18</ele><time>2026-05-01T21:14:57.000Z</time></trkpt>
        <trkpt lat="29.3301771" lon="105.2237233"><ele>313.66</ele><time>2026-05-01T21:15:01.000Z</time></trkpt>
        <trkpt lat="29.3302079" lon="105.2237822"><ele>313.98</ele><time>2026-05-01T21:15:07.000Z</time></trkpt>
        <trkpt lat="29.3302307" lon="105.2238442"><ele>313.94</ele><time>2026-05-01T21:15:13.000Z</time></trkpt>
        <trkpt lat="29.3302511" lon="105.2239088"><ele>313.8</ele><time>2026-05-01T21:15:21.000Z</time></trkpt>
        <trkpt lat="29.3302583" lon="105.2239641"><ele>313.32</ele><time>2026-05-01T21:15:25.000Z</time></trkpt>
        <trkpt lat="29.3302671" lon="105.2240246"><ele>313.14</ele><time>2026-05-01T21:15:29.000Z</time></trkpt>
        <trkpt lat="29.3302786" lon="105.2240836"><ele>313.08</ele><time>2026-05-01T21:15:33.000Z</time></trkpt>
        <trkpt lat="29.3302901" lon="105.2241382"><ele>313.22</ele><time>2026-05-01T21:15:37.000Z</time></trkpt>
        <trkpt lat="29.3302954" lon="105.2241914"><ele>313.55</ele><time>2026-05-01T21:15:41.000Z</time></trkpt>
        <trkpt lat="29.3303111" lon="105.2242479"><ele>313.83</ele><time>2026-05-01T21:15:47.000Z</time></trkpt>
        <trkpt lat="29.3303207" lon="105.2243022"><ele>313.73</ele><time>2026-05-01T21:15:53.000Z</time></trkpt>
        <trkpt lat="29.3303379" lon="105.2243656"><ele>313.72</ele><time>2026-05-01T21:15:59.000Z</time></trkpt>
        <trkpt lat="29.3303567" lon="105.2244349"><ele>313.67</ele><time>2026-05-01T21:16:03.000Z</time></trkpt>
        <trkpt lat="29.3303732" lon="105.2244997"><ele>313.68</ele><time>2026-05-01T21:16:07.000Z</time></trkpt>
        <trkpt lat="29.3303961" lon="105.224566"><ele>313.95</ele><time>2026-05-01T21:16:11.000Z</time></trkpt>
        <trkpt lat="29.3304151" lon="105.2246303"><ele>314.27</ele><time>2026-05-01T21:16:19.000Z</time></trkpt>
        <trkpt lat="29.3304286" lon="105.2246888"><ele>313.98</ele><time>2026-05-01T21:16:25.000Z</time></trkpt>
        <trkpt lat="29.330445" lon="105.2247439"><ele>313.26</ele><time>2026-05-01T21:16:29.000Z</time></trkpt>
        <trkpt lat="29.3304629" lon="105.2248006"><ele>312.59</ele><time>2026-05-01T21:16:33.000Z</time></trkpt>
        <trkpt lat="29.3304712" lon="105.2248621"><ele>312.03</ele><time>2026-05-01T21:16:39.000Z</time></trkpt>
        <trkpt lat="29.3304873" lon="105.2249292"><ele>311.29</ele><time>2026-05-01T21:16:45.000Z</time></trkpt>
        <trkpt lat="29.3305067" lon="105.2249931"><ele>310.52</ele><time>2026-05-01T21:16:49.000Z</time></trkpt>
        <trkpt lat="29.3305271" lon="105.2250529"><ele>309.99</ele><time>2026-05-01T21:16:53.000Z</time></trkpt>
        <trkpt lat="29.3305477" lon="105.2251224"><ele>309.61</ele><time>2026-05-01T21:16:57.000Z</time></trkpt>
        <trkpt lat="29.3305618" lon="105.2251832"><ele>309.48</ele><time>2026-05-01T21:17:07.000Z</time></trkpt>
        <trkpt lat="29.3305659" lon="105.2252516"><ele>309.87</ele><time>2026-05-01T21:17:13.000Z</time></trkpt>
        <trkpt lat="29.3305704" lon="105.2253106"><ele>310.23</ele><time>2026-05-01T21:17:17.000Z</time></trkpt>
        <trkpt lat="29.3305796" lon="105.2253733"><ele>310.52</ele><time>2026-05-01T21:17:21.000Z</time></trkpt>
        <trkpt lat="29.330587" lon="105.2254415"><ele>310.85</ele><time>2026-05-01T21:17:25.000Z</time></trkpt>
        <trkpt lat="29.3305912" lon="105.2255117"><ele>311</ele><time>2026-05-01T21:17:29.000Z</time></trkpt>
        <trkpt lat="29.3305994" lon="105.2255748"><ele>311.47</ele><time>2026-05-01T21:17:33.000Z</time></trkpt>
        <trkpt lat="29.3306079" lon="105.2256301"><ele>312.17</ele><time>2026-05-01T21:17:41.000Z</time></trkpt>
        <trkpt lat="29.3306264" lon="105.2256927"><ele>313.6</ele><time>2026-05-01T21:17:47.000Z</time></trkpt>
        <trkpt lat="29.3306361" lon="105.2257561"><ele>314.51</ele><time>2026-05-01T21:17:51.000Z</time></trkpt>
        <trkpt lat="29.3306456" lon="105.2258121"><ele>315.06</ele><time>2026-05-01T21:17:55.000Z</time></trkpt>
        <trkpt lat="29.3306453" lon="105.2258741"><ele>314.95</ele><time>2026-05-01T21:18:01.000Z</time></trkpt>
        <trkpt lat="29.3306539" lon="105.22594"><ele>314.15</ele><time>2026-05-01T21:18:07.000Z</time></trkpt>
        <trkpt lat="29.3306665" lon="105.2260058"><ele>313.61</ele><time>2026-05-01T21:18:13.000Z</time></trkpt>
        <trkpt lat="29.330679" lon="105.2260725"><ele>313.31</ele><time>2026-05-01T21:18:17.000Z</time></trkpt>
        <trkpt lat="29.3306912" lon="105.2261307"><ele>312.96</ele><time>2026-05-01T21:18:21.000Z</time></trkpt>
        <trkpt lat="29.3307045" lon="105.2261882"><ele>312.63</ele><time>2026-05-01T21:18:25.000Z</time></trkpt>
        <trkpt lat="29.3307167" lon="105.2262458"><ele>312.49</ele><time>2026-05-01T21:18:29.000Z</time></trkpt>
        <trkpt lat="29.3307323" lon="105.2263137"><ele>312.32</ele><time>2026-05-01T21:18:35.000Z</time></trkpt>
        <trkpt lat="29.3307415" lon="105.2263742"><ele>312.1</ele><time>2026-05-01T21:18:39.000Z</time></trkpt>
        <trkpt lat="29.3307483" lon="105.2264303"><ele>311.93</ele><time>2026-05-01T21:18:43.000Z</time></trkpt>
        <trkpt lat="29.3307494" lon="105.2264861"><ele>311.92</ele><time>2026-05-01T21:18:49.000Z</time></trkpt>
        <trkpt lat="29.3307512" lon="105.2265484"><ele>311.82</ele><time>2026-05-01T21:18:55.000Z</time></trkpt>
        <trkpt lat="29.330745" lon="105.2266096"><ele>311.64</ele><time>2026-05-01T21:19:05.000Z</time></trkpt>
        <trkpt lat="29.3307385" lon="105.2266675"><ele>310.93</ele><time>2026-05-01T21:19:09.000Z</time></trkpt>
        <trkpt lat="29.3307325" lon="105.2267217"><ele>310.02</ele><time>2026-05-01T21:19:13.000Z</time></trkpt>
        <trkpt lat="29.330732" lon="105.2267784"><ele>309.02</ele><time>2026-05-01T21:19:17.000Z</time></trkpt>
        <trkpt lat="29.3307223" lon="105.226835"><ele>308.24</ele><time>2026-05-01T21:19:23.000Z</time></trkpt>
        <trkpt lat="29.3307166" lon="105.2268955"><ele>308.18</ele><time>2026-05-01T21:19:29.000Z</time></trkpt>
        <trkpt lat="29.3307027" lon="105.226961"><ele>308.53</ele><time>2026-05-01T21:19:35.000Z</time></trkpt>
        <trkpt lat="29.3306933" lon="105.2270307"><ele>308.95</ele><time>2026-05-01T21:19:39.000Z</time></trkpt>
        <trkpt lat="29.3306922" lon="105.2270966"><ele>309.31</ele><time>2026-05-01T21:19:43.000Z</time></trkpt>
        <trkpt lat="29.3306817" lon="105.2271606"><ele>309.78</ele><time>2026-05-01T21:19:49.000Z</time></trkpt>
        <trkpt lat="29.3306747" lon="105.2272163"><ele>310.43</ele><time>2026-05-01T21:19:53.000Z</time></trkpt>
        <trkpt lat="29.3306656" lon="105.227283"><ele>311.07</ele><time>2026-05-01T21:19:59.000Z</time></trkpt>
        <trkpt lat="29.3306606" lon="105.2273516"><ele>311.68</ele><time>2026-05-01T21:20:03.000Z</time></trkpt>
        <trkpt lat="29.3306485" lon="105.2274156"><ele>312.25</ele><time>2026-05-01T21:20:07.000Z</time></trkpt>
        <trkpt lat="29.330636" lon="105.2274776"><ele>312.62</ele><time>2026-05-01T21:20:11.000Z</time></trkpt>
        <trkpt lat="29.3306213" lon="105.2275378"><ele>312.82</ele><time>2026-05-01T21:20:17.000Z</time></trkpt>
        <trkpt lat="29.3306147" lon="105.2275987"><ele>313.11</ele><time>2026-05-01T21:20:23.000Z</time></trkpt>
        <trkpt lat="29.33061" lon="105.2276538"><ele>313.37</ele><time>2026-05-01T21:20:27.000Z</time></trkpt>
        <trkpt lat="29.3306044" lon="105.2277081"><ele>313.55</ele><time>2026-05-01T21:20:31.000Z</time></trkpt>
        <trkpt lat="29.3305945" lon="105.2277712"><ele>313.57</ele><time>2026-05-01T21:20:35.000Z</time></trkpt>
        <trkpt lat="29.3305916" lon="105.2278352"><ele>313.46</ele><time>2026-05-01T21:20:39.000Z</time></trkpt>
        <trkpt lat="29.330589" lon="105.2279105"><ele>313.65</ele><time>2026-05-01T21:20:45.000Z</time></trkpt>
        <trkpt lat="29.3305925" lon="105.2279709"><ele>314.44</ele><time>2026-05-01T21:20:49.000Z</time></trkpt>
        <trkpt lat="29.3305967" lon="105.2280263"><ele>315.2</ele><time>2026-05-01T21:20:53.000Z</time></trkpt>
        <trkpt lat="29.3306046" lon="105.2280829"><ele>315.89</ele><time>2026-05-01T21:20:57.000Z</time></trkpt>
        <trkpt lat="29.3306211" lon="105.2281454"><ele>316.45</ele><time>2026-05-01T21:21:01.000Z</time></trkpt>
        <trkpt lat="29.3306403" lon="105.2282064"><ele>316.95</ele><time>2026-05-01T21:21:05.000Z</time></trkpt>
        <trkpt lat="29.3306462" lon="105.2282668"><ele>317.01</ele><time>2026-05-01T21:21:11.000Z</time></trkpt>
        <trkpt lat="29.3306591" lon="105.2283256"><ele>316.62</ele><time>2026-05-01T21:21:17.000Z</time></trkpt>
        <trkpt lat="29.3306689" lon="105.2283863"><ele>316.22</ele><time>2026-05-01T21:21:25.000Z</time></trkpt>
        <trkpt lat="29.330695" lon="105.2284316"><ele>315.87</ele><time>2026-05-01T21:21:29.000Z</time></trkpt>
        <trkpt lat="29.3307596" lon="105.2284724"><ele>315.71</ele><time>2026-05-01T21:21:33.000Z</time></trkpt>
        <trkpt lat="29.3308374" lon="105.2285124"><ele>315.66</ele><time>2026-05-01T21:21:37.000Z</time></trkpt>
        <trkpt lat="29.3309" lon="105.2285341"><ele>316.15</ele><time>2026-05-01T21:21:41.000Z</time></trkpt>
        <trkpt lat="29.3309625" lon="105.2285493"><ele>317.21</ele><time>2026-05-01T21:21:47.000Z</time></trkpt>
        <trkpt lat="29.3310159" lon="105.2285648"><ele>318.41</ele><time>2026-05-01T21:21:51.000Z</time></trkpt>
        <trkpt lat="29.3310608" lon="105.2285888"><ele>319.52</ele><time>2026-05-01T21:21:55.000Z</time></trkpt>
        <trkpt lat="29.3311031" lon="105.2286328"><ele>320.29</ele><time>2026-05-01T21:22:01.000Z</time></trkpt>
        <trkpt lat="29.3311376" lon="105.2286901"><ele>320.34</ele><time>2026-05-01T21:22:05.000Z</time></trkpt>
        <trkpt lat="29.3311547" lon="105.2287674"><ele>320.06</ele><time>2026-05-01T21:22:11.000Z</time></trkpt>
        <trkpt lat="29.3311623" lon="105.2288443"><ele>319.69</ele><time>2026-05-01T21:22:17.000Z</time></trkpt>
        <trkpt lat="29.3311617" lon="105.2289055"><ele>319.05</ele><time>2026-05-01T21:22:21.000Z</time></trkpt>
        <trkpt lat="29.3311704" lon="105.2289713"><ele>318.13</ele><time>2026-05-01T21:22:25.000Z</time></trkpt>
        <trkpt lat="29.3311649" lon="105.2290329"><ele>317.68</ele><time>2026-05-01T21:22:31.000Z</time></trkpt>
        <trkpt lat="29.3311744" lon="105.2290953"><ele>317.78</ele><time>2026-05-01T21:22:39.000Z</time></trkpt>
        <trkpt lat="29.3311825" lon="105.2291571"><ele>317.79</ele><time>2026-05-01T21:22:45.000Z</time></trkpt>
        <trkpt lat="29.3311848" lon="105.2292111"><ele>317.41</ele><time>2026-05-01T21:22:49.000Z</time></trkpt>
        <trkpt lat="29.3311962" lon="105.2292762"><ele>317.23</ele><time>2026-05-01T21:22:55.000Z</time></trkpt>
        <trkpt lat="29.3311997" lon="105.2293457"><ele>316.83</ele><time>2026-05-01T21:22:59.000Z</time></trkpt>
        <trkpt lat="29.3312051" lon="105.2294153"><ele>316.39</ele><time>2026-05-01T21:23:03.000Z</time></trkpt>
        <trkpt lat="29.3312165" lon="105.2294819"><ele>316.31</ele><time>2026-05-01T21:23:09.000Z</time></trkpt>
        <trkpt lat="29.3312249" lon="105.229551"><ele>316.13</ele><time>2026-05-01T21:23:15.000Z</time></trkpt>
        <trkpt lat="29.3312358" lon="105.2296122"><ele>315.82</ele><time>2026-05-01T21:23:19.000Z</time></trkpt>
        <trkpt lat="29.3312401" lon="105.2296855"><ele>315.55</ele><time>2026-05-01T21:23:25.000Z</time></trkpt>
        <trkpt lat="29.3312405" lon="105.2297486"><ele>315.19</ele><time>2026-05-01T21:23:29.000Z</time></trkpt>
        <trkpt lat="29.3312499" lon="105.2298112"><ele>314.93</ele><time>2026-05-01T21:23:33.000Z</time></trkpt>
        <trkpt lat="29.3312654" lon="105.2298701"><ele>314.88</ele><time>2026-05-01T21:23:39.000Z</time></trkpt>
        <trkpt lat="29.3312778" lon="105.2299393"><ele>314.67</ele><time>2026-05-01T21:23:45.000Z</time></trkpt>
        <trkpt lat="29.3312848" lon="105.2299961"><ele>314.21</ele><time>2026-05-01T21:23:49.000Z</time></trkpt>
        <trkpt lat="29.3312936" lon="105.2300581"><ele>313.78</ele><time>2026-05-01T21:23:55.000Z</time></trkpt>
        <trkpt lat="29.3313044" lon="105.2301287"><ele>313.23</ele><time>2026-05-01T21:24:01.000Z</time></trkpt>
        <trkpt lat="29.3313136" lon="105.2302024"><ele>312.66</ele><time>2026-05-01T21:24:07.000Z</time></trkpt>
        <trkpt lat="29.331322" lon="105.2302642"><ele>312.29</ele><time>2026-05-01T21:24:11.000Z</time></trkpt>
        <trkpt lat="29.3313278" lon="105.23032"><ele>311.99</ele><time>2026-05-01T21:24:15.000Z</time></trkpt>
        <trkpt lat="29.3313213" lon="105.2303753"><ele>311.74</ele><time>2026-05-01T21:24:23.000Z</time></trkpt>
        <trkpt lat="29.3313381" lon="105.2304334"><ele>311.64</ele><time>2026-05-01T21:24:33.000Z</time></trkpt>
        <trkpt lat="29.3313591" lon="105.2304854"><ele>312.35</ele><time>2026-05-01T21:24:37.000Z</time></trkpt>
        <trkpt lat="29.3313646" lon="105.2305427"><ele>312.67</ele><time>2026-05-01T21:24:41.000Z</time></trkpt>
        <trkpt lat="29.3313599" lon="105.2305997"><ele>312.68</ele><time>2026-05-01T21:24:45.000Z</time></trkpt>
        <trkpt lat="29.3313608" lon="105.2306691"><ele>312.69</ele><time>2026-05-01T21:24:51.000Z</time></trkpt>
        <trkpt lat="29.3313707" lon="105.2307379"><ele>312.57</ele><time>2026-05-01T21:24:57.000Z</time></trkpt>
        <trkpt lat="29.3313841" lon="105.2308046"><ele>312.28</ele><time>2026-05-01T21:25:03.000Z</time></trkpt>
        <trkpt lat="29.3313996" lon="105.2308727"><ele>312.2</ele><time>2026-05-01T21:25:09.000Z</time></trkpt>
        <trkpt lat="29.3314155" lon="105.2309274"><ele>312.59</ele><time>2026-05-01T21:25:13.000Z</time></trkpt>
        <trkpt lat="29.3314248" lon="105.2309884"><ele>313.2</ele><time>2026-05-01T21:25:19.000Z</time></trkpt>
        <trkpt lat="29.3314367" lon="105.2310474"><ele>313.71</ele><time>2026-05-01T21:25:25.000Z</time></trkpt>
        <trkpt lat="29.3314459" lon="105.2311106"><ele>314.01</ele><time>2026-05-01T21:25:31.000Z</time></trkpt>
        <trkpt lat="29.3314541" lon="105.2311768"><ele>314.35</ele><time>2026-05-01T21:25:37.000Z</time></trkpt>
        <trkpt lat="29.3314646" lon="105.2312527"><ele>314.59</ele><time>2026-05-01T21:25:43.000Z</time></trkpt>
        <trkpt lat="29.3314712" lon="105.2313255"><ele>315.15</ele><time>2026-05-01T21:25:49.000Z</time></trkpt>
        <trkpt lat="29.3314786" lon="105.2314004"><ele>315.73</ele><time>2026-05-01T21:25:55.000Z</time></trkpt>
        <trkpt lat="29.3314754" lon="105.2314696"><ele>316.11</ele><time>2026-05-01T21:26:01.000Z</time></trkpt>
        <trkpt lat="29.3314695" lon="105.2315402"><ele>315.93</ele><time>2026-05-01T21:26:07.000Z</time></trkpt>
        <trkpt lat="29.3314583" lon="105.2316052"><ele>315.75</ele><time>2026-05-01T21:26:13.000Z</time></trkpt>
        <trkpt lat="29.3314468" lon="105.2316696"><ele>315.77</ele><time>2026-05-01T21:26:19.000Z</time></trkpt>
        <trkpt lat="29.3314408" lon="105.2317302"><ele>315.95</ele><time>2026-05-01T21:26:25.000Z</time></trkpt>
        <trkpt lat="29.3314296" lon="105.2317935"><ele>316.06</ele><time>2026-05-01T21:26:31.000Z</time></trkpt>
        <trkpt lat="29.3314164" lon="105.2318542"><ele>316.25</ele><time>2026-05-01T21:26:37.000Z</time></trkpt>
        <trkpt lat="29.3314076" lon="105.2319078"><ele>316.66</ele><time>2026-05-01T21:26:41.000Z</time></trkpt>
        <trkpt lat="29.3314069" lon="105.231959"><ele>316.85</ele><time>2026-05-01T21:26:45.000Z</time></trkpt>
        <trkpt lat="29.3314003" lon="105.232026"><ele>317.17</ele><time>2026-05-01T21:26:51.000Z</time></trkpt>
        <trkpt lat="29.3313898" lon="105.2320929"><ele>318.13</ele><time>2026-05-01T21:26:57.000Z</time></trkpt>
        <trkpt lat="29.3313854" lon="105.2321516"><ele>319.32</ele><time>2026-05-01T21:27:03.000Z</time></trkpt>
        <trkpt lat="29.3313798" lon="105.2322107"><ele>320.13</ele><time>2026-05-01T21:27:09.000Z</time></trkpt>
        <trkpt lat="29.3313734" lon="105.232274"><ele>320.81</ele><time>2026-05-01T21:27:15.000Z</time></trkpt>
        <trkpt lat="29.3313618" lon="105.2323427"><ele>321.45</ele><time>2026-05-01T21:27:21.000Z</time></trkpt>
        <trkpt lat="29.3313558" lon="105.2324144"><ele>321.99</ele><time>2026-05-01T21:27:27.000Z</time></trkpt>
        <trkpt lat="29.3313533" lon="105.2324907"><ele>322.59</ele><time>2026-05-01T21:27:33.000Z</time></trkpt>
        <trkpt lat="29.3313521" lon="105.2325556"><ele>323.41</ele><time>2026-05-01T21:27:37.000Z</time></trkpt>
        <trkpt lat="29.3313534" lon="105.2326236"><ele>323.88</ele><time>2026-05-01T21:27:43.000Z</time></trkpt>
        <trkpt lat="29.3313556" lon="105.232693"><ele>323.93</ele><time>2026-05-01T21:27:49.000Z</time></trkpt>
        <trkpt lat="29.331369" lon="105.232763"><ele>323.49</ele><time>2026-05-01T21:27:55.000Z</time></trkpt>
        <trkpt lat="29.3313776" lon="105.2328231"><ele>322.81</ele><time>2026-05-01T21:27:59.000Z</time></trkpt>
        <trkpt lat="29.3313863" lon="105.232877"><ele>322.2</ele><time>2026-05-01T21:28:03.000Z</time></trkpt>
        <trkpt lat="29.3313923" lon="105.232943"><ele>321.68</ele><time>2026-05-01T21:28:09.000Z</time></trkpt>
        <trkpt lat="29.3314061" lon="105.2330139"><ele>321.09</ele><time>2026-05-01T21:28:15.000Z</time></trkpt>
        <trkpt lat="29.3314141" lon="105.2330826"><ele>320.71</ele><time>2026-05-01T21:28:21.000Z</time></trkpt>
        <trkpt lat="29.3314171" lon="105.2331475"><ele>320.06</ele><time>2026-05-01T21:28:27.000Z</time></trkpt>
        <trkpt lat="29.3314158" lon="105.2332097"><ele>319.56</ele><time>2026-05-01T21:28:33.000Z</time></trkpt>
        <trkpt lat="29.3314209" lon="105.2332635"><ele>319.36</ele><time>2026-05-01T21:28:37.000Z</time></trkpt>
        <trkpt lat="29.3314262" lon="105.233327"><ele>319.16</ele><time>2026-05-01T21:28:43.000Z</time></trkpt>
        <trkpt lat="29.3314339" lon="105.2333983"><ele>318.79</ele><time>2026-05-01T21:28:49.000Z</time></trkpt>
        <trkpt lat="29.3314437" lon="105.2334736"><ele>318.37</ele><time>2026-05-01T21:28:55.000Z</time></trkpt>
        <trkpt lat="29.3314592" lon="105.233541"><ele>317.82</ele><time>2026-05-01T21:29:01.000Z</time></trkpt>
        <trkpt lat="29.3314776" lon="105.2336087"><ele>317.3</ele><time>2026-05-01T21:29:07.000Z</time></trkpt>
        <trkpt lat="29.3314881" lon="105.2336805"><ele>316.7</ele><time>2026-05-01T21:29:13.000Z</time></trkpt>
        <trkpt lat="29.3314964" lon="105.2337376"><ele>316.53</ele><time>2026-05-01T21:29:17.000Z</time></trkpt>
        <trkpt lat="29.3315206" lon="105.2337966"><ele>316.21</ele><time>2026-05-01T21:29:23.000Z</time></trkpt>
        <trkpt lat="29.3315482" lon="105.2338608"><ele>315.86</ele><time>2026-05-01T21:29:29.000Z</time></trkpt>
        <trkpt lat="29.331575" lon="105.2339309"><ele>315.62</ele><time>2026-05-01T21:29:35.000Z</time></trkpt>
        <trkpt lat="29.3316098" lon="105.2339993"><ele>315.22</ele><time>2026-05-01T21:29:41.000Z</time></trkpt>
        <trkpt lat="29.3316373" lon="105.2340529"><ele>314.65</ele><time>2026-05-01T21:29:45.000Z</time></trkpt>
        <trkpt lat="29.3316614" lon="105.2341047"><ele>314.2</ele><time>2026-05-01T21:29:49.000Z</time></trkpt>
        <trkpt lat="29.3316794" lon="105.2341553"><ele>313.77</ele><time>2026-05-01T21:29:53.000Z</time></trkpt>
        <trkpt lat="29.3316729" lon="105.2342135"><ele>314</ele><time>2026-05-01T21:30:05.000Z</time></trkpt>
        <trkpt lat="29.3316316" lon="105.2342611"><ele>314.21</ele><time>2026-05-01T21:30:11.000Z</time></trkpt>
        <trkpt lat="29.3316005" lon="105.2343095"><ele>314.34</ele><time>2026-05-01T21:30:21.000Z</time></trkpt>
        <trkpt lat="29.3316005" lon="105.2343095"><ele>314.34</ele><time>2026-05-01T21:30:47.000Z</time></trkpt>
        <trkpt lat="29.3315664" lon="105.2342719"><ele>313.76</ele><time>2026-05-01T21:31:21.000Z</time></trkpt>
        <trkpt lat="29.3315664" lon="105.2342719"><ele>313.76</ele><time>2026-05-01T21:31:27.000Z</time></trkpt>
        <trkpt lat="29.3316048" lon="105.2342524"><ele>313.05</ele><time>2026-05-01T21:31:37.000Z</time></trkpt>
        <trkpt lat="29.331654" lon="105.2342287"><ele>312.81</ele><time>2026-05-01T21:31:47.000Z</time></trkpt>
        <trkpt lat="29.331654" lon="105.2342287"><ele>312.81</ele><time>2026-05-01T21:32:09.000Z</time></trkpt>
        <trkpt lat="29.3317076" lon="105.2342422"><ele>312.59</ele><time>2026-05-01T21:32:41.000Z</time></trkpt>
        <trkpt lat="29.3317076" lon="105.2342422"><ele>312.59</ele><time>2026-05-01T21:32:43.000Z</time></trkpt>
        <trkpt lat="29.3317429" lon="105.2342865"><ele>312.77</ele><time>2026-05-01T21:32:49.000Z</time></trkpt>
        <trkpt lat="29.3317713" lon="105.2343442"><ele>312.65</ele><time>2026-05-01T21:32:55.000Z</time></trkpt>
        <trkpt lat="29.3317886" lon="105.234413"><ele>312.2</ele><time>2026-05-01T21:33:01.000Z</time></trkpt>
        <trkpt lat="29.3318035" lon="105.2344738"><ele>311.64</ele><time>2026-05-01T21:33:07.000Z</time></trkpt>
        <trkpt lat="29.3318148" lon="105.2345363"><ele>311.19</ele><time>2026-05-01T21:33:13.000Z</time></trkpt>
        <trkpt lat="29.3318177" lon="105.2345914"><ele>310.77</ele><time>2026-05-01T21:33:17.000Z</time></trkpt>
        <trkpt lat="29.3318157" lon="105.2346597"><ele>310.44</ele><time>2026-05-01T21:33:23.000Z</time></trkpt>
        <trkpt lat="29.3318338" lon="105.234723"><ele>310.46</ele><time>2026-05-01T21:33:29.000Z</time></trkpt>
        <trkpt lat="29.3318674" lon="105.2347802"><ele>311.04</ele><time>2026-05-01T21:33:35.000Z</time></trkpt>
        <trkpt lat="29.331901" lon="105.2348363"><ele>311.37</ele><time>2026-05-01T21:33:41.000Z</time></trkpt>
        <trkpt lat="29.3319233" lon="105.2348937"><ele>311.47</ele><time>2026-05-01T21:33:47.000Z</time></trkpt>
        <trkpt lat="29.331942" lon="105.2349491"><ele>311.57</ele><time>2026-05-01T21:33:53.000Z</time></trkpt>
        <trkpt lat="29.3319873" lon="105.2349664"><ele>311.54</ele><time>2026-05-01T21:34:21.000Z</time></trkpt>
        <trkpt lat="29.3319873" lon="105.2349664"><ele>311.54</ele><time>2026-05-01T21:35:03.000Z</time></trkpt>
        <trkpt lat="29.3319873" lon="105.2349664"><ele>311.54</ele><time>2026-05-01T22:03:41.000Z</time></trkpt>
        <trkpt lat="29.3319873" lon="105.2349664"><ele>311.54</ele><time>2026-05-01T22:04:03.000Z</time></trkpt>
        <trkpt lat="29.3319417" lon="105.2349633"><ele>311.74</ele><time>2026-05-01T22:06:27.000Z</time></trkpt>
        <trkpt lat="29.3319417" lon="105.2349633"><ele>311.74</ele><time>2026-05-01T22:06:33.000Z</time></trkpt>
        <trkpt lat="29.3319117" lon="105.2350183"><ele>311.29</ele><time>2026-05-01T22:06:41.000Z</time></trkpt>
        <trkpt lat="29.3319071" lon="105.2350705"><ele>311.51</ele><time>2026-05-01T22:06:49.000Z</time></trkpt>
        <trkpt lat="29.3319198" lon="105.2351312"><ele>311.98</ele><time>2026-05-01T22:06:57.000Z</time></trkpt>
        <trkpt lat="29.3319356" lon="105.2351945"><ele>312.81</ele><time>2026-05-01T22:07:07.000Z</time></trkpt>
        <trkpt lat="29.3319516" lon="105.2352498"><ele>313.49</ele><time>2026-05-01T22:07:15.000Z</time></trkpt>
        <trkpt lat="29.331948" lon="105.2353119"><ele>314.23</ele><time>2026-05-01T22:07:29.000Z</time></trkpt>
        <trkpt lat="29.3319342" lon="105.2353729"><ele>314.6</ele><time>2026-05-01T22:07:35.000Z</time></trkpt>
        <trkpt lat="29.3319312" lon="105.2354283"><ele>314.77</ele><time>2026-05-01T22:07:41.000Z</time></trkpt>
        <trkpt lat="29.3319406" lon="105.2354841"><ele>314.78</ele><time>2026-05-01T22:07:47.000Z</time></trkpt>
        <trkpt lat="29.3319433" lon="105.235549"><ele>314.66</ele><time>2026-05-01T22:07:55.000Z</time></trkpt>
        <trkpt lat="29.3319439" lon="105.23562"><ele>314.33</ele><time>2026-05-01T22:08:03.000Z</time></trkpt>
        <trkpt lat="29.3319452" lon="105.2356901"><ele>314.32</ele><time>2026-05-01T22:08:09.000Z</time></trkpt>
        <trkpt lat="29.3319504" lon="105.2357494"><ele>314.4</ele><time>2026-05-01T22:08:15.000Z</time></trkpt>
        <trkpt lat="29.3319522" lon="105.235807"><ele>314.53</ele><time>2026-05-01T22:08:21.000Z</time></trkpt>
        <trkpt lat="29.3319549" lon="105.2358732"><ele>314.73</ele><time>2026-05-01T22:08:29.000Z</time></trkpt>
        <trkpt lat="29.3319581" lon="105.2359329"><ele>314.76</ele><time>2026-05-01T22:08:35.000Z</time></trkpt>
        <trkpt lat="29.3319603" lon="105.2359949"><ele>314.69</ele><time>2026-05-01T22:08:43.000Z</time></trkpt>
        <trkpt lat="29.3319695" lon="105.2360579"><ele>314.22</ele><time>2026-05-01T22:08:49.000Z</time></trkpt>
        <trkpt lat="29.3319838" lon="105.2361276"><ele>313.95</ele><time>2026-05-01T22:08:55.000Z</time></trkpt>
        <trkpt lat="29.3320059" lon="105.2362009"><ele>314.1</ele><time>2026-05-01T22:09:01.000Z</time></trkpt>
        <trkpt lat="29.3320216" lon="105.2362588"><ele>314.57</ele><time>2026-05-01T22:09:07.000Z</time></trkpt>
        <trkpt lat="29.3320293" lon="105.2363107"><ele>314.89</ele><time>2026-05-01T22:09:11.000Z</time></trkpt>
        <trkpt lat="29.3320315" lon="105.2363622"><ele>315.06</ele><time>2026-05-01T22:09:17.000Z</time></trkpt>
        <trkpt lat="29.3320385" lon="105.2364306"><ele>315.17</ele><time>2026-05-01T22:09:23.000Z</time></trkpt>
        <trkpt lat="29.3320427" lon="105.2364905"><ele>314.97</ele><time>2026-05-01T22:09:27.000Z</time></trkpt>
        <trkpt lat="29.3320496" lon="105.2365603"><ele>314.68</ele><time>2026-05-01T22:09:35.000Z</time></trkpt>
        <trkpt lat="29.3320502" lon="105.2366288"><ele>313.83</ele><time>2026-05-01T22:09:39.000Z</time></trkpt>
        <trkpt lat="29.3320572" lon="105.2366863"><ele>313.13</ele><time>2026-05-01T22:09:47.000Z</time></trkpt>
        <trkpt lat="29.3320631" lon="105.2367459"><ele>312.6</ele><time>2026-05-01T22:09:53.000Z</time></trkpt>
        <trkpt lat="29.3320709" lon="105.2368005"><ele>312.47</ele><time>2026-05-01T22:10:13.000Z</time></trkpt>
        <trkpt lat="29.3321057" lon="105.2368371"><ele>312.35</ele><time>2026-05-01T22:10:17.000Z</time></trkpt>
        <trkpt lat="29.3321151" lon="105.2368825"><ele>312.5</ele><time>2026-05-01T22:10:25.000Z</time></trkpt>
        <trkpt lat="29.33212" lon="105.2369323"><ele>312.85</ele><time>2026-05-01T22:10:31.000Z</time></trkpt>
        <trkpt lat="29.3321175" lon="105.2370027"><ele>313.26</ele><time>2026-05-01T22:10:37.000Z</time></trkpt>
        <trkpt lat="29.3321292" lon="105.2370641"><ele>313.58</ele><time>2026-05-01T22:10:43.000Z</time></trkpt>
        <trkpt lat="29.3321655" lon="105.2371122"><ele>313.63</ele><time>2026-05-01T22:10:49.000Z</time></trkpt>
        <trkpt lat="29.3322017" lon="105.2371566"><ele>313.4</ele><time>2026-05-01T22:10:55.000Z</time></trkpt>
        <trkpt lat="29.33223" lon="105.2372128"><ele>313.1</ele><time>2026-05-01T22:11:01.000Z</time></trkpt>
        <trkpt lat="29.3322458" lon="105.2372714"><ele>312.88</ele><time>2026-05-01T22:11:07.000Z</time></trkpt>
        <trkpt lat="29.3322595" lon="105.2373292"><ele>312.72</ele><time>2026-05-01T22:11:13.000Z</time></trkpt>
        <trkpt lat="29.3322707" lon="105.237389"><ele>312.71</ele><time>2026-05-01T22:11:19.000Z</time></trkpt>
        <trkpt lat="29.3322789" lon="105.2374518"><ele>312.66</ele><time>2026-05-01T22:11:25.000Z</time></trkpt>
        <trkpt lat="29.3322889" lon="105.237513"><ele>312.77</ele><time>2026-05-01T22:11:31.000Z</time></trkpt>
        <trkpt lat="29.332295" lon="105.2375797"><ele>313.17</ele><time>2026-05-01T22:11:37.000Z</time></trkpt>
        <trkpt lat="29.3322934" lon="105.2376358"><ele>313.44</ele><time>2026-05-01T22:11:43.000Z</time></trkpt>
        <trkpt lat="29.3322993" lon="105.2376915"><ele>314.02</ele><time>2026-05-01T22:11:49.000Z</time></trkpt>
        <trkpt lat="29.3323148" lon="105.2377461"><ele>314.53</ele><time>2026-05-01T22:11:53.000Z</time></trkpt>
        <trkpt lat="29.3323262" lon="105.2377994"><ele>315.03</ele><time>2026-05-01T22:11:59.000Z</time></trkpt>
        <trkpt lat="29.3323317" lon="105.2378661"><ele>315.54</ele><time>2026-05-01T22:12:05.000Z</time></trkpt>
        <trkpt lat="29.332335" lon="105.2379291"><ele>315.78</ele><time>2026-05-01T22:12:11.000Z</time></trkpt>
        <trkpt lat="29.3323339" lon="105.2379952"><ele>315.74</ele><time>2026-05-01T22:12:21.000Z</time></trkpt>
        <trkpt lat="29.3323316" lon="105.2380572"><ele>315.12</ele><time>2026-05-01T22:12:25.000Z</time></trkpt>
        <trkpt lat="29.3323317" lon="105.2381125"><ele>314.38</ele><time>2026-05-01T22:12:31.000Z</time></trkpt>
        <trkpt lat="29.3323242" lon="105.2381767"><ele>313.92</ele><time>2026-05-01T22:12:37.000Z</time></trkpt>
        <trkpt lat="29.3323202" lon="105.2382358"><ele>313.78</ele><time>2026-05-01T22:12:43.000Z</time></trkpt>
        <trkpt lat="29.3323266" lon="105.2383016"><ele>313.49</ele><time>2026-05-01T22:13:01.000Z</time></trkpt>
        <trkpt lat="29.3323232" lon="105.2383699"><ele>313.71</ele><time>2026-05-01T22:13:07.000Z</time></trkpt>
        <trkpt lat="29.3323218" lon="105.2384351"><ele>314.05</ele><time>2026-05-01T22:13:13.000Z</time></trkpt>
        <trkpt lat="29.3323039" lon="105.2385014"><ele>314.41</ele><time>2026-05-01T22:13:19.000Z</time></trkpt>
        <trkpt lat="29.3322824" lon="105.2385668"><ele>314.88</ele><time>2026-05-01T22:13:25.000Z</time></trkpt>
        <trkpt lat="29.3322606" lon="105.2386281"><ele>315.32</ele><time>2026-05-01T22:13:33.000Z</time></trkpt>
        <trkpt lat="29.3322206" lon="105.2386754"><ele>315.57</ele><time>2026-05-01T22:13:39.000Z</time></trkpt>
        <trkpt lat="29.3321868" lon="105.2387203"><ele>315.45</ele><time>2026-05-01T22:13:45.000Z</time></trkpt>
        <trkpt lat="29.3321565" lon="105.2387703"><ele>314.83</ele><time>2026-05-01T22:13:51.000Z</time></trkpt>
        <trkpt lat="29.3321477" lon="105.2388264"><ele>314</ele><time>2026-05-01T22:13:57.000Z</time></trkpt>
        <trkpt lat="29.3321582" lon="105.2388886"><ele>313.57</ele><time>2026-05-01T22:14:03.000Z</time></trkpt>
        <trkpt lat="29.3321743" lon="105.2389465"><ele>313.45</ele><time>2026-05-01T22:14:09.000Z</time></trkpt>
        <trkpt lat="29.3321847" lon="105.2390023"><ele>313.43</ele><time>2026-05-01T22:14:15.000Z</time></trkpt>
        <trkpt lat="29.3321917" lon="105.2390635"><ele>313.2</ele><time>2026-05-01T22:14:21.000Z</time></trkpt>
        <trkpt lat="29.3321897" lon="105.2391231"><ele>313.03</ele><time>2026-05-01T22:14:27.000Z</time></trkpt>
        <trkpt lat="29.3321981" lon="105.2391856"><ele>313.02</ele><time>2026-05-01T22:14:35.000Z</time></trkpt>
        <trkpt lat="29.3322109" lon="105.2392416"><ele>313.14</ele><time>2026-05-01T22:14:41.000Z</time></trkpt>
        <trkpt lat="29.3322225" lon="105.2392975"><ele>313.25</ele><time>2026-05-01T22:14:47.000Z</time></trkpt>
        <trkpt lat="29.3322319" lon="105.2393562"><ele>313.49</ele><time>2026-05-01T22:14:53.000Z</time></trkpt>
        <trkpt lat="29.3322529" lon="105.239411"><ele>313.66</ele><time>2026-05-01T22:14:59.000Z</time></trkpt>
        <trkpt lat="29.332277" lon="105.2394731"><ele>313.81</ele><time>2026-05-01T22:15:07.000Z</time></trkpt>
        <trkpt lat="29.3323003" lon="105.2395306"><ele>313.93</ele><time>2026-05-01T22:15:13.000Z</time></trkpt>
        <trkpt lat="29.3323216" lon="105.2395885"><ele>313.79</ele><time>2026-05-01T22:15:19.000Z</time></trkpt>
        <trkpt lat="29.3323407" lon="105.2396479"><ele>313.49</ele><time>2026-05-01T22:15:25.000Z</time></trkpt>
        <trkpt lat="29.332354" lon="105.2397017"><ele>313.5</ele><time>2026-05-01T22:15:31.000Z</time></trkpt>
        <trkpt lat="29.3323715" lon="105.2397545"><ele>313.58</ele><time>2026-05-01T22:15:37.000Z</time></trkpt>
        <trkpt lat="29.3323909" lon="105.2398073"><ele>313.38</ele><time>2026-05-01T22:15:43.000Z</time></trkpt>
        <trkpt lat="29.3324085" lon="105.239859"><ele>313.26</ele><time>2026-05-01T22:15:49.000Z</time></trkpt>
        <trkpt lat="29.3324266" lon="105.239918"><ele>313.23</ele><time>2026-05-01T22:15:55.000Z</time></trkpt>
        <trkpt lat="29.3324437" lon="105.2399734"><ele>313.09</ele><time>2026-05-01T22:16:01.000Z</time></trkpt>
        <trkpt lat="29.3324616" lon="105.2400298"><ele>313.27</ele><time>2026-05-01T22:16:07.000Z</time></trkpt>
        <trkpt lat="29.3324773" lon="105.2400877"><ele>313.19</ele><time>2026-05-01T22:16:13.000Z</time></trkpt>
        <trkpt lat="29.3324923" lon="105.2401449"><ele>312.94</ele><time>2026-05-01T22:16:19.000Z</time></trkpt>
        <trkpt lat="29.3325108" lon="105.240203"><ele>312.79</ele><time>2026-05-01T22:16:25.000Z</time></trkpt>
        <trkpt lat="29.3325108" lon="105.240203"><ele>312.79</ele><time>2026-05-01T22:16:57.000Z</time></trkpt>
        <trkpt lat="29.3325617" lon="105.2403152"><ele>313.1</ele><time>2026-05-01T22:17:19.000Z</time></trkpt>
        <trkpt lat="29.3325617" lon="105.2403152"><ele>313.1</ele><time>2026-05-01T22:17:41.000Z</time></trkpt>
        <trkpt lat="29.33258" lon="105.2403679"><ele>313.87</ele><time>2026-05-01T22:17:47.000Z</time></trkpt>
        <trkpt lat="29.3325626" lon="105.2404169"><ele>314.49</ele><time>2026-05-01T22:17:51.000Z</time></trkpt>
        <trkpt lat="29.3325677" lon="105.2404672"><ele>315.01</ele><time>2026-05-01T22:17:59.000Z</time></trkpt>
        <trkpt lat="29.3325817" lon="105.2405159"><ele>315.35</ele><time>2026-05-01T22:18:05.000Z</time></trkpt>
        <trkpt lat="29.3325951" lon="105.240569"><ele>315.67</ele><time>2026-05-01T22:18:11.000Z</time></trkpt>
        <trkpt lat="29.332614" lon="105.2406189"><ele>315.77</ele><time>2026-05-01T22:18:15.000Z</time></trkpt>
        <trkpt lat="29.3326359" lon="105.2406912"><ele>315.83</ele><time>2026-05-01T22:18:23.000Z</time></trkpt>
        <trkpt lat="29.3326522" lon="105.2407668"><ele>315.17</ele><time>2026-05-01T22:18:31.000Z</time></trkpt>
        <trkpt lat="29.3326686" lon="105.2408386"><ele>314.49</ele><time>2026-05-01T22:18:39.000Z</time></trkpt>
        <trkpt lat="29.3326926" lon="105.2409008"><ele>313.72</ele><time>2026-05-01T22:18:43.000Z</time></trkpt>
        <trkpt lat="29.332717" lon="105.2409655"><ele>313.02</ele><time>2026-05-01T22:18:51.000Z</time></trkpt>
        <trkpt lat="29.332736" lon="105.2410227"><ele>312.54</ele><time>2026-05-01T22:18:57.000Z</time></trkpt>
        <trkpt lat="29.3327517" lon="105.2410848"><ele>312.27</ele><time>2026-05-01T22:19:03.000Z</time></trkpt>
        <trkpt lat="29.3327725" lon="105.2411392"><ele>312.62</ele><time>2026-05-01T22:19:09.000Z</time></trkpt>
        <trkpt lat="29.3327943" lon="105.2411919"><ele>313.26</ele><time>2026-05-01T22:19:15.000Z</time></trkpt>
        <trkpt lat="29.3328162" lon="105.2412481"><ele>313.53</ele><time>2026-05-01T22:19:21.000Z</time></trkpt>
        <trkpt lat="29.3328343" lon="105.2413085"><ele>313.39</ele><time>2026-05-01T22:19:41.000Z</time></trkpt>
        <trkpt lat="29.3328485" lon="105.2413666"><ele>313.09</ele><time>2026-05-01T22:19:53.000Z</time></trkpt>
        <trkpt lat="29.3328702" lon="105.2414262"><ele>313.1</ele><time>2026-05-01T22:20:01.000Z</time></trkpt>
        <trkpt lat="29.3328911" lon="105.24148"><ele>312.88</ele><time>2026-05-01T22:20:07.000Z</time></trkpt>
        <trkpt lat="29.3329103" lon="105.2415291"><ele>312.24</ele><time>2026-05-01T22:20:13.000Z</time></trkpt>
        <trkpt lat="29.332925" lon="105.241578"><ele>311.97</ele><time>2026-05-01T22:20:19.000Z</time></trkpt>
        <trkpt lat="29.3329456" lon="105.2416298"><ele>311.9</ele><time>2026-05-01T22:20:25.000Z</time></trkpt>
        <trkpt lat="29.3329486" lon="105.2416815"><ele>312.03</ele><time>2026-05-01T22:20:37.000Z</time></trkpt>
        <trkpt lat="29.3329437" lon="105.241742"><ele>311.97</ele><time>2026-05-01T22:20:49.000Z</time></trkpt>
        <trkpt lat="29.3329193" lon="105.2417894"><ele>312.11</ele><time>2026-05-01T22:20:55.000Z</time></trkpt>
        <trkpt lat="29.3328912" lon="105.2418391"><ele>312.11</ele><time>2026-05-01T22:21:01.000Z</time></trkpt>
        <trkpt lat="29.332857" lon="105.2418975"><ele>312.1</ele><time>2026-05-01T22:21:09.000Z</time></trkpt>
        <trkpt lat="29.3328366" lon="105.2419542"><ele>312.23</ele><time>2026-05-01T22:21:15.000Z</time></trkpt>
        <trkpt lat="29.3328146" lon="105.2420037"><ele>312.26</ele><time>2026-05-01T22:21:21.000Z</time></trkpt>
        <trkpt lat="29.3327942" lon="105.2420516"><ele>312.54</ele><time>2026-05-01T22:21:27.000Z</time></trkpt>
        <trkpt lat="29.3327694" lon="105.2421055"><ele>312.82</ele><time>2026-05-01T22:21:33.000Z</time></trkpt>
        <trkpt lat="29.3327453" lon="105.2421619"><ele>313.41</ele><time>2026-05-01T22:21:41.000Z</time></trkpt>
        <trkpt lat="29.3327104" lon="105.2422015"><ele>314.14</ele><time>2026-05-01T22:21:47.000Z</time></trkpt>
        <trkpt lat="29.3326766" lon="105.2422422"><ele>314.94</ele><time>2026-05-01T22:21:51.000Z</time></trkpt>
        <trkpt lat="29.3326476" lon="105.2422891"><ele>315.74</ele><time>2026-05-01T22:21:57.000Z</time></trkpt>
        <trkpt lat="29.3326194" lon="105.2423387"><ele>316.54</ele><time>2026-05-01T22:22:01.000Z</time></trkpt>
        <trkpt lat="29.332585" lon="105.2423953"><ele>317.25</ele><time>2026-05-01T22:22:09.000Z</time></trkpt>
        <trkpt lat="29.3325533" lon="105.2424518"><ele>317.66</ele><time>2026-05-01T22:22:15.000Z</time></trkpt>
        <trkpt lat="29.3325254" lon="105.2425089"><ele>317.85</ele><time>2026-05-01T22:22:21.000Z</time></trkpt>
        <trkpt lat="29.3324964" lon="105.2425749"><ele>317.96</ele><time>2026-05-01T22:22:27.000Z</time></trkpt>
        <trkpt lat="29.3324767" lon="105.2426376"><ele>317.8</ele><time>2026-05-01T22:22:33.000Z</time></trkpt>
        <trkpt lat="29.3324555" lon="105.2426973"><ele>317.72</ele><time>2026-05-01T22:22:39.000Z</time></trkpt>
        <trkpt lat="29.3324368" lon="105.242767"><ele>318.14</ele><time>2026-05-01T22:22:47.000Z</time></trkpt>
        <trkpt lat="29.3324252" lon="105.2428255"><ele>318.68</ele><time>2026-05-01T22:22:51.000Z</time></trkpt>
        <trkpt lat="29.3324046" lon="105.2428868"><ele>319.16</ele><time>2026-05-01T22:22:57.000Z</time></trkpt>
        <trkpt lat="29.3323903" lon="105.2429496"><ele>319.57</ele><time>2026-05-01T22:23:05.000Z</time></trkpt>
        <trkpt lat="29.3323634" lon="105.2430004"><ele>319.8</ele><time>2026-05-01T22:23:11.000Z</time></trkpt>
        <trkpt lat="29.332333" lon="105.2430493"><ele>320.36</ele><time>2026-05-01T22:23:17.000Z</time></trkpt>
        <trkpt lat="29.3323031" lon="105.2430956"><ele>321.19</ele><time>2026-05-01T22:23:21.000Z</time></trkpt>
        <trkpt lat="29.3322688" lon="105.2431526"><ele>321.84</ele><time>2026-05-01T22:23:27.000Z</time></trkpt>
        <trkpt lat="29.3322345" lon="105.2432002"><ele>322.51</ele><time>2026-05-01T22:23:33.000Z</time></trkpt>
        <trkpt lat="29.3321993" lon="105.2432452"><ele>322.55</ele><time>2026-05-01T22:23:39.000Z</time></trkpt>
        <trkpt lat="29.3321676" lon="105.2432945"><ele>322.44</ele><time>2026-05-01T22:23:43.000Z</time></trkpt>
        <trkpt lat="29.3321375" lon="105.2433483"><ele>322.34</ele><time>2026-05-01T22:23:49.000Z</time></trkpt>
        <trkpt lat="29.3321178" lon="105.2434023"><ele>322.67</ele><time>2026-05-01T22:23:53.000Z</time></trkpt>
        <trkpt lat="29.3320892" lon="105.2434487"><ele>323.15</ele><time>2026-05-01T22:23:59.000Z</time></trkpt>
        <trkpt lat="29.3320567" lon="105.2435058"><ele>323.99</ele><time>2026-05-01T22:24:05.000Z</time></trkpt>
        <trkpt lat="29.3320318" lon="105.2435622"><ele>325.16</ele><time>2026-05-01T22:24:09.000Z</time></trkpt>
        <trkpt lat="29.3319961" lon="105.2436155"><ele>326.29</ele><time>2026-05-01T22:24:17.000Z</time></trkpt>
        <trkpt lat="29.3319624" lon="105.2436573"><ele>327.46</ele><time>2026-05-01T22:24:21.000Z</time></trkpt>
        <trkpt lat="29.3319275" lon="105.2436989"><ele>328.29</ele><time>2026-05-01T22:24:27.000Z</time></trkpt>
        <trkpt lat="29.3318897" lon="105.2437385"><ele>329.2</ele><time>2026-05-01T22:24:31.000Z</time></trkpt>
        <trkpt lat="29.331846" lon="105.2437865"><ele>329.76</ele><time>2026-05-01T22:24:39.000Z</time></trkpt>
        <trkpt lat="29.3318092" lon="105.2438304"><ele>330.21</ele><time>2026-05-01T22:24:43.000Z</time></trkpt>
        <trkpt lat="29.3317803" lon="105.2438787"><ele>330.72</ele><time>2026-05-01T22:24:49.000Z</time></trkpt>
        <trkpt lat="29.3317579" lon="105.24393"><ele>331.14</ele><time>2026-05-01T22:24:53.000Z</time></trkpt>
        <trkpt lat="29.3317198" lon="105.2439784"><ele>331.34</ele><time>2026-05-01T22:25:01.000Z</time></trkpt>
        <trkpt lat="29.331678" lon="105.2440205"><ele>331.41</ele><time>2026-05-01T22:25:07.000Z</time></trkpt>
        <trkpt lat="29.3316302" lon="105.2440715"><ele>330.85</ele><time>2026-05-01T22:25:13.000Z</time></trkpt>
        <trkpt lat="29.3315845" lon="105.2441224"><ele>329.66</ele><time>2026-05-01T22:25:19.000Z</time></trkpt>
        <trkpt lat="29.3315514" lon="105.2441705"><ele>328.69</ele><time>2026-05-01T22:25:25.000Z</time></trkpt>
        <trkpt lat="29.3315207" lon="105.2442098"><ele>328.18</ele><time>2026-05-01T22:25:29.000Z</time></trkpt>
        <trkpt lat="29.3314852" lon="105.244246"><ele>327.8</ele><time>2026-05-01T22:25:35.000Z</time></trkpt>
        <trkpt lat="29.3314525" lon="105.2442829"><ele>327.24</ele><time>2026-05-01T22:25:41.000Z</time></trkpt>
        <trkpt lat="29.3314209" lon="105.2443304"><ele>326.45</ele><time>2026-05-01T22:25:57.000Z</time></trkpt>
        <trkpt lat="29.3313958" lon="105.2443771"><ele>325.4</ele><time>2026-05-01T22:26:03.000Z</time></trkpt>
        <trkpt lat="29.3313629" lon="105.2444217"><ele>324.75</ele><time>2026-05-01T22:26:09.000Z</time></trkpt>
        <trkpt lat="29.3313267" lon="105.2444566"><ele>324.73</ele><time>2026-05-01T22:26:13.000Z</time></trkpt>
        <trkpt lat="29.3312983" lon="105.2444979"><ele>325.1</ele><time>2026-05-01T22:26:19.000Z</time></trkpt>
        <trkpt lat="29.3312593" lon="105.2445559"><ele>325.4</ele><time>2026-05-01T22:26:25.000Z</time></trkpt>
        <trkpt lat="29.3312136" lon="105.2445987"><ele>325.01</ele><time>2026-05-01T22:26:31.000Z</time></trkpt>
        <trkpt lat="29.3311659" lon="105.2446048"><ele>324.49</ele><time>2026-05-01T22:26:37.000Z</time></trkpt>
        <trkpt lat="29.3311659" lon="105.2446048"><ele>324.49</ele><time>2026-05-01T22:27:03.000Z</time></trkpt>
        <trkpt lat="29.3311683" lon="105.2446433"><ele>324.28</ele><time>2026-05-01T22:27:41.000Z</time></trkpt>
        <trkpt lat="29.3311683" lon="105.2446433"><ele>324.28</ele><time>2026-05-01T22:27:47.000Z</time></trkpt>
        <trkpt lat="29.3311383" lon="105.24469"><ele>323.73</ele><time>2026-05-01T22:27:51.000Z</time></trkpt>
        <trkpt lat="29.3311196" lon="105.2447381"><ele>323.54</ele><time>2026-05-01T22:27:57.000Z</time></trkpt>
        <trkpt lat="29.3310977" lon="105.2447993"><ele>323.48</ele><time>2026-05-01T22:28:03.000Z</time></trkpt>
        <trkpt lat="29.3310787" lon="105.2448721"><ele>323.88</ele><time>2026-05-01T22:28:11.000Z</time></trkpt>
        <trkpt lat="29.3310694" lon="105.2449349"><ele>324.7</ele><time>2026-05-01T22:28:15.000Z</time></trkpt>
        <trkpt lat="29.331071" lon="105.2449894"><ele>325.22</ele><time>2026-05-01T22:28:19.000Z</time></trkpt>
        <trkpt lat="29.3310746" lon="105.2450408"><ele>325.25</ele><time>2026-05-01T22:28:25.000Z</time></trkpt>
        <trkpt lat="29.3310781" lon="105.2450915"><ele>325.53</ele><time>2026-05-01T22:28:29.000Z</time></trkpt>
        <trkpt lat="29.3310759" lon="105.2451562"><ele>325.99</ele><time>2026-05-01T22:28:33.000Z</time></trkpt>
        <trkpt lat="29.3310788" lon="105.2452137"><ele>326.21</ele><time>2026-05-01T22:28:37.000Z</time></trkpt>
        <trkpt lat="29.3311012" lon="105.2452742"><ele>326.21</ele><time>2026-05-01T22:28:45.000Z</time></trkpt>
        <trkpt lat="29.3311193" lon="105.2453283"><ele>326.12</ele><time>2026-05-01T22:28:49.000Z</time></trkpt>
        <trkpt lat="29.3311334" lon="105.2453888"><ele>326.02</ele><time>2026-05-01T22:28:55.000Z</time></trkpt>
        <trkpt lat="29.3311532" lon="105.2454581"><ele>326.19</ele><time>2026-05-01T22:29:01.000Z</time></trkpt>
        <trkpt lat="29.3311675" lon="105.2455304"><ele>326.36</ele><time>2026-05-01T22:29:05.000Z</time></trkpt>
        <trkpt lat="29.3311883" lon="105.2455933"><ele>326.38</ele><time>2026-05-01T22:29:09.000Z</time></trkpt>
        <trkpt lat="29.3312341" lon="105.2456158"><ele>326.65</ele><time>2026-05-01T22:29:17.000Z</time></trkpt>
        <trkpt lat="29.3312901" lon="105.2456227"><ele>326.88</ele><time>2026-05-01T22:29:23.000Z</time></trkpt>
        <trkpt lat="29.331347" lon="105.2456199"><ele>326.81</ele><time>2026-05-01T22:29:29.000Z</time></trkpt>
        <trkpt lat="29.3314129" lon="105.2456145"><ele>326.59</ele><time>2026-05-01T22:29:35.000Z</time></trkpt>
        <trkpt lat="29.3314713" lon="105.2456222"><ele>325.95</ele><time>2026-05-01T22:29:39.000Z</time></trkpt>
        <trkpt lat="29.3315272" lon="105.2456333"><ele>325.2</ele><time>2026-05-01T22:29:43.000Z</time></trkpt>
        <trkpt lat="29.3315835" lon="105.2456492"><ele>324.34</ele><time>2026-05-01T22:29:47.000Z</time></trkpt>
        <trkpt lat="29.3316413" lon="105.2456615"><ele>323.85</ele><time>2026-05-01T22:29:53.000Z</time></trkpt>
        <trkpt lat="29.3316984" lon="105.2456747"><ele>323.78</ele><time>2026-05-01T22:29:59.000Z</time></trkpt>
        <trkpt lat="29.3317551" lon="105.2457006"><ele>324.18</ele><time>2026-05-01T22:30:05.000Z</time></trkpt>
        <trkpt lat="29.3318068" lon="105.2457386"><ele>324.27</ele><time>2026-05-01T22:30:11.000Z</time></trkpt>
        <trkpt lat="29.3318515" lon="105.2457892"><ele>323.42</ele><time>2026-05-01T22:30:17.000Z</time></trkpt>
        <trkpt lat="29.3318828" lon="105.2458419"><ele>321.87</ele><time>2026-05-01T22:30:21.000Z</time></trkpt>
        <trkpt lat="29.331916" lon="105.2458955"><ele>320.63</ele><time>2026-05-01T22:30:27.000Z</time></trkpt>
        <trkpt lat="29.3319609" lon="105.2459462"><ele>320.02</ele><time>2026-05-01T22:30:35.000Z</time></trkpt>
        <trkpt lat="29.3319929" lon="105.2459978"><ele>319.79</ele><time>2026-05-01T22:30:39.000Z</time></trkpt>
        <trkpt lat="29.3320212" lon="105.2460509"><ele>319.67</ele><time>2026-05-01T22:30:43.000Z</time></trkpt>
        <trkpt lat="29.3320272" lon="105.2461107"><ele>319.47</ele><time>2026-05-01T22:30:57.000Z</time></trkpt>
        <trkpt lat="29.3320531" lon="105.2461628"><ele>319.05</ele><time>2026-05-01T22:31:03.000Z</time></trkpt>
        <trkpt lat="29.3320978" lon="105.2462054"><ele>318.25</ele><time>2026-05-01T22:31:09.000Z</time></trkpt>
        <trkpt lat="29.332154" lon="105.2462159"><ele>317.41</ele><time>2026-05-01T22:31:13.000Z</time></trkpt>
        <trkpt lat="29.3322133" lon="105.2462129"><ele>316.85</ele><time>2026-05-01T22:31:17.000Z</time></trkpt>
        <trkpt lat="29.3322674" lon="105.2462194"><ele>316.4</ele><time>2026-05-01T22:31:23.000Z</time></trkpt>
        <trkpt lat="29.3323187" lon="105.2462238"><ele>315.62</ele><time>2026-05-01T22:31:29.000Z</time></trkpt>
        <trkpt lat="29.3323752" lon="105.2462342"><ele>315.05</ele><time>2026-05-01T22:31:35.000Z</time></trkpt>
        <trkpt lat="29.3324386" lon="105.2462421"><ele>314.99</ele><time>2026-05-01T22:31:41.000Z</time></trkpt>
        <trkpt lat="29.3325093" lon="105.2462426"><ele>315.55</ele><time>2026-05-01T22:31:47.000Z</time></trkpt>
        <trkpt lat="29.3325671" lon="105.2462393"><ele>316.3</ele><time>2026-05-01T22:31:51.000Z</time></trkpt>
        <trkpt lat="29.3326108" lon="105.2462576"><ele>316.86</ele><time>2026-05-01T22:31:55.000Z</time></trkpt>
        <trkpt lat="29.3326609" lon="105.2462742"><ele>317.09</ele><time>2026-05-01T22:32:01.000Z</time></trkpt>
        <trkpt lat="29.3327069" lon="105.2462867"><ele>317.23</ele><time>2026-05-01T22:32:05.000Z</time></trkpt>
        <trkpt lat="29.3327665" lon="105.2462961"><ele>317.34</ele><time>2026-05-01T22:32:11.000Z</time></trkpt>
        <trkpt lat="29.3328151" lon="105.2463118"><ele>317.28</ele><time>2026-05-01T22:32:17.000Z</time></trkpt>
        <trkpt lat="29.3328729" lon="105.24633"><ele>317.12</ele><time>2026-05-01T22:32:23.000Z</time></trkpt>
        <trkpt lat="29.3329231" lon="105.2463564"><ele>316.98</ele><time>2026-05-01T22:32:27.000Z</time></trkpt>
        <trkpt lat="29.3329714" lon="105.2463868"><ele>316.82</ele><time>2026-05-01T22:32:31.000Z</time></trkpt>
        <trkpt lat="29.333018" lon="105.246413"><ele>316.59</ele><time>2026-05-01T22:32:35.000Z</time></trkpt>
        <trkpt lat="29.3330641" lon="105.2464347"><ele>316.64</ele><time>2026-05-01T22:32:41.000Z</time></trkpt>
        <trkpt lat="29.3331117" lon="105.2464609"><ele>317.01</ele><time>2026-05-01T22:32:45.000Z</time></trkpt>
        <trkpt lat="29.333161" lon="105.2464865"><ele>317.44</ele><time>2026-05-01T22:32:51.000Z</time></trkpt>
        <trkpt lat="29.3332186" lon="105.2465067"><ele>318.28</ele><time>2026-05-01T22:32:57.000Z</time></trkpt>
        <trkpt lat="29.3332829" lon="105.2465274"><ele>319.58</ele><time>2026-05-01T22:33:03.000Z</time></trkpt>
        <trkpt lat="29.3333315" lon="105.2465486"><ele>320.79</ele><time>2026-05-01T22:33:07.000Z</time></trkpt>
        <trkpt lat="29.33339" lon="105.2465713"><ele>321.7</ele><time>2026-05-01T22:33:13.000Z</time></trkpt>
        <trkpt lat="29.3334365" lon="105.2466021"><ele>322.17</ele><time>2026-05-01T22:33:17.000Z</time></trkpt>
        <trkpt lat="29.333477" lon="105.2466308"><ele>322.18</ele><time>2026-05-01T22:33:21.000Z</time></trkpt>
        <trkpt lat="29.3335296" lon="105.246652"><ele>321.93</ele><time>2026-05-01T22:33:27.000Z</time></trkpt>
        <trkpt lat="29.3335835" lon="105.2466704"><ele>321.79</ele><time>2026-05-01T22:33:35.000Z</time></trkpt>
        <trkpt lat="29.3336325" lon="105.2466842"><ele>321.97</ele><time>2026-05-01T22:33:39.000Z</time></trkpt>
        <trkpt lat="29.3336807" lon="105.2467143"><ele>322.63</ele><time>2026-05-01T22:33:43.000Z</time></trkpt>
        <trkpt lat="29.3337275" lon="105.2467395"><ele>323</ele><time>2026-05-01T22:33:47.000Z</time></trkpt>
        <trkpt lat="29.3337789" lon="105.246771"><ele>323</ele><time>2026-05-01T22:33:53.000Z</time></trkpt>
        <trkpt lat="29.3338246" lon="105.2468022"><ele>323.04</ele><time>2026-05-01T22:33:59.000Z</time></trkpt>
        <trkpt lat="29.3338543" lon="105.2468492"><ele>322.94</ele><time>2026-05-01T22:34:03.000Z</time></trkpt>
        <trkpt lat="29.3338671" lon="105.246908"><ele>323.01</ele><time>2026-05-01T22:34:07.000Z</time></trkpt>
        <trkpt lat="29.3338622" lon="105.2469752"><ele>322.96</ele><time>2026-05-01T22:34:11.000Z</time></trkpt>
        <trkpt lat="29.333846" lon="105.2470505"><ele>322.72</ele><time>2026-05-01T22:34:17.000Z</time></trkpt>
        <trkpt lat="29.3338236" lon="105.247109"><ele>322.28</ele><time>2026-05-01T22:34:21.000Z</time></trkpt>
        <trkpt lat="29.3337968" lon="105.2471578"><ele>321.64</ele><time>2026-05-01T22:34:27.000Z</time></trkpt>
        <trkpt lat="29.3337683" lon="105.2472209"><ele>320.85</ele><time>2026-05-01T22:34:33.000Z</time></trkpt>
        <trkpt lat="29.33375" lon="105.2472876"><ele>320.53</ele><time>2026-05-01T22:34:39.000Z</time></trkpt>
        <trkpt lat="29.3337323" lon="105.2473501"><ele>320.21</ele><time>2026-05-01T22:34:45.000Z</time></trkpt>
        <trkpt lat="29.3337195" lon="105.2474232"><ele>319.52</ele><time>2026-05-01T22:34:51.000Z</time></trkpt>
        <trkpt lat="29.3337158" lon="105.2474852"><ele>318.65</ele><time>2026-05-01T22:34:55.000Z</time></trkpt>
        <trkpt lat="29.3337214" lon="105.2475475"><ele>318.11</ele><time>2026-05-01T22:35:01.000Z</time></trkpt>
        <trkpt lat="29.3337347" lon="105.2476116"><ele>317.98</ele><time>2026-05-01T22:35:07.000Z</time></trkpt>
        <trkpt lat="29.3337436" lon="105.2476676"><ele>318.03</ele><time>2026-05-01T22:35:11.000Z</time></trkpt>
        <trkpt lat="29.3337613" lon="105.2477207"><ele>317.76</ele><time>2026-05-01T22:35:15.000Z</time></trkpt>
        <trkpt lat="29.3337746" lon="105.2477806"><ele>317.69</ele><time>2026-05-01T22:35:21.000Z</time></trkpt>
        <trkpt lat="29.3337793" lon="105.2478548"><ele>317.82</ele><time>2026-05-01T22:35:27.000Z</time></trkpt>
        <trkpt lat="29.3337732" lon="105.2479226"><ele>318.24</ele><time>2026-05-01T22:35:33.000Z</time></trkpt>
        <trkpt lat="29.3337625" lon="105.2479974"><ele>318.7</ele><time>2026-05-01T22:35:39.000Z</time></trkpt>
        <trkpt lat="29.3337408" lon="105.2480557"><ele>319.34</ele><time>2026-05-01T22:35:43.000Z</time></trkpt>
        <trkpt lat="29.3337209" lon="105.2481114"><ele>319.76</ele><time>2026-05-01T22:35:51.000Z</time></trkpt>
        <trkpt lat="29.3336925" lon="105.2481792"><ele>320.29</ele><time>2026-05-01T22:35:57.000Z</time></trkpt>
        <trkpt lat="29.3336602" lon="105.2482408"><ele>320.94</ele><time>2026-05-01T22:36:01.000Z</time></trkpt>
        <trkpt lat="29.3336334" lon="105.2482896"><ele>321.18</ele><time>2026-05-01T22:36:05.000Z</time></trkpt>
        <trkpt lat="29.3336067" lon="105.2483427"><ele>321.45</ele><time>2026-05-01T22:36:11.000Z</time></trkpt>
        <trkpt lat="29.333575" lon="105.2483919"><ele>322.2</ele><time>2026-05-01T22:36:17.000Z</time></trkpt>
        <trkpt lat="29.333544" lon="105.2484397"><ele>323.02</ele><time>2026-05-01T22:36:21.000Z</time></trkpt>
        <trkpt lat="29.3335148" lon="105.2484825"><ele>323.78</ele><time>2026-05-01T22:36:25.000Z</time></trkpt>
        <trkpt lat="29.33349" lon="105.2485348"><ele>324.65</ele><time>2026-05-01T22:36:31.000Z</time></trkpt>
        <trkpt lat="29.3334632" lon="105.248596"><ele>325.45</ele><time>2026-05-01T22:36:37.000Z</time></trkpt>
        <trkpt lat="29.333439" lon="105.248649"><ele>325.99</ele><time>2026-05-01T22:36:41.000Z</time></trkpt>
        <trkpt lat="29.3334121" lon="105.2486932"><ele>325.95</ele><time>2026-05-01T22:36:45.000Z</time></trkpt>
        <trkpt lat="29.3333839" lon="105.2487494"><ele>325.76</ele><time>2026-05-01T22:36:51.000Z</time></trkpt>
        <trkpt lat="29.3333579" lon="105.2488168"><ele>325.3</ele><time>2026-05-01T22:36:57.000Z</time></trkpt>
        <trkpt lat="29.3333416" lon="105.2488778"><ele>324.48</ele><time>2026-05-01T22:37:01.000Z</time></trkpt>
        <trkpt lat="29.3333225" lon="105.2489445"><ele>323.72</ele><time>2026-05-01T22:37:07.000Z</time></trkpt>
        <trkpt lat="29.3332829" lon="105.2489994"><ele>323.54</ele><time>2026-05-01T22:37:15.000Z</time></trkpt>
        <trkpt lat="29.3332621" lon="105.2490509"><ele>324.08</ele><time>2026-05-01T22:37:19.000Z</time></trkpt>
        <trkpt lat="29.3332542" lon="105.2491079"><ele>324.69</ele><time>2026-05-01T22:37:23.000Z</time></trkpt>
        <trkpt lat="29.3332555" lon="105.2491723"><ele>325.21</ele><time>2026-05-01T22:37:27.000Z</time></trkpt>
        <trkpt lat="29.3332693" lon="105.2492331"><ele>325.64</ele><time>2026-05-01T22:37:31.000Z</time></trkpt>
        <trkpt lat="29.3332778" lon="105.2492934"><ele>325.84</ele><time>2026-05-01T22:37:37.000Z</time></trkpt>
        <trkpt lat="29.3332982" lon="105.2493559"><ele>325.78</ele><time>2026-05-01T22:37:43.000Z</time></trkpt>
        <trkpt lat="29.3333164" lon="105.2494231"><ele>325.4</ele><time>2026-05-01T22:37:49.000Z</time></trkpt>
        <trkpt lat="29.3333266" lon="105.2494805"><ele>324.97</ele><time>2026-05-01T22:37:53.000Z</time></trkpt>
        <trkpt lat="29.3333486" lon="105.2495391"><ele>324.42</ele><time>2026-05-01T22:37:59.000Z</time></trkpt>
        <trkpt lat="29.3333902" lon="105.2495947"><ele>323.73</ele><time>2026-05-01T22:38:05.000Z</time></trkpt>
        <trkpt lat="29.3334385" lon="105.2496118"><ele>323.2</ele><time>2026-05-01T22:38:11.000Z</time></trkpt>
        <trkpt lat="29.3334929" lon="105.2496088"><ele>322.81</ele><time>2026-05-01T22:38:17.000Z</time></trkpt>
        <trkpt lat="29.3335396" lon="105.2495869"><ele>322.63</ele><time>2026-05-01T22:38:21.000Z</time></trkpt>
        <trkpt lat="29.3335839" lon="105.2495579"><ele>322.58</ele><time>2026-05-01T22:38:25.000Z</time></trkpt>
        <trkpt lat="29.3336311" lon="105.2495323"><ele>322.29</ele><time>2026-05-01T22:38:29.000Z</time></trkpt>
        <trkpt lat="29.3336818" lon="105.2495057"><ele>322.03</ele><time>2026-05-01T22:38:35.000Z</time></trkpt>
        <trkpt lat="29.3337325" lon="105.249487"><ele>321.37</ele><time>2026-05-01T22:38:39.000Z</time></trkpt>
        <trkpt lat="29.3337855" lon="105.2494653"><ele>320.52</ele><time>2026-05-01T22:38:43.000Z</time></trkpt>
        <trkpt lat="29.3338354" lon="105.2494322"><ele>319.95</ele><time>2026-05-01T22:38:49.000Z</time></trkpt>
        <trkpt lat="29.3338815" lon="105.2493851"><ele>320.1</ele><time>2026-05-01T22:38:55.000Z</time></trkpt>
        <trkpt lat="29.3339387" lon="105.2493434"><ele>320.75</ele><time>2026-05-01T22:39:01.000Z</time></trkpt>
        <trkpt lat="29.3340029" lon="105.2493212"><ele>321.2</ele><time>2026-05-01T22:39:05.000Z</time></trkpt>
        <trkpt lat="29.3340527" lon="105.2493026"><ele>321.67</ele><time>2026-05-01T22:39:09.000Z</time></trkpt>
        <trkpt lat="29.3341005" lon="105.2492781"><ele>322.07</ele><time>2026-05-01T22:39:15.000Z</time></trkpt>
        <trkpt lat="29.3341529" lon="105.2492483"><ele>322.94</ele><time>2026-05-01T22:39:21.000Z</time></trkpt>
        <trkpt lat="29.3342074" lon="105.249219"><ele>323.74</ele><time>2026-05-01T22:39:27.000Z</time></trkpt>
        <trkpt lat="29.3342701" lon="105.2491965"><ele>324.54</ele><time>2026-05-01T22:39:33.000Z</time></trkpt>
        <trkpt lat="29.3343269" lon="105.2491853"><ele>325.25</ele><time>2026-05-01T22:39:37.000Z</time></trkpt>
        <trkpt lat="29.3343798" lon="105.2491691"><ele>325.7</ele><time>2026-05-01T22:39:41.000Z</time></trkpt>
        <trkpt lat="29.33443" lon="105.2491604"><ele>326.05</ele><time>2026-05-01T22:39:45.000Z</time></trkpt>
        <trkpt lat="29.3344807" lon="105.2491693"><ele>326.46</ele><time>2026-05-01T22:39:49.000Z</time></trkpt>
        <trkpt lat="29.3345281" lon="105.2491741"><ele>326.99</ele><time>2026-05-01T22:39:53.000Z</time></trkpt>
        <trkpt lat="29.3345732" lon="105.2491887"><ele>327.17</ele><time>2026-05-01T22:39:59.000Z</time></trkpt>
        <trkpt lat="29.3346352" lon="105.2492065"><ele>326.75</ele><time>2026-05-01T22:40:05.000Z</time></trkpt>
        <trkpt lat="29.3347024" lon="105.2492247"><ele>325.95</ele><time>2026-05-01T22:40:09.000Z</time></trkpt>
        <trkpt lat="29.3347532" lon="105.2492487"><ele>325.54</ele><time>2026-05-01T22:40:13.000Z</time></trkpt>
        <trkpt lat="29.334806" lon="105.2492745"><ele>325.31</ele><time>2026-05-01T22:40:19.000Z</time></trkpt>
        <trkpt lat="29.3348639" lon="105.2493092"><ele>325.26</ele><time>2026-05-01T22:40:25.000Z</time></trkpt>
        <trkpt lat="29.33492" lon="105.2493418"><ele>324.68</ele><time>2026-05-01T22:40:31.000Z</time></trkpt>
        <trkpt lat="29.3349703" lon="105.2493705"><ele>324.04</ele><time>2026-05-01T22:40:35.000Z</time></trkpt>
        <trkpt lat="29.3350146" lon="105.2494"><ele>323.64</ele><time>2026-05-01T22:40:39.000Z</time></trkpt>
        <trkpt lat="29.3350509" lon="105.2494424"><ele>323.53</ele><time>2026-05-01T22:40:45.000Z</time></trkpt>
        <trkpt lat="29.3350772" lon="105.2494883"><ele>323.56</ele><time>2026-05-01T22:40:51.000Z</time></trkpt>
        <trkpt lat="29.3351018" lon="105.2495535"><ele>323.79</ele><time>2026-05-01T22:40:57.000Z</time></trkpt>
        <trkpt lat="29.3351055" lon="105.2496289"><ele>323.67</ele><time>2026-05-01T22:41:01.000Z</time></trkpt>
        <trkpt lat="29.3350958" lon="105.2496892"><ele>323.51</ele><time>2026-05-01T22:41:05.000Z</time></trkpt>
        <trkpt lat="29.3350889" lon="105.2497565"><ele>323.38</ele><time>2026-05-01T22:41:11.000Z</time></trkpt>
        <trkpt lat="29.3350883" lon="105.2498327"><ele>322.83</ele><time>2026-05-01T22:41:17.000Z</time></trkpt>
        <trkpt lat="29.3350869" lon="105.2498994"><ele>321.91</ele><time>2026-05-01T22:41:21.000Z</time></trkpt>
        <trkpt lat="29.3350827" lon="105.2499607"><ele>321.13</ele><time>2026-05-01T22:41:25.000Z</time></trkpt>
        <trkpt lat="29.3350725" lon="105.2500252"><ele>320.43</ele><time>2026-05-01T22:41:31.000Z</time></trkpt>
        <trkpt lat="29.3350616" lon="105.2500812"><ele>319.94</ele><time>2026-05-01T22:41:37.000Z</time></trkpt>
        <trkpt lat="29.335042" lon="105.2501467"><ele>319.84</ele><time>2026-05-01T22:41:43.000Z</time></trkpt>
        <trkpt lat="29.3350183" lon="105.2502087"><ele>319.95</ele><time>2026-05-01T22:41:47.000Z</time></trkpt>
        <trkpt lat="29.3350088" lon="105.2502628"><ele>320.02</ele><time>2026-05-01T22:41:51.000Z</time></trkpt>
        <trkpt lat="29.3349924" lon="105.2503228"><ele>319.84</ele><time>2026-05-01T22:41:57.000Z</time></trkpt>
        <trkpt lat="29.334968" lon="105.2503768"><ele>319.56</ele><time>2026-05-01T22:42:03.000Z</time></trkpt>
        <trkpt lat="29.3349434" lon="105.2504346"><ele>319.79</ele><time>2026-05-01T22:42:09.000Z</time></trkpt>
        <trkpt lat="29.3349241" lon="105.2505043"><ele>319.88</ele><time>2026-05-01T22:42:15.000Z</time></trkpt>
        <trkpt lat="29.3349134" lon="105.2505794"><ele>319.59</ele><time>2026-05-01T22:42:21.000Z</time></trkpt>
        <trkpt lat="29.3349106" lon="105.2506533"><ele>319.46</ele><time>2026-05-01T22:42:27.000Z</time></trkpt>
        <trkpt lat="29.3348939" lon="105.2507161"><ele>319.82</ele><time>2026-05-01T22:42:33.000Z</time></trkpt>
        <trkpt lat="29.3348777" lon="105.2507746"><ele>320.24</ele><time>2026-05-01T22:42:39.000Z</time></trkpt>
        <trkpt lat="29.3348733" lon="105.2508357"><ele>320.18</ele><time>2026-05-01T22:42:45.000Z</time></trkpt>
        <trkpt lat="29.3348634" lon="105.2508882"><ele>319.97</ele><time>2026-05-01T22:42:49.000Z</time></trkpt>
        <trkpt lat="29.3348521" lon="105.250944"><ele>320.07</ele><time>2026-05-01T22:42:55.000Z</time></trkpt>
        <trkpt lat="29.3348479" lon="105.2510089"><ele>320.64</ele><time>2026-05-01T22:43:01.000Z</time></trkpt>
        <trkpt lat="29.3348326" lon="105.2510699"><ele>321.53</ele><time>2026-05-01T22:43:07.000Z</time></trkpt>
        <trkpt lat="29.3348279" lon="105.2511364"><ele>322.72</ele><time>2026-05-01T22:43:13.000Z</time></trkpt>
        <trkpt lat="29.3348199" lon="105.2511925"><ele>323.92</ele><time>2026-05-01T22:43:17.000Z</time></trkpt>
        <trkpt lat="29.3348192" lon="105.2512469"><ele>324.9</ele><time>2026-05-01T22:43:21.000Z</time></trkpt>
        <trkpt lat="29.3348124" lon="105.2513086"><ele>325.54</ele><time>2026-05-01T22:43:27.000Z</time></trkpt>
        <trkpt lat="29.3348042" lon="105.2513657"><ele>326.34</ele><time>2026-05-01T22:43:31.000Z</time></trkpt>
        <trkpt lat="29.3347968" lon="105.251421"><ele>326.97</ele><time>2026-05-01T22:43:37.000Z</time></trkpt>
        <trkpt lat="29.3347887" lon="105.2514832"><ele>327.63</ele><time>2026-05-01T22:43:41.000Z</time></trkpt>
        <trkpt lat="29.334774" lon="105.2515356"><ele>328.18</ele><time>2026-05-01T22:43:47.000Z</time></trkpt>
        <trkpt lat="29.334757" lon="105.2515954"><ele>328.79</ele><time>2026-05-01T22:43:51.000Z</time></trkpt>
        <trkpt lat="29.3347396" lon="105.2516483"><ele>329.22</ele><time>2026-05-01T22:43:55.000Z</time></trkpt>
        <trkpt lat="29.3347335" lon="105.2517035"><ele>329.51</ele><time>2026-05-01T22:43:59.000Z</time></trkpt>
        <trkpt lat="29.3347244" lon="105.2517572"><ele>329.72</ele><time>2026-05-01T22:44:03.000Z</time></trkpt>
        <trkpt lat="29.3347186" lon="105.2518117"><ele>329.93</ele><time>2026-05-01T22:44:07.000Z</time></trkpt>
        <trkpt lat="29.3347089" lon="105.2518691"><ele>329.87</ele><time>2026-05-01T22:44:11.000Z</time></trkpt>
        <trkpt lat="29.3346937" lon="105.2519363"><ele>329.67</ele><time>2026-05-01T22:44:17.000Z</time></trkpt>
        <trkpt lat="29.3346579" lon="105.2519931"><ele>329.34</ele><time>2026-05-01T22:44:23.000Z</time></trkpt>
        <trkpt lat="29.3346312" lon="105.252043"><ele>328.98</ele><time>2026-05-01T22:44:27.000Z</time></trkpt>
        <trkpt lat="29.3346079" lon="105.2520907"><ele>328.9</ele><time>2026-05-01T22:44:31.000Z</time></trkpt>
        <trkpt lat="29.3345797" lon="105.2521355"><ele>329.2</ele><time>2026-05-01T22:44:35.000Z</time></trkpt>
        <trkpt lat="29.3345597" lon="105.2521822"><ele>329.67</ele><time>2026-05-01T22:44:39.000Z</time></trkpt>
        <trkpt lat="29.3345404" lon="105.2522375"><ele>330.12</ele><time>2026-05-01T22:44:45.000Z</time></trkpt>
        <trkpt lat="29.3345147" lon="105.2523009"><ele>331.01</ele><time>2026-05-01T22:44:51.000Z</time></trkpt>
        <trkpt lat="29.3344966" lon="105.252362"><ele>332.25</ele><time>2026-05-01T22:44:55.000Z</time></trkpt>
        <trkpt lat="29.3344827" lon="105.2524177"><ele>333.01</ele><time>2026-05-01T22:44:59.000Z</time></trkpt>
        <trkpt lat="29.33447" lon="105.2524713"><ele>333.61</ele><time>2026-05-01T22:45:05.000Z</time></trkpt>
        <trkpt lat="29.3344649" lon="105.252523"><ele>334.29</ele><time>2026-05-01T22:45:09.000Z</time></trkpt>
        <trkpt lat="29.3344599" lon="105.2525804"><ele>334.68</ele><time>2026-05-01T22:45:13.000Z</time></trkpt>
        <trkpt lat="29.3344542" lon="105.2526365"><ele>335.12</ele><time>2026-05-01T22:45:19.000Z</time></trkpt>
        <trkpt lat="29.3344493" lon="105.2526893"><ele>335.8</ele><time>2026-05-01T22:45:23.000Z</time></trkpt>
        <trkpt lat="29.3344383" lon="105.2527459"><ele>336.23</ele><time>2026-05-01T22:45:27.000Z</time></trkpt>
        <trkpt lat="29.3344313" lon="105.2528003"><ele>336.65</ele><time>2026-05-01T22:45:31.000Z</time></trkpt>
        <trkpt lat="29.3344271" lon="105.2528538"><ele>337.1</ele><time>2026-05-01T22:45:37.000Z</time></trkpt>
        <trkpt lat="29.3344215" lon="105.2529133"><ele>337.75</ele><time>2026-05-01T22:45:41.000Z</time></trkpt>
        <trkpt lat="29.3344139" lon="105.2529725"><ele>338.11</ele><time>2026-05-01T22:45:45.000Z</time></trkpt>
        <trkpt lat="29.3344031" lon="105.2530276"><ele>338.45</ele><time>2026-05-01T22:45:49.000Z</time></trkpt>
        <trkpt lat="29.3343861" lon="105.2530911"><ele>338.9</ele><time>2026-05-01T22:45:55.000Z</time></trkpt>
        <trkpt lat="29.3343571" lon="105.253154"><ele>339.07</ele><time>2026-05-01T22:46:01.000Z</time></trkpt>
        <trkpt lat="29.3343179" lon="105.2532138"><ele>339</ele><time>2026-05-01T22:46:07.000Z</time></trkpt>
        <trkpt lat="29.3342772" lon="105.2532573"><ele>338.78</ele><time>2026-05-01T22:46:11.000Z</time></trkpt>
        <trkpt lat="29.3342244" lon="105.2532874"><ele>338.49</ele><time>2026-05-01T22:46:17.000Z</time></trkpt>
        <trkpt lat="29.3341765" lon="105.2533199"><ele>338.32</ele><time>2026-05-01T22:46:23.000Z</time></trkpt>
        <trkpt lat="29.3341165" lon="105.2533556"><ele>338.05</ele><time>2026-05-01T22:46:29.000Z</time></trkpt>
        <trkpt lat="29.3340661" lon="105.2533956"><ele>337.95</ele><time>2026-05-01T22:46:33.000Z</time></trkpt>
        <trkpt lat="29.3340262" lon="105.2534385"><ele>338.1</ele><time>2026-05-01T22:46:39.000Z</time></trkpt>
        <trkpt lat="29.3339851" lon="105.2534622"><ele>338.36</ele><time>2026-05-01T22:46:45.000Z</time></trkpt>
        <trkpt lat="29.3339441" lon="105.2534874"><ele>338.98</ele><time>2026-05-01T22:46:49.000Z</time></trkpt>
        <trkpt lat="29.3339004" lon="105.2535129"><ele>339.76</ele><time>2026-05-01T22:46:53.000Z</time></trkpt>
        <trkpt lat="29.3338556" lon="105.2535413"><ele>340.55</ele><time>2026-05-01T22:46:57.000Z</time></trkpt>
        <trkpt lat="29.3338142" lon="105.2535673"><ele>341.13</ele><time>2026-05-01T22:47:03.000Z</time></trkpt>
        <trkpt lat="29.3337716" lon="105.2535923"><ele>341.2</ele><time>2026-05-01T22:47:07.000Z</time></trkpt>
        <trkpt lat="29.3337247" lon="105.2536171"><ele>341.07</ele><time>2026-05-01T22:47:11.000Z</time></trkpt>
        <trkpt lat="29.3336813" lon="105.2536431"><ele>340.78</ele><time>2026-05-01T22:47:17.000Z</time></trkpt>
        <trkpt lat="29.3336406" lon="105.253671"><ele>340.19</ele><time>2026-05-01T22:47:21.000Z</time></trkpt>
        <trkpt lat="29.3335945" lon="105.2536944"><ele>339.76</ele><time>2026-05-01T22:47:25.000Z</time></trkpt>
        <trkpt lat="29.3335551" lon="105.2537224"><ele>339.61</ele><time>2026-05-01T22:47:29.000Z</time></trkpt>
        <trkpt lat="29.3335183" lon="105.253756"><ele>339.78</ele><time>2026-05-01T22:47:35.000Z</time></trkpt>
        <trkpt lat="29.3334659" lon="105.2537977"><ele>340.17</ele><time>2026-05-01T22:47:41.000Z</time></trkpt>
        <trkpt lat="29.3334176" lon="105.253827"><ele>340.62</ele><time>2026-05-01T22:47:45.000Z</time></trkpt>
        <trkpt lat="29.3333639" lon="105.2538611"><ele>341.04</ele><time>2026-05-01T22:47:51.000Z</time></trkpt>
        <trkpt lat="29.3333185" lon="105.2538936"><ele>341.54</ele><time>2026-05-01T22:47:57.000Z</time></trkpt>
        <trkpt lat="29.3332664" lon="105.2539304"><ele>341.78</ele><time>2026-05-01T22:48:03.000Z</time></trkpt>
        <trkpt lat="29.3332141" lon="105.2539588"><ele>341.87</ele><time>2026-05-01T22:48:07.000Z</time></trkpt>
        <trkpt lat="29.3331683" lon="105.2539889"><ele>341.84</ele><time>2026-05-01T22:48:11.000Z</time></trkpt>
        <trkpt lat="29.3331237" lon="105.25402"><ele>342</ele><time>2026-05-01T22:48:15.000Z</time></trkpt>
        <trkpt lat="29.3330843" lon="105.2540553"><ele>342</ele><time>2026-05-01T22:48:21.000Z</time></trkpt>
        <trkpt lat="29.333044" lon="105.2541059"><ele>341.91</ele><time>2026-05-01T22:48:27.000Z</time></trkpt>
        <trkpt lat="29.3330105" lon="105.2541706"><ele>342.17</ele><time>2026-05-01T22:48:33.000Z</time></trkpt>
        <trkpt lat="29.3329919" lon="105.2542357"><ele>342.22</ele><time>2026-05-01T22:48:39.000Z</time></trkpt>
        <trkpt lat="29.3329871" lon="105.2542998"><ele>342.3</ele><time>2026-05-01T22:48:43.000Z</time></trkpt>
        <trkpt lat="29.3329987" lon="105.2543577"><ele>342.43</ele><time>2026-05-01T22:48:47.000Z</time></trkpt>
        <trkpt lat="29.3330237" lon="105.254408"><ele>342.55</ele><time>2026-05-01T22:48:51.000Z</time></trkpt>
        <trkpt lat="29.3330446" lon="105.2544633"><ele>342.48</ele><time>2026-05-01T22:48:55.000Z</time></trkpt>
        <trkpt lat="29.3330499" lon="105.2545334"><ele>342.23</ele><time>2026-05-01T22:49:01.000Z</time></trkpt>
        <trkpt lat="29.3330676" lon="105.2545977"><ele>341.7</ele><time>2026-05-01T22:49:07.000Z</time></trkpt>
        <trkpt lat="29.3330866" lon="105.2546652"><ele>340.88</ele><time>2026-05-01T22:49:13.000Z</time></trkpt>
        <trkpt lat="29.3331045" lon="105.2547188"><ele>339.94</ele><time>2026-05-01T22:49:17.000Z</time></trkpt>
        <trkpt lat="29.3331229" lon="105.2547797"><ele>339.11</ele><time>2026-05-01T22:49:23.000Z</time></trkpt>
        <trkpt lat="29.3331289" lon="105.2548412"><ele>338.33</ele><time>2026-05-01T22:49:27.000Z</time></trkpt>
        <trkpt lat="29.333124" lon="105.2549068"><ele>338.02</ele><time>2026-05-01T22:49:31.000Z</time></trkpt>
        <trkpt lat="29.333112" lon="105.2549612"><ele>337.92</ele><time>2026-05-01T22:49:35.000Z</time></trkpt>
        <trkpt lat="29.3331071" lon="105.2550263"><ele>337.74</ele><time>2026-05-01T22:49:41.000Z</time></trkpt>
        <trkpt lat="29.3331008" lon="105.2550895"><ele>337.08</ele><time>2026-05-01T22:49:47.000Z</time></trkpt>
        <trkpt lat="29.3330926" lon="105.255153"><ele>336.74</ele><time>2026-05-01T22:49:53.000Z</time></trkpt>
        <trkpt lat="29.333069" lon="105.2552215"><ele>336.47</ele><time>2026-05-01T22:49:59.000Z</time></trkpt>
        <trkpt lat="29.3330423" lon="105.2552805"><ele>336.61</ele><time>2026-05-01T22:50:03.000Z</time></trkpt>
        <trkpt lat="29.333013" lon="105.2553345"><ele>336.91</ele><time>2026-05-01T22:50:07.000Z</time></trkpt>
        <trkpt lat="29.3329884" lon="105.2553882"><ele>336.86</ele><time>2026-05-01T22:50:11.000Z</time></trkpt>
        <trkpt lat="29.3329747" lon="105.2554411"><ele>336.75</ele><time>2026-05-01T22:50:15.000Z</time></trkpt>
        <trkpt lat="29.3329663" lon="105.2554927"><ele>336.47</ele><time>2026-05-01T22:50:19.000Z</time></trkpt>
        <trkpt lat="29.3329555" lon="105.255559"><ele>336.44</ele><time>2026-05-01T22:50:25.000Z</time></trkpt>
        <trkpt lat="29.332937" lon="105.2556296"><ele>336.55</ele><time>2026-05-01T22:50:31.000Z</time></trkpt>
        <trkpt lat="29.3329179" lon="105.2556911"><ele>335.71</ele><time>2026-05-01T22:50:35.000Z</time></trkpt>
        <trkpt lat="29.3328977" lon="105.2557473"><ele>335.19</ele><time>2026-05-01T22:50:39.000Z</time></trkpt>
        <trkpt lat="29.3328735" lon="105.2557993"><ele>335.28</ele><time>2026-05-01T22:50:45.000Z</time></trkpt>
        <trkpt lat="29.3328556" lon="105.2558651"><ele>335.89</ele><time>2026-05-01T22:50:51.000Z</time></trkpt>
        <trkpt lat="29.3328427" lon="105.255939"><ele>336.37</ele><time>2026-05-01T22:50:57.000Z</time></trkpt>
        <trkpt lat="29.3328291" lon="105.255999"><ele>336.55</ele><time>2026-05-01T22:51:01.000Z</time></trkpt>
        <trkpt lat="29.3328122" lon="105.2560544"><ele>336.49</ele><time>2026-05-01T22:51:05.000Z</time></trkpt>
        <trkpt lat="29.3327941" lon="105.2561123"><ele>336.28</ele><time>2026-05-01T22:51:09.000Z</time></trkpt>
        <trkpt lat="29.332783" lon="105.2561816"><ele>336.03</ele><time>2026-05-01T22:51:15.000Z</time></trkpt>
        <trkpt lat="29.3327697" lon="105.2562476"><ele>335.33</ele><time>2026-05-01T22:51:21.000Z</time></trkpt>
        <trkpt lat="29.332754" lon="105.2563156"><ele>334.07</ele><time>2026-05-01T22:51:27.000Z</time></trkpt>
        <trkpt lat="29.3327373" lon="105.2563692"><ele>333.57</ele><time>2026-05-01T22:51:31.000Z</time></trkpt>
        <trkpt lat="29.3327217" lon="105.2564224"><ele>333.19</ele><time>2026-05-01T22:51:35.000Z</time></trkpt>
        <trkpt lat="29.3327028" lon="105.2564748"><ele>332.81</ele><time>2026-05-01T22:51:39.000Z</time></trkpt>
        <trkpt lat="29.3326751" lon="105.2565324"><ele>332.07</ele><time>2026-05-01T22:51:43.000Z</time></trkpt>
        <trkpt lat="29.3326432" lon="105.2565909"><ele>331.35</ele><time>2026-05-01T22:51:47.000Z</time></trkpt>
        <trkpt lat="29.3326104" lon="105.2566345"><ele>330.34</ele><time>2026-05-01T22:51:51.000Z</time></trkpt>
        <trkpt lat="29.3326015" lon="105.2566876"><ele>329.25</ele><time>2026-05-01T22:51:57.000Z</time></trkpt>
        <trkpt lat="29.3325929" lon="105.2567549"><ele>328.32</ele><time>2026-05-01T22:52:03.000Z</time></trkpt>
        <trkpt lat="29.3325758" lon="105.256811"><ele>327.37</ele><time>2026-05-01T22:52:07.000Z</time></trkpt>
        <trkpt lat="29.3325588" lon="105.2568759"><ele>326.61</ele><time>2026-05-01T22:52:13.000Z</time></trkpt>
        <trkpt lat="29.3325506" lon="105.2569468"><ele>326.39</ele><time>2026-05-01T22:52:19.000Z</time></trkpt>
        <trkpt lat="29.3325383" lon="105.2570031"><ele>326.05</ele><time>2026-05-01T22:52:23.000Z</time></trkpt>
        <trkpt lat="29.3325189" lon="105.2570523"><ele>325.9</ele><time>2026-05-01T22:52:27.000Z</time></trkpt>
        <trkpt lat="29.3325008" lon="105.2570995"><ele>325.64</ele><time>2026-05-01T22:52:31.000Z</time></trkpt>
        <trkpt lat="29.3324873" lon="105.2571603"><ele>325.24</ele><time>2026-05-01T22:52:37.000Z</time></trkpt>
        <trkpt lat="29.332473" lon="105.2572178"><ele>324.62</ele><time>2026-05-01T22:52:41.000Z</time></trkpt>
        <trkpt lat="29.3324533" lon="105.2572736"><ele>324.14</ele><time>2026-05-01T22:52:45.000Z</time></trkpt>
        <trkpt lat="29.3324315" lon="105.25733"><ele>323.82</ele><time>2026-05-01T22:52:49.000Z</time></trkpt>
        <trkpt lat="29.3324131" lon="105.2573841"><ele>323.68</ele><time>2026-05-01T22:52:53.000Z</time></trkpt>
        <trkpt lat="29.3324098" lon="105.2574386"><ele>323.73</ele><time>2026-05-01T22:52:57.000Z</time></trkpt>
        <trkpt lat="29.3324071" lon="105.2575034"><ele>323.8</ele><time>2026-05-01T22:53:03.000Z</time></trkpt>
        <trkpt lat="29.3324124" lon="105.2575595"><ele>323.16</ele><time>2026-05-01T22:53:07.000Z</time></trkpt>
        <trkpt lat="29.3324215" lon="105.2576206"><ele>322.19</ele><time>2026-05-01T22:53:13.000Z</time></trkpt>
        <trkpt lat="29.3324526" lon="105.2576788"><ele>321.81</ele><time>2026-05-01T22:53:19.000Z</time></trkpt>
        <trkpt lat="29.3324923" lon="105.2577181"><ele>321.76</ele><time>2026-05-01T22:53:25.000Z</time></trkpt>
        <trkpt lat="29.3325349" lon="105.2577507"><ele>321.86</ele><time>2026-05-01T22:53:29.000Z</time></trkpt>
        <trkpt lat="29.3325674" lon="105.2577918"><ele>321.79</ele><time>2026-05-01T22:53:33.000Z</time></trkpt>
        <trkpt lat="29.3325927" lon="105.2578408"><ele>321.67</ele><time>2026-05-01T22:53:37.000Z</time></trkpt>
        <trkpt lat="29.3326168" lon="105.257889"><ele>321.25</ele><time>2026-05-01T22:53:41.000Z</time></trkpt>
        <trkpt lat="29.3326535" lon="105.2579414"><ele>320.8</ele><time>2026-05-01T22:53:47.000Z</time></trkpt>
        <trkpt lat="29.3326888" lon="105.2579952"><ele>320.5</ele><time>2026-05-01T22:53:53.000Z</time></trkpt>
        <trkpt lat="29.3327343" lon="105.2580466"><ele>320.2</ele><time>2026-05-01T22:53:59.000Z</time></trkpt>
        <trkpt lat="29.3327658" lon="105.258092"><ele>319.85</ele><time>2026-05-01T22:54:03.000Z</time></trkpt>
        <trkpt lat="29.3327928" lon="105.2581339"><ele>319.4</ele><time>2026-05-01T22:54:07.000Z</time></trkpt>
        <trkpt lat="29.3328161" lon="105.2581798"><ele>318.97</ele><time>2026-05-01T22:54:11.000Z</time></trkpt>
        <trkpt lat="29.3328334" lon="105.2582301"><ele>318.55</ele><time>2026-05-01T22:54:15.000Z</time></trkpt>
        <trkpt lat="29.3328603" lon="105.2582895"><ele>318.23</ele><time>2026-05-01T22:54:21.000Z</time></trkpt>
        <trkpt lat="29.3328838" lon="105.2583419"><ele>317.44</ele><time>2026-05-01T22:54:25.000Z</time></trkpt>
        <trkpt lat="29.332912" lon="105.2583874"><ele>316.61</ele><time>2026-05-01T22:54:29.000Z</time></trkpt>
        <trkpt lat="29.3329433" lon="105.2584279"><ele>315.96</ele><time>2026-05-01T22:54:35.000Z</time></trkpt>
        <trkpt lat="29.3329792" lon="105.2584808"><ele>315.93</ele><time>2026-05-01T22:54:41.000Z</time></trkpt>
        <trkpt lat="29.3330128" lon="105.2585349"><ele>315.83</ele><time>2026-05-01T22:54:45.000Z</time></trkpt>
        <trkpt lat="29.3330364" lon="105.2585866"><ele>315.6</ele><time>2026-05-01T22:54:49.000Z</time></trkpt>
        <trkpt lat="29.3330574" lon="105.2586495"><ele>315.3</ele><time>2026-05-01T22:54:55.000Z</time></trkpt>
        <trkpt lat="29.3330819" lon="105.2586991"><ele>314.91</ele><time>2026-05-01T22:54:59.000Z</time></trkpt>
        <trkpt lat="29.3331117" lon="105.2587381"><ele>314.52</ele><time>2026-05-01T22:55:05.000Z</time></trkpt>
        <trkpt lat="29.3331622" lon="105.2587524"><ele>314.47</ele><time>2026-05-01T22:55:11.000Z</time></trkpt>
        <trkpt lat="29.3332164" lon="105.2587522"><ele>314.35</ele><time>2026-05-01T22:55:17.000Z</time></trkpt>
        <trkpt lat="29.3332755" lon="105.2587547"><ele>313.9</ele><time>2026-05-01T22:55:23.000Z</time></trkpt>
        <trkpt lat="29.3333394" lon="105.2587624"><ele>313.21</ele><time>2026-05-01T22:55:29.000Z</time></trkpt>
        <trkpt lat="29.3333905" lon="105.2587728"><ele>312.56</ele><time>2026-05-01T22:55:33.000Z</time></trkpt>
        <trkpt lat="29.3334387" lon="105.2587756"><ele>312.02</ele><time>2026-05-01T22:55:39.000Z</time></trkpt>
        <trkpt lat="29.3334976" lon="105.2587818"><ele>311.71</ele><time>2026-05-01T22:55:45.000Z</time></trkpt>
        <trkpt lat="29.3335719" lon="105.258797"><ele>311.58</ele><time>2026-05-01T22:55:51.000Z</time></trkpt>
        <trkpt lat="29.3336352" lon="105.2588006"><ele>311.24</ele><time>2026-05-01T22:55:57.000Z</time></trkpt>
        <trkpt lat="29.3336947" lon="105.258807"><ele>310.97</ele><time>2026-05-01T22:56:03.000Z</time></trkpt>
        <trkpt lat="29.3337554" lon="105.2588222"><ele>311.07</ele><time>2026-05-01T22:56:07.000Z</time></trkpt>
        <trkpt lat="29.3338041" lon="105.2588245"><ele>311.38</ele><time>2026-05-01T22:56:11.000Z</time></trkpt>
        <trkpt lat="29.3338649" lon="105.2588303"><ele>311.86</ele><time>2026-05-01T22:56:19.000Z</time></trkpt>
        <trkpt lat="29.3339194" lon="105.2588342"><ele>312.44</ele><time>2026-05-01T22:56:25.000Z</time></trkpt>
        <trkpt lat="29.3339652" lon="105.2588473"><ele>312.85</ele><time>2026-05-01T22:56:29.000Z</time></trkpt>
        <trkpt lat="29.3340129" lon="105.2588541"><ele>313.26</ele><time>2026-05-01T22:56:35.000Z</time></trkpt>
        <trkpt lat="29.3340619" lon="105.258868"><ele>313.71</ele><time>2026-05-01T22:56:39.000Z</time></trkpt>
        <trkpt lat="29.3341203" lon="105.2588747"><ele>314.22</ele><time>2026-05-01T22:56:45.000Z</time></trkpt>
        <trkpt lat="29.3341735" lon="105.2588809"><ele>315.07</ele><time>2026-05-01T22:56:51.000Z</time></trkpt>
        <trkpt lat="29.334238" lon="105.2588871"><ele>315.77</ele><time>2026-05-01T22:56:57.000Z</time></trkpt>
        <trkpt lat="29.3342929" lon="105.258901"><ele>316.64</ele><time>2026-05-01T22:57:01.000Z</time></trkpt>
        <trkpt lat="29.3343399" lon="105.2589066"><ele>317.61</ele><time>2026-05-01T22:57:05.000Z</time></trkpt>
        <trkpt lat="29.3343905" lon="105.2589149"><ele>317.95</ele><time>2026-05-01T22:57:11.000Z</time></trkpt>
        <trkpt lat="29.3344393" lon="105.2589583"><ele>318.62</ele><time>2026-05-01T22:57:17.000Z</time></trkpt>
        <trkpt lat="29.3344911" lon="105.2589983"><ele>319.64</ele><time>2026-05-01T22:57:25.000Z</time></trkpt>
        <trkpt lat="29.3345393" lon="105.2590175"><ele>319.88</ele><time>2026-05-01T22:57:29.000Z</time></trkpt>
        <trkpt lat="29.3345847" lon="105.2590271"><ele>319.89</ele><time>2026-05-01T22:57:33.000Z</time></trkpt>
        <trkpt lat="29.3346331" lon="105.2590539"><ele>319.85</ele><time>2026-05-01T22:57:39.000Z</time></trkpt>
        <trkpt lat="29.3346815" lon="105.2590828"><ele>319.44</ele><time>2026-05-01T22:57:43.000Z</time></trkpt>
        <trkpt lat="29.3347337" lon="105.259097"><ele>319.47</ele><time>2026-05-01T22:57:47.000Z</time></trkpt>
        <trkpt lat="29.3347822" lon="105.2591005"><ele>319.31</ele><time>2026-05-01T22:57:51.000Z</time></trkpt>
        <trkpt lat="29.3348379" lon="105.259112"><ele>318.96</ele><time>2026-05-01T22:57:57.000Z</time></trkpt>
        <trkpt lat="29.3349013" lon="105.2591322"><ele>318.68</ele><time>2026-05-01T22:58:03.000Z</time></trkpt>
        <trkpt lat="29.3349522" lon="105.259147"><ele>318.13</ele><time>2026-05-01T22:58:07.000Z</time></trkpt>
        <trkpt lat="29.3350054" lon="105.2591543"><ele>317.51</ele><time>2026-05-01T22:58:13.000Z</time></trkpt>
        <trkpt lat="29.3350686" lon="105.2591652"><ele>317.03</ele><time>2026-05-01T22:58:19.000Z</time></trkpt>
        <trkpt lat="29.3351267" lon="105.2591741"><ele>316.59</ele><time>2026-05-01T22:58:23.000Z</time></trkpt>
        <trkpt lat="29.3351825" lon="105.2591836"><ele>316.21</ele><time>2026-05-01T22:58:27.000Z</time></trkpt>
        <trkpt lat="29.3352324" lon="105.2591971"><ele>315.64</ele><time>2026-05-01T22:58:31.000Z</time></trkpt>
        <trkpt lat="29.335289" lon="105.2592159"><ele>314.89</ele><time>2026-05-01T22:58:39.000Z</time></trkpt>
        <trkpt lat="29.3353373" lon="105.2592302"><ele>314.34</ele><time>2026-05-01T22:58:43.000Z</time></trkpt>
        <trkpt lat="29.335391" lon="105.2592412"><ele>313.72</ele><time>2026-05-01T22:58:47.000Z</time></trkpt>
        <trkpt lat="29.3354397" lon="105.259261"><ele>312.98</ele><time>2026-05-01T22:58:51.000Z</time></trkpt>
        <trkpt lat="29.3354839" lon="105.2592831"><ele>312.26</ele><time>2026-05-01T22:58:55.000Z</time></trkpt>
        <trkpt lat="29.3355329" lon="105.259318"><ele>311.97</ele><time>2026-05-01T22:59:01.000Z</time></trkpt>
        <trkpt lat="29.3355778" lon="105.2593411"><ele>311.81</ele><time>2026-05-01T22:59:05.000Z</time></trkpt>
        <trkpt lat="29.3356299" lon="105.259369"><ele>311.59</ele><time>2026-05-01T22:59:11.000Z</time></trkpt>
        <trkpt lat="29.3356723" lon="105.2594063"><ele>311.55</ele><time>2026-05-01T22:59:17.000Z</time></trkpt>
        <trkpt lat="29.3357208" lon="105.259437"><ele>311.75</ele><time>2026-05-01T22:59:23.000Z</time></trkpt>
        <trkpt lat="29.3357733" lon="105.2594708"><ele>311.64</ele><time>2026-05-01T22:59:29.000Z</time></trkpt>
        <trkpt lat="29.335827" lon="105.2594983"><ele>311.45</ele><time>2026-05-01T22:59:35.000Z</time></trkpt>
        <trkpt lat="29.3358721" lon="105.2595233"><ele>311.47</ele><time>2026-05-01T22:59:39.000Z</time></trkpt>
        <trkpt lat="29.3359139" lon="105.2595503"><ele>311.31</ele><time>2026-05-01T22:59:43.000Z</time></trkpt>
        <trkpt lat="29.3359573" lon="105.2595857"><ele>310.79</ele><time>2026-05-01T22:59:49.000Z</time></trkpt>
        <trkpt lat="29.3359979" lon="105.2596154"><ele>309.76</ele><time>2026-05-01T22:59:53.000Z</time></trkpt>
        <trkpt lat="29.3360489" lon="105.2596477"><ele>309</ele><time>2026-05-01T22:59:57.000Z</time></trkpt>
        <trkpt lat="29.3361001" lon="105.2596823"><ele>308.4</ele><time>2026-05-01T23:00:01.000Z</time></trkpt>
        <trkpt lat="29.336151" lon="105.2597113"><ele>308.1</ele><time>2026-05-01T23:00:05.000Z</time></trkpt>
        <trkpt lat="29.3361964" lon="105.2597456"><ele>308.14</ele><time>2026-05-01T23:00:11.000Z</time></trkpt>
        <trkpt lat="29.3362423" lon="105.2597846"><ele>308.68</ele><time>2026-05-01T23:00:19.000Z</time></trkpt>
        <trkpt lat="29.3362672" lon="105.2598338"><ele>308.95</ele><time>2026-05-01T23:00:25.000Z</time></trkpt>
        <trkpt lat="29.3362709" lon="105.259894"><ele>309.1</ele><time>2026-05-01T23:00:29.000Z</time></trkpt>
        <trkpt lat="29.3362767" lon="105.2599574"><ele>309.44</ele><time>2026-05-01T23:00:33.000Z</time></trkpt>
        <trkpt lat="29.3362914" lon="105.2600223"><ele>309.68</ele><time>2026-05-01T23:00:39.000Z</time></trkpt>
        <trkpt lat="29.3362914" lon="105.2600957"><ele>309.56</ele><time>2026-05-01T23:00:47.000Z</time></trkpt>
        <trkpt lat="29.336291" lon="105.2601543"><ele>309.49</ele><time>2026-05-01T23:00:51.000Z</time></trkpt>
        <trkpt lat="29.3363225" lon="105.2602018"><ele>309.62</ele><time>2026-05-01T23:00:57.000Z</time></trkpt>
        <trkpt lat="29.3363787" lon="105.260208"><ele>309.87</ele><time>2026-05-01T23:01:03.000Z</time></trkpt>
        <trkpt lat="29.3364435" lon="105.2602088"><ele>309.88</ele><time>2026-05-01T23:01:09.000Z</time></trkpt>
        <trkpt lat="29.3365007" lon="105.2602016"><ele>309.76</ele><time>2026-05-01T23:01:15.000Z</time></trkpt>
        <trkpt lat="29.3365007" lon="105.2602016"><ele>309.76</ele><time>2026-05-01T23:01:30.000Z</time></trkpt>
      </trkseg>
  </trk>
</gpx>